<?xml version="1.0" encoding="UTF-8" standalone="no" ?>
<gpx xmlns="http://www.topografix.com/GPX/1/1" xmlns:xsi="http://www.w3.org/2001/XMLSchema-instance" xsi:schemaLocation="http://www.topografix.com/GPX/1/1 http://www.topografix.com/GPX/1/1/gpx.xsd" version="1.1" creator="VisuGPX - https://www.visugpx.com">
  <metadata>
    <name>Rando &amp;quot;La Polaire 2019&amp;quot; 43km</name>
    <desc><![CDATA[Randonnée La Polaire Dourdan 24-11-2019]]></desc>
  </metadata>
  <trk>
    <name><![CDATA[2019-11-24 08:54]]></name>
    <trkseg>
      <trkpt lat="48.53416" lon="1.99426">
        <ele>110</ele>
        <time>2019-11-24T07:57:18Z</time>
      </trkpt>
      <trkpt lat="48.53416" lon="1.99433">
        <ele>109</ele>
        <time>2019-11-24T07:57:30Z</time>
      </trkpt>
      <trkpt lat="48.53419" lon="1.99427">
        <ele>110</ele>
        <time>2019-11-24T07:59:54Z</time>
      </trkpt>
      <trkpt lat="48.53424" lon="1.99425">
        <ele>110</ele>
        <time>2019-11-24T08:00:02Z</time>
      </trkpt>
      <trkpt lat="48.5343" lon="1.99431">
        <ele>111</ele>
        <time>2019-11-24T08:00:08Z</time>
      </trkpt>
      <trkpt lat="48.53436" lon="1.99434">
        <ele>111</ele>
        <time>2019-11-24T08:01:42Z</time>
      </trkpt>
      <trkpt lat="48.53441" lon="1.99435">
        <ele>111</ele>
        <time>2019-11-24T08:01:44Z</time>
      </trkpt>
      <trkpt lat="48.53447" lon="1.99436">
        <ele>111</ele>
        <time>2019-11-24T08:01:46Z</time>
      </trkpt>
      <trkpt lat="48.53454" lon="1.99437">
        <ele>111</ele>
        <time>2019-11-24T08:01:48Z</time>
      </trkpt>
      <trkpt lat="48.5346" lon="1.99436">
        <ele>111</ele>
        <time>2019-11-24T08:01:50Z</time>
      </trkpt>
      <trkpt lat="48.53465" lon="1.99436">
        <ele>111</ele>
        <time>2019-11-24T08:01:52Z</time>
      </trkpt>
      <trkpt lat="48.53468" lon="1.99447">
        <ele>111</ele>
        <time>2019-11-24T08:01:56Z</time>
      </trkpt>
      <trkpt lat="48.53461" lon="1.99457">
        <ele>111</ele>
        <time>2019-11-24T08:02:00Z</time>
      </trkpt>
      <trkpt lat="48.53455" lon="1.99465">
        <ele>111</ele>
        <time>2019-11-24T08:02:02Z</time>
      </trkpt>
      <trkpt lat="48.53454" lon="1.9948">
        <ele>111</ele>
        <time>2019-11-24T08:02:04Z</time>
      </trkpt>
      <trkpt lat="48.53456" lon="1.99492">
        <ele>111</ele>
        <time>2019-11-24T08:02:06Z</time>
      </trkpt>
      <trkpt lat="48.53459" lon="1.99502">
        <ele>111</ele>
        <time>2019-11-24T08:02:08Z</time>
      </trkpt>
      <trkpt lat="48.53461" lon="1.99511">
        <ele>111</ele>
        <time>2019-11-24T08:02:10Z</time>
      </trkpt>
      <trkpt lat="48.53462" lon="1.99521">
        <ele>111</ele>
        <time>2019-11-24T08:02:12Z</time>
      </trkpt>
      <trkpt lat="48.53461" lon="1.99531">
        <ele>111</ele>
        <time>2019-11-24T08:02:14Z</time>
      </trkpt>
      <trkpt lat="48.5346" lon="1.99542">
        <ele>111</ele>
        <time>2019-11-24T08:02:16Z</time>
      </trkpt>
      <trkpt lat="48.5346" lon="1.99554">
        <ele>111</ele>
        <time>2019-11-24T08:02:18Z</time>
      </trkpt>
      <trkpt lat="48.5346" lon="1.99566">
        <ele>111</ele>
        <time>2019-11-24T08:02:20Z</time>
      </trkpt>
      <trkpt lat="48.5346" lon="1.99577">
        <ele>111</ele>
        <time>2019-11-24T08:02:22Z</time>
      </trkpt>
      <trkpt lat="48.5346" lon="1.99589">
        <ele>111</ele>
        <time>2019-11-24T08:02:24Z</time>
      </trkpt>
      <trkpt lat="48.53459" lon="1.99603">
        <ele>111</ele>
        <time>2019-11-24T08:02:26Z</time>
      </trkpt>
      <trkpt lat="48.53459" lon="1.99617">
        <ele>111</ele>
        <time>2019-11-24T08:02:28Z</time>
      </trkpt>
      <trkpt lat="48.53459" lon="1.99632">
        <ele>111</ele>
        <time>2019-11-24T08:02:30Z</time>
      </trkpt>
      <trkpt lat="48.53459" lon="1.99647">
        <ele>111</ele>
        <time>2019-11-24T08:02:32Z</time>
      </trkpt>
      <trkpt lat="48.53457" lon="1.9966">
        <ele>110</ele>
        <time>2019-11-24T08:02:34Z</time>
      </trkpt>
      <trkpt lat="48.53453" lon="1.99673">
        <ele>110</ele>
        <time>2019-11-24T08:02:36Z</time>
      </trkpt>
      <trkpt lat="48.53452" lon="1.99687">
        <ele>110</ele>
        <time>2019-11-24T08:02:38Z</time>
      </trkpt>
      <trkpt lat="48.53451" lon="1.99703">
        <ele>110</ele>
        <time>2019-11-24T08:02:40Z</time>
      </trkpt>
      <trkpt lat="48.53452" lon="1.99717">
        <ele>110</ele>
        <time>2019-11-24T08:02:42Z</time>
      </trkpt>
      <trkpt lat="48.53454" lon="1.99732">
        <ele>110</ele>
        <time>2019-11-24T08:02:44Z</time>
      </trkpt>
      <trkpt lat="48.53455" lon="1.99745">
        <ele>110</ele>
        <time>2019-11-24T08:02:46Z</time>
      </trkpt>
      <trkpt lat="48.53458" lon="1.99757">
        <ele>110</ele>
        <time>2019-11-24T08:02:48Z</time>
      </trkpt>
      <trkpt lat="48.5346" lon="1.99768">
        <ele>111</ele>
        <time>2019-11-24T08:02:50Z</time>
      </trkpt>
      <trkpt lat="48.5346" lon="1.99781">
        <ele>111</ele>
        <time>2019-11-24T08:02:52Z</time>
      </trkpt>
      <trkpt lat="48.5346" lon="1.99794">
        <ele>111</ele>
        <time>2019-11-24T08:02:54Z</time>
      </trkpt>
      <trkpt lat="48.5346" lon="1.99809">
        <ele>111</ele>
        <time>2019-11-24T08:02:56Z</time>
      </trkpt>
      <trkpt lat="48.5346" lon="1.99824">
        <ele>111</ele>
        <time>2019-11-24T08:02:58Z</time>
      </trkpt>
      <trkpt lat="48.53459" lon="1.99839">
        <ele>111</ele>
        <time>2019-11-24T08:03:00Z</time>
      </trkpt>
      <trkpt lat="48.5346" lon="1.99856">
        <ele>111</ele>
        <time>2019-11-24T08:03:02Z</time>
      </trkpt>
      <trkpt lat="48.5346" lon="1.99872">
        <ele>111</ele>
        <time>2019-11-24T08:03:04Z</time>
      </trkpt>
      <trkpt lat="48.53459" lon="1.99889">
        <ele>111</ele>
        <time>2019-11-24T08:03:06Z</time>
      </trkpt>
      <trkpt lat="48.53459" lon="1.99906">
        <ele>111</ele>
        <time>2019-11-24T08:03:08Z</time>
      </trkpt>
      <trkpt lat="48.53459" lon="1.99922">
        <ele>111</ele>
        <time>2019-11-24T08:03:10Z</time>
      </trkpt>
      <trkpt lat="48.53458" lon="1.99939">
        <ele>111</ele>
        <time>2019-11-24T08:03:12Z</time>
      </trkpt>
      <trkpt lat="48.53458" lon="1.99955">
        <ele>110</ele>
        <time>2019-11-24T08:03:14Z</time>
      </trkpt>
      <trkpt lat="48.53458" lon="1.99972">
        <ele>110</ele>
        <time>2019-11-24T08:03:16Z</time>
      </trkpt>
      <trkpt lat="48.53457" lon="1.99988">
        <ele>110</ele>
        <time>2019-11-24T08:03:18Z</time>
      </trkpt>
      <trkpt lat="48.53457" lon="2.00006">
        <ele>110</ele>
        <time>2019-11-24T08:03:20Z</time>
      </trkpt>
      <trkpt lat="48.53456" lon="2.00023">
        <ele>110</ele>
        <time>2019-11-24T08:03:22Z</time>
      </trkpt>
      <trkpt lat="48.53454" lon="2.0004">
        <ele>110</ele>
        <time>2019-11-24T08:03:24Z</time>
      </trkpt>
      <trkpt lat="48.53454" lon="2.00056">
        <ele>110</ele>
        <time>2019-11-24T08:03:26Z</time>
      </trkpt>
      <trkpt lat="48.53454" lon="2.00072">
        <ele>110</ele>
        <time>2019-11-24T08:03:28Z</time>
      </trkpt>
      <trkpt lat="48.53453" lon="2.00088">
        <ele>109</ele>
        <time>2019-11-24T08:03:30Z</time>
      </trkpt>
      <trkpt lat="48.53452" lon="2.00104">
        <ele>109</ele>
        <time>2019-11-24T08:03:32Z</time>
      </trkpt>
      <trkpt lat="48.53451" lon="2.00119">
        <ele>109</ele>
        <time>2019-11-24T08:03:34Z</time>
      </trkpt>
      <trkpt lat="48.53451" lon="2.00133">
        <ele>109</ele>
        <time>2019-11-24T08:03:36Z</time>
      </trkpt>
      <trkpt lat="48.53449" lon="2.00145">
        <ele>109</ele>
        <time>2019-11-24T08:03:38Z</time>
      </trkpt>
      <trkpt lat="48.53442" lon="2.00154">
        <ele>108</ele>
        <time>2019-11-24T08:03:40Z</time>
      </trkpt>
      <trkpt lat="48.53432" lon="2.00155">
        <ele>108</ele>
        <time>2019-11-24T08:03:42Z</time>
      </trkpt>
      <trkpt lat="48.5342" lon="2.00155">
        <ele>107</ele>
        <time>2019-11-24T08:03:44Z</time>
      </trkpt>
      <trkpt lat="48.53408" lon="2.00154">
        <ele>105</ele>
        <time>2019-11-24T08:03:46Z</time>
      </trkpt>
      <trkpt lat="48.53396" lon="2.00151">
        <ele>104</ele>
        <time>2019-11-24T08:03:48Z</time>
      </trkpt>
      <trkpt lat="48.53383" lon="2.00149">
        <ele>104</ele>
        <time>2019-11-24T08:03:50Z</time>
      </trkpt>
      <trkpt lat="48.53368" lon="2.00146">
        <ele>103</ele>
        <time>2019-11-24T08:03:52Z</time>
      </trkpt>
      <trkpt lat="48.53354" lon="2.00143">
        <ele>102</ele>
        <time>2019-11-24T08:03:54Z</time>
      </trkpt>
      <trkpt lat="48.53344" lon="2.00143">
        <ele>102</ele>
        <time>2019-11-24T08:03:56Z</time>
      </trkpt>
      <trkpt lat="48.53335" lon="2.00143">
        <ele>102</ele>
        <time>2019-11-24T08:03:58Z</time>
      </trkpt>
      <trkpt lat="48.53327" lon="2.00141">
        <ele>100</ele>
        <time>2019-11-24T08:04:00Z</time>
      </trkpt>
      <trkpt lat="48.53321" lon="2.00141">
        <ele>100</ele>
        <time>2019-11-24T08:04:02Z</time>
      </trkpt>
      <trkpt lat="48.53316" lon="2.00141">
        <ele>100</ele>
        <time>2019-11-24T08:04:04Z</time>
      </trkpt>
      <trkpt lat="48.53308" lon="2.00145">
        <ele>100</ele>
        <time>2019-11-24T08:04:08Z</time>
      </trkpt>
      <trkpt lat="48.53308" lon="2.00154">
        <ele>100</ele>
        <time>2019-11-24T08:04:10Z</time>
      </trkpt>
      <trkpt lat="48.53304" lon="2.00159">
        <ele>100</ele>
        <time>2019-11-24T08:04:12Z</time>
      </trkpt>
      <trkpt lat="48.53297" lon="2.00159">
        <ele>100</ele>
        <time>2019-11-24T08:04:14Z</time>
      </trkpt>
      <trkpt lat="48.53286" lon="2.00157">
        <ele>99</ele>
        <time>2019-11-24T08:04:16Z</time>
      </trkpt>
      <trkpt lat="48.53275" lon="2.00157">
        <ele>99</ele>
        <time>2019-11-24T08:04:18Z</time>
      </trkpt>
      <trkpt lat="48.53265" lon="2.00154">
        <ele>99</ele>
        <time>2019-11-24T08:04:20Z</time>
      </trkpt>
      <trkpt lat="48.53259" lon="2.00155">
        <ele>98</ele>
        <time>2019-11-24T08:04:22Z</time>
      </trkpt>
      <trkpt lat="48.53256" lon="2.00161">
        <ele>98</ele>
        <time>2019-11-24T08:04:24Z</time>
      </trkpt>
      <trkpt lat="48.53261" lon="2.0017">
        <ele>97</ele>
        <time>2019-11-24T08:04:28Z</time>
      </trkpt>
      <trkpt lat="48.53263" lon="2.00183">
        <ele>98</ele>
        <time>2019-11-24T08:04:30Z</time>
      </trkpt>
      <trkpt lat="48.53263" lon="2.00197">
        <ele>98</ele>
        <time>2019-11-24T08:04:32Z</time>
      </trkpt>
      <trkpt lat="48.53264" lon="2.00212">
        <ele>98</ele>
        <time>2019-11-24T08:04:34Z</time>
      </trkpt>
      <trkpt lat="48.53264" lon="2.00226">
        <ele>97</ele>
        <time>2019-11-24T08:04:36Z</time>
      </trkpt>
      <trkpt lat="48.53264" lon="2.00242">
        <ele>97</ele>
        <time>2019-11-24T08:04:38Z</time>
      </trkpt>
      <trkpt lat="48.53264" lon="2.00256">
        <ele>97</ele>
        <time>2019-11-24T08:04:40Z</time>
      </trkpt>
      <trkpt lat="48.53261" lon="2.00271">
        <ele>97</ele>
        <time>2019-11-24T08:04:42Z</time>
      </trkpt>
      <trkpt lat="48.53257" lon="2.00285">
        <ele>98</ele>
        <time>2019-11-24T08:04:44Z</time>
      </trkpt>
      <trkpt lat="48.53256" lon="2.00301">
        <ele>98</ele>
        <time>2019-11-24T08:04:46Z</time>
      </trkpt>
      <trkpt lat="48.53257" lon="2.00315">
        <ele>97</ele>
        <time>2019-11-24T08:04:48Z</time>
      </trkpt>
      <trkpt lat="48.53257" lon="2.00329">
        <ele>97</ele>
        <time>2019-11-24T08:04:50Z</time>
      </trkpt>
      <trkpt lat="48.53254" lon="2.00343">
        <ele>97</ele>
        <time>2019-11-24T08:04:52Z</time>
      </trkpt>
      <trkpt lat="48.53252" lon="2.00356">
        <ele>98</ele>
        <time>2019-11-24T08:04:54Z</time>
      </trkpt>
      <trkpt lat="48.53249" lon="2.00368">
        <ele>95</ele>
        <time>2019-11-24T08:04:56Z</time>
      </trkpt>
      <trkpt lat="48.53246" lon="2.00381">
        <ele>95</ele>
        <time>2019-11-24T08:04:58Z</time>
      </trkpt>
      <trkpt lat="48.53243" lon="2.00394">
        <ele>96</ele>
        <time>2019-11-24T08:05:00Z</time>
      </trkpt>
      <trkpt lat="48.53241" lon="2.00408">
        <ele>96</ele>
        <time>2019-11-24T08:05:02Z</time>
      </trkpt>
      <trkpt lat="48.53238" lon="2.00422">
        <ele>96</ele>
        <time>2019-11-24T08:05:04Z</time>
      </trkpt>
      <trkpt lat="48.53235" lon="2.00434">
        <ele>96</ele>
        <time>2019-11-24T08:05:06Z</time>
      </trkpt>
      <trkpt lat="48.53232" lon="2.00447">
        <ele>96</ele>
        <time>2019-11-24T08:05:08Z</time>
      </trkpt>
      <trkpt lat="48.53231" lon="2.00461">
        <ele>96</ele>
        <time>2019-11-24T08:05:10Z</time>
      </trkpt>
      <trkpt lat="48.53229" lon="2.00476">
        <ele>96</ele>
        <time>2019-11-24T08:05:12Z</time>
      </trkpt>
      <trkpt lat="48.53227" lon="2.0049">
        <ele>96</ele>
        <time>2019-11-24T08:05:14Z</time>
      </trkpt>
      <trkpt lat="48.53223" lon="2.00504">
        <ele>97</ele>
        <time>2019-11-24T08:05:16Z</time>
      </trkpt>
      <trkpt lat="48.53219" lon="2.00517">
        <ele>96</ele>
        <time>2019-11-24T08:05:18Z</time>
      </trkpt>
      <trkpt lat="48.53216" lon="2.0053">
        <ele>96</ele>
        <time>2019-11-24T08:05:20Z</time>
      </trkpt>
      <trkpt lat="48.53213" lon="2.00542">
        <ele>96</ele>
        <time>2019-11-24T08:05:22Z</time>
      </trkpt>
      <trkpt lat="48.53211" lon="2.00556">
        <ele>96</ele>
        <time>2019-11-24T08:05:24Z</time>
      </trkpt>
      <trkpt lat="48.53209" lon="2.00568">
        <ele>96</ele>
        <time>2019-11-24T08:05:26Z</time>
      </trkpt>
      <trkpt lat="48.53205" lon="2.0058">
        <ele>96</ele>
        <time>2019-11-24T08:05:28Z</time>
      </trkpt>
      <trkpt lat="48.532" lon="2.0059">
        <ele>97</ele>
        <time>2019-11-24T08:05:30Z</time>
      </trkpt>
      <trkpt lat="48.53193" lon="2.00601">
        <ele>97</ele>
        <time>2019-11-24T08:05:32Z</time>
      </trkpt>
      <trkpt lat="48.53188" lon="2.00613">
        <ele>97</ele>
        <time>2019-11-24T08:05:34Z</time>
      </trkpt>
      <trkpt lat="48.53182" lon="2.00623">
        <ele>97</ele>
        <time>2019-11-24T08:05:36Z</time>
      </trkpt>
      <trkpt lat="48.53177" lon="2.00633">
        <ele>97</ele>
        <time>2019-11-24T08:05:38Z</time>
      </trkpt>
      <trkpt lat="48.53172" lon="2.00643">
        <ele>97</ele>
        <time>2019-11-24T08:05:40Z</time>
      </trkpt>
      <trkpt lat="48.53165" lon="2.00653">
        <ele>96</ele>
        <time>2019-11-24T08:05:42Z</time>
      </trkpt>
      <trkpt lat="48.53159" lon="2.00664">
        <ele>96</ele>
        <time>2019-11-24T08:05:44Z</time>
      </trkpt>
      <trkpt lat="48.53153" lon="2.00675">
        <ele>98</ele>
        <time>2019-11-24T08:05:46Z</time>
      </trkpt>
      <trkpt lat="48.53148" lon="2.00685">
        <ele>98</ele>
        <time>2019-11-24T08:05:48Z</time>
      </trkpt>
      <trkpt lat="48.53141" lon="2.00692">
        <ele>99</ele>
        <time>2019-11-24T08:05:50Z</time>
      </trkpt>
      <trkpt lat="48.53135" lon="2.00699">
        <ele>99</ele>
        <time>2019-11-24T08:05:52Z</time>
      </trkpt>
      <trkpt lat="48.53131" lon="2.00706">
        <ele>99</ele>
        <time>2019-11-24T08:05:54Z</time>
      </trkpt>
      <trkpt lat="48.53129" lon="2.00713">
        <ele>100</ele>
        <time>2019-11-24T08:05:56Z</time>
      </trkpt>
      <trkpt lat="48.53125" lon="2.0072">
        <ele>100</ele>
        <time>2019-11-24T08:05:58Z</time>
      </trkpt>
      <trkpt lat="48.53118" lon="2.00726">
        <ele>100</ele>
        <time>2019-11-24T08:06:00Z</time>
      </trkpt>
      <trkpt lat="48.53111" lon="2.00733">
        <ele>100</ele>
        <time>2019-11-24T08:06:02Z</time>
      </trkpt>
      <trkpt lat="48.53105" lon="2.00741">
        <ele>101</ele>
        <time>2019-11-24T08:06:04Z</time>
      </trkpt>
      <trkpt lat="48.53098" lon="2.00748">
        <ele>101</ele>
        <time>2019-11-24T08:06:06Z</time>
      </trkpt>
      <trkpt lat="48.5309" lon="2.00755">
        <ele>103</ele>
        <time>2019-11-24T08:06:08Z</time>
      </trkpt>
      <trkpt lat="48.5308" lon="2.00763">
        <ele>102</ele>
        <time>2019-11-24T08:06:10Z</time>
      </trkpt>
      <trkpt lat="48.53073" lon="2.00772">
        <ele>102</ele>
        <time>2019-11-24T08:06:12Z</time>
      </trkpt>
      <trkpt lat="48.53064" lon="2.00779">
        <ele>102</ele>
        <time>2019-11-24T08:06:14Z</time>
      </trkpt>
      <trkpt lat="48.53055" lon="2.00787">
        <ele>102</ele>
        <time>2019-11-24T08:06:16Z</time>
      </trkpt>
      <trkpt lat="48.53049" lon="2.00793">
        <ele>102</ele>
        <time>2019-11-24T08:06:18Z</time>
      </trkpt>
      <trkpt lat="48.5304" lon="2.00789">
        <ele>101</ele>
        <time>2019-11-24T08:06:22Z</time>
      </trkpt>
      <trkpt lat="48.53034" lon="2.00783">
        <ele>101</ele>
        <time>2019-11-24T08:06:24Z</time>
      </trkpt>
      <trkpt lat="48.53027" lon="2.00782">
        <ele>101</ele>
        <time>2019-11-24T08:06:26Z</time>
      </trkpt>
      <trkpt lat="48.53018" lon="2.00787">
        <ele>100</ele>
        <time>2019-11-24T08:06:28Z</time>
      </trkpt>
      <trkpt lat="48.5301" lon="2.00796">
        <ele>100</ele>
        <time>2019-11-24T08:06:30Z</time>
      </trkpt>
      <trkpt lat="48.53002" lon="2.00808">
        <ele>100</ele>
        <time>2019-11-24T08:06:32Z</time>
      </trkpt>
      <trkpt lat="48.52995" lon="2.00821">
        <ele>98</ele>
        <time>2019-11-24T08:06:34Z</time>
      </trkpt>
      <trkpt lat="48.52987" lon="2.00834">
        <ele>98</ele>
        <time>2019-11-24T08:06:36Z</time>
      </trkpt>
      <trkpt lat="48.52979" lon="2.00847">
        <ele>98</ele>
        <time>2019-11-24T08:06:38Z</time>
      </trkpt>
      <trkpt lat="48.52972" lon="2.0086">
        <ele>98</ele>
        <time>2019-11-24T08:06:40Z</time>
      </trkpt>
      <trkpt lat="48.52964" lon="2.00873">
        <ele>98</ele>
        <time>2019-11-24T08:06:42Z</time>
      </trkpt>
      <trkpt lat="48.52958" lon="2.00888">
        <ele>98</ele>
        <time>2019-11-24T08:06:44Z</time>
      </trkpt>
      <trkpt lat="48.52951" lon="2.00903">
        <ele>98</ele>
        <time>2019-11-24T08:06:46Z</time>
      </trkpt>
      <trkpt lat="48.52945" lon="2.00917">
        <ele>99</ele>
        <time>2019-11-24T08:06:48Z</time>
      </trkpt>
      <trkpt lat="48.5294" lon="2.00925">
        <ele>99</ele>
        <time>2019-11-24T08:06:50Z</time>
      </trkpt>
      <trkpt lat="48.52934" lon="2.0092">
        <ele>98</ele>
        <time>2019-11-24T08:06:52Z</time>
      </trkpt>
      <trkpt lat="48.52927" lon="2.0091">
        <ele>97</ele>
        <time>2019-11-24T08:06:54Z</time>
      </trkpt>
      <trkpt lat="48.52919" lon="2.00897">
        <ele>97</ele>
        <time>2019-11-24T08:06:56Z</time>
      </trkpt>
      <trkpt lat="48.52911" lon="2.00885">
        <ele>95</ele>
        <time>2019-11-24T08:06:58Z</time>
      </trkpt>
      <trkpt lat="48.52903" lon="2.00872">
        <ele>95</ele>
        <time>2019-11-24T08:07:00Z</time>
      </trkpt>
      <trkpt lat="48.52896" lon="2.00859">
        <ele>95</ele>
        <time>2019-11-24T08:07:02Z</time>
      </trkpt>
      <trkpt lat="48.52889" lon="2.00848">
        <ele>95</ele>
        <time>2019-11-24T08:07:04Z</time>
      </trkpt>
      <trkpt lat="48.52881" lon="2.00836">
        <ele>95</ele>
        <time>2019-11-24T08:07:06Z</time>
      </trkpt>
      <trkpt lat="48.52871" lon="2.00825">
        <ele>95</ele>
        <time>2019-11-24T08:07:08Z</time>
      </trkpt>
      <trkpt lat="48.52862" lon="2.00814">
        <ele>96</ele>
        <time>2019-11-24T08:07:10Z</time>
      </trkpt>
      <trkpt lat="48.52852" lon="2.00805">
        <ele>96</ele>
        <time>2019-11-24T08:07:12Z</time>
      </trkpt>
      <trkpt lat="48.52842" lon="2.00798">
        <ele>96</ele>
        <time>2019-11-24T08:07:14Z</time>
      </trkpt>
      <trkpt lat="48.52831" lon="2.0079">
        <ele>96</ele>
        <time>2019-11-24T08:07:16Z</time>
      </trkpt>
      <trkpt lat="48.5282" lon="2.00782">
        <ele>96</ele>
        <time>2019-11-24T08:07:18Z</time>
      </trkpt>
      <trkpt lat="48.5281" lon="2.00772">
        <ele>96</ele>
        <time>2019-11-24T08:07:20Z</time>
      </trkpt>
      <trkpt lat="48.528" lon="2.00764">
        <ele>96</ele>
        <time>2019-11-24T08:07:22Z</time>
      </trkpt>
      <trkpt lat="48.5279" lon="2.00756">
        <ele>96</ele>
        <time>2019-11-24T08:07:24Z</time>
      </trkpt>
      <trkpt lat="48.52781" lon="2.00747">
        <ele>96</ele>
        <time>2019-11-24T08:07:26Z</time>
      </trkpt>
      <trkpt lat="48.52773" lon="2.0074">
        <ele>96</ele>
        <time>2019-11-24T08:07:28Z</time>
      </trkpt>
      <trkpt lat="48.52767" lon="2.00731">
        <ele>97</ele>
        <time>2019-11-24T08:07:30Z</time>
      </trkpt>
      <trkpt lat="48.52768" lon="2.00722">
        <ele>97</ele>
        <time>2019-11-24T08:07:32Z</time>
      </trkpt>
      <trkpt lat="48.52773" lon="2.0071">
        <ele>97</ele>
        <time>2019-11-24T08:07:34Z</time>
      </trkpt>
      <trkpt lat="48.52779" lon="2.00698">
        <ele>97</ele>
        <time>2019-11-24T08:07:36Z</time>
      </trkpt>
      <trkpt lat="48.52786" lon="2.00686">
        <ele>97</ele>
        <time>2019-11-24T08:07:38Z</time>
      </trkpt>
      <trkpt lat="48.52792" lon="2.00674">
        <ele>97</ele>
        <time>2019-11-24T08:07:40Z</time>
      </trkpt>
      <trkpt lat="48.52797" lon="2.00662">
        <ele>98</ele>
        <time>2019-11-24T08:07:42Z</time>
      </trkpt>
      <trkpt lat="48.52804" lon="2.00649">
        <ele>98</ele>
        <time>2019-11-24T08:07:44Z</time>
      </trkpt>
      <trkpt lat="48.52811" lon="2.00636">
        <ele>98</ele>
        <time>2019-11-24T08:07:46Z</time>
      </trkpt>
      <trkpt lat="48.52818" lon="2.00623">
        <ele>98</ele>
        <time>2019-11-24T08:07:48Z</time>
      </trkpt>
      <trkpt lat="48.52826" lon="2.00608">
        <ele>98</ele>
        <time>2019-11-24T08:07:50Z</time>
      </trkpt>
      <trkpt lat="48.52832" lon="2.00594">
        <ele>98</ele>
        <time>2019-11-24T08:07:52Z</time>
      </trkpt>
      <trkpt lat="48.52838" lon="2.00583">
        <ele>98</ele>
        <time>2019-11-24T08:07:54Z</time>
      </trkpt>
      <trkpt lat="48.52844" lon="2.0057">
        <ele>97</ele>
        <time>2019-11-24T08:07:56Z</time>
      </trkpt>
      <trkpt lat="48.52848" lon="2.00558">
        <ele>97</ele>
        <time>2019-11-24T08:07:58Z</time>
      </trkpt>
      <trkpt lat="48.52845" lon="2.00552">
        <ele>97</ele>
        <time>2019-11-24T08:08:02Z</time>
      </trkpt>
      <trkpt lat="48.52842" lon="2.00558">
        <ele>97</ele>
        <time>2019-11-24T08:08:04Z</time>
      </trkpt>
      <trkpt lat="48.52837" lon="2.0056">
        <ele>97</ele>
        <time>2019-11-24T08:08:06Z</time>
      </trkpt>
      <trkpt lat="48.52831" lon="2.00557">
        <ele>98</ele>
        <time>2019-11-24T08:08:08Z</time>
      </trkpt>
      <trkpt lat="48.52824" lon="2.00552">
        <ele>98</ele>
        <time>2019-11-24T08:08:10Z</time>
      </trkpt>
      <trkpt lat="48.52817" lon="2.00547">
        <ele>98</ele>
        <time>2019-11-24T08:08:12Z</time>
      </trkpt>
      <trkpt lat="48.5281" lon="2.00541">
        <ele>98</ele>
        <time>2019-11-24T08:08:14Z</time>
      </trkpt>
      <trkpt lat="48.52803" lon="2.00536">
        <ele>98</ele>
        <time>2019-11-24T08:08:16Z</time>
      </trkpt>
      <trkpt lat="48.52795" lon="2.0053">
        <ele>98</ele>
        <time>2019-11-24T08:08:18Z</time>
      </trkpt>
      <trkpt lat="48.52788" lon="2.00524">
        <ele>98</ele>
        <time>2019-11-24T08:08:20Z</time>
      </trkpt>
      <trkpt lat="48.52781" lon="2.00519">
        <ele>98</ele>
        <time>2019-11-24T08:08:22Z</time>
      </trkpt>
      <trkpt lat="48.52775" lon="2.00513">
        <ele>98</ele>
        <time>2019-11-24T08:08:24Z</time>
      </trkpt>
      <trkpt lat="48.52768" lon="2.00507">
        <ele>98</ele>
        <time>2019-11-24T08:08:26Z</time>
      </trkpt>
      <trkpt lat="48.52762" lon="2.00501">
        <ele>98</ele>
        <time>2019-11-24T08:08:28Z</time>
      </trkpt>
      <trkpt lat="48.52756" lon="2.00494">
        <ele>98</ele>
        <time>2019-11-24T08:08:30Z</time>
      </trkpt>
      <trkpt lat="48.52749" lon="2.00489">
        <ele>99</ele>
        <time>2019-11-24T08:08:32Z</time>
      </trkpt>
      <trkpt lat="48.52743" lon="2.00484">
        <ele>99</ele>
        <time>2019-11-24T08:08:34Z</time>
      </trkpt>
      <trkpt lat="48.52736" lon="2.00479">
        <ele>99</ele>
        <time>2019-11-24T08:08:36Z</time>
      </trkpt>
      <trkpt lat="48.5273" lon="2.00474">
        <ele>99</ele>
        <time>2019-11-24T08:08:38Z</time>
      </trkpt>
      <trkpt lat="48.52723" lon="2.00468">
        <ele>99</ele>
        <time>2019-11-24T08:08:40Z</time>
      </trkpt>
      <trkpt lat="48.52715" lon="2.00463">
        <ele>100</ele>
        <time>2019-11-24T08:08:42Z</time>
      </trkpt>
      <trkpt lat="48.52708" lon="2.00459">
        <ele>100</ele>
        <time>2019-11-24T08:08:44Z</time>
      </trkpt>
      <trkpt lat="48.527" lon="2.00454">
        <ele>100</ele>
        <time>2019-11-24T08:08:46Z</time>
      </trkpt>
      <trkpt lat="48.52695" lon="2.00449">
        <ele>100</ele>
        <time>2019-11-24T08:08:48Z</time>
      </trkpt>
      <trkpt lat="48.52688" lon="2.00444">
        <ele>100</ele>
        <time>2019-11-24T08:08:50Z</time>
      </trkpt>
      <trkpt lat="48.52682" lon="2.0044">
        <ele>100</ele>
        <time>2019-11-24T08:08:52Z</time>
      </trkpt>
      <trkpt lat="48.52677" lon="2.00437">
        <ele>101</ele>
        <time>2019-11-24T08:08:54Z</time>
      </trkpt>
      <trkpt lat="48.52671" lon="2.00434">
        <ele>101</ele>
        <time>2019-11-24T08:08:56Z</time>
      </trkpt>
      <trkpt lat="48.52666" lon="2.00429">
        <ele>103</ele>
        <time>2019-11-24T08:08:58Z</time>
      </trkpt>
      <trkpt lat="48.5266" lon="2.00426">
        <ele>103</ele>
        <time>2019-11-24T08:09:00Z</time>
      </trkpt>
      <trkpt lat="48.52656" lon="2.00421">
        <ele>103</ele>
        <time>2019-11-24T08:09:02Z</time>
      </trkpt>
      <trkpt lat="48.52651" lon="2.00417">
        <ele>103</ele>
        <time>2019-11-24T08:09:04Z</time>
      </trkpt>
      <trkpt lat="48.52645" lon="2.00415">
        <ele>104</ele>
        <time>2019-11-24T08:09:08Z</time>
      </trkpt>
      <trkpt lat="48.5264" lon="2.00411">
        <ele>104</ele>
        <time>2019-11-24T08:09:10Z</time>
      </trkpt>
      <trkpt lat="48.52635" lon="2.00408">
        <ele>104</ele>
        <time>2019-11-24T08:09:12Z</time>
      </trkpt>
      <trkpt lat="48.5263" lon="2.00405">
        <ele>104</ele>
        <time>2019-11-24T08:09:14Z</time>
      </trkpt>
      <trkpt lat="48.52625" lon="2.00402">
        <ele>105</ele>
        <time>2019-11-24T08:09:16Z</time>
      </trkpt>
      <trkpt lat="48.5262" lon="2.00398">
        <ele>105</ele>
        <time>2019-11-24T08:09:18Z</time>
      </trkpt>
      <trkpt lat="48.52615" lon="2.00394">
        <ele>105</ele>
        <time>2019-11-24T08:09:20Z</time>
      </trkpt>
      <trkpt lat="48.5261" lon="2.0039">
        <ele>105</ele>
        <time>2019-11-24T08:09:22Z</time>
      </trkpt>
      <trkpt lat="48.52605" lon="2.00385">
        <ele>105</ele>
        <time>2019-11-24T08:09:24Z</time>
      </trkpt>
      <trkpt lat="48.526" lon="2.00381">
        <ele>105</ele>
        <time>2019-11-24T08:09:26Z</time>
      </trkpt>
      <trkpt lat="48.52595" lon="2.00377">
        <ele>105</ele>
        <time>2019-11-24T08:09:28Z</time>
      </trkpt>
      <trkpt lat="48.5259" lon="2.00372">
        <ele>106</ele>
        <time>2019-11-24T08:09:30Z</time>
      </trkpt>
      <trkpt lat="48.52585" lon="2.00368">
        <ele>106</ele>
        <time>2019-11-24T08:09:32Z</time>
      </trkpt>
      <trkpt lat="48.5258" lon="2.00364">
        <ele>108</ele>
        <time>2019-11-24T08:09:34Z</time>
      </trkpt>
      <trkpt lat="48.52574" lon="2.00358">
        <ele>108</ele>
        <time>2019-11-24T08:09:36Z</time>
      </trkpt>
      <trkpt lat="48.52569" lon="2.00355">
        <ele>108</ele>
        <time>2019-11-24T08:09:38Z</time>
      </trkpt>
      <trkpt lat="48.52564" lon="2.0035">
        <ele>108</ele>
        <time>2019-11-24T08:09:40Z</time>
      </trkpt>
      <trkpt lat="48.52558" lon="2.00346">
        <ele>108</ele>
        <time>2019-11-24T08:09:42Z</time>
      </trkpt>
      <trkpt lat="48.52553" lon="2.00342">
        <ele>108</ele>
        <time>2019-11-24T08:09:44Z</time>
      </trkpt>
      <trkpt lat="48.52549" lon="2.00337">
        <ele>108</ele>
        <time>2019-11-24T08:09:46Z</time>
      </trkpt>
      <trkpt lat="48.52544" lon="2.00334">
        <ele>108</ele>
        <time>2019-11-24T08:09:48Z</time>
      </trkpt>
      <trkpt lat="48.5254" lon="2.00338">
        <ele>108</ele>
        <time>2019-11-24T08:09:50Z</time>
      </trkpt>
      <trkpt lat="48.52536" lon="2.00344">
        <ele>108</ele>
        <time>2019-11-24T08:09:52Z</time>
      </trkpt>
      <trkpt lat="48.52532" lon="2.00352">
        <ele>108</ele>
        <time>2019-11-24T08:09:54Z</time>
      </trkpt>
      <trkpt lat="48.52528" lon="2.0036">
        <ele>108</ele>
        <time>2019-11-24T08:09:56Z</time>
      </trkpt>
      <trkpt lat="48.52524" lon="2.00368">
        <ele>108</ele>
        <time>2019-11-24T08:09:58Z</time>
      </trkpt>
      <trkpt lat="48.5252" lon="2.00376">
        <ele>108</ele>
        <time>2019-11-24T08:10:00Z</time>
      </trkpt>
      <trkpt lat="48.52515" lon="2.00384">
        <ele>108</ele>
        <time>2019-11-24T08:10:02Z</time>
      </trkpt>
      <trkpt lat="48.52511" lon="2.00393">
        <ele>109</ele>
        <time>2019-11-24T08:10:04Z</time>
      </trkpt>
      <trkpt lat="48.52506" lon="2.00402">
        <ele>109</ele>
        <time>2019-11-24T08:10:06Z</time>
      </trkpt>
      <trkpt lat="48.52501" lon="2.0041">
        <ele>110</ele>
        <time>2019-11-24T08:10:08Z</time>
      </trkpt>
      <trkpt lat="48.52497" lon="2.00418">
        <ele>110</ele>
        <time>2019-11-24T08:10:10Z</time>
      </trkpt>
      <trkpt lat="48.52492" lon="2.00422">
        <ele>110</ele>
        <time>2019-11-24T08:10:12Z</time>
      </trkpt>
      <trkpt lat="48.52488" lon="2.00419">
        <ele>110</ele>
        <time>2019-11-24T08:10:14Z</time>
      </trkpt>
      <trkpt lat="48.52483" lon="2.00413">
        <ele>110</ele>
        <time>2019-11-24T08:10:16Z</time>
      </trkpt>
      <trkpt lat="48.52478" lon="2.00408">
        <ele>110</ele>
        <time>2019-11-24T08:10:18Z</time>
      </trkpt>
      <trkpt lat="48.52472" lon="2.00401">
        <ele>110</ele>
        <time>2019-11-24T08:10:20Z</time>
      </trkpt>
      <trkpt lat="48.52469" lon="2.00393">
        <ele>110</ele>
        <time>2019-11-24T08:10:22Z</time>
      </trkpt>
      <trkpt lat="48.52465" lon="2.00385">
        <ele>110</ele>
        <time>2019-11-24T08:10:24Z</time>
      </trkpt>
      <trkpt lat="48.52462" lon="2.00378">
        <ele>110</ele>
        <time>2019-11-24T08:10:26Z</time>
      </trkpt>
      <trkpt lat="48.52459" lon="2.00371">
        <ele>110</ele>
        <time>2019-11-24T08:10:28Z</time>
      </trkpt>
      <trkpt lat="48.52457" lon="2.00361">
        <ele>110</ele>
        <time>2019-11-24T08:10:30Z</time>
      </trkpt>
      <trkpt lat="48.52456" lon="2.0035">
        <ele>110</ele>
        <time>2019-11-24T08:10:32Z</time>
      </trkpt>
      <trkpt lat="48.52456" lon="2.00338">
        <ele>110</ele>
        <time>2019-11-24T08:10:34Z</time>
      </trkpt>
      <trkpt lat="48.52458" lon="2.00327">
        <ele>110</ele>
        <time>2019-11-24T08:10:36Z</time>
      </trkpt>
      <trkpt lat="48.52459" lon="2.00314">
        <ele>110</ele>
        <time>2019-11-24T08:10:38Z</time>
      </trkpt>
      <trkpt lat="48.52458" lon="2.00303">
        <ele>110</ele>
        <time>2019-11-24T08:10:40Z</time>
      </trkpt>
      <trkpt lat="48.52457" lon="2.00292">
        <ele>110</ele>
        <time>2019-11-24T08:10:42Z</time>
      </trkpt>
      <trkpt lat="48.52457" lon="2.00281">
        <ele>110</ele>
        <time>2019-11-24T08:10:44Z</time>
      </trkpt>
      <trkpt lat="48.52456" lon="2.00271">
        <ele>110</ele>
        <time>2019-11-24T08:10:46Z</time>
      </trkpt>
      <trkpt lat="48.52454" lon="2.00264">
        <ele>111</ele>
        <time>2019-11-24T08:10:48Z</time>
      </trkpt>
      <trkpt lat="48.52447" lon="2.0026">
        <ele>111</ele>
        <time>2019-11-24T08:10:52Z</time>
      </trkpt>
      <trkpt lat="48.52443" lon="2.00254">
        <ele>111</ele>
        <time>2019-11-24T08:10:54Z</time>
      </trkpt>
      <trkpt lat="48.52438" lon="2.00246">
        <ele>112</ele>
        <time>2019-11-24T08:10:56Z</time>
      </trkpt>
      <trkpt lat="48.52435" lon="2.00235">
        <ele>112</ele>
        <time>2019-11-24T08:10:58Z</time>
      </trkpt>
      <trkpt lat="48.5243" lon="2.00227">
        <ele>113</ele>
        <time>2019-11-24T08:11:00Z</time>
      </trkpt>
      <trkpt lat="48.52425" lon="2.00222">
        <ele>113</ele>
        <time>2019-11-24T08:11:02Z</time>
      </trkpt>
      <trkpt lat="48.52418" lon="2.00218">
        <ele>113</ele>
        <time>2019-11-24T08:11:04Z</time>
      </trkpt>
      <trkpt lat="48.52412" lon="2.00215">
        <ele>115</ele>
        <time>2019-11-24T08:11:06Z</time>
      </trkpt>
      <trkpt lat="48.52406" lon="2.00211">
        <ele>115</ele>
        <time>2019-11-24T08:11:08Z</time>
      </trkpt>
      <trkpt lat="48.524" lon="2.00206">
        <ele>115</ele>
        <time>2019-11-24T08:11:10Z</time>
      </trkpt>
      <trkpt lat="48.52395" lon="2.002">
        <ele>115</ele>
        <time>2019-11-24T08:11:12Z</time>
      </trkpt>
      <trkpt lat="48.52392" lon="2.00191">
        <ele>116</ele>
        <time>2019-11-24T08:11:14Z</time>
      </trkpt>
      <trkpt lat="48.5239" lon="2.00182">
        <ele>116</ele>
        <time>2019-11-24T08:11:16Z</time>
      </trkpt>
      <trkpt lat="48.52388" lon="2.00172">
        <ele>116</ele>
        <time>2019-11-24T08:11:18Z</time>
      </trkpt>
      <trkpt lat="48.52386" lon="2.00162">
        <ele>116</ele>
        <time>2019-11-24T08:11:20Z</time>
      </trkpt>
      <trkpt lat="48.52385" lon="2.00152">
        <ele>116</ele>
        <time>2019-11-24T08:11:22Z</time>
      </trkpt>
      <trkpt lat="48.52383" lon="2.00142">
        <ele>117</ele>
        <time>2019-11-24T08:11:24Z</time>
      </trkpt>
      <trkpt lat="48.52381" lon="2.00132">
        <ele>117</ele>
        <time>2019-11-24T08:11:26Z</time>
      </trkpt>
      <trkpt lat="48.52379" lon="2.00122">
        <ele>117</ele>
        <time>2019-11-24T08:11:28Z</time>
      </trkpt>
      <trkpt lat="48.52377" lon="2.00111">
        <ele>117</ele>
        <time>2019-11-24T08:11:30Z</time>
      </trkpt>
      <trkpt lat="48.52376" lon="2.001">
        <ele>117</ele>
        <time>2019-11-24T08:11:32Z</time>
      </trkpt>
      <trkpt lat="48.52374" lon="2.00088">
        <ele>117</ele>
        <time>2019-11-24T08:11:34Z</time>
      </trkpt>
      <trkpt lat="48.52372" lon="2.00076">
        <ele>117</ele>
        <time>2019-11-24T08:11:36Z</time>
      </trkpt>
      <trkpt lat="48.52371" lon="2.00064">
        <ele>117</ele>
        <time>2019-11-24T08:11:38Z</time>
      </trkpt>
      <trkpt lat="48.52369" lon="2.0005">
        <ele>117</ele>
        <time>2019-11-24T08:11:40Z</time>
      </trkpt>
      <trkpt lat="48.52368" lon="2.00037">
        <ele>117</ele>
        <time>2019-11-24T08:11:42Z</time>
      </trkpt>
      <trkpt lat="48.52366" lon="2.00024">
        <ele>118</ele>
        <time>2019-11-24T08:11:44Z</time>
      </trkpt>
      <trkpt lat="48.52364" lon="2.00011">
        <ele>118</ele>
        <time>2019-11-24T08:11:46Z</time>
      </trkpt>
      <trkpt lat="48.52362" lon="1.99998">
        <ele>118</ele>
        <time>2019-11-24T08:11:48Z</time>
      </trkpt>
      <trkpt lat="48.5236" lon="1.99985">
        <ele>118</ele>
        <time>2019-11-24T08:11:50Z</time>
      </trkpt>
      <trkpt lat="48.52358" lon="1.99971">
        <ele>118</ele>
        <time>2019-11-24T08:11:52Z</time>
      </trkpt>
      <trkpt lat="48.52356" lon="1.99957">
        <ele>117</ele>
        <time>2019-11-24T08:11:54Z</time>
      </trkpt>
      <trkpt lat="48.52353" lon="1.99943">
        <ele>117</ele>
        <time>2019-11-24T08:11:56Z</time>
      </trkpt>
      <trkpt lat="48.52351" lon="1.9993">
        <ele>117</ele>
        <time>2019-11-24T08:11:58Z</time>
      </trkpt>
      <trkpt lat="48.52349" lon="1.99917">
        <ele>118</ele>
        <time>2019-11-24T08:12:00Z</time>
      </trkpt>
      <trkpt lat="48.52347" lon="1.99904">
        <ele>117</ele>
        <time>2019-11-24T08:12:02Z</time>
      </trkpt>
      <trkpt lat="48.52345" lon="1.99891">
        <ele>117</ele>
        <time>2019-11-24T08:12:04Z</time>
      </trkpt>
      <trkpt lat="48.52343" lon="1.99878">
        <ele>117</ele>
        <time>2019-11-24T08:12:06Z</time>
      </trkpt>
      <trkpt lat="48.5234" lon="1.99866">
        <ele>117</ele>
        <time>2019-11-24T08:12:08Z</time>
      </trkpt>
      <trkpt lat="48.5234" lon="1.99853">
        <ele>117</ele>
        <time>2019-11-24T08:12:10Z</time>
      </trkpt>
      <trkpt lat="48.52338" lon="1.99841">
        <ele>118</ele>
        <time>2019-11-24T08:12:12Z</time>
      </trkpt>
      <trkpt lat="48.52335" lon="1.9983">
        <ele>118</ele>
        <time>2019-11-24T08:12:14Z</time>
      </trkpt>
      <trkpt lat="48.52333" lon="1.99818">
        <ele>118</ele>
        <time>2019-11-24T08:12:16Z</time>
      </trkpt>
      <trkpt lat="48.52332" lon="1.99807">
        <ele>118</ele>
        <time>2019-11-24T08:12:18Z</time>
      </trkpt>
      <trkpt lat="48.5233" lon="1.99796">
        <ele>119</ele>
        <time>2019-11-24T08:12:20Z</time>
      </trkpt>
      <trkpt lat="48.52328" lon="1.99786">
        <ele>119</ele>
        <time>2019-11-24T08:12:22Z</time>
      </trkpt>
      <trkpt lat="48.52326" lon="1.99775">
        <ele>119</ele>
        <time>2019-11-24T08:12:24Z</time>
      </trkpt>
      <trkpt lat="48.52324" lon="1.99765">
        <ele>119</ele>
        <time>2019-11-24T08:12:26Z</time>
      </trkpt>
      <trkpt lat="48.52323" lon="1.99755">
        <ele>119</ele>
        <time>2019-11-24T08:12:28Z</time>
      </trkpt>
      <trkpt lat="48.52322" lon="1.99746">
        <ele>120</ele>
        <time>2019-11-24T08:12:30Z</time>
      </trkpt>
      <trkpt lat="48.52321" lon="1.99736">
        <ele>120</ele>
        <time>2019-11-24T08:12:32Z</time>
      </trkpt>
      <trkpt lat="48.52319" lon="1.99726">
        <ele>120</ele>
        <time>2019-11-24T08:12:34Z</time>
      </trkpt>
      <trkpt lat="48.52317" lon="1.99717">
        <ele>120</ele>
        <time>2019-11-24T08:12:36Z</time>
      </trkpt>
      <trkpt lat="48.52316" lon="1.99708">
        <ele>120</ele>
        <time>2019-11-24T08:12:38Z</time>
      </trkpt>
      <trkpt lat="48.52316" lon="1.997">
        <ele>120</ele>
        <time>2019-11-24T08:12:40Z</time>
      </trkpt>
      <trkpt lat="48.52315" lon="1.99691">
        <ele>121</ele>
        <time>2019-11-24T08:12:42Z</time>
      </trkpt>
      <trkpt lat="48.52316" lon="1.99682">
        <ele>121</ele>
        <time>2019-11-24T08:12:44Z</time>
      </trkpt>
      <trkpt lat="48.52314" lon="1.99674">
        <ele>121</ele>
        <time>2019-11-24T08:12:46Z</time>
      </trkpt>
      <trkpt lat="48.52312" lon="1.99666">
        <ele>123</ele>
        <time>2019-11-24T08:12:48Z</time>
      </trkpt>
      <trkpt lat="48.52311" lon="1.99658">
        <ele>123</ele>
        <time>2019-11-24T08:12:50Z</time>
      </trkpt>
      <trkpt lat="48.52309" lon="1.9965">
        <ele>123</ele>
        <time>2019-11-24T08:12:52Z</time>
      </trkpt>
      <trkpt lat="48.52308" lon="1.99643">
        <ele>123</ele>
        <time>2019-11-24T08:12:54Z</time>
      </trkpt>
      <trkpt lat="48.52306" lon="1.99636">
        <ele>124</ele>
        <time>2019-11-24T08:12:56Z</time>
      </trkpt>
      <trkpt lat="48.52305" lon="1.99629">
        <ele>124</ele>
        <time>2019-11-24T08:12:58Z</time>
      </trkpt>
      <trkpt lat="48.52302" lon="1.99616">
        <ele>124</ele>
        <time>2019-11-24T08:13:02Z</time>
      </trkpt>
      <trkpt lat="48.523" lon="1.99604">
        <ele>124</ele>
        <time>2019-11-24T08:13:06Z</time>
      </trkpt>
      <trkpt lat="48.523" lon="1.99597">
        <ele>125</ele>
        <time>2019-11-24T08:13:08Z</time>
      </trkpt>
      <trkpt lat="48.52299" lon="1.9959">
        <ele>125</ele>
        <time>2019-11-24T08:13:10Z</time>
      </trkpt>
      <trkpt lat="48.52297" lon="1.99579">
        <ele>129</ele>
        <time>2019-11-24T08:13:14Z</time>
      </trkpt>
      <trkpt lat="48.52296" lon="1.99567">
        <ele>129</ele>
        <time>2019-11-24T08:13:18Z</time>
      </trkpt>
      <trkpt lat="48.52294" lon="1.99554">
        <ele>129</ele>
        <time>2019-11-24T08:13:22Z</time>
      </trkpt>
      <trkpt lat="48.52293" lon="1.99543">
        <ele>130</ele>
        <time>2019-11-24T08:13:26Z</time>
      </trkpt>
      <trkpt lat="48.5229" lon="1.9953">
        <ele>131</ele>
        <time>2019-11-24T08:13:30Z</time>
      </trkpt>
      <trkpt lat="48.52288" lon="1.99519">
        <ele>131</ele>
        <time>2019-11-24T08:13:34Z</time>
      </trkpt>
      <trkpt lat="48.52286" lon="1.99508">
        <ele>131</ele>
        <time>2019-11-24T08:13:38Z</time>
      </trkpt>
      <trkpt lat="48.52284" lon="1.99496">
        <ele>136</ele>
        <time>2019-11-24T08:13:42Z</time>
      </trkpt>
      <trkpt lat="48.52282" lon="1.99486">
        <ele>136</ele>
        <time>2019-11-24T08:13:46Z</time>
      </trkpt>
      <trkpt lat="48.52281" lon="1.99474">
        <ele>136</ele>
        <time>2019-11-24T08:13:50Z</time>
      </trkpt>
      <trkpt lat="48.52281" lon="1.99467">
        <ele>137</ele>
        <time>2019-11-24T08:13:52Z</time>
      </trkpt>
      <trkpt lat="48.5228" lon="1.9946">
        <ele>137</ele>
        <time>2019-11-24T08:13:54Z</time>
      </trkpt>
      <trkpt lat="48.52278" lon="1.99453">
        <ele>137</ele>
        <time>2019-11-24T08:13:56Z</time>
      </trkpt>
      <trkpt lat="48.52276" lon="1.99438">
        <ele>138</ele>
        <time>2019-11-24T08:14:00Z</time>
      </trkpt>
      <trkpt lat="48.52275" lon="1.99432">
        <ele>138</ele>
        <time>2019-11-24T08:14:02Z</time>
      </trkpt>
      <trkpt lat="48.52274" lon="1.99424">
        <ele>139</ele>
        <time>2019-11-24T08:14:04Z</time>
      </trkpt>
      <trkpt lat="48.52273" lon="1.99416">
        <ele>140</ele>
        <time>2019-11-24T08:14:06Z</time>
      </trkpt>
      <trkpt lat="48.52272" lon="1.99407">
        <ele>140</ele>
        <time>2019-11-24T08:14:08Z</time>
      </trkpt>
      <trkpt lat="48.52271" lon="1.994">
        <ele>140</ele>
        <time>2019-11-24T08:14:10Z</time>
      </trkpt>
      <trkpt lat="48.5227" lon="1.99391">
        <ele>139</ele>
        <time>2019-11-24T08:14:12Z</time>
      </trkpt>
      <trkpt lat="48.52269" lon="1.99382">
        <ele>139</ele>
        <time>2019-11-24T08:14:14Z</time>
      </trkpt>
      <trkpt lat="48.52266" lon="1.99374">
        <ele>139</ele>
        <time>2019-11-24T08:14:16Z</time>
      </trkpt>
      <trkpt lat="48.52265" lon="1.99366">
        <ele>139</ele>
        <time>2019-11-24T08:14:18Z</time>
      </trkpt>
      <trkpt lat="48.52265" lon="1.99356">
        <ele>139</ele>
        <time>2019-11-24T08:14:20Z</time>
      </trkpt>
      <trkpt lat="48.52264" lon="1.99347">
        <ele>138</ele>
        <time>2019-11-24T08:14:22Z</time>
      </trkpt>
      <trkpt lat="48.52264" lon="1.99336">
        <ele>138</ele>
        <time>2019-11-24T08:14:24Z</time>
      </trkpt>
      <trkpt lat="48.52262" lon="1.99324">
        <ele>138</ele>
        <time>2019-11-24T08:14:26Z</time>
      </trkpt>
      <trkpt lat="48.5226" lon="1.99314">
        <ele>137</ele>
        <time>2019-11-24T08:14:28Z</time>
      </trkpt>
      <trkpt lat="48.52257" lon="1.99306">
        <ele>137</ele>
        <time>2019-11-24T08:14:30Z</time>
      </trkpt>
      <trkpt lat="48.52256" lon="1.99295">
        <ele>137</ele>
        <time>2019-11-24T08:14:32Z</time>
      </trkpt>
      <trkpt lat="48.52254" lon="1.99284">
        <ele>137</ele>
        <time>2019-11-24T08:14:34Z</time>
      </trkpt>
      <trkpt lat="48.52252" lon="1.99274">
        <ele>137</ele>
        <time>2019-11-24T08:14:36Z</time>
      </trkpt>
      <trkpt lat="48.5225" lon="1.99264">
        <ele>138</ele>
        <time>2019-11-24T08:14:38Z</time>
      </trkpt>
      <trkpt lat="48.52248" lon="1.99252">
        <ele>138</ele>
        <time>2019-11-24T08:14:40Z</time>
      </trkpt>
      <trkpt lat="48.52247" lon="1.99243">
        <ele>138</ele>
        <time>2019-11-24T08:14:42Z</time>
      </trkpt>
      <trkpt lat="48.52246" lon="1.99233">
        <ele>139</ele>
        <time>2019-11-24T08:14:44Z</time>
      </trkpt>
      <trkpt lat="48.52244" lon="1.99222">
        <ele>139</ele>
        <time>2019-11-24T08:14:46Z</time>
      </trkpt>
      <trkpt lat="48.52242" lon="1.99213">
        <ele>139</ele>
        <time>2019-11-24T08:14:48Z</time>
      </trkpt>
      <trkpt lat="48.52242" lon="1.99203">
        <ele>139</ele>
        <time>2019-11-24T08:14:50Z</time>
      </trkpt>
      <trkpt lat="48.52243" lon="1.99193">
        <ele>139</ele>
        <time>2019-11-24T08:14:52Z</time>
      </trkpt>
      <trkpt lat="48.52243" lon="1.99184">
        <ele>139</ele>
        <time>2019-11-24T08:14:54Z</time>
      </trkpt>
      <trkpt lat="48.52241" lon="1.99174">
        <ele>139</ele>
        <time>2019-11-24T08:14:56Z</time>
      </trkpt>
      <trkpt lat="48.52238" lon="1.99163">
        <ele>139</ele>
        <time>2019-11-24T08:14:58Z</time>
      </trkpt>
      <trkpt lat="48.52237" lon="1.99154">
        <ele>139</ele>
        <time>2019-11-24T08:15:00Z</time>
      </trkpt>
      <trkpt lat="48.52235" lon="1.99145">
        <ele>139</ele>
        <time>2019-11-24T08:15:02Z</time>
      </trkpt>
      <trkpt lat="48.52231" lon="1.99136">
        <ele>139</ele>
        <time>2019-11-24T08:15:04Z</time>
      </trkpt>
      <trkpt lat="48.52229" lon="1.99126">
        <ele>139</ele>
        <time>2019-11-24T08:15:06Z</time>
      </trkpt>
      <trkpt lat="48.52226" lon="1.99117">
        <ele>139</ele>
        <time>2019-11-24T08:15:08Z</time>
      </trkpt>
      <trkpt lat="48.52224" lon="1.99108">
        <ele>139</ele>
        <time>2019-11-24T08:15:10Z</time>
      </trkpt>
      <trkpt lat="48.5222" lon="1.99104">
        <ele>139</ele>
        <time>2019-11-24T08:15:12Z</time>
      </trkpt>
      <trkpt lat="48.5221" lon="1.99105">
        <ele>138</ele>
        <time>2019-11-24T08:15:16Z</time>
      </trkpt>
      <trkpt lat="48.52205" lon="1.9911">
        <ele>138</ele>
        <time>2019-11-24T08:15:18Z</time>
      </trkpt>
      <trkpt lat="48.522" lon="1.99115">
        <ele>138</ele>
        <time>2019-11-24T08:15:20Z</time>
      </trkpt>
      <trkpt lat="48.52196" lon="1.99119">
        <ele>138</ele>
        <time>2019-11-24T08:15:22Z</time>
      </trkpt>
      <trkpt lat="48.52193" lon="1.99126">
        <ele>138</ele>
        <time>2019-11-24T08:15:24Z</time>
      </trkpt>
      <trkpt lat="48.52189" lon="1.99132">
        <ele>138</ele>
        <time>2019-11-24T08:15:26Z</time>
      </trkpt>
      <trkpt lat="48.52186" lon="1.99139">
        <ele>139</ele>
        <time>2019-11-24T08:15:28Z</time>
      </trkpt>
      <trkpt lat="48.52184" lon="1.99147">
        <ele>139</ele>
        <time>2019-11-24T08:15:30Z</time>
      </trkpt>
      <trkpt lat="48.52181" lon="1.99155">
        <ele>139</ele>
        <time>2019-11-24T08:15:32Z</time>
      </trkpt>
      <trkpt lat="48.52179" lon="1.99162">
        <ele>139</ele>
        <time>2019-11-24T08:15:34Z</time>
      </trkpt>
      <trkpt lat="48.52177" lon="1.9917">
        <ele>139</ele>
        <time>2019-11-24T08:15:36Z</time>
      </trkpt>
      <trkpt lat="48.52176" lon="1.99179">
        <ele>139</ele>
        <time>2019-11-24T08:15:38Z</time>
      </trkpt>
      <trkpt lat="48.52174" lon="1.99187">
        <ele>139</ele>
        <time>2019-11-24T08:15:40Z</time>
      </trkpt>
      <trkpt lat="48.52172" lon="1.99195">
        <ele>139</ele>
        <time>2019-11-24T08:15:42Z</time>
      </trkpt>
      <trkpt lat="48.52169" lon="1.99204">
        <ele>139</ele>
        <time>2019-11-24T08:15:44Z</time>
      </trkpt>
      <trkpt lat="48.52167" lon="1.99212">
        <ele>139</ele>
        <time>2019-11-24T08:15:46Z</time>
      </trkpt>
      <trkpt lat="48.52164" lon="1.99219">
        <ele>141</ele>
        <time>2019-11-24T08:15:48Z</time>
      </trkpt>
      <trkpt lat="48.52161" lon="1.99226">
        <ele>141</ele>
        <time>2019-11-24T08:15:50Z</time>
      </trkpt>
      <trkpt lat="48.52159" lon="1.99234">
        <ele>141</ele>
        <time>2019-11-24T08:15:52Z</time>
      </trkpt>
      <trkpt lat="48.52157" lon="1.99242">
        <ele>141</ele>
        <time>2019-11-24T08:15:54Z</time>
      </trkpt>
      <trkpt lat="48.52153" lon="1.99252">
        <ele>141</ele>
        <time>2019-11-24T08:15:56Z</time>
      </trkpt>
      <trkpt lat="48.5215" lon="1.99261">
        <ele>142</ele>
        <time>2019-11-24T08:15:58Z</time>
      </trkpt>
      <trkpt lat="48.52147" lon="1.99271">
        <ele>142</ele>
        <time>2019-11-24T08:16:00Z</time>
      </trkpt>
      <trkpt lat="48.52144" lon="1.99281">
        <ele>142</ele>
        <time>2019-11-24T08:16:02Z</time>
      </trkpt>
      <trkpt lat="48.52139" lon="1.9929">
        <ele>142</ele>
        <time>2019-11-24T08:16:04Z</time>
      </trkpt>
      <trkpt lat="48.52135" lon="1.99299">
        <ele>143</ele>
        <time>2019-11-24T08:16:06Z</time>
      </trkpt>
      <trkpt lat="48.52128" lon="1.99303">
        <ele>143</ele>
        <time>2019-11-24T08:16:08Z</time>
      </trkpt>
      <trkpt lat="48.5212" lon="1.99303">
        <ele>143</ele>
        <time>2019-11-24T08:16:10Z</time>
      </trkpt>
      <trkpt lat="48.52113" lon="1.99298">
        <ele>143</ele>
        <time>2019-11-24T08:16:12Z</time>
      </trkpt>
      <trkpt lat="48.52107" lon="1.99295">
        <ele>143</ele>
        <time>2019-11-24T08:16:14Z</time>
      </trkpt>
      <trkpt lat="48.52101" lon="1.99291">
        <ele>143</ele>
        <time>2019-11-24T08:16:16Z</time>
      </trkpt>
      <trkpt lat="48.52094" lon="1.9929">
        <ele>143</ele>
        <time>2019-11-24T08:16:18Z</time>
      </trkpt>
      <trkpt lat="48.52089" lon="1.99294">
        <ele>143</ele>
        <time>2019-11-24T08:16:20Z</time>
      </trkpt>
      <trkpt lat="48.52084" lon="1.993">
        <ele>144</ele>
        <time>2019-11-24T08:16:22Z</time>
      </trkpt>
      <trkpt lat="48.52079" lon="1.99305">
        <ele>145</ele>
        <time>2019-11-24T08:16:24Z</time>
      </trkpt>
      <trkpt lat="48.52074" lon="1.99313">
        <ele>145</ele>
        <time>2019-11-24T08:16:26Z</time>
      </trkpt>
      <trkpt lat="48.52068" lon="1.99323">
        <ele>145</ele>
        <time>2019-11-24T08:16:28Z</time>
      </trkpt>
      <trkpt lat="48.52061" lon="1.99332">
        <ele>145</ele>
        <time>2019-11-24T08:16:30Z</time>
      </trkpt>
      <trkpt lat="48.5205" lon="1.99339">
        <ele>143</ele>
        <time>2019-11-24T08:16:32Z</time>
      </trkpt>
      <trkpt lat="48.52039" lon="1.99348">
        <ele>143</ele>
        <time>2019-11-24T08:16:34Z</time>
      </trkpt>
      <trkpt lat="48.52028" lon="1.99352">
        <ele>143</ele>
        <time>2019-11-24T08:16:36Z</time>
      </trkpt>
      <trkpt lat="48.52017" lon="1.99358">
        <ele>142</ele>
        <time>2019-11-24T08:16:38Z</time>
      </trkpt>
      <trkpt lat="48.52006" lon="1.99364">
        <ele>142</ele>
        <time>2019-11-24T08:16:40Z</time>
      </trkpt>
      <trkpt lat="48.51994" lon="1.99371">
        <ele>138</ele>
        <time>2019-11-24T08:16:42Z</time>
      </trkpt>
      <trkpt lat="48.5198" lon="1.99378">
        <ele>137</ele>
        <time>2019-11-24T08:16:44Z</time>
      </trkpt>
      <trkpt lat="48.51967" lon="1.99388">
        <ele>136</ele>
        <time>2019-11-24T08:16:46Z</time>
      </trkpt>
      <trkpt lat="48.5195" lon="1.99394">
        <ele>135</ele>
        <time>2019-11-24T08:16:48Z</time>
      </trkpt>
      <trkpt lat="48.51934" lon="1.99405">
        <ele>133</ele>
        <time>2019-11-24T08:16:50Z</time>
      </trkpt>
      <trkpt lat="48.51916" lon="1.99414">
        <ele>130</ele>
        <time>2019-11-24T08:16:52Z</time>
      </trkpt>
      <trkpt lat="48.51898" lon="1.99421">
        <ele>127</ele>
        <time>2019-11-24T08:16:54Z</time>
      </trkpt>
      <trkpt lat="48.51884" lon="1.99425">
        <ele>126</ele>
        <time>2019-11-24T08:16:56Z</time>
      </trkpt>
      <trkpt lat="48.51871" lon="1.99433">
        <ele>125</ele>
        <time>2019-11-24T08:16:58Z</time>
      </trkpt>
      <trkpt lat="48.51863" lon="1.99444">
        <ele>124</ele>
        <time>2019-11-24T08:17:00Z</time>
      </trkpt>
      <trkpt lat="48.51857" lon="1.99449">
        <ele>124</ele>
        <time>2019-11-24T08:17:02Z</time>
      </trkpt>
      <trkpt lat="48.51852" lon="1.99448">
        <ele>123</ele>
        <time>2019-11-24T08:17:04Z</time>
      </trkpt>
      <trkpt lat="48.51845" lon="1.99443">
        <ele>123</ele>
        <time>2019-11-24T08:17:06Z</time>
      </trkpt>
      <trkpt lat="48.51839" lon="1.99436">
        <ele>122</ele>
        <time>2019-11-24T08:17:08Z</time>
      </trkpt>
      <trkpt lat="48.51833" lon="1.99427">
        <ele>117</ele>
        <time>2019-11-24T08:17:10Z</time>
      </trkpt>
      <trkpt lat="48.51825" lon="1.99419">
        <ele>118</ele>
        <time>2019-11-24T08:17:12Z</time>
      </trkpt>
      <trkpt lat="48.51817" lon="1.99409">
        <ele>117</ele>
        <time>2019-11-24T08:17:14Z</time>
      </trkpt>
      <trkpt lat="48.51809" lon="1.99396">
        <ele>116</ele>
        <time>2019-11-24T08:17:16Z</time>
      </trkpt>
      <trkpt lat="48.518" lon="1.99383">
        <ele>116</ele>
        <time>2019-11-24T08:17:18Z</time>
      </trkpt>
      <trkpt lat="48.51791" lon="1.9937">
        <ele>115</ele>
        <time>2019-11-24T08:17:20Z</time>
      </trkpt>
      <trkpt lat="48.51782" lon="1.99357">
        <ele>115</ele>
        <time>2019-11-24T08:17:22Z</time>
      </trkpt>
      <trkpt lat="48.51773" lon="1.99342">
        <ele>114</ele>
        <time>2019-11-24T08:17:24Z</time>
      </trkpt>
      <trkpt lat="48.51764" lon="1.99329">
        <ele>115</ele>
        <time>2019-11-24T08:17:26Z</time>
      </trkpt>
      <trkpt lat="48.51758" lon="1.99314">
        <ele>116</ele>
        <time>2019-11-24T08:17:28Z</time>
      </trkpt>
      <trkpt lat="48.51749" lon="1.99299">
        <ele>113</ele>
        <time>2019-11-24T08:17:30Z</time>
      </trkpt>
      <trkpt lat="48.51741" lon="1.99286">
        <ele>113</ele>
        <time>2019-11-24T08:17:32Z</time>
      </trkpt>
      <trkpt lat="48.51731" lon="1.99271">
        <ele>114</ele>
        <time>2019-11-24T08:17:34Z</time>
      </trkpt>
      <trkpt lat="48.51721" lon="1.99256">
        <ele>114</ele>
        <time>2019-11-24T08:17:36Z</time>
      </trkpt>
      <trkpt lat="48.51712" lon="1.99241">
        <ele>116</ele>
        <time>2019-11-24T08:17:38Z</time>
      </trkpt>
      <trkpt lat="48.51703" lon="1.99228">
        <ele>115</ele>
        <time>2019-11-24T08:17:40Z</time>
      </trkpt>
      <trkpt lat="48.51694" lon="1.99215">
        <ele>115</ele>
        <time>2019-11-24T08:17:42Z</time>
      </trkpt>
      <trkpt lat="48.51686" lon="1.99202">
        <ele>115</ele>
        <time>2019-11-24T08:17:44Z</time>
      </trkpt>
      <trkpt lat="48.51678" lon="1.9919">
        <ele>115</ele>
        <time>2019-11-24T08:17:46Z</time>
      </trkpt>
      <trkpt lat="48.5167" lon="1.99179">
        <ele>114</ele>
        <time>2019-11-24T08:17:48Z</time>
      </trkpt>
      <trkpt lat="48.51662" lon="1.99168">
        <ele>113</ele>
        <time>2019-11-24T08:17:50Z</time>
      </trkpt>
      <trkpt lat="48.51655" lon="1.99155">
        <ele>115</ele>
        <time>2019-11-24T08:17:52Z</time>
      </trkpt>
      <trkpt lat="48.51648" lon="1.99144">
        <ele>116</ele>
        <time>2019-11-24T08:17:54Z</time>
      </trkpt>
      <trkpt lat="48.51642" lon="1.99136">
        <ele>116</ele>
        <time>2019-11-24T08:17:56Z</time>
      </trkpt>
      <trkpt lat="48.51638" lon="1.99131">
        <ele>116</ele>
        <time>2019-11-24T08:17:58Z</time>
      </trkpt>
      <trkpt lat="48.51631" lon="1.99129">
        <ele>117</ele>
        <time>2019-11-24T08:18:00Z</time>
      </trkpt>
      <trkpt lat="48.51625" lon="1.99136">
        <ele>117</ele>
        <time>2019-11-24T08:18:02Z</time>
      </trkpt>
      <trkpt lat="48.51619" lon="1.99145">
        <ele>117</ele>
        <time>2019-11-24T08:18:04Z</time>
      </trkpt>
      <trkpt lat="48.51614" lon="1.99155">
        <ele>117</ele>
        <time>2019-11-24T08:18:06Z</time>
      </trkpt>
      <trkpt lat="48.51608" lon="1.99162">
        <ele>117</ele>
        <time>2019-11-24T08:18:08Z</time>
      </trkpt>
      <trkpt lat="48.51605" lon="1.99168">
        <ele>117</ele>
        <time>2019-11-24T08:18:10Z</time>
      </trkpt>
      <trkpt lat="48.51602" lon="1.99173">
        <ele>117</ele>
        <time>2019-11-24T08:18:12Z</time>
      </trkpt>
      <trkpt lat="48.51597" lon="1.99181">
        <ele>117</ele>
        <time>2019-11-24T08:18:16Z</time>
      </trkpt>
      <trkpt lat="48.51594" lon="1.99187">
        <ele>117</ele>
        <time>2019-11-24T08:18:18Z</time>
      </trkpt>
      <trkpt lat="48.5159" lon="1.99191">
        <ele>117</ele>
        <time>2019-11-24T08:18:20Z</time>
      </trkpt>
      <trkpt lat="48.51584" lon="1.99192">
        <ele>117</ele>
        <time>2019-11-24T08:18:22Z</time>
      </trkpt>
      <trkpt lat="48.51579" lon="1.99195">
        <ele>122</ele>
        <time>2019-11-24T08:18:24Z</time>
      </trkpt>
      <trkpt lat="48.51575" lon="1.99196">
        <ele>122</ele>
        <time>2019-11-24T08:18:26Z</time>
      </trkpt>
      <trkpt lat="48.51567" lon="1.99198">
        <ele>122</ele>
        <time>2019-11-24T08:18:28Z</time>
      </trkpt>
      <trkpt lat="48.5156" lon="1.99197">
        <ele>123</ele>
        <time>2019-11-24T08:18:30Z</time>
      </trkpt>
      <trkpt lat="48.51553" lon="1.99198">
        <ele>123</ele>
        <time>2019-11-24T08:18:32Z</time>
      </trkpt>
      <trkpt lat="48.51546" lon="1.99196">
        <ele>123</ele>
        <time>2019-11-24T08:18:34Z</time>
      </trkpt>
      <trkpt lat="48.51539" lon="1.99195">
        <ele>124</ele>
        <time>2019-11-24T08:18:36Z</time>
      </trkpt>
      <trkpt lat="48.51533" lon="1.99193">
        <ele>124</ele>
        <time>2019-11-24T08:18:38Z</time>
      </trkpt>
      <trkpt lat="48.51528" lon="1.99191">
        <ele>124</ele>
        <time>2019-11-24T08:18:40Z</time>
      </trkpt>
      <trkpt lat="48.51523" lon="1.9919">
        <ele>125</ele>
        <time>2019-11-24T08:18:42Z</time>
      </trkpt>
      <trkpt lat="48.51517" lon="1.99188">
        <ele>125</ele>
        <time>2019-11-24T08:18:44Z</time>
      </trkpt>
      <trkpt lat="48.51512" lon="1.99186">
        <ele>125</ele>
        <time>2019-11-24T08:18:46Z</time>
      </trkpt>
      <trkpt lat="48.51503" lon="1.99186">
        <ele>125</ele>
        <time>2019-11-24T08:18:50Z</time>
      </trkpt>
      <trkpt lat="48.51501" lon="1.992">
        <ele>125</ele>
        <time>2019-11-24T08:18:54Z</time>
      </trkpt>
      <trkpt lat="48.515" lon="1.9921">
        <ele>125</ele>
        <time>2019-11-24T08:18:56Z</time>
      </trkpt>
      <trkpt lat="48.51502" lon="1.99222">
        <ele>126</ele>
        <time>2019-11-24T08:18:58Z</time>
      </trkpt>
      <trkpt lat="48.51503" lon="1.99232">
        <ele>126</ele>
        <time>2019-11-24T08:19:00Z</time>
      </trkpt>
      <trkpt lat="48.51504" lon="1.99242">
        <ele>127</ele>
        <time>2019-11-24T08:19:02Z</time>
      </trkpt>
      <trkpt lat="48.51502" lon="1.99253">
        <ele>128</ele>
        <time>2019-11-24T08:19:04Z</time>
      </trkpt>
      <trkpt lat="48.51502" lon="1.99264">
        <ele>127</ele>
        <time>2019-11-24T08:19:06Z</time>
      </trkpt>
      <trkpt lat="48.51501" lon="1.99273">
        <ele>126</ele>
        <time>2019-11-24T08:19:08Z</time>
      </trkpt>
      <trkpt lat="48.515" lon="1.99283">
        <ele>126</ele>
        <time>2019-11-24T08:19:10Z</time>
      </trkpt>
      <trkpt lat="48.51498" lon="1.9929">
        <ele>129</ele>
        <time>2019-11-24T08:19:12Z</time>
      </trkpt>
      <trkpt lat="48.51499" lon="1.99301">
        <ele>129</ele>
        <time>2019-11-24T08:19:14Z</time>
      </trkpt>
      <trkpt lat="48.51499" lon="1.9931">
        <ele>129</ele>
        <time>2019-11-24T08:19:16Z</time>
      </trkpt>
      <trkpt lat="48.515" lon="1.9932">
        <ele>127</ele>
        <time>2019-11-24T08:19:18Z</time>
      </trkpt>
      <trkpt lat="48.515" lon="1.9933">
        <ele>128</ele>
        <time>2019-11-24T08:19:20Z</time>
      </trkpt>
      <trkpt lat="48.51497" lon="1.99346">
        <ele>128</ele>
        <time>2019-11-24T08:19:24Z</time>
      </trkpt>
      <trkpt lat="48.51497" lon="1.99354">
        <ele>128</ele>
        <time>2019-11-24T08:19:26Z</time>
      </trkpt>
      <trkpt lat="48.51495" lon="1.99364">
        <ele>128</ele>
        <time>2019-11-24T08:19:28Z</time>
      </trkpt>
      <trkpt lat="48.51495" lon="1.99375">
        <ele>128</ele>
        <time>2019-11-24T08:19:30Z</time>
      </trkpt>
      <trkpt lat="48.51496" lon="1.99388">
        <ele>128</ele>
        <time>2019-11-24T08:19:32Z</time>
      </trkpt>
      <trkpt lat="48.51497" lon="1.994">
        <ele>127</ele>
        <time>2019-11-24T08:19:34Z</time>
      </trkpt>
      <trkpt lat="48.51495" lon="1.9941">
        <ele>127</ele>
        <time>2019-11-24T08:19:36Z</time>
      </trkpt>
      <trkpt lat="48.51495" lon="1.9942">
        <ele>126</ele>
        <time>2019-11-24T08:19:38Z</time>
      </trkpt>
      <trkpt lat="48.51493" lon="1.9943">
        <ele>127</ele>
        <time>2019-11-24T08:19:40Z</time>
      </trkpt>
      <trkpt lat="48.51491" lon="1.9944">
        <ele>127</ele>
        <time>2019-11-24T08:19:42Z</time>
      </trkpt>
      <trkpt lat="48.51488" lon="1.9945">
        <ele>127</ele>
        <time>2019-11-24T08:19:44Z</time>
      </trkpt>
      <trkpt lat="48.51486" lon="1.9946">
        <ele>128</ele>
        <time>2019-11-24T08:19:46Z</time>
      </trkpt>
      <trkpt lat="48.51482" lon="1.9947">
        <ele>128</ele>
        <time>2019-11-24T08:19:48Z</time>
      </trkpt>
      <trkpt lat="48.5148" lon="1.9948">
        <ele>128</ele>
        <time>2019-11-24T08:19:50Z</time>
      </trkpt>
      <trkpt lat="48.51479" lon="1.99488">
        <ele>128</ele>
        <time>2019-11-24T08:19:52Z</time>
      </trkpt>
      <trkpt lat="48.51478" lon="1.995">
        <ele>128</ele>
        <time>2019-11-24T08:19:54Z</time>
      </trkpt>
      <trkpt lat="48.51478" lon="1.99514">
        <ele>128</ele>
        <time>2019-11-24T08:19:56Z</time>
      </trkpt>
      <trkpt lat="48.51478" lon="1.99525">
        <ele>128</ele>
        <time>2019-11-24T08:19:58Z</time>
      </trkpt>
      <trkpt lat="48.51477" lon="1.99536">
        <ele>128</ele>
        <time>2019-11-24T08:20:00Z</time>
      </trkpt>
      <trkpt lat="48.51475" lon="1.99548">
        <ele>128</ele>
        <time>2019-11-24T08:20:02Z</time>
      </trkpt>
      <trkpt lat="48.51474" lon="1.9956">
        <ele>128</ele>
        <time>2019-11-24T08:20:04Z</time>
      </trkpt>
      <trkpt lat="48.51472" lon="1.99572">
        <ele>128</ele>
        <time>2019-11-24T08:20:06Z</time>
      </trkpt>
      <trkpt lat="48.51469" lon="1.99583">
        <ele>128</ele>
        <time>2019-11-24T08:20:08Z</time>
      </trkpt>
      <trkpt lat="48.51466" lon="1.99596">
        <ele>127</ele>
        <time>2019-11-24T08:20:10Z</time>
      </trkpt>
      <trkpt lat="48.51464" lon="1.99604">
        <ele>127</ele>
        <time>2019-11-24T08:20:12Z</time>
      </trkpt>
      <trkpt lat="48.51463" lon="1.99614">
        <ele>127</ele>
        <time>2019-11-24T08:20:14Z</time>
      </trkpt>
      <trkpt lat="48.51461" lon="1.99623">
        <ele>127</ele>
        <time>2019-11-24T08:20:16Z</time>
      </trkpt>
      <trkpt lat="48.51459" lon="1.9963">
        <ele>127</ele>
        <time>2019-11-24T08:20:18Z</time>
      </trkpt>
      <trkpt lat="48.51457" lon="1.9964">
        <ele>127</ele>
        <time>2019-11-24T08:20:20Z</time>
      </trkpt>
      <trkpt lat="48.51455" lon="1.99654">
        <ele>127</ele>
        <time>2019-11-24T08:20:22Z</time>
      </trkpt>
      <trkpt lat="48.51453" lon="1.99665">
        <ele>127</ele>
        <time>2019-11-24T08:20:24Z</time>
      </trkpt>
      <trkpt lat="48.51452" lon="1.99677">
        <ele>126</ele>
        <time>2019-11-24T08:20:26Z</time>
      </trkpt>
      <trkpt lat="48.51452" lon="1.99688">
        <ele>126</ele>
        <time>2019-11-24T08:20:28Z</time>
      </trkpt>
      <trkpt lat="48.51449" lon="1.99702">
        <ele>125</ele>
        <time>2019-11-24T08:20:32Z</time>
      </trkpt>
      <trkpt lat="48.51449" lon="1.99709">
        <ele>125</ele>
        <time>2019-11-24T08:20:34Z</time>
      </trkpt>
      <trkpt lat="48.51446" lon="1.99716">
        <ele>125</ele>
        <time>2019-11-24T08:20:36Z</time>
      </trkpt>
      <trkpt lat="48.51441" lon="1.9972">
        <ele>125</ele>
        <time>2019-11-24T08:20:38Z</time>
      </trkpt>
      <trkpt lat="48.51444" lon="1.99729">
        <ele>125</ele>
        <time>2019-11-24T08:20:40Z</time>
      </trkpt>
      <trkpt lat="48.51449" lon="1.99739">
        <ele>125</ele>
        <time>2019-11-24T08:20:42Z</time>
      </trkpt>
      <trkpt lat="48.51455" lon="1.9975">
        <ele>124</ele>
        <time>2019-11-24T08:20:44Z</time>
      </trkpt>
      <trkpt lat="48.51461" lon="1.99759">
        <ele>124</ele>
        <time>2019-11-24T08:20:46Z</time>
      </trkpt>
      <trkpt lat="48.51467" lon="1.99771">
        <ele>124</ele>
        <time>2019-11-24T08:20:48Z</time>
      </trkpt>
      <trkpt lat="48.51473" lon="1.99782">
        <ele>124</ele>
        <time>2019-11-24T08:20:50Z</time>
      </trkpt>
      <trkpt lat="48.5148" lon="1.99793">
        <ele>124</ele>
        <time>2019-11-24T08:20:52Z</time>
      </trkpt>
      <trkpt lat="48.51485" lon="1.99804">
        <ele>123</ele>
        <time>2019-11-24T08:20:54Z</time>
      </trkpt>
      <trkpt lat="48.51493" lon="1.99816">
        <ele>123</ele>
        <time>2019-11-24T08:20:56Z</time>
      </trkpt>
      <trkpt lat="48.51499" lon="1.99826">
        <ele>122</ele>
        <time>2019-11-24T08:20:58Z</time>
      </trkpt>
      <trkpt lat="48.51506" lon="1.99837">
        <ele>120</ele>
        <time>2019-11-24T08:21:00Z</time>
      </trkpt>
      <trkpt lat="48.51512" lon="1.99849">
        <ele>118</ele>
        <time>2019-11-24T08:21:02Z</time>
      </trkpt>
      <trkpt lat="48.51519" lon="1.99862">
        <ele>117</ele>
        <time>2019-11-24T08:21:04Z</time>
      </trkpt>
      <trkpt lat="48.51528" lon="1.99874">
        <ele>117</ele>
        <time>2019-11-24T08:21:06Z</time>
      </trkpt>
      <trkpt lat="48.51533" lon="1.99881">
        <ele>116</ele>
        <time>2019-11-24T08:21:08Z</time>
      </trkpt>
      <trkpt lat="48.51535" lon="1.99892">
        <ele>116</ele>
        <time>2019-11-24T08:21:10Z</time>
      </trkpt>
      <trkpt lat="48.51532" lon="1.99901">
        <ele>116</ele>
        <time>2019-11-24T08:21:12Z</time>
      </trkpt>
      <trkpt lat="48.51527" lon="1.99911">
        <ele>117</ele>
        <time>2019-11-24T08:21:14Z</time>
      </trkpt>
      <trkpt lat="48.51522" lon="1.99923">
        <ele>116</ele>
        <time>2019-11-24T08:21:16Z</time>
      </trkpt>
      <trkpt lat="48.51518" lon="1.99936">
        <ele>115</ele>
        <time>2019-11-24T08:21:18Z</time>
      </trkpt>
      <trkpt lat="48.51512" lon="1.99949">
        <ele>115</ele>
        <time>2019-11-24T08:21:20Z</time>
      </trkpt>
      <trkpt lat="48.51505" lon="1.99961">
        <ele>114</ele>
        <time>2019-11-24T08:21:22Z</time>
      </trkpt>
      <trkpt lat="48.51501" lon="1.99976">
        <ele>114</ele>
        <time>2019-11-24T08:21:24Z</time>
      </trkpt>
      <trkpt lat="48.51495" lon="1.9999">
        <ele>116</ele>
        <time>2019-11-24T08:21:26Z</time>
      </trkpt>
      <trkpt lat="48.5149" lon="2.00003">
        <ele>114</ele>
        <time>2019-11-24T08:21:28Z</time>
      </trkpt>
      <trkpt lat="48.51485" lon="2.0002">
        <ele>115</ele>
        <time>2019-11-24T08:21:30Z</time>
      </trkpt>
      <trkpt lat="48.51479" lon="2.00035">
        <ele>114</ele>
        <time>2019-11-24T08:21:32Z</time>
      </trkpt>
      <trkpt lat="48.51474" lon="2.0005">
        <ele>114</ele>
        <time>2019-11-24T08:21:34Z</time>
      </trkpt>
      <trkpt lat="48.51468" lon="2.00065">
        <ele>114</ele>
        <time>2019-11-24T08:21:36Z</time>
      </trkpt>
      <trkpt lat="48.51464" lon="2.0008">
        <ele>114</ele>
        <time>2019-11-24T08:21:38Z</time>
      </trkpt>
      <trkpt lat="48.51459" lon="2.00095">
        <ele>111</ele>
        <time>2019-11-24T08:21:40Z</time>
      </trkpt>
      <trkpt lat="48.51453" lon="2.00109">
        <ele>111</ele>
        <time>2019-11-24T08:21:42Z</time>
      </trkpt>
      <trkpt lat="48.51448" lon="2.00123">
        <ele>111</ele>
        <time>2019-11-24T08:21:44Z</time>
      </trkpt>
      <trkpt lat="48.51444" lon="2.00137">
        <ele>111</ele>
        <time>2019-11-24T08:21:46Z</time>
      </trkpt>
      <trkpt lat="48.51438" lon="2.0015">
        <ele>110</ele>
        <time>2019-11-24T08:21:48Z</time>
      </trkpt>
      <trkpt lat="48.5143" lon="2.00164">
        <ele>110</ele>
        <time>2019-11-24T08:21:50Z</time>
      </trkpt>
      <trkpt lat="48.51424" lon="2.00176">
        <ele>108</ele>
        <time>2019-11-24T08:21:52Z</time>
      </trkpt>
      <trkpt lat="48.51418" lon="2.00186">
        <ele>108</ele>
        <time>2019-11-24T08:21:54Z</time>
      </trkpt>
      <trkpt lat="48.51411" lon="2.00194">
        <ele>110</ele>
        <time>2019-11-24T08:21:56Z</time>
      </trkpt>
      <trkpt lat="48.51403" lon="2.00203">
        <ele>109</ele>
        <time>2019-11-24T08:21:58Z</time>
      </trkpt>
      <trkpt lat="48.51394" lon="2.00212">
        <ele>109</ele>
        <time>2019-11-24T08:22:00Z</time>
      </trkpt>
      <trkpt lat="48.51383" lon="2.00221">
        <ele>110</ele>
        <time>2019-11-24T08:22:02Z</time>
      </trkpt>
      <trkpt lat="48.51375" lon="2.00227">
        <ele>110</ele>
        <time>2019-11-24T08:22:04Z</time>
      </trkpt>
      <trkpt lat="48.51368" lon="2.00233">
        <ele>110</ele>
        <time>2019-11-24T08:22:06Z</time>
      </trkpt>
      <trkpt lat="48.51364" lon="2.00241">
        <ele>111</ele>
        <time>2019-11-24T08:22:08Z</time>
      </trkpt>
      <trkpt lat="48.51364" lon="2.00254">
        <ele>111</ele>
        <time>2019-11-24T08:22:12Z</time>
      </trkpt>
      <trkpt lat="48.51369" lon="2.00265">
        <ele>110</ele>
        <time>2019-11-24T08:22:14Z</time>
      </trkpt>
      <trkpt lat="48.51372" lon="2.00275">
        <ele>110</ele>
        <time>2019-11-24T08:22:16Z</time>
      </trkpt>
      <trkpt lat="48.51374" lon="2.00286">
        <ele>110</ele>
        <time>2019-11-24T08:22:18Z</time>
      </trkpt>
      <trkpt lat="48.51378" lon="2.00296">
        <ele>110</ele>
        <time>2019-11-24T08:22:20Z</time>
      </trkpt>
      <trkpt lat="48.51381" lon="2.00305">
        <ele>110</ele>
        <time>2019-11-24T08:22:22Z</time>
      </trkpt>
      <trkpt lat="48.51385" lon="2.00314">
        <ele>110</ele>
        <time>2019-11-24T08:22:24Z</time>
      </trkpt>
      <trkpt lat="48.51387" lon="2.00323">
        <ele>109</ele>
        <time>2019-11-24T08:22:26Z</time>
      </trkpt>
      <trkpt lat="48.51387" lon="2.00331">
        <ele>109</ele>
        <time>2019-11-24T08:22:28Z</time>
      </trkpt>
      <trkpt lat="48.51388" lon="2.00343">
        <ele>111</ele>
        <time>2019-11-24T08:22:30Z</time>
      </trkpt>
      <trkpt lat="48.51388" lon="2.00352">
        <ele>111</ele>
        <time>2019-11-24T08:22:32Z</time>
      </trkpt>
      <trkpt lat="48.51389" lon="2.00363">
        <ele>111</ele>
        <time>2019-11-24T08:22:34Z</time>
      </trkpt>
      <trkpt lat="48.51389" lon="2.00373">
        <ele>112</ele>
        <time>2019-11-24T08:22:36Z</time>
      </trkpt>
      <trkpt lat="48.5139" lon="2.00381">
        <ele>112</ele>
        <time>2019-11-24T08:22:38Z</time>
      </trkpt>
      <trkpt lat="48.51391" lon="2.00389">
        <ele>112</ele>
        <time>2019-11-24T08:22:40Z</time>
      </trkpt>
      <trkpt lat="48.5139" lon="2.00405">
        <ele>112</ele>
        <time>2019-11-24T08:22:44Z</time>
      </trkpt>
      <trkpt lat="48.5139" lon="2.00416">
        <ele>112</ele>
        <time>2019-11-24T08:22:46Z</time>
      </trkpt>
      <trkpt lat="48.51391" lon="2.0043">
        <ele>113</ele>
        <time>2019-11-24T08:22:48Z</time>
      </trkpt>
      <trkpt lat="48.51391" lon="2.00441">
        <ele>113</ele>
        <time>2019-11-24T08:22:50Z</time>
      </trkpt>
      <trkpt lat="48.51391" lon="2.00451">
        <ele>113</ele>
        <time>2019-11-24T08:22:52Z</time>
      </trkpt>
      <trkpt lat="48.51391" lon="2.00464">
        <ele>114</ele>
        <time>2019-11-24T08:22:54Z</time>
      </trkpt>
      <trkpt lat="48.51392" lon="2.00476">
        <ele>113</ele>
        <time>2019-11-24T08:22:56Z</time>
      </trkpt>
      <trkpt lat="48.51392" lon="2.00489">
        <ele>113</ele>
        <time>2019-11-24T08:22:58Z</time>
      </trkpt>
      <trkpt lat="48.51392" lon="2.00502">
        <ele>114</ele>
        <time>2019-11-24T08:23:00Z</time>
      </trkpt>
      <trkpt lat="48.51395" lon="2.00516">
        <ele>114</ele>
        <time>2019-11-24T08:23:02Z</time>
      </trkpt>
      <trkpt lat="48.51395" lon="2.00528">
        <ele>114</ele>
        <time>2019-11-24T08:23:04Z</time>
      </trkpt>
      <trkpt lat="48.51397" lon="2.0054">
        <ele>114</ele>
        <time>2019-11-24T08:23:06Z</time>
      </trkpt>
      <trkpt lat="48.51399" lon="2.00553">
        <ele>114</ele>
        <time>2019-11-24T08:23:08Z</time>
      </trkpt>
      <trkpt lat="48.51401" lon="2.00564">
        <ele>114</ele>
        <time>2019-11-24T08:23:10Z</time>
      </trkpt>
      <trkpt lat="48.51403" lon="2.00576">
        <ele>113</ele>
        <time>2019-11-24T08:23:12Z</time>
      </trkpt>
      <trkpt lat="48.51406" lon="2.00591">
        <ele>113</ele>
        <time>2019-11-24T08:23:14Z</time>
      </trkpt>
      <trkpt lat="48.51409" lon="2.00604">
        <ele>114</ele>
        <time>2019-11-24T08:23:16Z</time>
      </trkpt>
      <trkpt lat="48.51411" lon="2.00615">
        <ele>114</ele>
        <time>2019-11-24T08:23:18Z</time>
      </trkpt>
      <trkpt lat="48.51413" lon="2.00626">
        <ele>114</ele>
        <time>2019-11-24T08:23:20Z</time>
      </trkpt>
      <trkpt lat="48.51415" lon="2.00639">
        <ele>114</ele>
        <time>2019-11-24T08:23:22Z</time>
      </trkpt>
      <trkpt lat="48.51417" lon="2.00653">
        <ele>110</ele>
        <time>2019-11-24T08:23:24Z</time>
      </trkpt>
      <trkpt lat="48.51419" lon="2.00665">
        <ele>111</ele>
        <time>2019-11-24T08:23:26Z</time>
      </trkpt>
      <trkpt lat="48.51422" lon="2.00676">
        <ele>110</ele>
        <time>2019-11-24T08:23:28Z</time>
      </trkpt>
      <trkpt lat="48.51425" lon="2.00684">
        <ele>110</ele>
        <time>2019-11-24T08:23:30Z</time>
      </trkpt>
      <trkpt lat="48.5143" lon="2.00694">
        <ele>110</ele>
        <time>2019-11-24T08:23:32Z</time>
      </trkpt>
      <trkpt lat="48.51433" lon="2.00704">
        <ele>109</ele>
        <time>2019-11-24T08:23:34Z</time>
      </trkpt>
      <trkpt lat="48.51438" lon="2.00713">
        <ele>109</ele>
        <time>2019-11-24T08:23:36Z</time>
      </trkpt>
      <trkpt lat="48.51443" lon="2.00724">
        <ele>109</ele>
        <time>2019-11-24T08:23:38Z</time>
      </trkpt>
      <trkpt lat="48.51449" lon="2.00737">
        <ele>109</ele>
        <time>2019-11-24T08:23:40Z</time>
      </trkpt>
      <trkpt lat="48.51452" lon="2.00749">
        <ele>109</ele>
        <time>2019-11-24T08:23:42Z</time>
      </trkpt>
      <trkpt lat="48.51456" lon="2.00763">
        <ele>110</ele>
        <time>2019-11-24T08:23:44Z</time>
      </trkpt>
      <trkpt lat="48.5146" lon="2.00776">
        <ele>110</ele>
        <time>2019-11-24T08:23:46Z</time>
      </trkpt>
      <trkpt lat="48.51463" lon="2.00788">
        <ele>110</ele>
        <time>2019-11-24T08:23:48Z</time>
      </trkpt>
      <trkpt lat="48.51468" lon="2.008">
        <ele>110</ele>
        <time>2019-11-24T08:23:50Z</time>
      </trkpt>
      <trkpt lat="48.51471" lon="2.00813">
        <ele>110</ele>
        <time>2019-11-24T08:23:52Z</time>
      </trkpt>
      <trkpt lat="48.51475" lon="2.00825">
        <ele>110</ele>
        <time>2019-11-24T08:23:54Z</time>
      </trkpt>
      <trkpt lat="48.51478" lon="2.00837">
        <ele>110</ele>
        <time>2019-11-24T08:23:56Z</time>
      </trkpt>
      <trkpt lat="48.51479" lon="2.00847">
        <ele>110</ele>
        <time>2019-11-24T08:23:58Z</time>
      </trkpt>
      <trkpt lat="48.5148" lon="2.0086">
        <ele>110</ele>
        <time>2019-11-24T08:24:00Z</time>
      </trkpt>
      <trkpt lat="48.51481" lon="2.00874">
        <ele>110</ele>
        <time>2019-11-24T08:24:02Z</time>
      </trkpt>
      <trkpt lat="48.51479" lon="2.00887">
        <ele>110</ele>
        <time>2019-11-24T08:24:04Z</time>
      </trkpt>
      <trkpt lat="48.51476" lon="2.00899">
        <ele>109</ele>
        <time>2019-11-24T08:24:06Z</time>
      </trkpt>
      <trkpt lat="48.51474" lon="2.00909">
        <ele>109</ele>
        <time>2019-11-24T08:24:08Z</time>
      </trkpt>
      <trkpt lat="48.51472" lon="2.00919">
        <ele>109</ele>
        <time>2019-11-24T08:24:10Z</time>
      </trkpt>
      <trkpt lat="48.51469" lon="2.00927">
        <ele>109</ele>
        <time>2019-11-24T08:24:12Z</time>
      </trkpt>
      <trkpt lat="48.51466" lon="2.00936">
        <ele>109</ele>
        <time>2019-11-24T08:24:14Z</time>
      </trkpt>
      <trkpt lat="48.51462" lon="2.00944">
        <ele>109</ele>
        <time>2019-11-24T08:24:16Z</time>
      </trkpt>
      <trkpt lat="48.51459" lon="2.00953">
        <ele>109</ele>
        <time>2019-11-24T08:24:18Z</time>
      </trkpt>
      <trkpt lat="48.51453" lon="2.00959">
        <ele>110</ele>
        <time>2019-11-24T08:24:20Z</time>
      </trkpt>
      <trkpt lat="48.51446" lon="2.00963">
        <ele>110</ele>
        <time>2019-11-24T08:24:22Z</time>
      </trkpt>
      <trkpt lat="48.51439" lon="2.00967">
        <ele>110</ele>
        <time>2019-11-24T08:24:24Z</time>
      </trkpt>
      <trkpt lat="48.51432" lon="2.00969">
        <ele>110</ele>
        <time>2019-11-24T08:24:26Z</time>
      </trkpt>
      <trkpt lat="48.51425" lon="2.00971">
        <ele>111</ele>
        <time>2019-11-24T08:24:28Z</time>
      </trkpt>
      <trkpt lat="48.51418" lon="2.00976">
        <ele>111</ele>
        <time>2019-11-24T08:24:30Z</time>
      </trkpt>
      <trkpt lat="48.5141" lon="2.00979">
        <ele>114</ele>
        <time>2019-11-24T08:24:32Z</time>
      </trkpt>
      <trkpt lat="48.51405" lon="2.00986">
        <ele>114</ele>
        <time>2019-11-24T08:24:34Z</time>
      </trkpt>
      <trkpt lat="48.51401" lon="2.00993">
        <ele>114</ele>
        <time>2019-11-24T08:24:36Z</time>
      </trkpt>
      <trkpt lat="48.51396" lon="2.00999">
        <ele>114</ele>
        <time>2019-11-24T08:24:38Z</time>
      </trkpt>
      <trkpt lat="48.51392" lon="2.01005">
        <ele>115</ele>
        <time>2019-11-24T08:24:40Z</time>
      </trkpt>
      <trkpt lat="48.51388" lon="2.01012">
        <ele>115</ele>
        <time>2019-11-24T08:24:42Z</time>
      </trkpt>
      <trkpt lat="48.51384" lon="2.0102">
        <ele>115</ele>
        <time>2019-11-24T08:24:44Z</time>
      </trkpt>
      <trkpt lat="48.51382" lon="2.01027">
        <ele>115</ele>
        <time>2019-11-24T08:24:46Z</time>
      </trkpt>
      <trkpt lat="48.51377" lon="2.0104">
        <ele>116</ele>
        <time>2019-11-24T08:24:50Z</time>
      </trkpt>
      <trkpt lat="48.51374" lon="2.01045">
        <ele>116</ele>
        <time>2019-11-24T08:24:52Z</time>
      </trkpt>
      <trkpt lat="48.5137" lon="2.01052">
        <ele>116</ele>
        <time>2019-11-24T08:24:54Z</time>
      </trkpt>
      <trkpt lat="48.51366" lon="2.0106">
        <ele>116</ele>
        <time>2019-11-24T08:24:56Z</time>
      </trkpt>
      <trkpt lat="48.51362" lon="2.01067">
        <ele>116</ele>
        <time>2019-11-24T08:24:58Z</time>
      </trkpt>
      <trkpt lat="48.51357" lon="2.01074">
        <ele>116</ele>
        <time>2019-11-24T08:25:00Z</time>
      </trkpt>
      <trkpt lat="48.51354" lon="2.01082">
        <ele>116</ele>
        <time>2019-11-24T08:25:02Z</time>
      </trkpt>
      <trkpt lat="48.51351" lon="2.01089">
        <ele>118</ele>
        <time>2019-11-24T08:25:04Z</time>
      </trkpt>
      <trkpt lat="48.51346" lon="2.01096">
        <ele>118</ele>
        <time>2019-11-24T08:25:06Z</time>
      </trkpt>
      <trkpt lat="48.51339" lon="2.01106">
        <ele>118</ele>
        <time>2019-11-24T08:25:10Z</time>
      </trkpt>
      <trkpt lat="48.51336" lon="2.01112">
        <ele>118</ele>
        <time>2019-11-24T08:25:12Z</time>
      </trkpt>
      <trkpt lat="48.51333" lon="2.01119">
        <ele>120</ele>
        <time>2019-11-24T08:25:14Z</time>
      </trkpt>
      <trkpt lat="48.5133" lon="2.01127">
        <ele>120</ele>
        <time>2019-11-24T08:25:16Z</time>
      </trkpt>
      <trkpt lat="48.51326" lon="2.01134">
        <ele>120</ele>
        <time>2019-11-24T08:25:18Z</time>
      </trkpt>
      <trkpt lat="48.51321" lon="2.01139">
        <ele>120</ele>
        <time>2019-11-24T08:25:20Z</time>
      </trkpt>
      <trkpt lat="48.51317" lon="2.01142">
        <ele>120</ele>
        <time>2019-11-24T08:25:22Z</time>
      </trkpt>
      <trkpt lat="48.51314" lon="2.01149">
        <ele>120</ele>
        <time>2019-11-24T08:25:24Z</time>
      </trkpt>
      <trkpt lat="48.51311" lon="2.01156">
        <ele>120</ele>
        <time>2019-11-24T08:25:26Z</time>
      </trkpt>
      <trkpt lat="48.51308" lon="2.01163">
        <ele>120</ele>
        <time>2019-11-24T08:25:28Z</time>
      </trkpt>
      <trkpt lat="48.51307" lon="2.0117">
        <ele>122</ele>
        <time>2019-11-24T08:25:30Z</time>
      </trkpt>
      <trkpt lat="48.51305" lon="2.01182">
        <ele>123</ele>
        <time>2019-11-24T08:25:34Z</time>
      </trkpt>
      <trkpt lat="48.51303" lon="2.01189">
        <ele>123</ele>
        <time>2019-11-24T08:25:36Z</time>
      </trkpt>
      <trkpt lat="48.51299" lon="2.01197">
        <ele>123</ele>
        <time>2019-11-24T08:25:40Z</time>
      </trkpt>
      <trkpt lat="48.51294" lon="2.01207">
        <ele>124</ele>
        <time>2019-11-24T08:25:44Z</time>
      </trkpt>
      <trkpt lat="48.51289" lon="2.01217">
        <ele>124</ele>
        <time>2019-11-24T08:25:48Z</time>
      </trkpt>
      <trkpt lat="48.51284" lon="2.01227">
        <ele>124</ele>
        <time>2019-11-24T08:25:52Z</time>
      </trkpt>
      <trkpt lat="48.5128" lon="2.01237">
        <ele>125</ele>
        <time>2019-11-24T08:25:56Z</time>
      </trkpt>
      <trkpt lat="48.51276" lon="2.01241">
        <ele>125</ele>
        <time>2019-11-24T08:25:58Z</time>
      </trkpt>
      <trkpt lat="48.51273" lon="2.01254">
        <ele>127</ele>
        <time>2019-11-24T08:26:02Z</time>
      </trkpt>
      <trkpt lat="48.51267" lon="2.01265">
        <ele>127</ele>
        <time>2019-11-24T08:26:06Z</time>
      </trkpt>
      <trkpt lat="48.51266" lon="2.01272">
        <ele>128</ele>
        <time>2019-11-24T08:26:08Z</time>
      </trkpt>
      <trkpt lat="48.51263" lon="2.01278">
        <ele>128</ele>
        <time>2019-11-24T08:26:10Z</time>
      </trkpt>
      <trkpt lat="48.5126" lon="2.01285">
        <ele>128</ele>
        <time>2019-11-24T08:26:12Z</time>
      </trkpt>
      <trkpt lat="48.51258" lon="2.01291">
        <ele>128</ele>
        <time>2019-11-24T08:26:14Z</time>
      </trkpt>
      <trkpt lat="48.51255" lon="2.01297">
        <ele>128</ele>
        <time>2019-11-24T08:26:16Z</time>
      </trkpt>
      <trkpt lat="48.5125" lon="2.01309">
        <ele>131</ele>
        <time>2019-11-24T08:26:20Z</time>
      </trkpt>
      <trkpt lat="48.51246" lon="2.01312">
        <ele>131</ele>
        <time>2019-11-24T08:26:24Z</time>
      </trkpt>
      <trkpt lat="48.51245" lon="2.0132">
        <ele>131</ele>
        <time>2019-11-24T08:30:00Z</time>
      </trkpt>
      <trkpt lat="48.51241" lon="2.01331">
        <ele>131</ele>
        <time>2019-11-24T08:30:06Z</time>
      </trkpt>
      <trkpt lat="48.51238" lon="2.01337">
        <ele>131</ele>
        <time>2019-11-24T08:30:08Z</time>
      </trkpt>
      <trkpt lat="48.51236" lon="2.01345">
        <ele>132</ele>
        <time>2019-11-24T08:30:10Z</time>
      </trkpt>
      <trkpt lat="48.51232" lon="2.01353">
        <ele>132</ele>
        <time>2019-11-24T08:30:12Z</time>
      </trkpt>
      <trkpt lat="48.51228" lon="2.01363">
        <ele>133</ele>
        <time>2019-11-24T08:30:14Z</time>
      </trkpt>
      <trkpt lat="48.51223" lon="2.01374">
        <ele>133</ele>
        <time>2019-11-24T08:30:16Z</time>
      </trkpt>
      <trkpt lat="48.5122" lon="2.01381">
        <ele>133</ele>
        <time>2019-11-24T08:30:18Z</time>
      </trkpt>
      <trkpt lat="48.51214" lon="2.0139">
        <ele>133</ele>
        <time>2019-11-24T08:30:20Z</time>
      </trkpt>
      <trkpt lat="48.5121" lon="2.01399">
        <ele>133</ele>
        <time>2019-11-24T08:30:22Z</time>
      </trkpt>
      <trkpt lat="48.51205" lon="2.01408">
        <ele>134</ele>
        <time>2019-11-24T08:30:24Z</time>
      </trkpt>
      <trkpt lat="48.512" lon="2.01419">
        <ele>133</ele>
        <time>2019-11-24T08:30:26Z</time>
      </trkpt>
      <trkpt lat="48.51196" lon="2.01428">
        <ele>134</ele>
        <time>2019-11-24T08:30:28Z</time>
      </trkpt>
      <trkpt lat="48.51194" lon="2.01437">
        <ele>134</ele>
        <time>2019-11-24T08:30:30Z</time>
      </trkpt>
      <trkpt lat="48.51189" lon="2.01447">
        <ele>134</ele>
        <time>2019-11-24T08:30:32Z</time>
      </trkpt>
      <trkpt lat="48.51185" lon="2.01452">
        <ele>134</ele>
        <time>2019-11-24T08:30:34Z</time>
      </trkpt>
      <trkpt lat="48.51181" lon="2.01461">
        <ele>134</ele>
        <time>2019-11-24T08:30:36Z</time>
      </trkpt>
      <trkpt lat="48.51177" lon="2.01471">
        <ele>134</ele>
        <time>2019-11-24T08:30:38Z</time>
      </trkpt>
      <trkpt lat="48.51172" lon="2.01479">
        <ele>135</ele>
        <time>2019-11-24T08:30:40Z</time>
      </trkpt>
      <trkpt lat="48.5117" lon="2.01487">
        <ele>136</ele>
        <time>2019-11-24T08:30:42Z</time>
      </trkpt>
      <trkpt lat="48.51169" lon="2.01495">
        <ele>137</ele>
        <time>2019-11-24T08:30:44Z</time>
      </trkpt>
      <trkpt lat="48.51168" lon="2.01502">
        <ele>137</ele>
        <time>2019-11-24T08:30:46Z</time>
      </trkpt>
      <trkpt lat="48.51167" lon="2.01509">
        <ele>136</ele>
        <time>2019-11-24T08:30:48Z</time>
      </trkpt>
      <trkpt lat="48.51165" lon="2.01517">
        <ele>138</ele>
        <time>2019-11-24T08:30:50Z</time>
      </trkpt>
      <trkpt lat="48.51162" lon="2.01525">
        <ele>138</ele>
        <time>2019-11-24T08:30:52Z</time>
      </trkpt>
      <trkpt lat="48.51158" lon="2.01532">
        <ele>138</ele>
        <time>2019-11-24T08:30:54Z</time>
      </trkpt>
      <trkpt lat="48.51156" lon="2.01538">
        <ele>138</ele>
        <time>2019-11-24T08:30:56Z</time>
      </trkpt>
      <trkpt lat="48.51151" lon="2.01549">
        <ele>138</ele>
        <time>2019-11-24T08:31:00Z</time>
      </trkpt>
      <trkpt lat="48.51146" lon="2.01557">
        <ele>137</ele>
        <time>2019-11-24T08:31:04Z</time>
      </trkpt>
      <trkpt lat="48.51143" lon="2.01562">
        <ele>137</ele>
        <time>2019-11-24T08:31:06Z</time>
      </trkpt>
      <trkpt lat="48.51138" lon="2.01568">
        <ele>137</ele>
        <time>2019-11-24T08:31:08Z</time>
      </trkpt>
      <trkpt lat="48.51132" lon="2.01577">
        <ele>137</ele>
        <time>2019-11-24T08:31:10Z</time>
      </trkpt>
      <trkpt lat="48.51128" lon="2.01586">
        <ele>134</ele>
        <time>2019-11-24T08:31:12Z</time>
      </trkpt>
      <trkpt lat="48.51121" lon="2.01601">
        <ele>134</ele>
        <time>2019-11-24T08:31:14Z</time>
      </trkpt>
      <trkpt lat="48.51115" lon="2.01615">
        <ele>134</ele>
        <time>2019-11-24T08:31:16Z</time>
      </trkpt>
      <trkpt lat="48.51107" lon="2.01628">
        <ele>133</ele>
        <time>2019-11-24T08:31:18Z</time>
      </trkpt>
      <trkpt lat="48.51093" lon="2.01638">
        <ele>132</ele>
        <time>2019-11-24T08:31:20Z</time>
      </trkpt>
      <trkpt lat="48.5108" lon="2.01646">
        <ele>132</ele>
        <time>2019-11-24T08:31:22Z</time>
      </trkpt>
      <trkpt lat="48.51068" lon="2.01653">
        <ele>131</ele>
        <time>2019-11-24T08:31:24Z</time>
      </trkpt>
      <trkpt lat="48.51059" lon="2.01661">
        <ele>131</ele>
        <time>2019-11-24T08:31:26Z</time>
      </trkpt>
      <trkpt lat="48.51047" lon="2.01665">
        <ele>131</ele>
        <time>2019-11-24T08:31:28Z</time>
      </trkpt>
      <trkpt lat="48.51042" lon="2.01663">
        <ele>131</ele>
        <time>2019-11-24T08:31:30Z</time>
      </trkpt>
      <trkpt lat="48.51038" lon="2.01655">
        <ele>132</ele>
        <time>2019-11-24T08:31:32Z</time>
      </trkpt>
      <trkpt lat="48.51034" lon="2.01648">
        <ele>132</ele>
        <time>2019-11-24T08:31:34Z</time>
      </trkpt>
      <trkpt lat="48.51032" lon="2.01641">
        <ele>132</ele>
        <time>2019-11-24T08:31:36Z</time>
      </trkpt>
      <trkpt lat="48.51029" lon="2.01633">
        <ele>132</ele>
        <time>2019-11-24T08:31:38Z</time>
      </trkpt>
      <trkpt lat="48.51025" lon="2.01624">
        <ele>132</ele>
        <time>2019-11-24T08:31:40Z</time>
      </trkpt>
      <trkpt lat="48.5102" lon="2.01618">
        <ele>133</ele>
        <time>2019-11-24T08:31:42Z</time>
      </trkpt>
      <trkpt lat="48.51016" lon="2.01613">
        <ele>133</ele>
        <time>2019-11-24T08:31:44Z</time>
      </trkpt>
      <trkpt lat="48.51012" lon="2.01607">
        <ele>133</ele>
        <time>2019-11-24T08:31:46Z</time>
      </trkpt>
      <trkpt lat="48.51009" lon="2.01601">
        <ele>134</ele>
        <time>2019-11-24T08:31:48Z</time>
      </trkpt>
      <trkpt lat="48.51005" lon="2.01591">
        <ele>134</ele>
        <time>2019-11-24T08:31:52Z</time>
      </trkpt>
      <trkpt lat="48.51" lon="2.0158">
        <ele>135</ele>
        <time>2019-11-24T08:31:56Z</time>
      </trkpt>
      <trkpt lat="48.50995" lon="2.01576">
        <ele>136</ele>
        <time>2019-11-24T08:31:58Z</time>
      </trkpt>
      <trkpt lat="48.50992" lon="2.01571">
        <ele>136</ele>
        <time>2019-11-24T08:32:00Z</time>
      </trkpt>
      <trkpt lat="48.50989" lon="2.01561">
        <ele>137</ele>
        <time>2019-11-24T08:32:04Z</time>
      </trkpt>
      <trkpt lat="48.50987" lon="2.01549">
        <ele>137</ele>
        <time>2019-11-24T08:32:08Z</time>
      </trkpt>
      <trkpt lat="48.50983" lon="2.01539">
        <ele>138</ele>
        <time>2019-11-24T08:32:12Z</time>
      </trkpt>
      <trkpt lat="48.50981" lon="2.01529">
        <ele>138</ele>
        <time>2019-11-24T08:32:16Z</time>
      </trkpt>
      <trkpt lat="48.5098" lon="2.01519">
        <ele>138</ele>
        <time>2019-11-24T08:32:20Z</time>
      </trkpt>
      <trkpt lat="48.50977" lon="2.0151">
        <ele>139</ele>
        <time>2019-11-24T08:32:24Z</time>
      </trkpt>
      <trkpt lat="48.50976" lon="2.01501">
        <ele>139</ele>
        <time>2019-11-24T08:32:28Z</time>
      </trkpt>
      <trkpt lat="48.50974" lon="2.01491">
        <ele>142</ele>
        <time>2019-11-24T08:32:32Z</time>
      </trkpt>
      <trkpt lat="48.50972" lon="2.01481">
        <ele>142</ele>
        <time>2019-11-24T08:32:36Z</time>
      </trkpt>
      <trkpt lat="48.50968" lon="2.01473">
        <ele>142</ele>
        <time>2019-11-24T08:32:40Z</time>
      </trkpt>
      <trkpt lat="48.50966" lon="2.01463">
        <ele>142</ele>
        <time>2019-11-24T08:32:44Z</time>
      </trkpt>
      <trkpt lat="48.50963" lon="2.01452">
        <ele>143</ele>
        <time>2019-11-24T08:32:48Z</time>
      </trkpt>
      <trkpt lat="48.50959" lon="2.01442">
        <ele>143</ele>
        <time>2019-11-24T08:32:52Z</time>
      </trkpt>
      <trkpt lat="48.50956" lon="2.01431">
        <ele>143</ele>
        <time>2019-11-24T08:32:56Z</time>
      </trkpt>
      <trkpt lat="48.5095" lon="2.01422">
        <ele>143</ele>
        <time>2019-11-24T08:33:00Z</time>
      </trkpt>
      <trkpt lat="48.50945" lon="2.01414">
        <ele>147</ele>
        <time>2019-11-24T08:33:04Z</time>
      </trkpt>
      <trkpt lat="48.50941" lon="2.01408">
        <ele>147</ele>
        <time>2019-11-24T08:33:08Z</time>
      </trkpt>
      <trkpt lat="48.50935" lon="2.01398">
        <ele>147</ele>
        <time>2019-11-24T08:33:12Z</time>
      </trkpt>
      <trkpt lat="48.50933" lon="2.01391">
        <ele>147</ele>
        <time>2019-11-24T08:33:14Z</time>
      </trkpt>
      <trkpt lat="48.50931" lon="2.01384">
        <ele>148</ele>
        <time>2019-11-24T08:33:16Z</time>
      </trkpt>
      <trkpt lat="48.50926" lon="2.01375">
        <ele>148</ele>
        <time>2019-11-24T08:33:20Z</time>
      </trkpt>
      <trkpt lat="48.50922" lon="2.01369">
        <ele>149</ele>
        <time>2019-11-24T08:33:22Z</time>
      </trkpt>
      <trkpt lat="48.50918" lon="2.01363">
        <ele>149</ele>
        <time>2019-11-24T08:33:24Z</time>
      </trkpt>
      <trkpt lat="48.50913" lon="2.01351">
        <ele>150</ele>
        <time>2019-11-24T08:33:28Z</time>
      </trkpt>
      <trkpt lat="48.50907" lon="2.01341">
        <ele>151</ele>
        <time>2019-11-24T08:33:32Z</time>
      </trkpt>
      <trkpt lat="48.50905" lon="2.01335">
        <ele>151</ele>
        <time>2019-11-24T08:33:34Z</time>
      </trkpt>
      <trkpt lat="48.50902" lon="2.01329">
        <ele>153</ele>
        <time>2019-11-24T08:33:36Z</time>
      </trkpt>
      <trkpt lat="48.50899" lon="2.01323">
        <ele>154</ele>
        <time>2019-11-24T08:33:38Z</time>
      </trkpt>
      <trkpt lat="48.50897" lon="2.01316">
        <ele>154</ele>
        <time>2019-11-24T08:33:40Z</time>
      </trkpt>
      <trkpt lat="48.50894" lon="2.0131">
        <ele>154</ele>
        <time>2019-11-24T08:33:42Z</time>
      </trkpt>
      <trkpt lat="48.50892" lon="2.01303">
        <ele>154</ele>
        <time>2019-11-24T08:33:44Z</time>
      </trkpt>
      <trkpt lat="48.50888" lon="2.01296">
        <ele>155</ele>
        <time>2019-11-24T08:33:46Z</time>
      </trkpt>
      <trkpt lat="48.50883" lon="2.01288">
        <ele>155</ele>
        <time>2019-11-24T08:33:50Z</time>
      </trkpt>
      <trkpt lat="48.50879" lon="2.01283">
        <ele>155</ele>
        <time>2019-11-24T08:33:52Z</time>
      </trkpt>
      <trkpt lat="48.50871" lon="2.01273">
        <ele>155</ele>
        <time>2019-11-24T08:33:56Z</time>
      </trkpt>
      <trkpt lat="48.50868" lon="2.01269">
        <ele>155</ele>
        <time>2019-11-24T08:33:58Z</time>
      </trkpt>
      <trkpt lat="48.50864" lon="2.01263">
        <ele>155</ele>
        <time>2019-11-24T08:34:00Z</time>
      </trkpt>
      <trkpt lat="48.5086" lon="2.01257">
        <ele>156</ele>
        <time>2019-11-24T08:34:02Z</time>
      </trkpt>
      <trkpt lat="48.50853" lon="2.01248">
        <ele>157</ele>
        <time>2019-11-24T08:34:06Z</time>
      </trkpt>
      <trkpt lat="48.5085" lon="2.01243">
        <ele>157</ele>
        <time>2019-11-24T08:34:08Z</time>
      </trkpt>
      <trkpt lat="48.50846" lon="2.01237">
        <ele>158</ele>
        <time>2019-11-24T08:34:10Z</time>
      </trkpt>
      <trkpt lat="48.50843" lon="2.01232">
        <ele>158</ele>
        <time>2019-11-24T08:34:12Z</time>
      </trkpt>
      <trkpt lat="48.50839" lon="2.01227">
        <ele>158</ele>
        <time>2019-11-24T08:34:14Z</time>
      </trkpt>
      <trkpt lat="48.50835" lon="2.01221">
        <ele>158</ele>
        <time>2019-11-24T08:34:16Z</time>
      </trkpt>
      <trkpt lat="48.50832" lon="2.01215">
        <ele>158</ele>
        <time>2019-11-24T08:34:18Z</time>
      </trkpt>
      <trkpt lat="48.50828" lon="2.0121">
        <ele>159</ele>
        <time>2019-11-24T08:34:20Z</time>
      </trkpt>
      <trkpt lat="48.50825" lon="2.01204">
        <ele>159</ele>
        <time>2019-11-24T08:34:22Z</time>
      </trkpt>
      <trkpt lat="48.50821" lon="2.01198">
        <ele>159</ele>
        <time>2019-11-24T08:34:24Z</time>
      </trkpt>
      <trkpt lat="48.50818" lon="2.01192">
        <ele>159</ele>
        <time>2019-11-24T08:34:26Z</time>
      </trkpt>
      <trkpt lat="48.50814" lon="2.01184">
        <ele>159</ele>
        <time>2019-11-24T08:34:30Z</time>
      </trkpt>
      <trkpt lat="48.50808" lon="2.01174">
        <ele>159</ele>
        <time>2019-11-24T08:34:34Z</time>
      </trkpt>
      <trkpt lat="48.50804" lon="2.01162">
        <ele>160</ele>
        <time>2019-11-24T08:34:38Z</time>
      </trkpt>
      <trkpt lat="48.50802" lon="2.01149">
        <ele>160</ele>
        <time>2019-11-24T08:34:42Z</time>
      </trkpt>
      <trkpt lat="48.50801" lon="2.01142">
        <ele>160</ele>
        <time>2019-11-24T08:34:44Z</time>
      </trkpt>
      <trkpt lat="48.508" lon="2.01135">
        <ele>160</ele>
        <time>2019-11-24T08:34:46Z</time>
      </trkpt>
      <trkpt lat="48.508" lon="2.01127">
        <ele>160</ele>
        <time>2019-11-24T08:34:48Z</time>
      </trkpt>
      <trkpt lat="48.50801" lon="2.0112">
        <ele>161</ele>
        <time>2019-11-24T08:34:50Z</time>
      </trkpt>
      <trkpt lat="48.50801" lon="2.01112">
        <ele>161</ele>
        <time>2019-11-24T08:34:52Z</time>
      </trkpt>
      <trkpt lat="48.508" lon="2.01104">
        <ele>161</ele>
        <time>2019-11-24T08:34:54Z</time>
      </trkpt>
      <trkpt lat="48.50798" lon="2.01097">
        <ele>161</ele>
        <time>2019-11-24T08:34:56Z</time>
      </trkpt>
      <trkpt lat="48.50798" lon="2.01089">
        <ele>161</ele>
        <time>2019-11-24T08:34:58Z</time>
      </trkpt>
      <trkpt lat="48.50797" lon="2.01081">
        <ele>161</ele>
        <time>2019-11-24T08:35:00Z</time>
      </trkpt>
      <trkpt lat="48.50797" lon="2.01072">
        <ele>161</ele>
        <time>2019-11-24T08:35:04Z</time>
      </trkpt>
      <trkpt lat="48.50796" lon="2.01065">
        <ele>161</ele>
        <time>2019-11-24T08:35:06Z</time>
      </trkpt>
      <trkpt lat="48.50794" lon="2.01052">
        <ele>161</ele>
        <time>2019-11-24T08:35:10Z</time>
      </trkpt>
      <trkpt lat="48.50793" lon="2.01045">
        <ele>161</ele>
        <time>2019-11-24T08:35:12Z</time>
      </trkpt>
      <trkpt lat="48.50791" lon="2.01031">
        <ele>161</ele>
        <time>2019-11-24T08:35:16Z</time>
      </trkpt>
      <trkpt lat="48.50791" lon="2.01023">
        <ele>161</ele>
        <time>2019-11-24T08:35:18Z</time>
      </trkpt>
      <trkpt lat="48.50793" lon="2.01015">
        <ele>161</ele>
        <time>2019-11-24T08:35:20Z</time>
      </trkpt>
      <trkpt lat="48.50794" lon="2.01">
        <ele>161</ele>
        <time>2019-11-24T08:35:24Z</time>
      </trkpt>
      <trkpt lat="48.50793" lon="2.00993">
        <ele>161</ele>
        <time>2019-11-24T08:35:26Z</time>
      </trkpt>
      <trkpt lat="48.50791" lon="2.00986">
        <ele>161</ele>
        <time>2019-11-24T08:35:28Z</time>
      </trkpt>
      <trkpt lat="48.50787" lon="2.00976">
        <ele>161</ele>
        <time>2019-11-24T08:35:32Z</time>
      </trkpt>
      <trkpt lat="48.50783" lon="2.00969">
        <ele>161</ele>
        <time>2019-11-24T08:35:36Z</time>
      </trkpt>
      <trkpt lat="48.50779" lon="2.00976">
        <ele>161</ele>
        <time>2019-11-24T08:35:40Z</time>
      </trkpt>
      <trkpt lat="48.50774" lon="2.00986">
        <ele>161</ele>
        <time>2019-11-24T08:35:44Z</time>
      </trkpt>
      <trkpt lat="48.5077" lon="2.00991">
        <ele>162</ele>
        <time>2019-11-24T08:35:46Z</time>
      </trkpt>
      <trkpt lat="48.50767" lon="2.00999">
        <ele>162</ele>
        <time>2019-11-24T08:35:48Z</time>
      </trkpt>
      <trkpt lat="48.50762" lon="2.01006">
        <ele>162</ele>
        <time>2019-11-24T08:35:50Z</time>
      </trkpt>
      <trkpt lat="48.50758" lon="2.01013">
        <ele>162</ele>
        <time>2019-11-24T08:35:52Z</time>
      </trkpt>
      <trkpt lat="48.50753" lon="2.01023">
        <ele>162</ele>
        <time>2019-11-24T08:35:54Z</time>
      </trkpt>
      <trkpt lat="48.50747" lon="2.01032">
        <ele>160</ele>
        <time>2019-11-24T08:35:56Z</time>
      </trkpt>
      <trkpt lat="48.50742" lon="2.01042">
        <ele>159</ele>
        <time>2019-11-24T08:35:58Z</time>
      </trkpt>
      <trkpt lat="48.50737" lon="2.01051">
        <ele>159</ele>
        <time>2019-11-24T08:36:00Z</time>
      </trkpt>
      <trkpt lat="48.50731" lon="2.01061">
        <ele>159</ele>
        <time>2019-11-24T08:36:02Z</time>
      </trkpt>
      <trkpt lat="48.50725" lon="2.01069">
        <ele>159</ele>
        <time>2019-11-24T08:36:04Z</time>
      </trkpt>
      <trkpt lat="48.50721" lon="2.01079">
        <ele>159</ele>
        <time>2019-11-24T08:36:06Z</time>
      </trkpt>
      <trkpt lat="48.50716" lon="2.01089">
        <ele>159</ele>
        <time>2019-11-24T08:36:08Z</time>
      </trkpt>
      <trkpt lat="48.50711" lon="2.01099">
        <ele>158</ele>
        <time>2019-11-24T08:36:10Z</time>
      </trkpt>
      <trkpt lat="48.50707" lon="2.01108">
        <ele>158</ele>
        <time>2019-11-24T08:36:12Z</time>
      </trkpt>
      <trkpt lat="48.50701" lon="2.01116">
        <ele>158</ele>
        <time>2019-11-24T08:36:14Z</time>
      </trkpt>
      <trkpt lat="48.50696" lon="2.01126">
        <ele>158</ele>
        <time>2019-11-24T08:36:16Z</time>
      </trkpt>
      <trkpt lat="48.50691" lon="2.01136">
        <ele>158</ele>
        <time>2019-11-24T08:36:18Z</time>
      </trkpt>
      <trkpt lat="48.50685" lon="2.01145">
        <ele>158</ele>
        <time>2019-11-24T08:36:20Z</time>
      </trkpt>
      <trkpt lat="48.50679" lon="2.01155">
        <ele>158</ele>
        <time>2019-11-24T08:36:22Z</time>
      </trkpt>
      <trkpt lat="48.50674" lon="2.01166">
        <ele>157</ele>
        <time>2019-11-24T08:36:24Z</time>
      </trkpt>
      <trkpt lat="48.50668" lon="2.01175">
        <ele>157</ele>
        <time>2019-11-24T08:36:26Z</time>
      </trkpt>
      <trkpt lat="48.50663" lon="2.01184">
        <ele>156</ele>
        <time>2019-11-24T08:36:28Z</time>
      </trkpt>
      <trkpt lat="48.50659" lon="2.01194">
        <ele>156</ele>
        <time>2019-11-24T08:36:30Z</time>
      </trkpt>
      <trkpt lat="48.50654" lon="2.01202">
        <ele>155</ele>
        <time>2019-11-24T08:36:32Z</time>
      </trkpt>
      <trkpt lat="48.50649" lon="2.01211">
        <ele>155</ele>
        <time>2019-11-24T08:36:34Z</time>
      </trkpt>
      <trkpt lat="48.50643" lon="2.0122">
        <ele>155</ele>
        <time>2019-11-24T08:36:36Z</time>
      </trkpt>
      <trkpt lat="48.50638" lon="2.01231">
        <ele>155</ele>
        <time>2019-11-24T08:36:38Z</time>
      </trkpt>
      <trkpt lat="48.50632" lon="2.0124">
        <ele>155</ele>
        <time>2019-11-24T08:36:40Z</time>
      </trkpt>
      <trkpt lat="48.50627" lon="2.01249">
        <ele>155</ele>
        <time>2019-11-24T08:36:42Z</time>
      </trkpt>
      <trkpt lat="48.50621" lon="2.01259">
        <ele>155</ele>
        <time>2019-11-24T08:36:44Z</time>
      </trkpt>
      <trkpt lat="48.50616" lon="2.01269">
        <ele>155</ele>
        <time>2019-11-24T08:36:46Z</time>
      </trkpt>
      <trkpt lat="48.5061" lon="2.01278">
        <ele>155</ele>
        <time>2019-11-24T08:36:48Z</time>
      </trkpt>
      <trkpt lat="48.50605" lon="2.01287">
        <ele>155</ele>
        <time>2019-11-24T08:36:50Z</time>
      </trkpt>
      <trkpt lat="48.50601" lon="2.01297">
        <ele>155</ele>
        <time>2019-11-24T08:36:52Z</time>
      </trkpt>
      <trkpt lat="48.50595" lon="2.01306">
        <ele>155</ele>
        <time>2019-11-24T08:36:54Z</time>
      </trkpt>
      <trkpt lat="48.50589" lon="2.01315">
        <ele>155</ele>
        <time>2019-11-24T08:36:56Z</time>
      </trkpt>
      <trkpt lat="48.50583" lon="2.01325">
        <ele>155</ele>
        <time>2019-11-24T08:36:58Z</time>
      </trkpt>
      <trkpt lat="48.50585" lon="2.01338">
        <ele>155</ele>
        <time>2019-11-24T08:37:02Z</time>
      </trkpt>
      <trkpt lat="48.5059" lon="2.01338">
        <ele>154</ele>
        <time>2019-11-24T08:37:04Z</time>
      </trkpt>
      <trkpt lat="48.50599" lon="2.01337">
        <ele>154</ele>
        <time>2019-11-24T08:37:06Z</time>
      </trkpt>
      <trkpt lat="48.50606" lon="2.01335">
        <ele>154</ele>
        <time>2019-11-24T08:37:08Z</time>
      </trkpt>
      <trkpt lat="48.50613" lon="2.01336">
        <ele>154</ele>
        <time>2019-11-24T08:37:10Z</time>
      </trkpt>
      <trkpt lat="48.50621" lon="2.01337">
        <ele>154</ele>
        <time>2019-11-24T08:37:12Z</time>
      </trkpt>
      <trkpt lat="48.50628" lon="2.01338">
        <ele>154</ele>
        <time>2019-11-24T08:37:14Z</time>
      </trkpt>
      <trkpt lat="48.50634" lon="2.01338">
        <ele>154</ele>
        <time>2019-11-24T08:37:16Z</time>
      </trkpt>
      <trkpt lat="48.50641" lon="2.01338">
        <ele>154</ele>
        <time>2019-11-24T08:37:18Z</time>
      </trkpt>
      <trkpt lat="48.50648" lon="2.01339">
        <ele>154</ele>
        <time>2019-11-24T08:37:20Z</time>
      </trkpt>
      <trkpt lat="48.50656" lon="2.01341">
        <ele>155</ele>
        <time>2019-11-24T08:37:22Z</time>
      </trkpt>
      <trkpt lat="48.50662" lon="2.0134">
        <ele>155</ele>
        <time>2019-11-24T08:37:24Z</time>
      </trkpt>
      <trkpt lat="48.5067" lon="2.01341">
        <ele>155</ele>
        <time>2019-11-24T08:37:26Z</time>
      </trkpt>
      <trkpt lat="48.50676" lon="2.01342">
        <ele>154</ele>
        <time>2019-11-24T08:37:28Z</time>
      </trkpt>
      <trkpt lat="48.50683" lon="2.01343">
        <ele>154</ele>
        <time>2019-11-24T08:37:30Z</time>
      </trkpt>
      <trkpt lat="48.50691" lon="2.01344">
        <ele>154</ele>
        <time>2019-11-24T08:37:32Z</time>
      </trkpt>
      <trkpt lat="48.507" lon="2.01346">
        <ele>153</ele>
        <time>2019-11-24T08:37:34Z</time>
      </trkpt>
      <trkpt lat="48.50707" lon="2.01347">
        <ele>153</ele>
        <time>2019-11-24T08:37:36Z</time>
      </trkpt>
      <trkpt lat="48.50715" lon="2.01346">
        <ele>153</ele>
        <time>2019-11-24T08:37:38Z</time>
      </trkpt>
      <trkpt lat="48.50722" lon="2.01347">
        <ele>153</ele>
        <time>2019-11-24T08:37:40Z</time>
      </trkpt>
      <trkpt lat="48.50731" lon="2.01346">
        <ele>153</ele>
        <time>2019-11-24T08:37:42Z</time>
      </trkpt>
      <trkpt lat="48.50739" lon="2.01343">
        <ele>153</ele>
        <time>2019-11-24T08:37:44Z</time>
      </trkpt>
      <trkpt lat="48.50746" lon="2.0134">
        <ele>153</ele>
        <time>2019-11-24T08:37:46Z</time>
      </trkpt>
      <trkpt lat="48.50754" lon="2.01339">
        <ele>153</ele>
        <time>2019-11-24T08:37:48Z</time>
      </trkpt>
      <trkpt lat="48.50761" lon="2.01341">
        <ele>152</ele>
        <time>2019-11-24T08:37:50Z</time>
      </trkpt>
      <trkpt lat="48.50767" lon="2.0134">
        <ele>152</ele>
        <time>2019-11-24T08:37:52Z</time>
      </trkpt>
      <trkpt lat="48.50776" lon="2.0134">
        <ele>151</ele>
        <time>2019-11-24T08:37:54Z</time>
      </trkpt>
      <trkpt lat="48.50783" lon="2.01341">
        <ele>151</ele>
        <time>2019-11-24T08:37:56Z</time>
      </trkpt>
      <trkpt lat="48.50788" lon="2.01343">
        <ele>151</ele>
        <time>2019-11-24T08:37:58Z</time>
      </trkpt>
      <trkpt lat="48.50792" lon="2.01347">
        <ele>151</ele>
        <time>2019-11-24T08:38:00Z</time>
      </trkpt>
      <trkpt lat="48.50798" lon="2.01353">
        <ele>151</ele>
        <time>2019-11-24T08:38:02Z</time>
      </trkpt>
      <trkpt lat="48.50803" lon="2.01357">
        <ele>150</ele>
        <time>2019-11-24T08:38:04Z</time>
      </trkpt>
      <trkpt lat="48.5081" lon="2.01365">
        <ele>150</ele>
        <time>2019-11-24T08:38:06Z</time>
      </trkpt>
      <trkpt lat="48.50817" lon="2.01374">
        <ele>149</ele>
        <time>2019-11-24T08:38:08Z</time>
      </trkpt>
      <trkpt lat="48.50825" lon="2.01379">
        <ele>149</ele>
        <time>2019-11-24T08:38:10Z</time>
      </trkpt>
      <trkpt lat="48.50833" lon="2.01387">
        <ele>148</ele>
        <time>2019-11-24T08:38:12Z</time>
      </trkpt>
      <trkpt lat="48.50837" lon="2.01401">
        <ele>146</ele>
        <time>2019-11-24T08:38:14Z</time>
      </trkpt>
      <trkpt lat="48.50839" lon="2.01416">
        <ele>145</ele>
        <time>2019-11-24T08:38:16Z</time>
      </trkpt>
      <trkpt lat="48.50838" lon="2.01435">
        <ele>143</ele>
        <time>2019-11-24T08:38:18Z</time>
      </trkpt>
      <trkpt lat="48.50838" lon="2.01453">
        <ele>142</ele>
        <time>2019-11-24T08:38:20Z</time>
      </trkpt>
      <trkpt lat="48.50836" lon="2.01468">
        <ele>141</ele>
        <time>2019-11-24T08:38:22Z</time>
      </trkpt>
      <trkpt lat="48.50835" lon="2.01486">
        <ele>140</ele>
        <time>2019-11-24T08:38:24Z</time>
      </trkpt>
      <trkpt lat="48.50833" lon="2.01504">
        <ele>138</ele>
        <time>2019-11-24T08:38:26Z</time>
      </trkpt>
      <trkpt lat="48.50832" lon="2.01523">
        <ele>137</ele>
        <time>2019-11-24T08:38:28Z</time>
      </trkpt>
      <trkpt lat="48.50831" lon="2.01541">
        <ele>136</ele>
        <time>2019-11-24T08:38:30Z</time>
      </trkpt>
      <trkpt lat="48.5083" lon="2.01562">
        <ele>135</ele>
        <time>2019-11-24T08:38:32Z</time>
      </trkpt>
      <trkpt lat="48.50829" lon="2.01582">
        <ele>134</ele>
        <time>2019-11-24T08:38:34Z</time>
      </trkpt>
      <trkpt lat="48.50826" lon="2.01598">
        <ele>131</ele>
        <time>2019-11-24T08:38:36Z</time>
      </trkpt>
      <trkpt lat="48.50826" lon="2.01616">
        <ele>129</ele>
        <time>2019-11-24T08:38:38Z</time>
      </trkpt>
      <trkpt lat="48.50828" lon="2.01636">
        <ele>127</ele>
        <time>2019-11-24T08:38:40Z</time>
      </trkpt>
      <trkpt lat="48.50829" lon="2.01659">
        <ele>125</ele>
        <time>2019-11-24T08:38:42Z</time>
      </trkpt>
      <trkpt lat="48.50826" lon="2.0168">
        <ele>123</ele>
        <time>2019-11-24T08:38:44Z</time>
      </trkpt>
      <trkpt lat="48.50825" lon="2.01697">
        <ele>124</ele>
        <time>2019-11-24T08:38:46Z</time>
      </trkpt>
      <trkpt lat="48.50827" lon="2.01706">
        <ele>124</ele>
        <time>2019-11-24T08:38:48Z</time>
      </trkpt>
      <trkpt lat="48.50833" lon="2.01713">
        <ele>124</ele>
        <time>2019-11-24T08:38:50Z</time>
      </trkpt>
      <trkpt lat="48.50837" lon="2.01718">
        <ele>125</ele>
        <time>2019-11-24T08:38:52Z</time>
      </trkpt>
      <trkpt lat="48.50831" lon="2.01724">
        <ele>124</ele>
        <time>2019-11-24T08:38:56Z</time>
      </trkpt>
      <trkpt lat="48.50824" lon="2.01726">
        <ele>125</ele>
        <time>2019-11-24T08:38:58Z</time>
      </trkpt>
      <trkpt lat="48.5082" lon="2.01728">
        <ele>125</ele>
        <time>2019-11-24T08:39:00Z</time>
      </trkpt>
      <trkpt lat="48.50815" lon="2.01729">
        <ele>125</ele>
        <time>2019-11-24T08:39:02Z</time>
      </trkpt>
      <trkpt lat="48.50809" lon="2.01735">
        <ele>125</ele>
        <time>2019-11-24T08:39:06Z</time>
      </trkpt>
      <trkpt lat="48.50798" lon="2.01737">
        <ele>125</ele>
        <time>2019-11-24T08:39:10Z</time>
      </trkpt>
      <trkpt lat="48.50792" lon="2.01737">
        <ele>125</ele>
        <time>2019-11-24T08:39:12Z</time>
      </trkpt>
      <trkpt lat="48.50784" lon="2.01737">
        <ele>125</ele>
        <time>2019-11-24T08:39:14Z</time>
      </trkpt>
      <trkpt lat="48.50776" lon="2.01742">
        <ele>125</ele>
        <time>2019-11-24T08:39:16Z</time>
      </trkpt>
      <trkpt lat="48.50769" lon="2.01745">
        <ele>126</ele>
        <time>2019-11-24T08:39:18Z</time>
      </trkpt>
      <trkpt lat="48.50763" lon="2.01752">
        <ele>129</ele>
        <time>2019-11-24T08:39:20Z</time>
      </trkpt>
      <trkpt lat="48.50756" lon="2.01753">
        <ele>129</ele>
        <time>2019-11-24T08:39:22Z</time>
      </trkpt>
      <trkpt lat="48.50749" lon="2.01754">
        <ele>129</ele>
        <time>2019-11-24T08:39:24Z</time>
      </trkpt>
      <trkpt lat="48.50742" lon="2.01754">
        <ele>130</ele>
        <time>2019-11-24T08:39:26Z</time>
      </trkpt>
      <trkpt lat="48.50735" lon="2.01753">
        <ele>131</ele>
        <time>2019-11-24T08:39:28Z</time>
      </trkpt>
      <trkpt lat="48.5073" lon="2.01754">
        <ele>132</ele>
        <time>2019-11-24T08:39:30Z</time>
      </trkpt>
      <trkpt lat="48.5072" lon="2.01747">
        <ele>127</ele>
        <time>2019-11-24T08:39:34Z</time>
      </trkpt>
      <trkpt lat="48.50715" lon="2.01744">
        <ele>126</ele>
        <time>2019-11-24T08:39:36Z</time>
      </trkpt>
      <trkpt lat="48.50708" lon="2.01739">
        <ele>126</ele>
        <time>2019-11-24T08:39:38Z</time>
      </trkpt>
      <trkpt lat="48.50702" lon="2.01732">
        <ele>126</ele>
        <time>2019-11-24T08:39:40Z</time>
      </trkpt>
      <trkpt lat="48.50696" lon="2.01731">
        <ele>126</ele>
        <time>2019-11-24T08:39:42Z</time>
      </trkpt>
      <trkpt lat="48.50692" lon="2.01729">
        <ele>126</ele>
        <time>2019-11-24T08:39:44Z</time>
      </trkpt>
      <trkpt lat="48.50688" lon="2.01723">
        <ele>126</ele>
        <time>2019-11-24T08:39:46Z</time>
      </trkpt>
      <trkpt lat="48.50683" lon="2.0172">
        <ele>126</ele>
        <time>2019-11-24T08:39:48Z</time>
      </trkpt>
      <trkpt lat="48.50673" lon="2.01715">
        <ele>126</ele>
        <time>2019-11-24T08:39:52Z</time>
      </trkpt>
      <trkpt lat="48.50668" lon="2.01713">
        <ele>126</ele>
        <time>2019-11-24T08:39:54Z</time>
      </trkpt>
      <trkpt lat="48.50663" lon="2.01714">
        <ele>127</ele>
        <time>2019-11-24T08:39:56Z</time>
      </trkpt>
      <trkpt lat="48.50656" lon="2.01717">
        <ele>127</ele>
        <time>2019-11-24T08:40:00Z</time>
      </trkpt>
      <trkpt lat="48.5065" lon="2.01722">
        <ele>127</ele>
        <time>2019-11-24T08:40:04Z</time>
      </trkpt>
      <trkpt lat="48.50645" lon="2.01726">
        <ele>127</ele>
        <time>2019-11-24T08:40:08Z</time>
      </trkpt>
      <trkpt lat="48.50639" lon="2.0173">
        <ele>128</ele>
        <time>2019-11-24T08:40:12Z</time>
      </trkpt>
      <trkpt lat="48.50632" lon="2.0173">
        <ele>128</ele>
        <time>2019-11-24T08:40:14Z</time>
      </trkpt>
      <trkpt lat="48.50624" lon="2.0173">
        <ele>128</ele>
        <time>2019-11-24T08:40:16Z</time>
      </trkpt>
      <trkpt lat="48.50615" lon="2.01728">
        <ele>128</ele>
        <time>2019-11-24T08:40:18Z</time>
      </trkpt>
      <trkpt lat="48.50606" lon="2.01728">
        <ele>128</ele>
        <time>2019-11-24T08:40:20Z</time>
      </trkpt>
      <trkpt lat="48.50598" lon="2.01727">
        <ele>128</ele>
        <time>2019-11-24T08:40:22Z</time>
      </trkpt>
      <trkpt lat="48.50591" lon="2.01727">
        <ele>128</ele>
        <time>2019-11-24T08:40:24Z</time>
      </trkpt>
      <trkpt lat="48.50583" lon="2.01721">
        <ele>131</ele>
        <time>2019-11-24T08:40:26Z</time>
      </trkpt>
      <trkpt lat="48.50576" lon="2.01715">
        <ele>131</ele>
        <time>2019-11-24T08:40:28Z</time>
      </trkpt>
      <trkpt lat="48.50569" lon="2.01708">
        <ele>131</ele>
        <time>2019-11-24T08:40:30Z</time>
      </trkpt>
      <trkpt lat="48.50561" lon="2.01702">
        <ele>131</ele>
        <time>2019-11-24T08:40:32Z</time>
      </trkpt>
      <trkpt lat="48.50555" lon="2.01698">
        <ele>131</ele>
        <time>2019-11-24T08:40:34Z</time>
      </trkpt>
      <trkpt lat="48.50546" lon="2.01692">
        <ele>131</ele>
        <time>2019-11-24T08:40:36Z</time>
      </trkpt>
      <trkpt lat="48.50539" lon="2.01684">
        <ele>132</ele>
        <time>2019-11-24T08:40:38Z</time>
      </trkpt>
      <trkpt lat="48.50531" lon="2.01677">
        <ele>132</ele>
        <time>2019-11-24T08:40:40Z</time>
      </trkpt>
      <trkpt lat="48.50525" lon="2.01676">
        <ele>133</ele>
        <time>2019-11-24T08:40:42Z</time>
      </trkpt>
      <trkpt lat="48.50519" lon="2.01676">
        <ele>133</ele>
        <time>2019-11-24T08:40:46Z</time>
      </trkpt>
      <trkpt lat="48.50515" lon="2.01673">
        <ele>133</ele>
        <time>2019-11-24T08:40:48Z</time>
      </trkpt>
      <trkpt lat="48.50509" lon="2.01668">
        <ele>134</ele>
        <time>2019-11-24T08:40:52Z</time>
      </trkpt>
      <trkpt lat="48.50505" lon="2.01659">
        <ele>132</ele>
        <time>2019-11-24T08:40:56Z</time>
      </trkpt>
      <trkpt lat="48.50498" lon="2.01652">
        <ele>135</ele>
        <time>2019-11-24T08:41:00Z</time>
      </trkpt>
      <trkpt lat="48.50493" lon="2.01646">
        <ele>135</ele>
        <time>2019-11-24T08:41:04Z</time>
      </trkpt>
      <trkpt lat="48.50485" lon="2.0164">
        <ele>135</ele>
        <time>2019-11-24T08:41:08Z</time>
      </trkpt>
      <trkpt lat="48.50479" lon="2.01636">
        <ele>135</ele>
        <time>2019-11-24T08:41:10Z</time>
      </trkpt>
      <trkpt lat="48.50473" lon="2.01631">
        <ele>135</ele>
        <time>2019-11-24T08:41:12Z</time>
      </trkpt>
      <trkpt lat="48.50467" lon="2.01626">
        <ele>135</ele>
        <time>2019-11-24T08:41:14Z</time>
      </trkpt>
      <trkpt lat="48.5046" lon="2.01621">
        <ele>136</ele>
        <time>2019-11-24T08:41:16Z</time>
      </trkpt>
      <trkpt lat="48.50452" lon="2.01615">
        <ele>136</ele>
        <time>2019-11-24T08:41:18Z</time>
      </trkpt>
      <trkpt lat="48.50444" lon="2.01608">
        <ele>136</ele>
        <time>2019-11-24T08:41:20Z</time>
      </trkpt>
      <trkpt lat="48.50436" lon="2.01601">
        <ele>136</ele>
        <time>2019-11-24T08:41:22Z</time>
      </trkpt>
      <trkpt lat="48.5043" lon="2.01597">
        <ele>135</ele>
        <time>2019-11-24T08:41:24Z</time>
      </trkpt>
      <trkpt lat="48.50426" lon="2.01591">
        <ele>135</ele>
        <time>2019-11-24T08:41:26Z</time>
      </trkpt>
      <trkpt lat="48.50419" lon="2.01583">
        <ele>135</ele>
        <time>2019-11-24T08:41:28Z</time>
      </trkpt>
      <trkpt lat="48.50413" lon="2.01577">
        <ele>136</ele>
        <time>2019-11-24T08:41:30Z</time>
      </trkpt>
      <trkpt lat="48.50407" lon="2.01571">
        <ele>136</ele>
        <time>2019-11-24T08:41:32Z</time>
      </trkpt>
      <trkpt lat="48.50401" lon="2.01564">
        <ele>137</ele>
        <time>2019-11-24T08:41:34Z</time>
      </trkpt>
      <trkpt lat="48.50395" lon="2.01557">
        <ele>137</ele>
        <time>2019-11-24T08:41:36Z</time>
      </trkpt>
      <trkpt lat="48.50389" lon="2.0155">
        <ele>137</ele>
        <time>2019-11-24T08:41:38Z</time>
      </trkpt>
      <trkpt lat="48.50385" lon="2.01546">
        <ele>137</ele>
        <time>2019-11-24T08:41:40Z</time>
      </trkpt>
      <trkpt lat="48.50381" lon="2.01542">
        <ele>137</ele>
        <time>2019-11-24T08:41:42Z</time>
      </trkpt>
      <trkpt lat="48.50374" lon="2.01538">
        <ele>137</ele>
        <time>2019-11-24T08:41:44Z</time>
      </trkpt>
      <trkpt lat="48.50363" lon="2.01535">
        <ele>138</ele>
        <time>2019-11-24T08:41:48Z</time>
      </trkpt>
      <trkpt lat="48.50357" lon="2.01533">
        <ele>138</ele>
        <time>2019-11-24T08:41:50Z</time>
      </trkpt>
      <trkpt lat="48.50351" lon="2.01532">
        <ele>138</ele>
        <time>2019-11-24T08:41:52Z</time>
      </trkpt>
      <trkpt lat="48.50341" lon="2.01531">
        <ele>138</ele>
        <time>2019-11-24T08:41:56Z</time>
      </trkpt>
      <trkpt lat="48.50334" lon="2.01524">
        <ele>138</ele>
        <time>2019-11-24T08:42:00Z</time>
      </trkpt>
      <trkpt lat="48.50339" lon="2.0151">
        <ele>137</ele>
        <time>2019-11-24T08:42:04Z</time>
      </trkpt>
      <trkpt lat="48.50344" lon="2.01499">
        <ele>137</ele>
        <time>2019-11-24T08:42:06Z</time>
      </trkpt>
      <trkpt lat="48.50349" lon="2.0149">
        <ele>137</ele>
        <time>2019-11-24T08:42:08Z</time>
      </trkpt>
      <trkpt lat="48.50354" lon="2.01478">
        <ele>137</ele>
        <time>2019-11-24T08:42:10Z</time>
      </trkpt>
      <trkpt lat="48.5036" lon="2.01468">
        <ele>137</ele>
        <time>2019-11-24T08:42:12Z</time>
      </trkpt>
      <trkpt lat="48.50364" lon="2.01463">
        <ele>137</ele>
        <time>2019-11-24T08:42:14Z</time>
      </trkpt>
      <trkpt lat="48.50368" lon="2.01459">
        <ele>137</ele>
        <time>2019-11-24T08:42:16Z</time>
      </trkpt>
      <trkpt lat="48.50372" lon="2.01454">
        <ele>137</ele>
        <time>2019-11-24T08:42:18Z</time>
      </trkpt>
      <trkpt lat="48.50375" lon="2.01449">
        <ele>137</ele>
        <time>2019-11-24T08:42:20Z</time>
      </trkpt>
      <trkpt lat="48.50378" lon="2.01442">
        <ele>137</ele>
        <time>2019-11-24T08:42:22Z</time>
      </trkpt>
      <trkpt lat="48.50383" lon="2.01431">
        <ele>137</ele>
        <time>2019-11-24T08:42:26Z</time>
      </trkpt>
      <trkpt lat="48.50387" lon="2.01421">
        <ele>138</ele>
        <time>2019-11-24T08:42:30Z</time>
      </trkpt>
      <trkpt lat="48.50391" lon="2.01413">
        <ele>140</ele>
        <time>2019-11-24T08:42:34Z</time>
      </trkpt>
      <trkpt lat="48.50394" lon="2.01404">
        <ele>140</ele>
        <time>2019-11-24T08:42:38Z</time>
      </trkpt>
      <trkpt lat="48.50397" lon="2.01398">
        <ele>141</ele>
        <time>2019-11-24T08:42:40Z</time>
      </trkpt>
      <trkpt lat="48.50399" lon="2.01391">
        <ele>141</ele>
        <time>2019-11-24T08:42:42Z</time>
      </trkpt>
      <trkpt lat="48.50402" lon="2.0138">
        <ele>141</ele>
        <time>2019-11-24T08:42:46Z</time>
      </trkpt>
      <trkpt lat="48.50405" lon="2.01371">
        <ele>142</ele>
        <time>2019-11-24T08:42:50Z</time>
      </trkpt>
      <trkpt lat="48.50407" lon="2.01361">
        <ele>142</ele>
        <time>2019-11-24T08:42:54Z</time>
      </trkpt>
      <trkpt lat="48.50413" lon="2.01349">
        <ele>144</ele>
        <time>2019-11-24T08:42:58Z</time>
      </trkpt>
      <trkpt lat="48.50415" lon="2.01343">
        <ele>145</ele>
        <time>2019-11-24T08:43:00Z</time>
      </trkpt>
      <trkpt lat="48.5042" lon="2.01333">
        <ele>147</ele>
        <time>2019-11-24T08:43:04Z</time>
      </trkpt>
      <trkpt lat="48.50424" lon="2.01321">
        <ele>148</ele>
        <time>2019-11-24T08:43:08Z</time>
      </trkpt>
      <trkpt lat="48.50425" lon="2.01315">
        <ele>149</ele>
        <time>2019-11-24T08:43:10Z</time>
      </trkpt>
      <trkpt lat="48.5043" lon="2.01306">
        <ele>149</ele>
        <time>2019-11-24T08:43:14Z</time>
      </trkpt>
      <trkpt lat="48.50432" lon="2.01299">
        <ele>150</ele>
        <time>2019-11-24T08:43:16Z</time>
      </trkpt>
      <trkpt lat="48.50434" lon="2.01288">
        <ele>150</ele>
        <time>2019-11-24T08:43:20Z</time>
      </trkpt>
      <trkpt lat="48.5043" lon="2.01278">
        <ele>150</ele>
        <time>2019-11-24T08:43:26Z</time>
      </trkpt>
      <trkpt lat="48.50427" lon="2.01273">
        <ele>150</ele>
        <time>2019-11-24T08:43:28Z</time>
      </trkpt>
      <trkpt lat="48.50423" lon="2.01264">
        <ele>150</ele>
        <time>2019-11-24T08:43:32Z</time>
      </trkpt>
      <trkpt lat="48.5042" lon="2.01252">
        <ele>150</ele>
        <time>2019-11-24T08:43:36Z</time>
      </trkpt>
      <trkpt lat="48.50422" lon="2.01238">
        <ele>151</ele>
        <time>2019-11-24T08:43:40Z</time>
      </trkpt>
      <trkpt lat="48.50426" lon="2.01228">
        <ele>151</ele>
        <time>2019-11-24T08:43:44Z</time>
      </trkpt>
      <trkpt lat="48.50432" lon="2.0122">
        <ele>151</ele>
        <time>2019-11-24T08:43:48Z</time>
      </trkpt>
      <trkpt lat="48.50436" lon="2.01209">
        <ele>151</ele>
        <time>2019-11-24T08:43:52Z</time>
      </trkpt>
      <trkpt lat="48.50438" lon="2.01202">
        <ele>151</ele>
        <time>2019-11-24T08:43:54Z</time>
      </trkpt>
      <trkpt lat="48.50439" lon="2.01195">
        <ele>151</ele>
        <time>2019-11-24T08:43:56Z</time>
      </trkpt>
      <trkpt lat="48.5044" lon="2.01188">
        <ele>151</ele>
        <time>2019-11-24T08:43:58Z</time>
      </trkpt>
      <trkpt lat="48.50441" lon="2.01181">
        <ele>151</ele>
        <time>2019-11-24T08:44:00Z</time>
      </trkpt>
      <trkpt lat="48.50442" lon="2.01174">
        <ele>151</ele>
        <time>2019-11-24T08:44:02Z</time>
      </trkpt>
      <trkpt lat="48.50445" lon="2.01163">
        <ele>151</ele>
        <time>2019-11-24T08:44:06Z</time>
      </trkpt>
      <trkpt lat="48.50448" lon="2.0115">
        <ele>151</ele>
        <time>2019-11-24T08:44:10Z</time>
      </trkpt>
      <trkpt lat="48.5045" lon="2.01138">
        <ele>151</ele>
        <time>2019-11-24T08:44:14Z</time>
      </trkpt>
      <trkpt lat="48.50452" lon="2.01126">
        <ele>151</ele>
        <time>2019-11-24T08:44:18Z</time>
      </trkpt>
      <trkpt lat="48.50455" lon="2.01114">
        <ele>150</ele>
        <time>2019-11-24T08:44:22Z</time>
      </trkpt>
      <trkpt lat="48.50457" lon="2.01103">
        <ele>150</ele>
        <time>2019-11-24T08:44:26Z</time>
      </trkpt>
      <trkpt lat="48.50458" lon="2.01091">
        <ele>150</ele>
        <time>2019-11-24T08:44:30Z</time>
      </trkpt>
      <trkpt lat="48.50461" lon="2.0108">
        <ele>149</ele>
        <time>2019-11-24T08:44:34Z</time>
      </trkpt>
      <trkpt lat="48.50463" lon="2.01073">
        <ele>149</ele>
        <time>2019-11-24T08:44:36Z</time>
      </trkpt>
      <trkpt lat="48.50466" lon="2.0106">
        <ele>149</ele>
        <time>2019-11-24T08:44:40Z</time>
      </trkpt>
      <trkpt lat="48.50468" lon="2.01047">
        <ele>149</ele>
        <time>2019-11-24T08:44:44Z</time>
      </trkpt>
      <trkpt lat="48.5047" lon="2.01041">
        <ele>150</ele>
        <time>2019-11-24T08:44:46Z</time>
      </trkpt>
      <trkpt lat="48.50472" lon="2.01027">
        <ele>150</ele>
        <time>2019-11-24T08:44:50Z</time>
      </trkpt>
      <trkpt lat="48.50473" lon="2.0102">
        <ele>150</ele>
        <time>2019-11-24T08:44:52Z</time>
      </trkpt>
      <trkpt lat="48.50475" lon="2.01007">
        <ele>150</ele>
        <time>2019-11-24T08:44:56Z</time>
      </trkpt>
      <trkpt lat="48.50477" lon="2.00994">
        <ele>150</ele>
        <time>2019-11-24T08:45:00Z</time>
      </trkpt>
      <trkpt lat="48.50479" lon="2.0098">
        <ele>150</ele>
        <time>2019-11-24T08:45:04Z</time>
      </trkpt>
      <trkpt lat="48.50481" lon="2.00974">
        <ele>150</ele>
        <time>2019-11-24T08:45:06Z</time>
      </trkpt>
      <trkpt lat="48.50482" lon="2.00961">
        <ele>150</ele>
        <time>2019-11-24T08:45:10Z</time>
      </trkpt>
      <trkpt lat="48.50484" lon="2.00955">
        <ele>150</ele>
        <time>2019-11-24T08:45:12Z</time>
      </trkpt>
      <trkpt lat="48.50485" lon="2.00948">
        <ele>150</ele>
        <time>2019-11-24T08:45:14Z</time>
      </trkpt>
      <trkpt lat="48.50486" lon="2.00941">
        <ele>150</ele>
        <time>2019-11-24T08:45:16Z</time>
      </trkpt>
      <trkpt lat="48.50487" lon="2.00934">
        <ele>150</ele>
        <time>2019-11-24T08:45:18Z</time>
      </trkpt>
      <trkpt lat="48.50488" lon="2.00927">
        <ele>150</ele>
        <time>2019-11-24T08:45:20Z</time>
      </trkpt>
      <trkpt lat="48.50489" lon="2.0092">
        <ele>151</ele>
        <time>2019-11-24T08:45:22Z</time>
      </trkpt>
      <trkpt lat="48.5049" lon="2.00913">
        <ele>151</ele>
        <time>2019-11-24T08:45:24Z</time>
      </trkpt>
      <trkpt lat="48.50491" lon="2.00906">
        <ele>151</ele>
        <time>2019-11-24T08:45:26Z</time>
      </trkpt>
      <trkpt lat="48.50492" lon="2.00899">
        <ele>151</ele>
        <time>2019-11-24T08:45:28Z</time>
      </trkpt>
      <trkpt lat="48.50493" lon="2.00891">
        <ele>151</ele>
        <time>2019-11-24T08:45:30Z</time>
      </trkpt>
      <trkpt lat="48.50494" lon="2.00884">
        <ele>151</ele>
        <time>2019-11-24T08:45:32Z</time>
      </trkpt>
      <trkpt lat="48.50495" lon="2.00877">
        <ele>151</ele>
        <time>2019-11-24T08:45:34Z</time>
      </trkpt>
      <trkpt lat="48.50497" lon="2.0087">
        <ele>151</ele>
        <time>2019-11-24T08:45:36Z</time>
      </trkpt>
      <trkpt lat="48.50498" lon="2.00863">
        <ele>151</ele>
        <time>2019-11-24T08:45:38Z</time>
      </trkpt>
      <trkpt lat="48.505" lon="2.00849">
        <ele>151</ele>
        <time>2019-11-24T08:45:42Z</time>
      </trkpt>
      <trkpt lat="48.50501" lon="2.00842">
        <ele>151</ele>
        <time>2019-11-24T08:45:44Z</time>
      </trkpt>
      <trkpt lat="48.50503" lon="2.00836">
        <ele>151</ele>
        <time>2019-11-24T08:45:46Z</time>
      </trkpt>
      <trkpt lat="48.50504" lon="2.00823">
        <ele>151</ele>
        <time>2019-11-24T08:45:50Z</time>
      </trkpt>
      <trkpt lat="48.50506" lon="2.00809">
        <ele>152</ele>
        <time>2019-11-24T08:45:54Z</time>
      </trkpt>
      <trkpt lat="48.50507" lon="2.00802">
        <ele>152</ele>
        <time>2019-11-24T08:45:56Z</time>
      </trkpt>
      <trkpt lat="48.50507" lon="2.00795">
        <ele>152</ele>
        <time>2019-11-24T08:45:58Z</time>
      </trkpt>
      <trkpt lat="48.50508" lon="2.00788">
        <ele>152</ele>
        <time>2019-11-24T08:46:00Z</time>
      </trkpt>
      <trkpt lat="48.50509" lon="2.0078">
        <ele>152</ele>
        <time>2019-11-24T08:46:02Z</time>
      </trkpt>
      <trkpt lat="48.5051" lon="2.00772">
        <ele>152</ele>
        <time>2019-11-24T08:46:04Z</time>
      </trkpt>
      <trkpt lat="48.50511" lon="2.00765">
        <ele>152</ele>
        <time>2019-11-24T08:46:06Z</time>
      </trkpt>
      <trkpt lat="48.50512" lon="2.00758">
        <ele>152</ele>
        <time>2019-11-24T08:46:08Z</time>
      </trkpt>
      <trkpt lat="48.50515" lon="2.00745">
        <ele>152</ele>
        <time>2019-11-24T08:46:12Z</time>
      </trkpt>
      <trkpt lat="48.50515" lon="2.00739">
        <ele>153</ele>
        <time>2019-11-24T08:46:14Z</time>
      </trkpt>
      <trkpt lat="48.50517" lon="2.00726">
        <ele>153</ele>
        <time>2019-11-24T08:46:18Z</time>
      </trkpt>
      <trkpt lat="48.50519" lon="2.00715">
        <ele>153</ele>
        <time>2019-11-24T08:46:22Z</time>
      </trkpt>
      <trkpt lat="48.50521" lon="2.00704">
        <ele>153</ele>
        <time>2019-11-24T08:46:26Z</time>
      </trkpt>
      <trkpt lat="48.50522" lon="2.00692">
        <ele>153</ele>
        <time>2019-11-24T08:46:30Z</time>
      </trkpt>
      <trkpt lat="48.50525" lon="2.0068">
        <ele>153</ele>
        <time>2019-11-24T08:46:34Z</time>
      </trkpt>
      <trkpt lat="48.50527" lon="2.00668">
        <ele>153</ele>
        <time>2019-11-24T08:46:38Z</time>
      </trkpt>
      <trkpt lat="48.50528" lon="2.00661">
        <ele>153</ele>
        <time>2019-11-24T08:46:40Z</time>
      </trkpt>
      <trkpt lat="48.50529" lon="2.00654">
        <ele>153</ele>
        <time>2019-11-24T08:46:42Z</time>
      </trkpt>
      <trkpt lat="48.50531" lon="2.00642">
        <ele>153</ele>
        <time>2019-11-24T08:46:46Z</time>
      </trkpt>
      <trkpt lat="48.50532" lon="2.00635">
        <ele>153</ele>
        <time>2019-11-24T08:46:48Z</time>
      </trkpt>
      <trkpt lat="48.50534" lon="2.00623">
        <ele>153</ele>
        <time>2019-11-24T08:46:52Z</time>
      </trkpt>
      <trkpt lat="48.50537" lon="2.00612">
        <ele>153</ele>
        <time>2019-11-24T08:46:56Z</time>
      </trkpt>
      <trkpt lat="48.50539" lon="2.006">
        <ele>153</ele>
        <time>2019-11-24T08:47:00Z</time>
      </trkpt>
      <trkpt lat="48.50541" lon="2.00587">
        <ele>153</ele>
        <time>2019-11-24T08:47:04Z</time>
      </trkpt>
      <trkpt lat="48.50543" lon="2.00574">
        <ele>154</ele>
        <time>2019-11-24T08:47:08Z</time>
      </trkpt>
      <trkpt lat="48.50545" lon="2.00563">
        <ele>154</ele>
        <time>2019-11-24T08:47:12Z</time>
      </trkpt>
      <trkpt lat="48.50547" lon="2.0055">
        <ele>154</ele>
        <time>2019-11-24T08:47:16Z</time>
      </trkpt>
      <trkpt lat="48.50548" lon="2.00538">
        <ele>154</ele>
        <time>2019-11-24T08:47:20Z</time>
      </trkpt>
      <trkpt lat="48.5055" lon="2.00527">
        <ele>154</ele>
        <time>2019-11-24T08:47:24Z</time>
      </trkpt>
      <trkpt lat="48.5055" lon="2.00514">
        <ele>154</ele>
        <time>2019-11-24T08:47:28Z</time>
      </trkpt>
      <trkpt lat="48.50553" lon="2.00503">
        <ele>154</ele>
        <time>2019-11-24T08:47:32Z</time>
      </trkpt>
      <trkpt lat="48.50554" lon="2.0049">
        <ele>154</ele>
        <time>2019-11-24T08:47:36Z</time>
      </trkpt>
      <trkpt lat="48.50556" lon="2.00478">
        <ele>154</ele>
        <time>2019-11-24T08:47:40Z</time>
      </trkpt>
      <trkpt lat="48.50557" lon="2.0047">
        <ele>154</ele>
        <time>2019-11-24T08:47:42Z</time>
      </trkpt>
      <trkpt lat="48.50559" lon="2.00462">
        <ele>154</ele>
        <time>2019-11-24T08:47:44Z</time>
      </trkpt>
      <trkpt lat="48.5056" lon="2.00454">
        <ele>154</ele>
        <time>2019-11-24T08:47:46Z</time>
      </trkpt>
      <trkpt lat="48.50561" lon="2.00445">
        <ele>154</ele>
        <time>2019-11-24T08:47:48Z</time>
      </trkpt>
      <trkpt lat="48.50563" lon="2.00437">
        <ele>154</ele>
        <time>2019-11-24T08:47:50Z</time>
      </trkpt>
      <trkpt lat="48.50564" lon="2.00428">
        <ele>154</ele>
        <time>2019-11-24T08:47:52Z</time>
      </trkpt>
      <trkpt lat="48.50566" lon="2.00419">
        <ele>154</ele>
        <time>2019-11-24T08:47:54Z</time>
      </trkpt>
      <trkpt lat="48.50568" lon="2.00411">
        <ele>155</ele>
        <time>2019-11-24T08:47:56Z</time>
      </trkpt>
      <trkpt lat="48.5057" lon="2.00403">
        <ele>155</ele>
        <time>2019-11-24T08:47:58Z</time>
      </trkpt>
      <trkpt lat="48.50572" lon="2.00394">
        <ele>155</ele>
        <time>2019-11-24T08:48:00Z</time>
      </trkpt>
      <trkpt lat="48.50573" lon="2.00385">
        <ele>155</ele>
        <time>2019-11-24T08:48:02Z</time>
      </trkpt>
      <trkpt lat="48.50576" lon="2.00377">
        <ele>156</ele>
        <time>2019-11-24T08:48:04Z</time>
      </trkpt>
      <trkpt lat="48.50578" lon="2.0037">
        <ele>156</ele>
        <time>2019-11-24T08:48:06Z</time>
      </trkpt>
      <trkpt lat="48.5058" lon="2.00362">
        <ele>156</ele>
        <time>2019-11-24T08:48:08Z</time>
      </trkpt>
      <trkpt lat="48.50582" lon="2.00354">
        <ele>157</ele>
        <time>2019-11-24T08:48:10Z</time>
      </trkpt>
      <trkpt lat="48.50584" lon="2.00346">
        <ele>158</ele>
        <time>2019-11-24T08:48:12Z</time>
      </trkpt>
      <trkpt lat="48.50587" lon="2.00337">
        <ele>158</ele>
        <time>2019-11-24T08:48:14Z</time>
      </trkpt>
      <trkpt lat="48.50589" lon="2.00328">
        <ele>159</ele>
        <time>2019-11-24T08:48:16Z</time>
      </trkpt>
      <trkpt lat="48.50592" lon="2.0032">
        <ele>159</ele>
        <time>2019-11-24T08:48:18Z</time>
      </trkpt>
      <trkpt lat="48.50595" lon="2.00311">
        <ele>159</ele>
        <time>2019-11-24T08:48:20Z</time>
      </trkpt>
      <trkpt lat="48.50596" lon="2.00301">
        <ele>160</ele>
        <time>2019-11-24T08:48:22Z</time>
      </trkpt>
      <trkpt lat="48.50598" lon="2.00292">
        <ele>160</ele>
        <time>2019-11-24T08:48:24Z</time>
      </trkpt>
      <trkpt lat="48.506" lon="2.00284">
        <ele>160</ele>
        <time>2019-11-24T08:48:26Z</time>
      </trkpt>
      <trkpt lat="48.50601" lon="2.00277">
        <ele>160</ele>
        <time>2019-11-24T08:48:28Z</time>
      </trkpt>
      <trkpt lat="48.50603" lon="2.0027">
        <ele>160</ele>
        <time>2019-11-24T08:48:30Z</time>
      </trkpt>
      <trkpt lat="48.50605" lon="2.0026">
        <ele>160</ele>
        <time>2019-11-24T08:48:32Z</time>
      </trkpt>
      <trkpt lat="48.50607" lon="2.00251">
        <ele>160</ele>
        <time>2019-11-24T08:48:34Z</time>
      </trkpt>
      <trkpt lat="48.50607" lon="2.00241">
        <ele>158</ele>
        <time>2019-11-24T08:48:36Z</time>
      </trkpt>
      <trkpt lat="48.50609" lon="2.00231">
        <ele>157</ele>
        <time>2019-11-24T08:48:38Z</time>
      </trkpt>
      <trkpt lat="48.50606" lon="2.00224">
        <ele>157</ele>
        <time>2019-11-24T08:48:40Z</time>
      </trkpt>
      <trkpt lat="48.50601" lon="2.0022">
        <ele>157</ele>
        <time>2019-11-24T08:48:42Z</time>
      </trkpt>
      <trkpt lat="48.50594" lon="2.00219">
        <ele>157</ele>
        <time>2019-11-24T08:48:44Z</time>
      </trkpt>
      <trkpt lat="48.50589" lon="2.00224">
        <ele>157</ele>
        <time>2019-11-24T08:48:46Z</time>
      </trkpt>
      <trkpt lat="48.50584" lon="2.00224">
        <ele>157</ele>
        <time>2019-11-24T08:48:48Z</time>
      </trkpt>
      <trkpt lat="48.50579" lon="2.00225">
        <ele>154</ele>
        <time>2019-11-24T08:48:50Z</time>
      </trkpt>
      <trkpt lat="48.50572" lon="2.00223">
        <ele>154</ele>
        <time>2019-11-24T08:48:52Z</time>
      </trkpt>
      <trkpt lat="48.50565" lon="2.00223">
        <ele>153</ele>
        <time>2019-11-24T08:48:54Z</time>
      </trkpt>
      <trkpt lat="48.50558" lon="2.0022">
        <ele>152</ele>
        <time>2019-11-24T08:48:56Z</time>
      </trkpt>
      <trkpt lat="48.5055" lon="2.00218">
        <ele>152</ele>
        <time>2019-11-24T08:48:58Z</time>
      </trkpt>
      <trkpt lat="48.50543" lon="2.00222">
        <ele>152</ele>
        <time>2019-11-24T08:49:00Z</time>
      </trkpt>
      <trkpt lat="48.50537" lon="2.00224">
        <ele>152</ele>
        <time>2019-11-24T08:49:02Z</time>
      </trkpt>
      <trkpt lat="48.5053" lon="2.00228">
        <ele>152</ele>
        <time>2019-11-24T08:49:04Z</time>
      </trkpt>
      <trkpt lat="48.50524" lon="2.00233">
        <ele>152</ele>
        <time>2019-11-24T08:49:06Z</time>
      </trkpt>
      <trkpt lat="48.50517" lon="2.00236">
        <ele>152</ele>
        <time>2019-11-24T08:49:08Z</time>
      </trkpt>
      <trkpt lat="48.50509" lon="2.00239">
        <ele>153</ele>
        <time>2019-11-24T08:49:10Z</time>
      </trkpt>
      <trkpt lat="48.50501" lon="2.00243">
        <ele>154</ele>
        <time>2019-11-24T08:49:12Z</time>
      </trkpt>
      <trkpt lat="48.50495" lon="2.00248">
        <ele>153</ele>
        <time>2019-11-24T08:49:14Z</time>
      </trkpt>
      <trkpt lat="48.50488" lon="2.00252">
        <ele>155</ele>
        <time>2019-11-24T08:49:16Z</time>
      </trkpt>
      <trkpt lat="48.50481" lon="2.00255">
        <ele>155</ele>
        <time>2019-11-24T08:49:18Z</time>
      </trkpt>
      <trkpt lat="48.50473" lon="2.00258">
        <ele>154</ele>
        <time>2019-11-24T08:49:20Z</time>
      </trkpt>
      <trkpt lat="48.50466" lon="2.00262">
        <ele>154</ele>
        <time>2019-11-24T08:49:22Z</time>
      </trkpt>
      <trkpt lat="48.50458" lon="2.00266">
        <ele>154</ele>
        <time>2019-11-24T08:49:24Z</time>
      </trkpt>
      <trkpt lat="48.50453" lon="2.00275">
        <ele>154</ele>
        <time>2019-11-24T08:49:26Z</time>
      </trkpt>
      <trkpt lat="48.50447" lon="2.0028">
        <ele>154</ele>
        <time>2019-11-24T08:49:28Z</time>
      </trkpt>
      <trkpt lat="48.50441" lon="2.00283">
        <ele>154</ele>
        <time>2019-11-24T08:49:30Z</time>
      </trkpt>
      <trkpt lat="48.50433" lon="2.00282">
        <ele>154</ele>
        <time>2019-11-24T08:49:32Z</time>
      </trkpt>
      <trkpt lat="48.50424" lon="2.00281">
        <ele>153</ele>
        <time>2019-11-24T08:49:34Z</time>
      </trkpt>
      <trkpt lat="48.50415" lon="2.00282">
        <ele>152</ele>
        <time>2019-11-24T08:49:36Z</time>
      </trkpt>
      <trkpt lat="48.50406" lon="2.00281">
        <ele>152</ele>
        <time>2019-11-24T08:49:38Z</time>
      </trkpt>
      <trkpt lat="48.50399" lon="2.00282">
        <ele>152</ele>
        <time>2019-11-24T08:49:40Z</time>
      </trkpt>
      <trkpt lat="48.50393" lon="2.00282">
        <ele>152</ele>
        <time>2019-11-24T08:49:42Z</time>
      </trkpt>
      <trkpt lat="48.50384" lon="2.00283">
        <ele>152</ele>
        <time>2019-11-24T08:49:44Z</time>
      </trkpt>
      <trkpt lat="48.50377" lon="2.00279">
        <ele>152</ele>
        <time>2019-11-24T08:49:46Z</time>
      </trkpt>
      <trkpt lat="48.50368" lon="2.00277">
        <ele>151</ele>
        <time>2019-11-24T08:49:48Z</time>
      </trkpt>
      <trkpt lat="48.5036" lon="2.00274">
        <ele>151</ele>
        <time>2019-11-24T08:49:50Z</time>
      </trkpt>
      <trkpt lat="48.50352" lon="2.00271">
        <ele>151</ele>
        <time>2019-11-24T08:49:52Z</time>
      </trkpt>
      <trkpt lat="48.50344" lon="2.00268">
        <ele>151</ele>
        <time>2019-11-24T08:49:54Z</time>
      </trkpt>
      <trkpt lat="48.50337" lon="2.00265">
        <ele>150</ele>
        <time>2019-11-24T08:49:56Z</time>
      </trkpt>
      <trkpt lat="48.5033" lon="2.00264">
        <ele>150</ele>
        <time>2019-11-24T08:49:58Z</time>
      </trkpt>
      <trkpt lat="48.50325" lon="2.00259">
        <ele>150</ele>
        <time>2019-11-24T08:50:00Z</time>
      </trkpt>
      <trkpt lat="48.50319" lon="2.00257">
        <ele>151</ele>
        <time>2019-11-24T08:50:02Z</time>
      </trkpt>
      <trkpt lat="48.50315" lon="2.00257">
        <ele>151</ele>
        <time>2019-11-24T08:50:04Z</time>
      </trkpt>
      <trkpt lat="48.5031" lon="2.00256">
        <ele>151</ele>
        <time>2019-11-24T08:50:06Z</time>
      </trkpt>
      <trkpt lat="48.50306" lon="2.00255">
        <ele>151</ele>
        <time>2019-11-24T08:50:08Z</time>
      </trkpt>
      <trkpt lat="48.503" lon="2.00255">
        <ele>152</ele>
        <time>2019-11-24T08:50:10Z</time>
      </trkpt>
      <trkpt lat="48.50295" lon="2.00253">
        <ele>152</ele>
        <time>2019-11-24T08:50:12Z</time>
      </trkpt>
      <trkpt lat="48.50289" lon="2.0025">
        <ele>148</ele>
        <time>2019-11-24T08:50:14Z</time>
      </trkpt>
      <trkpt lat="48.50284" lon="2.00247">
        <ele>148</ele>
        <time>2019-11-24T08:50:16Z</time>
      </trkpt>
      <trkpt lat="48.50276" lon="2.00246">
        <ele>149</ele>
        <time>2019-11-24T08:50:18Z</time>
      </trkpt>
      <trkpt lat="48.5027" lon="2.00242">
        <ele>149</ele>
        <time>2019-11-24T08:50:20Z</time>
      </trkpt>
      <trkpt lat="48.50265" lon="2.0024">
        <ele>150</ele>
        <time>2019-11-24T08:50:22Z</time>
      </trkpt>
      <trkpt lat="48.50258" lon="2.0024">
        <ele>151</ele>
        <time>2019-11-24T08:50:24Z</time>
      </trkpt>
      <trkpt lat="48.50249" lon="2.0024">
        <ele>153</ele>
        <time>2019-11-24T08:50:26Z</time>
      </trkpt>
      <trkpt lat="48.50242" lon="2.0024">
        <ele>153</ele>
        <time>2019-11-24T08:50:28Z</time>
      </trkpt>
      <trkpt lat="48.50237" lon="2.00239">
        <ele>152</ele>
        <time>2019-11-24T08:50:30Z</time>
      </trkpt>
      <trkpt lat="48.50231" lon="2.00233">
        <ele>152</ele>
        <time>2019-11-24T08:50:32Z</time>
      </trkpt>
      <trkpt lat="48.50225" lon="2.00226">
        <ele>152</ele>
        <time>2019-11-24T08:50:34Z</time>
      </trkpt>
      <trkpt lat="48.50218" lon="2.00223">
        <ele>152</ele>
        <time>2019-11-24T08:50:36Z</time>
      </trkpt>
      <trkpt lat="48.50212" lon="2.0022">
        <ele>152</ele>
        <time>2019-11-24T08:50:38Z</time>
      </trkpt>
      <trkpt lat="48.50207" lon="2.0022">
        <ele>152</ele>
        <time>2019-11-24T08:50:40Z</time>
      </trkpt>
      <trkpt lat="48.50199" lon="2.00215">
        <ele>152</ele>
        <time>2019-11-24T08:50:44Z</time>
      </trkpt>
      <trkpt lat="48.50194" lon="2.00209">
        <ele>152</ele>
        <time>2019-11-24T08:50:46Z</time>
      </trkpt>
      <trkpt lat="48.5019" lon="2.00203">
        <ele>152</ele>
        <time>2019-11-24T08:50:48Z</time>
      </trkpt>
      <trkpt lat="48.50186" lon="2.00198">
        <ele>152</ele>
        <time>2019-11-24T08:50:50Z</time>
      </trkpt>
      <trkpt lat="48.50178" lon="2.00193">
        <ele>152</ele>
        <time>2019-11-24T08:50:52Z</time>
      </trkpt>
      <trkpt lat="48.50173" lon="2.00188">
        <ele>152</ele>
        <time>2019-11-24T08:50:54Z</time>
      </trkpt>
      <trkpt lat="48.50166" lon="2.00182">
        <ele>154</ele>
        <time>2019-11-24T08:50:56Z</time>
      </trkpt>
      <trkpt lat="48.5016" lon="2.00176">
        <ele>154</ele>
        <time>2019-11-24T08:50:58Z</time>
      </trkpt>
      <trkpt lat="48.50154" lon="2.00168">
        <ele>154</ele>
        <time>2019-11-24T08:51:00Z</time>
      </trkpt>
      <trkpt lat="48.50147" lon="2.00162">
        <ele>152</ele>
        <time>2019-11-24T08:51:02Z</time>
      </trkpt>
      <trkpt lat="48.5014" lon="2.00155">
        <ele>152</ele>
        <time>2019-11-24T08:51:04Z</time>
      </trkpt>
      <trkpt lat="48.50135" lon="2.00149">
        <ele>152</ele>
        <time>2019-11-24T08:51:06Z</time>
      </trkpt>
      <trkpt lat="48.50129" lon="2.00143">
        <ele>152</ele>
        <time>2019-11-24T08:51:08Z</time>
      </trkpt>
      <trkpt lat="48.50123" lon="2.00133">
        <ele>152</ele>
        <time>2019-11-24T08:51:10Z</time>
      </trkpt>
      <trkpt lat="48.50117" lon="2.00126">
        <ele>152</ele>
        <time>2019-11-24T08:51:12Z</time>
      </trkpt>
      <trkpt lat="48.50109" lon="2.00121">
        <ele>152</ele>
        <time>2019-11-24T08:51:14Z</time>
      </trkpt>
      <trkpt lat="48.50104" lon="2.0012">
        <ele>152</ele>
        <time>2019-11-24T08:51:16Z</time>
      </trkpt>
      <trkpt lat="48.50099" lon="2.00118">
        <ele>152</ele>
        <time>2019-11-24T08:51:18Z</time>
      </trkpt>
      <trkpt lat="48.50093" lon="2.00115">
        <ele>152</ele>
        <time>2019-11-24T08:51:20Z</time>
      </trkpt>
      <trkpt lat="48.50088" lon="2.00111">
        <ele>152</ele>
        <time>2019-11-24T08:51:22Z</time>
      </trkpt>
      <trkpt lat="48.50081" lon="2.00108">
        <ele>154</ele>
        <time>2019-11-24T08:51:24Z</time>
      </trkpt>
      <trkpt lat="48.50074" lon="2.00104">
        <ele>154</ele>
        <time>2019-11-24T08:51:26Z</time>
      </trkpt>
      <trkpt lat="48.50071" lon="2.001">
        <ele>154</ele>
        <time>2019-11-24T08:51:28Z</time>
      </trkpt>
      <trkpt lat="48.50064" lon="2.00092">
        <ele>154</ele>
        <time>2019-11-24T08:51:30Z</time>
      </trkpt>
      <trkpt lat="48.50058" lon="2.00088">
        <ele>154</ele>
        <time>2019-11-24T08:51:32Z</time>
      </trkpt>
      <trkpt lat="48.50052" lon="2.00087">
        <ele>153</ele>
        <time>2019-11-24T08:51:34Z</time>
      </trkpt>
      <trkpt lat="48.50046" lon="2.00089">
        <ele>153</ele>
        <time>2019-11-24T08:51:38Z</time>
      </trkpt>
      <trkpt lat="48.50041" lon="2.00088">
        <ele>153</ele>
        <time>2019-11-24T08:51:42Z</time>
      </trkpt>
      <trkpt lat="48.50036" lon="2.00084">
        <ele>153</ele>
        <time>2019-11-24T08:51:50Z</time>
      </trkpt>
      <trkpt lat="48.5003" lon="2.00076">
        <ele>150</ele>
        <time>2019-11-24T08:51:54Z</time>
      </trkpt>
      <trkpt lat="48.50026" lon="2.00069">
        <ele>150</ele>
        <time>2019-11-24T08:51:56Z</time>
      </trkpt>
      <trkpt lat="48.50023" lon="2.00064">
        <ele>150</ele>
        <time>2019-11-24T08:51:58Z</time>
      </trkpt>
      <trkpt lat="48.5002" lon="2.00057">
        <ele>149</ele>
        <time>2019-11-24T08:52:00Z</time>
      </trkpt>
      <trkpt lat="48.50017" lon="2.0005">
        <ele>149</ele>
        <time>2019-11-24T08:52:04Z</time>
      </trkpt>
      <trkpt lat="48.50013" lon="2.00041">
        <ele>148</ele>
        <time>2019-11-24T08:52:08Z</time>
      </trkpt>
      <trkpt lat="48.5001" lon="2.00033">
        <ele>147</ele>
        <time>2019-11-24T08:52:12Z</time>
      </trkpt>
      <trkpt lat="48.50007" lon="2.00027">
        <ele>147</ele>
        <time>2019-11-24T08:52:14Z</time>
      </trkpt>
      <trkpt lat="48.50004" lon="2.00021">
        <ele>146</ele>
        <time>2019-11-24T08:52:16Z</time>
      </trkpt>
      <trkpt lat="48.49997" lon="2.00008">
        <ele>146</ele>
        <time>2019-11-24T08:52:20Z</time>
      </trkpt>
      <trkpt lat="48.49992" lon="2.00003">
        <ele>146</ele>
        <time>2019-11-24T08:52:22Z</time>
      </trkpt>
      <trkpt lat="48.49989" lon="1.99997">
        <ele>144</ele>
        <time>2019-11-24T08:52:24Z</time>
      </trkpt>
      <trkpt lat="48.49987" lon="1.99988">
        <ele>143</ele>
        <time>2019-11-24T08:52:26Z</time>
      </trkpt>
      <trkpt lat="48.49985" lon="1.99978">
        <ele>143</ele>
        <time>2019-11-24T08:52:28Z</time>
      </trkpt>
      <trkpt lat="48.49979" lon="1.99966">
        <ele>142</ele>
        <time>2019-11-24T08:52:30Z</time>
      </trkpt>
      <trkpt lat="48.49974" lon="1.99955">
        <ele>142</ele>
        <time>2019-11-24T08:52:32Z</time>
      </trkpt>
      <trkpt lat="48.49969" lon="1.99944">
        <ele>142</ele>
        <time>2019-11-24T08:52:34Z</time>
      </trkpt>
      <trkpt lat="48.49964" lon="1.99934">
        <ele>141</ele>
        <time>2019-11-24T08:52:36Z</time>
      </trkpt>
      <trkpt lat="48.49957" lon="1.99918">
        <ele>142</ele>
        <time>2019-11-24T08:52:38Z</time>
      </trkpt>
      <trkpt lat="48.49951" lon="1.99907">
        <ele>140</ele>
        <time>2019-11-24T08:52:40Z</time>
      </trkpt>
      <trkpt lat="48.49945" lon="1.99894">
        <ele>141</ele>
        <time>2019-11-24T08:52:42Z</time>
      </trkpt>
      <trkpt lat="48.49941" lon="1.99882">
        <ele>141</ele>
        <time>2019-11-24T08:52:44Z</time>
      </trkpt>
      <trkpt lat="48.49935" lon="1.99871">
        <ele>141</ele>
        <time>2019-11-24T08:52:46Z</time>
      </trkpt>
      <trkpt lat="48.49937" lon="1.99864">
        <ele>141</ele>
        <time>2019-11-24T08:52:48Z</time>
      </trkpt>
      <trkpt lat="48.49939" lon="1.99856">
        <ele>141</ele>
        <time>2019-11-24T08:52:50Z</time>
      </trkpt>
      <trkpt lat="48.4994" lon="1.99849">
        <ele>141</ele>
        <time>2019-11-24T08:52:54Z</time>
      </trkpt>
      <trkpt lat="48.49939" lon="1.9984">
        <ele>142</ele>
        <time>2019-11-24T08:52:58Z</time>
      </trkpt>
      <trkpt lat="48.49937" lon="1.99833">
        <ele>143</ele>
        <time>2019-11-24T08:53:02Z</time>
      </trkpt>
      <trkpt lat="48.49936" lon="1.99825">
        <ele>143</ele>
        <time>2019-11-24T08:53:06Z</time>
      </trkpt>
      <trkpt lat="48.49936" lon="1.99817">
        <ele>143</ele>
        <time>2019-11-24T08:53:16Z</time>
      </trkpt>
      <trkpt lat="48.49934" lon="1.99809">
        <ele>143</ele>
        <time>2019-11-24T08:53:26Z</time>
      </trkpt>
      <trkpt lat="48.49934" lon="1.99801">
        <ele>143</ele>
        <time>2019-11-24T08:53:34Z</time>
      </trkpt>
      <trkpt lat="48.49933" lon="1.99793">
        <ele>143</ele>
        <time>2019-11-24T08:53:44Z</time>
      </trkpt>
      <trkpt lat="48.4993" lon="1.99786">
        <ele>144</ele>
        <time>2019-11-24T08:53:54Z</time>
      </trkpt>
      <trkpt lat="48.49931" lon="1.99775">
        <ele>144</ele>
        <time>2019-11-24T08:54:04Z</time>
      </trkpt>
      <trkpt lat="48.49932" lon="1.99767">
        <ele>145</ele>
        <time>2019-11-24T08:54:08Z</time>
      </trkpt>
      <trkpt lat="48.49931" lon="1.99758">
        <ele>145</ele>
        <time>2019-11-24T08:54:12Z</time>
      </trkpt>
      <trkpt lat="48.49932" lon="1.99749">
        <ele>145</ele>
        <time>2019-11-24T08:54:16Z</time>
      </trkpt>
      <trkpt lat="48.49936" lon="1.99743">
        <ele>145</ele>
        <time>2019-11-24T08:54:18Z</time>
      </trkpt>
      <trkpt lat="48.4994" lon="1.99733">
        <ele>144</ele>
        <time>2019-11-24T08:54:20Z</time>
      </trkpt>
      <trkpt lat="48.49945" lon="1.99725">
        <ele>143</ele>
        <time>2019-11-24T08:54:22Z</time>
      </trkpt>
      <trkpt lat="48.4995" lon="1.9972">
        <ele>142</ele>
        <time>2019-11-24T08:54:24Z</time>
      </trkpt>
      <trkpt lat="48.49956" lon="1.99713">
        <ele>142</ele>
        <time>2019-11-24T08:54:26Z</time>
      </trkpt>
      <trkpt lat="48.49962" lon="1.99706">
        <ele>141</ele>
        <time>2019-11-24T08:54:28Z</time>
      </trkpt>
      <trkpt lat="48.49968" lon="1.99703">
        <ele>141</ele>
        <time>2019-11-24T08:54:30Z</time>
      </trkpt>
      <trkpt lat="48.49974" lon="1.99698">
        <ele>140</ele>
        <time>2019-11-24T08:54:32Z</time>
      </trkpt>
      <trkpt lat="48.4998" lon="1.99692">
        <ele>139</ele>
        <time>2019-11-24T08:54:34Z</time>
      </trkpt>
      <trkpt lat="48.49985" lon="1.99686">
        <ele>138</ele>
        <time>2019-11-24T08:54:36Z</time>
      </trkpt>
      <trkpt lat="48.49992" lon="1.9968">
        <ele>137</ele>
        <time>2019-11-24T08:54:38Z</time>
      </trkpt>
      <trkpt lat="48.5" lon="1.99673">
        <ele>133</ele>
        <time>2019-11-24T08:54:40Z</time>
      </trkpt>
      <trkpt lat="48.50011" lon="1.99663">
        <ele>131</ele>
        <time>2019-11-24T08:54:42Z</time>
      </trkpt>
      <trkpt lat="48.50024" lon="1.99649">
        <ele>130</ele>
        <time>2019-11-24T08:54:44Z</time>
      </trkpt>
      <trkpt lat="48.50036" lon="1.9964">
        <ele>129</ele>
        <time>2019-11-24T08:54:46Z</time>
      </trkpt>
      <trkpt lat="48.50046" lon="1.99631">
        <ele>129</ele>
        <time>2019-11-24T08:54:48Z</time>
      </trkpt>
      <trkpt lat="48.50054" lon="1.99624">
        <ele>129</ele>
        <time>2019-11-24T08:54:50Z</time>
      </trkpt>
      <trkpt lat="48.50063" lon="1.9962">
        <ele>128</ele>
        <time>2019-11-24T08:54:52Z</time>
      </trkpt>
      <trkpt lat="48.5007" lon="1.99617">
        <ele>128</ele>
        <time>2019-11-24T08:54:54Z</time>
      </trkpt>
      <trkpt lat="48.50076" lon="1.99611">
        <ele>128</ele>
        <time>2019-11-24T08:54:56Z</time>
      </trkpt>
      <trkpt lat="48.50083" lon="1.99603">
        <ele>127</ele>
        <time>2019-11-24T08:54:58Z</time>
      </trkpt>
      <trkpt lat="48.50088" lon="1.99599">
        <ele>126</ele>
        <time>2019-11-24T08:55:00Z</time>
      </trkpt>
      <trkpt lat="48.50093" lon="1.99597">
        <ele>126</ele>
        <time>2019-11-24T08:55:02Z</time>
      </trkpt>
      <trkpt lat="48.50098" lon="1.99591">
        <ele>126</ele>
        <time>2019-11-24T08:55:04Z</time>
      </trkpt>
      <trkpt lat="48.50108" lon="1.99582">
        <ele>125</ele>
        <time>2019-11-24T08:55:06Z</time>
      </trkpt>
      <trkpt lat="48.50118" lon="1.99574">
        <ele>125</ele>
        <time>2019-11-24T08:55:08Z</time>
      </trkpt>
      <trkpt lat="48.50126" lon="1.99569">
        <ele>124</ele>
        <time>2019-11-24T08:55:10Z</time>
      </trkpt>
      <trkpt lat="48.50135" lon="1.99563">
        <ele>124</ele>
        <time>2019-11-24T08:55:14Z</time>
      </trkpt>
      <trkpt lat="48.50144" lon="1.99555">
        <ele>124</ele>
        <time>2019-11-24T08:55:16Z</time>
      </trkpt>
      <trkpt lat="48.50155" lon="1.99547">
        <ele>124</ele>
        <time>2019-11-24T08:55:18Z</time>
      </trkpt>
      <trkpt lat="48.50162" lon="1.99542">
        <ele>124</ele>
        <time>2019-11-24T08:55:20Z</time>
      </trkpt>
      <trkpt lat="48.50168" lon="1.99536">
        <ele>124</ele>
        <time>2019-11-24T08:55:22Z</time>
      </trkpt>
      <trkpt lat="48.50176" lon="1.99527">
        <ele>124</ele>
        <time>2019-11-24T08:55:26Z</time>
      </trkpt>
      <trkpt lat="48.50185" lon="1.99521">
        <ele>124</ele>
        <time>2019-11-24T08:55:30Z</time>
      </trkpt>
      <trkpt lat="48.5019" lon="1.99518">
        <ele>124</ele>
        <time>2019-11-24T08:55:34Z</time>
      </trkpt>
      <trkpt lat="48.50197" lon="1.99512">
        <ele>124</ele>
        <time>2019-11-24T08:55:38Z</time>
      </trkpt>
      <trkpt lat="48.50202" lon="1.99507">
        <ele>124</ele>
        <time>2019-11-24T08:55:42Z</time>
      </trkpt>
      <trkpt lat="48.50209" lon="1.99503">
        <ele>124</ele>
        <time>2019-11-24T08:55:46Z</time>
      </trkpt>
      <trkpt lat="48.50213" lon="1.99499">
        <ele>125</ele>
        <time>2019-11-24T08:55:48Z</time>
      </trkpt>
      <trkpt lat="48.50218" lon="1.99494">
        <ele>125</ele>
        <time>2019-11-24T08:55:52Z</time>
      </trkpt>
      <trkpt lat="48.50223" lon="1.99491">
        <ele>125</ele>
        <time>2019-11-24T08:55:56Z</time>
      </trkpt>
      <trkpt lat="48.50228" lon="1.99487">
        <ele>125</ele>
        <time>2019-11-24T08:56:00Z</time>
      </trkpt>
      <trkpt lat="48.50233" lon="1.99482">
        <ele>125</ele>
        <time>2019-11-24T08:56:04Z</time>
      </trkpt>
      <trkpt lat="48.50238" lon="1.99478">
        <ele>125</ele>
        <time>2019-11-24T08:56:08Z</time>
      </trkpt>
      <trkpt lat="48.50243" lon="1.99475">
        <ele>125</ele>
        <time>2019-11-24T08:56:12Z</time>
      </trkpt>
      <trkpt lat="48.50248" lon="1.99465">
        <ele>125</ele>
        <time>2019-11-24T08:56:16Z</time>
      </trkpt>
      <trkpt lat="48.50251" lon="1.99455">
        <ele>123</ele>
        <time>2019-11-24T08:56:20Z</time>
      </trkpt>
      <trkpt lat="48.50252" lon="1.99443">
        <ele>124</ele>
        <time>2019-11-24T08:56:24Z</time>
      </trkpt>
      <trkpt lat="48.50253" lon="1.99431">
        <ele>124</ele>
        <time>2019-11-24T08:56:28Z</time>
      </trkpt>
      <trkpt lat="48.50254" lon="1.9942">
        <ele>125</ele>
        <time>2019-11-24T08:56:32Z</time>
      </trkpt>
      <trkpt lat="48.50254" lon="1.99408">
        <ele>125</ele>
        <time>2019-11-24T08:56:36Z</time>
      </trkpt>
      <trkpt lat="48.50253" lon="1.99398">
        <ele>125</ele>
        <time>2019-11-24T08:56:40Z</time>
      </trkpt>
      <trkpt lat="48.50252" lon="1.99387">
        <ele>125</ele>
        <time>2019-11-24T08:56:44Z</time>
      </trkpt>
      <trkpt lat="48.50249" lon="1.99379">
        <ele>128</ele>
        <time>2019-11-24T08:56:48Z</time>
      </trkpt>
      <trkpt lat="48.50244" lon="1.99368">
        <ele>129</ele>
        <time>2019-11-24T08:56:52Z</time>
      </trkpt>
      <trkpt lat="48.5024" lon="1.99359">
        <ele>129</ele>
        <time>2019-11-24T08:56:56Z</time>
      </trkpt>
      <trkpt lat="48.50235" lon="1.99351">
        <ele>129</ele>
        <time>2019-11-24T08:57:00Z</time>
      </trkpt>
      <trkpt lat="48.50231" lon="1.99339">
        <ele>129</ele>
        <time>2019-11-24T08:57:04Z</time>
      </trkpt>
      <trkpt lat="48.50228" lon="1.99334">
        <ele>129</ele>
        <time>2019-11-24T08:57:06Z</time>
      </trkpt>
      <trkpt lat="48.50226" lon="1.99327">
        <ele>132</ele>
        <time>2019-11-24T08:57:08Z</time>
      </trkpt>
      <trkpt lat="48.50222" lon="1.99318">
        <ele>133</ele>
        <time>2019-11-24T08:57:12Z</time>
      </trkpt>
      <trkpt lat="48.50219" lon="1.99311">
        <ele>133</ele>
        <time>2019-11-24T08:57:14Z</time>
      </trkpt>
      <trkpt lat="48.50217" lon="1.99305">
        <ele>134</ele>
        <time>2019-11-24T08:57:16Z</time>
      </trkpt>
      <trkpt lat="48.50214" lon="1.99299">
        <ele>134</ele>
        <time>2019-11-24T08:57:18Z</time>
      </trkpt>
      <trkpt lat="48.5021" lon="1.99287">
        <ele>135</ele>
        <time>2019-11-24T08:57:22Z</time>
      </trkpt>
      <trkpt lat="48.50206" lon="1.99277">
        <ele>135</ele>
        <time>2019-11-24T08:57:26Z</time>
      </trkpt>
      <trkpt lat="48.50202" lon="1.99269">
        <ele>136</ele>
        <time>2019-11-24T08:57:30Z</time>
      </trkpt>
      <trkpt lat="48.50198" lon="1.99265">
        <ele>136</ele>
        <time>2019-11-24T08:57:34Z</time>
      </trkpt>
      <trkpt lat="48.50192" lon="1.99267">
        <ele>137</ele>
        <time>2019-11-24T08:58:26Z</time>
      </trkpt>
      <trkpt lat="48.50187" lon="1.99269">
        <ele>137</ele>
        <time>2019-11-24T08:58:28Z</time>
      </trkpt>
      <trkpt lat="48.50182" lon="1.99272">
        <ele>137</ele>
        <time>2019-11-24T08:58:30Z</time>
      </trkpt>
      <trkpt lat="48.50174" lon="1.99277">
        <ele>137</ele>
        <time>2019-11-24T08:58:32Z</time>
      </trkpt>
      <trkpt lat="48.50166" lon="1.9928">
        <ele>139</ele>
        <time>2019-11-24T08:58:34Z</time>
      </trkpt>
      <trkpt lat="48.50158" lon="1.99285">
        <ele>138</ele>
        <time>2019-11-24T08:58:36Z</time>
      </trkpt>
      <trkpt lat="48.50149" lon="1.99293">
        <ele>138</ele>
        <time>2019-11-24T08:58:38Z</time>
      </trkpt>
      <trkpt lat="48.50141" lon="1.993">
        <ele>137</ele>
        <time>2019-11-24T08:58:40Z</time>
      </trkpt>
      <trkpt lat="48.50131" lon="1.99315">
        <ele>136</ele>
        <time>2019-11-24T08:58:42Z</time>
      </trkpt>
      <trkpt lat="48.50122" lon="1.9933">
        <ele>136</ele>
        <time>2019-11-24T08:58:44Z</time>
      </trkpt>
      <trkpt lat="48.50114" lon="1.99343">
        <ele>131</ele>
        <time>2019-11-24T08:58:46Z</time>
      </trkpt>
      <trkpt lat="48.50107" lon="1.99354">
        <ele>130</ele>
        <time>2019-11-24T08:58:48Z</time>
      </trkpt>
      <trkpt lat="48.50098" lon="1.99358">
        <ele>130</ele>
        <time>2019-11-24T08:58:50Z</time>
      </trkpt>
      <trkpt lat="48.50089" lon="1.99358">
        <ele>130</ele>
        <time>2019-11-24T08:58:52Z</time>
      </trkpt>
      <trkpt lat="48.5008" lon="1.9936">
        <ele>128</ele>
        <time>2019-11-24T08:58:54Z</time>
      </trkpt>
      <trkpt lat="48.5007" lon="1.99359">
        <ele>128</ele>
        <time>2019-11-24T08:58:56Z</time>
      </trkpt>
      <trkpt lat="48.5006" lon="1.99359">
        <ele>128</ele>
        <time>2019-11-24T08:58:58Z</time>
      </trkpt>
      <trkpt lat="48.50047" lon="1.99361">
        <ele>127</ele>
        <time>2019-11-24T08:59:00Z</time>
      </trkpt>
      <trkpt lat="48.50035" lon="1.99364">
        <ele>127</ele>
        <time>2019-11-24T08:59:02Z</time>
      </trkpt>
      <trkpt lat="48.50024" lon="1.99362">
        <ele>127</ele>
        <time>2019-11-24T08:59:04Z</time>
      </trkpt>
      <trkpt lat="48.50013" lon="1.99356">
        <ele>127</ele>
        <time>2019-11-24T08:59:06Z</time>
      </trkpt>
      <trkpt lat="48.50002" lon="1.9935">
        <ele>127</ele>
        <time>2019-11-24T08:59:08Z</time>
      </trkpt>
      <trkpt lat="48.49992" lon="1.99345">
        <ele>127</ele>
        <time>2019-11-24T08:59:10Z</time>
      </trkpt>
      <trkpt lat="48.49983" lon="1.99335">
        <ele>127</ele>
        <time>2019-11-24T08:59:12Z</time>
      </trkpt>
      <trkpt lat="48.49973" lon="1.9933">
        <ele>128</ele>
        <time>2019-11-24T08:59:14Z</time>
      </trkpt>
      <trkpt lat="48.49963" lon="1.99328">
        <ele>128</ele>
        <time>2019-11-24T08:59:16Z</time>
      </trkpt>
      <trkpt lat="48.49954" lon="1.99325">
        <ele>129</ele>
        <time>2019-11-24T08:59:18Z</time>
      </trkpt>
      <trkpt lat="48.49945" lon="1.9932">
        <ele>129</ele>
        <time>2019-11-24T08:59:20Z</time>
      </trkpt>
      <trkpt lat="48.49939" lon="1.99315">
        <ele>129</ele>
        <time>2019-11-24T08:59:22Z</time>
      </trkpt>
      <trkpt lat="48.49932" lon="1.99308">
        <ele>129</ele>
        <time>2019-11-24T08:59:24Z</time>
      </trkpt>
      <trkpt lat="48.49925" lon="1.99304">
        <ele>129</ele>
        <time>2019-11-24T08:59:26Z</time>
      </trkpt>
      <trkpt lat="48.49919" lon="1.993">
        <ele>129</ele>
        <time>2019-11-24T08:59:28Z</time>
      </trkpt>
      <trkpt lat="48.49913" lon="1.99296">
        <ele>132</ele>
        <time>2019-11-24T08:59:30Z</time>
      </trkpt>
      <trkpt lat="48.49907" lon="1.9929">
        <ele>132</ele>
        <time>2019-11-24T08:59:32Z</time>
      </trkpt>
      <trkpt lat="48.49903" lon="1.99284">
        <ele>132</ele>
        <time>2019-11-24T08:59:34Z</time>
      </trkpt>
      <trkpt lat="48.49897" lon="1.99278">
        <ele>133</ele>
        <time>2019-11-24T08:59:36Z</time>
      </trkpt>
      <trkpt lat="48.49894" lon="1.99272">
        <ele>133</ele>
        <time>2019-11-24T08:59:38Z</time>
      </trkpt>
      <trkpt lat="48.49889" lon="1.99265">
        <ele>133</ele>
        <time>2019-11-24T08:59:40Z</time>
      </trkpt>
      <trkpt lat="48.49885" lon="1.99259">
        <ele>133</ele>
        <time>2019-11-24T08:59:42Z</time>
      </trkpt>
      <trkpt lat="48.4988" lon="1.99253">
        <ele>133</ele>
        <time>2019-11-24T08:59:44Z</time>
      </trkpt>
      <trkpt lat="48.49877" lon="1.99247">
        <ele>132</ele>
        <time>2019-11-24T08:59:46Z</time>
      </trkpt>
      <trkpt lat="48.49872" lon="1.99241">
        <ele>132</ele>
        <time>2019-11-24T08:59:48Z</time>
      </trkpt>
      <trkpt lat="48.49867" lon="1.99233">
        <ele>132</ele>
        <time>2019-11-24T08:59:52Z</time>
      </trkpt>
      <trkpt lat="48.49861" lon="1.9923">
        <ele>132</ele>
        <time>2019-11-24T08:59:56Z</time>
      </trkpt>
      <trkpt lat="48.49856" lon="1.9923">
        <ele>133</ele>
        <time>2019-11-24T09:00:00Z</time>
      </trkpt>
      <trkpt lat="48.4985" lon="1.99225">
        <ele>133</ele>
        <time>2019-11-24T09:00:04Z</time>
      </trkpt>
      <trkpt lat="48.49844" lon="1.99219">
        <ele>133</ele>
        <time>2019-11-24T09:00:08Z</time>
      </trkpt>
      <trkpt lat="48.49836" lon="1.99212">
        <ele>132</ele>
        <time>2019-11-24T09:00:12Z</time>
      </trkpt>
      <trkpt lat="48.49831" lon="1.9921">
        <ele>138</ele>
        <time>2019-11-24T09:00:14Z</time>
      </trkpt>
      <trkpt lat="48.49824" lon="1.99205">
        <ele>138</ele>
        <time>2019-11-24T09:00:18Z</time>
      </trkpt>
      <trkpt lat="48.49818" lon="1.99202">
        <ele>138</ele>
        <time>2019-11-24T09:00:22Z</time>
      </trkpt>
      <trkpt lat="48.49811" lon="1.99202">
        <ele>138</ele>
        <time>2019-11-24T09:00:26Z</time>
      </trkpt>
      <trkpt lat="48.49805" lon="1.99203">
        <ele>139</ele>
        <time>2019-11-24T09:00:30Z</time>
      </trkpt>
      <trkpt lat="48.49799" lon="1.99203">
        <ele>139</ele>
        <time>2019-11-24T09:00:34Z</time>
      </trkpt>
      <trkpt lat="48.49792" lon="1.99203">
        <ele>140</ele>
        <time>2019-11-24T09:00:38Z</time>
      </trkpt>
      <trkpt lat="48.49787" lon="1.99203">
        <ele>140</ele>
        <time>2019-11-24T09:00:42Z</time>
      </trkpt>
      <trkpt lat="48.4978" lon="1.99204">
        <ele>141</ele>
        <time>2019-11-24T09:00:46Z</time>
      </trkpt>
      <trkpt lat="48.49773" lon="1.99203">
        <ele>141</ele>
        <time>2019-11-24T09:00:50Z</time>
      </trkpt>
      <trkpt lat="48.49768" lon="1.99203">
        <ele>141</ele>
        <time>2019-11-24T09:00:54Z</time>
      </trkpt>
      <trkpt lat="48.49762" lon="1.99204">
        <ele>142</ele>
        <time>2019-11-24T09:00:58Z</time>
      </trkpt>
      <trkpt lat="48.49757" lon="1.99205">
        <ele>142</ele>
        <time>2019-11-24T09:01:02Z</time>
      </trkpt>
      <trkpt lat="48.49752" lon="1.99207">
        <ele>142</ele>
        <time>2019-11-24T09:01:06Z</time>
      </trkpt>
      <trkpt lat="48.49746" lon="1.99208">
        <ele>149</ele>
        <time>2019-11-24T09:01:10Z</time>
      </trkpt>
      <trkpt lat="48.4974" lon="1.99209">
        <ele>149</ele>
        <time>2019-11-24T09:01:14Z</time>
      </trkpt>
      <trkpt lat="48.49734" lon="1.99208">
        <ele>149</ele>
        <time>2019-11-24T09:01:18Z</time>
      </trkpt>
      <trkpt lat="48.49728" lon="1.99209">
        <ele>150</ele>
        <time>2019-11-24T09:01:24Z</time>
      </trkpt>
      <trkpt lat="48.49722" lon="1.9921">
        <ele>150</ele>
        <time>2019-11-24T09:01:30Z</time>
      </trkpt>
      <trkpt lat="48.49715" lon="1.9921">
        <ele>150</ele>
        <time>2019-11-24T09:01:36Z</time>
      </trkpt>
      <trkpt lat="48.49708" lon="1.9921">
        <ele>151</ele>
        <time>2019-11-24T09:01:40Z</time>
      </trkpt>
      <trkpt lat="48.497" lon="1.99209">
        <ele>151</ele>
        <time>2019-11-24T09:01:44Z</time>
      </trkpt>
      <trkpt lat="48.49695" lon="1.99209">
        <ele>151</ele>
        <time>2019-11-24T09:01:48Z</time>
      </trkpt>
      <trkpt lat="48.4969" lon="1.99206">
        <ele>152</ele>
        <time>2019-11-24T09:01:52Z</time>
      </trkpt>
      <trkpt lat="48.49685" lon="1.99203">
        <ele>152</ele>
        <time>2019-11-24T09:01:56Z</time>
      </trkpt>
      <trkpt lat="48.49679" lon="1.992">
        <ele>152</ele>
        <time>2019-11-24T09:02:00Z</time>
      </trkpt>
      <trkpt lat="48.49672" lon="1.99196">
        <ele>153</ele>
        <time>2019-11-24T09:02:04Z</time>
      </trkpt>
      <trkpt lat="48.49668" lon="1.99193">
        <ele>153</ele>
        <time>2019-11-24T09:02:06Z</time>
      </trkpt>
      <trkpt lat="48.49661" lon="1.99191">
        <ele>156</ele>
        <time>2019-11-24T09:02:10Z</time>
      </trkpt>
      <trkpt lat="48.49655" lon="1.99193">
        <ele>156</ele>
        <time>2019-11-24T09:02:14Z</time>
      </trkpt>
      <trkpt lat="48.49651" lon="1.99197">
        <ele>156</ele>
        <time>2019-11-24T09:02:18Z</time>
      </trkpt>
      <trkpt lat="48.49647" lon="1.99202">
        <ele>156</ele>
        <time>2019-11-24T09:02:22Z</time>
      </trkpt>
      <trkpt lat="48.49641" lon="1.99209">
        <ele>155</ele>
        <time>2019-11-24T09:02:26Z</time>
      </trkpt>
      <trkpt lat="48.49636" lon="1.99213">
        <ele>155</ele>
        <time>2019-11-24T09:02:30Z</time>
      </trkpt>
      <trkpt lat="48.49631" lon="1.99215">
        <ele>155</ele>
        <time>2019-11-24T09:02:34Z</time>
      </trkpt>
      <trkpt lat="48.49625" lon="1.99216">
        <ele>155</ele>
        <time>2019-11-24T09:02:40Z</time>
      </trkpt>
      <trkpt lat="48.4962" lon="1.99207">
        <ele>156</ele>
        <time>2019-11-24T09:02:46Z</time>
      </trkpt>
      <trkpt lat="48.49617" lon="1.99197">
        <ele>156</ele>
        <time>2019-11-24T09:02:50Z</time>
      </trkpt>
      <trkpt lat="48.49614" lon="1.99186">
        <ele>156</ele>
        <time>2019-11-24T09:02:54Z</time>
      </trkpt>
      <trkpt lat="48.49615" lon="1.99178">
        <ele>156</ele>
        <time>2019-11-24T09:02:56Z</time>
      </trkpt>
      <trkpt lat="48.49615" lon="1.99169">
        <ele>156</ele>
        <time>2019-11-24T09:02:58Z</time>
      </trkpt>
      <trkpt lat="48.49614" lon="1.99159">
        <ele>158</ele>
        <time>2019-11-24T09:03:00Z</time>
      </trkpt>
      <trkpt lat="48.49616" lon="1.99151">
        <ele>158</ele>
        <time>2019-11-24T09:03:02Z</time>
      </trkpt>
      <trkpt lat="48.49616" lon="1.99141">
        <ele>158</ele>
        <time>2019-11-24T09:03:04Z</time>
      </trkpt>
      <trkpt lat="48.49614" lon="1.99133">
        <ele>158</ele>
        <time>2019-11-24T09:03:06Z</time>
      </trkpt>
      <trkpt lat="48.49612" lon="1.99126">
        <ele>158</ele>
        <time>2019-11-24T09:03:08Z</time>
      </trkpt>
      <trkpt lat="48.4961" lon="1.9912">
        <ele>158</ele>
        <time>2019-11-24T09:03:10Z</time>
      </trkpt>
      <trkpt lat="48.49611" lon="1.9911">
        <ele>158</ele>
        <time>2019-11-24T09:03:12Z</time>
      </trkpt>
      <trkpt lat="48.49611" lon="1.99102">
        <ele>158</ele>
        <time>2019-11-24T09:03:14Z</time>
      </trkpt>
      <trkpt lat="48.49611" lon="1.99095">
        <ele>158</ele>
        <time>2019-11-24T09:03:16Z</time>
      </trkpt>
      <trkpt lat="48.49612" lon="1.99085">
        <ele>158</ele>
        <time>2019-11-24T09:03:18Z</time>
      </trkpt>
      <trkpt lat="48.49613" lon="1.99077">
        <ele>158</ele>
        <time>2019-11-24T09:03:20Z</time>
      </trkpt>
      <trkpt lat="48.49615" lon="1.99068">
        <ele>157</ele>
        <time>2019-11-24T09:03:22Z</time>
      </trkpt>
      <trkpt lat="48.49619" lon="1.99059">
        <ele>157</ele>
        <time>2019-11-24T09:03:24Z</time>
      </trkpt>
      <trkpt lat="48.49619" lon="1.99049">
        <ele>157</ele>
        <time>2019-11-24T09:03:26Z</time>
      </trkpt>
      <trkpt lat="48.49619" lon="1.9904">
        <ele>157</ele>
        <time>2019-11-24T09:03:28Z</time>
      </trkpt>
      <trkpt lat="48.4962" lon="1.99032">
        <ele>157</ele>
        <time>2019-11-24T09:03:30Z</time>
      </trkpt>
      <trkpt lat="48.49621" lon="1.99023">
        <ele>157</ele>
        <time>2019-11-24T09:03:32Z</time>
      </trkpt>
      <trkpt lat="48.49622" lon="1.99013">
        <ele>156</ele>
        <time>2019-11-24T09:03:34Z</time>
      </trkpt>
      <trkpt lat="48.49622" lon="1.99004">
        <ele>156</ele>
        <time>2019-11-24T09:03:36Z</time>
      </trkpt>
      <trkpt lat="48.49623" lon="1.98998">
        <ele>154</ele>
        <time>2019-11-24T09:03:38Z</time>
      </trkpt>
      <trkpt lat="48.49624" lon="1.98989">
        <ele>154</ele>
        <time>2019-11-24T09:03:40Z</time>
      </trkpt>
      <trkpt lat="48.49627" lon="1.98978">
        <ele>154</ele>
        <time>2019-11-24T09:03:42Z</time>
      </trkpt>
      <trkpt lat="48.4963" lon="1.98969">
        <ele>153</ele>
        <time>2019-11-24T09:03:44Z</time>
      </trkpt>
      <trkpt lat="48.49635" lon="1.98959">
        <ele>153</ele>
        <time>2019-11-24T09:03:46Z</time>
      </trkpt>
      <trkpt lat="48.49638" lon="1.98947">
        <ele>152</ele>
        <time>2019-11-24T09:03:48Z</time>
      </trkpt>
      <trkpt lat="48.49643" lon="1.98939">
        <ele>152</ele>
        <time>2019-11-24T09:03:50Z</time>
      </trkpt>
      <trkpt lat="48.49648" lon="1.98934">
        <ele>151</ele>
        <time>2019-11-24T09:03:52Z</time>
      </trkpt>
      <trkpt lat="48.49652" lon="1.98928">
        <ele>150</ele>
        <time>2019-11-24T09:03:54Z</time>
      </trkpt>
      <trkpt lat="48.49656" lon="1.98925">
        <ele>150</ele>
        <time>2019-11-24T09:03:56Z</time>
      </trkpt>
      <trkpt lat="48.49663" lon="1.98923">
        <ele>149</ele>
        <time>2019-11-24T09:04:16Z</time>
      </trkpt>
      <trkpt lat="48.49668" lon="1.98917">
        <ele>147</ele>
        <time>2019-11-24T09:04:18Z</time>
      </trkpt>
      <trkpt lat="48.49676" lon="1.98904">
        <ele>144</ele>
        <time>2019-11-24T09:04:22Z</time>
      </trkpt>
      <trkpt lat="48.4968" lon="1.98894">
        <ele>143</ele>
        <time>2019-11-24T09:04:24Z</time>
      </trkpt>
      <trkpt lat="48.49684" lon="1.98884">
        <ele>142</ele>
        <time>2019-11-24T09:04:26Z</time>
      </trkpt>
      <trkpt lat="48.49679" lon="1.98867">
        <ele>141</ele>
        <time>2019-11-24T09:04:28Z</time>
      </trkpt>
      <trkpt lat="48.49676" lon="1.98852">
        <ele>141</ele>
        <time>2019-11-24T09:04:30Z</time>
      </trkpt>
      <trkpt lat="48.49672" lon="1.98839">
        <ele>141</ele>
        <time>2019-11-24T09:04:32Z</time>
      </trkpt>
      <trkpt lat="48.4967" lon="1.98826">
        <ele>140</ele>
        <time>2019-11-24T09:04:34Z</time>
      </trkpt>
      <trkpt lat="48.49669" lon="1.98806">
        <ele>138</ele>
        <time>2019-11-24T09:04:36Z</time>
      </trkpt>
      <trkpt lat="48.49671" lon="1.9879">
        <ele>136</ele>
        <time>2019-11-24T09:04:38Z</time>
      </trkpt>
      <trkpt lat="48.49674" lon="1.98774">
        <ele>136</ele>
        <time>2019-11-24T09:04:40Z</time>
      </trkpt>
      <trkpt lat="48.49677" lon="1.98758">
        <ele>135</ele>
        <time>2019-11-24T09:04:42Z</time>
      </trkpt>
      <trkpt lat="48.49672" lon="1.98742">
        <ele>134</ele>
        <time>2019-11-24T09:04:44Z</time>
      </trkpt>
      <trkpt lat="48.49667" lon="1.98731">
        <ele>133</ele>
        <time>2019-11-24T09:04:46Z</time>
      </trkpt>
      <trkpt lat="48.49659" lon="1.98724">
        <ele>135</ele>
        <time>2019-11-24T09:04:48Z</time>
      </trkpt>
      <trkpt lat="48.49652" lon="1.98717">
        <ele>135</ele>
        <time>2019-11-24T09:04:50Z</time>
      </trkpt>
      <trkpt lat="48.49647" lon="1.98714">
        <ele>135</ele>
        <time>2019-11-24T09:04:52Z</time>
      </trkpt>
      <trkpt lat="48.49641" lon="1.98707">
        <ele>135</ele>
        <time>2019-11-24T09:04:54Z</time>
      </trkpt>
      <trkpt lat="48.49635" lon="1.98703">
        <ele>135</ele>
        <time>2019-11-24T09:04:56Z</time>
      </trkpt>
      <trkpt lat="48.49629" lon="1.987">
        <ele>135</ele>
        <time>2019-11-24T09:04:58Z</time>
      </trkpt>
      <trkpt lat="48.49624" lon="1.98698">
        <ele>135</ele>
        <time>2019-11-24T09:05:00Z</time>
      </trkpt>
      <trkpt lat="48.49619" lon="1.98695">
        <ele>135</ele>
        <time>2019-11-24T09:05:02Z</time>
      </trkpt>
      <trkpt lat="48.49614" lon="1.98692">
        <ele>135</ele>
        <time>2019-11-24T09:05:04Z</time>
      </trkpt>
      <trkpt lat="48.49608" lon="1.98689">
        <ele>135</ele>
        <time>2019-11-24T09:05:08Z</time>
      </trkpt>
      <trkpt lat="48.49601" lon="1.98686">
        <ele>135</ele>
        <time>2019-11-24T09:05:12Z</time>
      </trkpt>
      <trkpt lat="48.49593" lon="1.98683">
        <ele>135</ele>
        <time>2019-11-24T09:05:16Z</time>
      </trkpt>
      <trkpt lat="48.49588" lon="1.98682">
        <ele>135</ele>
        <time>2019-11-24T09:05:18Z</time>
      </trkpt>
      <trkpt lat="48.49581" lon="1.98678">
        <ele>136</ele>
        <time>2019-11-24T09:05:22Z</time>
      </trkpt>
      <trkpt lat="48.49572" lon="1.98674">
        <ele>137</ele>
        <time>2019-11-24T09:05:26Z</time>
      </trkpt>
      <trkpt lat="48.49568" lon="1.98671">
        <ele>137</ele>
        <time>2019-11-24T09:05:28Z</time>
      </trkpt>
      <trkpt lat="48.49566" lon="1.98665">
        <ele>134</ele>
        <time>2019-11-24T09:05:30Z</time>
      </trkpt>
      <trkpt lat="48.49559" lon="1.98661">
        <ele>134</ele>
        <time>2019-11-24T09:05:34Z</time>
      </trkpt>
      <trkpt lat="48.49558" lon="1.98653">
        <ele>134</ele>
        <time>2019-11-24T09:05:38Z</time>
      </trkpt>
      <trkpt lat="48.49561" lon="1.98643">
        <ele>134</ele>
        <time>2019-11-24T09:05:42Z</time>
      </trkpt>
      <trkpt lat="48.49564" lon="1.98631">
        <ele>134</ele>
        <time>2019-11-24T09:05:46Z</time>
      </trkpt>
      <trkpt lat="48.49569" lon="1.98621">
        <ele>133</ele>
        <time>2019-11-24T09:05:48Z</time>
      </trkpt>
      <trkpt lat="48.49574" lon="1.98606">
        <ele>133</ele>
        <time>2019-11-24T09:05:50Z</time>
      </trkpt>
      <trkpt lat="48.49582" lon="1.98596">
        <ele>132</ele>
        <time>2019-11-24T09:05:52Z</time>
      </trkpt>
      <trkpt lat="48.49594" lon="1.98587">
        <ele>131</ele>
        <time>2019-11-24T09:05:54Z</time>
      </trkpt>
      <trkpt lat="48.49606" lon="1.98575">
        <ele>131</ele>
        <time>2019-11-24T09:05:56Z</time>
      </trkpt>
      <trkpt lat="48.49617" lon="1.98566">
        <ele>131</ele>
        <time>2019-11-24T09:05:58Z</time>
      </trkpt>
      <trkpt lat="48.49624" lon="1.98558">
        <ele>131</ele>
        <time>2019-11-24T09:06:00Z</time>
      </trkpt>
      <trkpt lat="48.4963" lon="1.98551">
        <ele>131</ele>
        <time>2019-11-24T09:06:02Z</time>
      </trkpt>
      <trkpt lat="48.49638" lon="1.98542">
        <ele>131</ele>
        <time>2019-11-24T09:06:04Z</time>
      </trkpt>
      <trkpt lat="48.49644" lon="1.98537">
        <ele>131</ele>
        <time>2019-11-24T09:06:06Z</time>
      </trkpt>
      <trkpt lat="48.49649" lon="1.98527">
        <ele>131</ele>
        <time>2019-11-24T09:06:08Z</time>
      </trkpt>
      <trkpt lat="48.49654" lon="1.98525">
        <ele>131</ele>
        <time>2019-11-24T09:06:10Z</time>
      </trkpt>
      <trkpt lat="48.49658" lon="1.98522">
        <ele>131</ele>
        <time>2019-11-24T09:06:12Z</time>
      </trkpt>
      <trkpt lat="48.49666" lon="1.98515">
        <ele>131</ele>
        <time>2019-11-24T09:06:16Z</time>
      </trkpt>
      <trkpt lat="48.49669" lon="1.98509">
        <ele>133</ele>
        <time>2019-11-24T09:06:18Z</time>
      </trkpt>
      <trkpt lat="48.49677" lon="1.98503">
        <ele>133</ele>
        <time>2019-11-24T09:06:22Z</time>
      </trkpt>
      <trkpt lat="48.49682" lon="1.98496">
        <ele>135</ele>
        <time>2019-11-24T09:06:26Z</time>
      </trkpt>
      <trkpt lat="48.49687" lon="1.98492">
        <ele>135</ele>
        <time>2019-11-24T09:06:30Z</time>
      </trkpt>
      <trkpt lat="48.49694" lon="1.98485">
        <ele>136</ele>
        <time>2019-11-24T09:06:34Z</time>
      </trkpt>
      <trkpt lat="48.49699" lon="1.9848">
        <ele>137</ele>
        <time>2019-11-24T09:06:38Z</time>
      </trkpt>
      <trkpt lat="48.49703" lon="1.98475">
        <ele>137</ele>
        <time>2019-11-24T09:06:42Z</time>
      </trkpt>
      <trkpt lat="48.49707" lon="1.9847">
        <ele>137</ele>
        <time>2019-11-24T09:06:46Z</time>
      </trkpt>
      <trkpt lat="48.4971" lon="1.98465">
        <ele>138</ele>
        <time>2019-11-24T09:06:50Z</time>
      </trkpt>
      <trkpt lat="48.49714" lon="1.9846">
        <ele>138</ele>
        <time>2019-11-24T09:06:54Z</time>
      </trkpt>
      <trkpt lat="48.49718" lon="1.98455">
        <ele>138</ele>
        <time>2019-11-24T09:06:58Z</time>
      </trkpt>
      <trkpt lat="48.49723" lon="1.98451">
        <ele>139</ele>
        <time>2019-11-24T09:07:02Z</time>
      </trkpt>
      <trkpt lat="48.49727" lon="1.98445">
        <ele>139</ele>
        <time>2019-11-24T09:07:06Z</time>
      </trkpt>
      <trkpt lat="48.49731" lon="1.98442">
        <ele>139</ele>
        <time>2019-11-24T09:07:10Z</time>
      </trkpt>
      <trkpt lat="48.49737" lon="1.98436">
        <ele>140</ele>
        <time>2019-11-24T09:07:16Z</time>
      </trkpt>
      <trkpt lat="48.49741" lon="1.98433">
        <ele>141</ele>
        <time>2019-11-24T09:07:20Z</time>
      </trkpt>
      <trkpt lat="48.49746" lon="1.98429">
        <ele>141</ele>
        <time>2019-11-24T09:07:24Z</time>
      </trkpt>
      <trkpt lat="48.49753" lon="1.98424">
        <ele>145</ele>
        <time>2019-11-24T09:07:30Z</time>
      </trkpt>
      <trkpt lat="48.49757" lon="1.98421">
        <ele>145</ele>
        <time>2019-11-24T09:07:34Z</time>
      </trkpt>
      <trkpt lat="48.49761" lon="1.98418">
        <ele>145</ele>
        <time>2019-11-24T09:07:38Z</time>
      </trkpt>
      <trkpt lat="48.49766" lon="1.98415">
        <ele>146</ele>
        <time>2019-11-24T09:07:42Z</time>
      </trkpt>
      <trkpt lat="48.4977" lon="1.98413">
        <ele>146</ele>
        <time>2019-11-24T09:07:46Z</time>
      </trkpt>
      <trkpt lat="48.49775" lon="1.9841">
        <ele>146</ele>
        <time>2019-11-24T09:07:50Z</time>
      </trkpt>
      <trkpt lat="48.49781" lon="1.98406">
        <ele>147</ele>
        <time>2019-11-24T09:07:56Z</time>
      </trkpt>
      <trkpt lat="48.49787" lon="1.984">
        <ele>147</ele>
        <time>2019-11-24T09:08:02Z</time>
      </trkpt>
      <trkpt lat="48.49792" lon="1.98395">
        <ele>148</ele>
        <time>2019-11-24T09:08:06Z</time>
      </trkpt>
      <trkpt lat="48.49797" lon="1.98391">
        <ele>148</ele>
        <time>2019-11-24T09:08:10Z</time>
      </trkpt>
      <trkpt lat="48.49802" lon="1.98386">
        <ele>148</ele>
        <time>2019-11-24T09:08:14Z</time>
      </trkpt>
      <trkpt lat="48.49807" lon="1.98383">
        <ele>148</ele>
        <time>2019-11-24T09:08:18Z</time>
      </trkpt>
      <trkpt lat="48.49812" lon="1.98379">
        <ele>149</ele>
        <time>2019-11-24T09:08:22Z</time>
      </trkpt>
      <trkpt lat="48.49817" lon="1.98375">
        <ele>149</ele>
        <time>2019-11-24T09:08:26Z</time>
      </trkpt>
      <trkpt lat="48.49822" lon="1.9837">
        <ele>149</ele>
        <time>2019-11-24T09:08:30Z</time>
      </trkpt>
      <trkpt lat="48.49828" lon="1.98368">
        <ele>149</ele>
        <time>2019-11-24T09:08:34Z</time>
      </trkpt>
      <trkpt lat="48.49837" lon="1.98362">
        <ele>154</ele>
        <time>2019-11-24T09:08:38Z</time>
      </trkpt>
      <trkpt lat="48.49841" lon="1.98359">
        <ele>154</ele>
        <time>2019-11-24T09:08:40Z</time>
      </trkpt>
      <trkpt lat="48.49849" lon="1.98357">
        <ele>154</ele>
        <time>2019-11-24T09:08:44Z</time>
      </trkpt>
      <trkpt lat="48.49853" lon="1.98353">
        <ele>154</ele>
        <time>2019-11-24T09:08:46Z</time>
      </trkpt>
      <trkpt lat="48.49857" lon="1.9835">
        <ele>154</ele>
        <time>2019-11-24T09:08:48Z</time>
      </trkpt>
      <trkpt lat="48.49862" lon="1.98346">
        <ele>154</ele>
        <time>2019-11-24T09:08:50Z</time>
      </trkpt>
      <trkpt lat="48.49866" lon="1.98341">
        <ele>154</ele>
        <time>2019-11-24T09:08:52Z</time>
      </trkpt>
      <trkpt lat="48.49872" lon="1.98339">
        <ele>155</ele>
        <time>2019-11-24T09:08:54Z</time>
      </trkpt>
      <trkpt lat="48.49876" lon="1.98336">
        <ele>155</ele>
        <time>2019-11-24T09:08:56Z</time>
      </trkpt>
      <trkpt lat="48.49883" lon="1.98331">
        <ele>153</ele>
        <time>2019-11-24T09:08:58Z</time>
      </trkpt>
      <trkpt lat="48.49889" lon="1.98328">
        <ele>154</ele>
        <time>2019-11-24T09:09:00Z</time>
      </trkpt>
      <trkpt lat="48.49895" lon="1.98323">
        <ele>154</ele>
        <time>2019-11-24T09:09:02Z</time>
      </trkpt>
      <trkpt lat="48.49902" lon="1.9832">
        <ele>154</ele>
        <time>2019-11-24T09:09:04Z</time>
      </trkpt>
      <trkpt lat="48.49907" lon="1.98315">
        <ele>154</ele>
        <time>2019-11-24T09:09:06Z</time>
      </trkpt>
      <trkpt lat="48.49913" lon="1.98311">
        <ele>154</ele>
        <time>2019-11-24T09:09:08Z</time>
      </trkpt>
      <trkpt lat="48.49917" lon="1.98308">
        <ele>156</ele>
        <time>2019-11-24T09:09:10Z</time>
      </trkpt>
      <trkpt lat="48.49922" lon="1.98305">
        <ele>156</ele>
        <time>2019-11-24T09:09:12Z</time>
      </trkpt>
      <trkpt lat="48.49926" lon="1.98302">
        <ele>156</ele>
        <time>2019-11-24T09:09:14Z</time>
      </trkpt>
      <trkpt lat="48.49932" lon="1.983">
        <ele>156</ele>
        <time>2019-11-24T09:09:16Z</time>
      </trkpt>
      <trkpt lat="48.49939" lon="1.98298">
        <ele>156</ele>
        <time>2019-11-24T09:09:18Z</time>
      </trkpt>
      <trkpt lat="48.49944" lon="1.98296">
        <ele>156</ele>
        <time>2019-11-24T09:09:20Z</time>
      </trkpt>
      <trkpt lat="48.49949" lon="1.98296">
        <ele>156</ele>
        <time>2019-11-24T09:09:22Z</time>
      </trkpt>
      <trkpt lat="48.49956" lon="1.98294">
        <ele>156</ele>
        <time>2019-11-24T09:09:24Z</time>
      </trkpt>
      <trkpt lat="48.49963" lon="1.9829">
        <ele>156</ele>
        <time>2019-11-24T09:09:26Z</time>
      </trkpt>
      <trkpt lat="48.4997" lon="1.9829">
        <ele>156</ele>
        <time>2019-11-24T09:09:28Z</time>
      </trkpt>
      <trkpt lat="48.49977" lon="1.98287">
        <ele>156</ele>
        <time>2019-11-24T09:09:30Z</time>
      </trkpt>
      <trkpt lat="48.49986" lon="1.98284">
        <ele>156</ele>
        <time>2019-11-24T09:09:32Z</time>
      </trkpt>
      <trkpt lat="48.49993" lon="1.98281">
        <ele>156</ele>
        <time>2019-11-24T09:09:34Z</time>
      </trkpt>
      <trkpt lat="48.50001" lon="1.9828">
        <ele>157</ele>
        <time>2019-11-24T09:09:36Z</time>
      </trkpt>
      <trkpt lat="48.50008" lon="1.98278">
        <ele>157</ele>
        <time>2019-11-24T09:09:38Z</time>
      </trkpt>
      <trkpt lat="48.50016" lon="1.98274">
        <ele>157</ele>
        <time>2019-11-24T09:09:40Z</time>
      </trkpt>
      <trkpt lat="48.50023" lon="1.9827">
        <ele>157</ele>
        <time>2019-11-24T09:09:42Z</time>
      </trkpt>
      <trkpt lat="48.50031" lon="1.98267">
        <ele>158</ele>
        <time>2019-11-24T09:09:44Z</time>
      </trkpt>
      <trkpt lat="48.50038" lon="1.98265">
        <ele>158</ele>
        <time>2019-11-24T09:09:46Z</time>
      </trkpt>
      <trkpt lat="48.50048" lon="1.98265">
        <ele>158</ele>
        <time>2019-11-24T09:09:48Z</time>
      </trkpt>
      <trkpt lat="48.50056" lon="1.98267">
        <ele>158</ele>
        <time>2019-11-24T09:09:50Z</time>
      </trkpt>
      <trkpt lat="48.50064" lon="1.98268">
        <ele>158</ele>
        <time>2019-11-24T09:09:52Z</time>
      </trkpt>
      <trkpt lat="48.50073" lon="1.98272">
        <ele>158</ele>
        <time>2019-11-24T09:09:54Z</time>
      </trkpt>
      <trkpt lat="48.50081" lon="1.98275">
        <ele>159</ele>
        <time>2019-11-24T09:09:56Z</time>
      </trkpt>
      <trkpt lat="48.50088" lon="1.98276">
        <ele>160</ele>
        <time>2019-11-24T09:09:58Z</time>
      </trkpt>
      <trkpt lat="48.50098" lon="1.98278">
        <ele>160</ele>
        <time>2019-11-24T09:10:02Z</time>
      </trkpt>
      <trkpt lat="48.50104" lon="1.98279">
        <ele>160</ele>
        <time>2019-11-24T09:10:04Z</time>
      </trkpt>
      <trkpt lat="48.5011" lon="1.98279">
        <ele>160</ele>
        <time>2019-11-24T09:10:06Z</time>
      </trkpt>
      <trkpt lat="48.50116" lon="1.98278">
        <ele>160</ele>
        <time>2019-11-24T09:10:08Z</time>
      </trkpt>
      <trkpt lat="48.50122" lon="1.98278">
        <ele>160</ele>
        <time>2019-11-24T09:10:10Z</time>
      </trkpt>
      <trkpt lat="48.50128" lon="1.98277">
        <ele>160</ele>
        <time>2019-11-24T09:10:12Z</time>
      </trkpt>
      <trkpt lat="48.50133" lon="1.98274">
        <ele>160</ele>
        <time>2019-11-24T09:10:14Z</time>
      </trkpt>
      <trkpt lat="48.50139" lon="1.9827">
        <ele>160</ele>
        <time>2019-11-24T09:10:16Z</time>
      </trkpt>
      <trkpt lat="48.50146" lon="1.98266">
        <ele>160</ele>
        <time>2019-11-24T09:10:18Z</time>
      </trkpt>
      <trkpt lat="48.50149" lon="1.98261">
        <ele>161</ele>
        <time>2019-11-24T09:10:20Z</time>
      </trkpt>
      <trkpt lat="48.50155" lon="1.98257">
        <ele>161</ele>
        <time>2019-11-24T09:10:22Z</time>
      </trkpt>
      <trkpt lat="48.50159" lon="1.98254">
        <ele>161</ele>
        <time>2019-11-24T09:10:24Z</time>
      </trkpt>
      <trkpt lat="48.50169" lon="1.98248">
        <ele>161</ele>
        <time>2019-11-24T09:10:28Z</time>
      </trkpt>
      <trkpt lat="48.50174" lon="1.98245">
        <ele>161</ele>
        <time>2019-11-24T09:10:30Z</time>
      </trkpt>
      <trkpt lat="48.50179" lon="1.98241">
        <ele>160</ele>
        <time>2019-11-24T09:10:32Z</time>
      </trkpt>
      <trkpt lat="48.50185" lon="1.98236">
        <ele>160</ele>
        <time>2019-11-24T09:10:34Z</time>
      </trkpt>
      <trkpt lat="48.50191" lon="1.98233">
        <ele>160</ele>
        <time>2019-11-24T09:10:36Z</time>
      </trkpt>
      <trkpt lat="48.50197" lon="1.98229">
        <ele>160</ele>
        <time>2019-11-24T09:10:38Z</time>
      </trkpt>
      <trkpt lat="48.50202" lon="1.98227">
        <ele>160</ele>
        <time>2019-11-24T09:10:40Z</time>
      </trkpt>
      <trkpt lat="48.50209" lon="1.98223">
        <ele>159</ele>
        <time>2019-11-24T09:10:42Z</time>
      </trkpt>
      <trkpt lat="48.50214" lon="1.98219">
        <ele>159</ele>
        <time>2019-11-24T09:10:44Z</time>
      </trkpt>
      <trkpt lat="48.50219" lon="1.98219">
        <ele>159</ele>
        <time>2019-11-24T09:10:46Z</time>
      </trkpt>
      <trkpt lat="48.50227" lon="1.98227">
        <ele>159</ele>
        <time>2019-11-24T09:10:50Z</time>
      </trkpt>
      <trkpt lat="48.5023" lon="1.98234">
        <ele>160</ele>
        <time>2019-11-24T09:10:52Z</time>
      </trkpt>
      <trkpt lat="48.50235" lon="1.98243">
        <ele>160</ele>
        <time>2019-11-24T09:10:54Z</time>
      </trkpt>
      <trkpt lat="48.5024" lon="1.9825">
        <ele>160</ele>
        <time>2019-11-24T09:10:56Z</time>
      </trkpt>
      <trkpt lat="48.50244" lon="1.98258">
        <ele>160</ele>
        <time>2019-11-24T09:10:58Z</time>
      </trkpt>
      <trkpt lat="48.50248" lon="1.98267">
        <ele>161</ele>
        <time>2019-11-24T09:11:00Z</time>
      </trkpt>
      <trkpt lat="48.50252" lon="1.98276">
        <ele>161</ele>
        <time>2019-11-24T09:11:02Z</time>
      </trkpt>
      <trkpt lat="48.50254" lon="1.98285">
        <ele>162</ele>
        <time>2019-11-24T09:11:04Z</time>
      </trkpt>
      <trkpt lat="48.50257" lon="1.98293">
        <ele>162</ele>
        <time>2019-11-24T09:11:06Z</time>
      </trkpt>
      <trkpt lat="48.50261" lon="1.98302">
        <ele>162</ele>
        <time>2019-11-24T09:11:08Z</time>
      </trkpt>
      <trkpt lat="48.50263" lon="1.98309">
        <ele>162</ele>
        <time>2019-11-24T09:11:10Z</time>
      </trkpt>
      <trkpt lat="48.50266" lon="1.98319">
        <ele>163</ele>
        <time>2019-11-24T09:11:12Z</time>
      </trkpt>
      <trkpt lat="48.5027" lon="1.98328">
        <ele>163</ele>
        <time>2019-11-24T09:11:14Z</time>
      </trkpt>
      <trkpt lat="48.50273" lon="1.98339">
        <ele>163</ele>
        <time>2019-11-24T09:11:16Z</time>
      </trkpt>
      <trkpt lat="48.50275" lon="1.98348">
        <ele>164</ele>
        <time>2019-11-24T09:11:18Z</time>
      </trkpt>
      <trkpt lat="48.50273" lon="1.98356">
        <ele>164</ele>
        <time>2019-11-24T09:11:20Z</time>
      </trkpt>
      <trkpt lat="48.50272" lon="1.98365">
        <ele>164</ele>
        <time>2019-11-24T09:11:22Z</time>
      </trkpt>
      <trkpt lat="48.50274" lon="1.98377">
        <ele>164</ele>
        <time>2019-11-24T09:11:24Z</time>
      </trkpt>
      <trkpt lat="48.5028" lon="1.98384">
        <ele>164</ele>
        <time>2019-11-24T09:11:26Z</time>
      </trkpt>
      <trkpt lat="48.50285" lon="1.9839">
        <ele>164</ele>
        <time>2019-11-24T09:11:28Z</time>
      </trkpt>
      <trkpt lat="48.5029" lon="1.98393">
        <ele>164</ele>
        <time>2019-11-24T09:11:30Z</time>
      </trkpt>
      <trkpt lat="48.50295" lon="1.98397">
        <ele>164</ele>
        <time>2019-11-24T09:11:32Z</time>
      </trkpt>
      <trkpt lat="48.50301" lon="1.98405">
        <ele>164</ele>
        <time>2019-11-24T09:11:34Z</time>
      </trkpt>
      <trkpt lat="48.50307" lon="1.98413">
        <ele>164</ele>
        <time>2019-11-24T09:11:36Z</time>
      </trkpt>
      <trkpt lat="48.50311" lon="1.9842">
        <ele>164</ele>
        <time>2019-11-24T09:11:38Z</time>
      </trkpt>
      <trkpt lat="48.50316" lon="1.98428">
        <ele>164</ele>
        <time>2019-11-24T09:11:40Z</time>
      </trkpt>
      <trkpt lat="48.5032" lon="1.98435">
        <ele>164</ele>
        <time>2019-11-24T09:11:42Z</time>
      </trkpt>
      <trkpt lat="48.50322" lon="1.98444">
        <ele>164</ele>
        <time>2019-11-24T09:11:44Z</time>
      </trkpt>
      <trkpt lat="48.50324" lon="1.98453">
        <ele>164</ele>
        <time>2019-11-24T09:11:46Z</time>
      </trkpt>
      <trkpt lat="48.50328" lon="1.98461">
        <ele>164</ele>
        <time>2019-11-24T09:11:48Z</time>
      </trkpt>
      <trkpt lat="48.5033" lon="1.98471">
        <ele>163</ele>
        <time>2019-11-24T09:11:50Z</time>
      </trkpt>
      <trkpt lat="48.50333" lon="1.9848">
        <ele>163</ele>
        <time>2019-11-24T09:11:52Z</time>
      </trkpt>
      <trkpt lat="48.50336" lon="1.98489">
        <ele>163</ele>
        <time>2019-11-24T09:11:54Z</time>
      </trkpt>
      <trkpt lat="48.50338" lon="1.98498">
        <ele>163</ele>
        <time>2019-11-24T09:11:56Z</time>
      </trkpt>
      <trkpt lat="48.5034" lon="1.98508">
        <ele>163</ele>
        <time>2019-11-24T09:11:58Z</time>
      </trkpt>
      <trkpt lat="48.50341" lon="1.98517">
        <ele>163</ele>
        <time>2019-11-24T09:12:00Z</time>
      </trkpt>
      <trkpt lat="48.50344" lon="1.98522">
        <ele>162</ele>
        <time>2019-11-24T09:12:02Z</time>
      </trkpt>
      <trkpt lat="48.50348" lon="1.9853">
        <ele>162</ele>
        <time>2019-11-24T09:12:04Z</time>
      </trkpt>
      <trkpt lat="48.50353" lon="1.9854">
        <ele>162</ele>
        <time>2019-11-24T09:12:06Z</time>
      </trkpt>
      <trkpt lat="48.50356" lon="1.98551">
        <ele>162</ele>
        <time>2019-11-24T09:12:08Z</time>
      </trkpt>
      <trkpt lat="48.5036" lon="1.98559">
        <ele>162</ele>
        <time>2019-11-24T09:12:10Z</time>
      </trkpt>
      <trkpt lat="48.50363" lon="1.98565">
        <ele>162</ele>
        <time>2019-11-24T09:12:12Z</time>
      </trkpt>
      <trkpt lat="48.50365" lon="1.98574">
        <ele>162</ele>
        <time>2019-11-24T09:12:14Z</time>
      </trkpt>
      <trkpt lat="48.50366" lon="1.98582">
        <ele>162</ele>
        <time>2019-11-24T09:12:16Z</time>
      </trkpt>
      <trkpt lat="48.50369" lon="1.98588">
        <ele>162</ele>
        <time>2019-11-24T09:12:18Z</time>
      </trkpt>
      <trkpt lat="48.50372" lon="1.98597">
        <ele>162</ele>
        <time>2019-11-24T09:12:20Z</time>
      </trkpt>
      <trkpt lat="48.50377" lon="1.98604">
        <ele>161</ele>
        <time>2019-11-24T09:12:22Z</time>
      </trkpt>
      <trkpt lat="48.50382" lon="1.98613">
        <ele>161</ele>
        <time>2019-11-24T09:12:24Z</time>
      </trkpt>
      <trkpt lat="48.50386" lon="1.98624">
        <ele>161</ele>
        <time>2019-11-24T09:12:26Z</time>
      </trkpt>
      <trkpt lat="48.50388" lon="1.98634">
        <ele>161</ele>
        <time>2019-11-24T09:12:28Z</time>
      </trkpt>
      <trkpt lat="48.50392" lon="1.98646">
        <ele>161</ele>
        <time>2019-11-24T09:12:30Z</time>
      </trkpt>
      <trkpt lat="48.50395" lon="1.98658">
        <ele>160</ele>
        <time>2019-11-24T09:12:32Z</time>
      </trkpt>
      <trkpt lat="48.504" lon="1.98669">
        <ele>159</ele>
        <time>2019-11-24T09:12:34Z</time>
      </trkpt>
      <trkpt lat="48.50404" lon="1.98678">
        <ele>159</ele>
        <time>2019-11-24T09:12:36Z</time>
      </trkpt>
      <trkpt lat="48.50407" lon="1.98688">
        <ele>159</ele>
        <time>2019-11-24T09:12:38Z</time>
      </trkpt>
      <trkpt lat="48.50411" lon="1.98698">
        <ele>159</ele>
        <time>2019-11-24T09:12:40Z</time>
      </trkpt>
      <trkpt lat="48.50415" lon="1.98711">
        <ele>159</ele>
        <time>2019-11-24T09:12:42Z</time>
      </trkpt>
      <trkpt lat="48.50419" lon="1.98723">
        <ele>158</ele>
        <time>2019-11-24T09:12:44Z</time>
      </trkpt>
      <trkpt lat="48.50424" lon="1.98732">
        <ele>158</ele>
        <time>2019-11-24T09:12:46Z</time>
      </trkpt>
      <trkpt lat="48.50427" lon="1.98743">
        <ele>158</ele>
        <time>2019-11-24T09:12:48Z</time>
      </trkpt>
      <trkpt lat="48.50432" lon="1.98756">
        <ele>157</ele>
        <time>2019-11-24T09:12:50Z</time>
      </trkpt>
      <trkpt lat="48.50435" lon="1.98768">
        <ele>157</ele>
        <time>2019-11-24T09:12:52Z</time>
      </trkpt>
      <trkpt lat="48.50441" lon="1.98781">
        <ele>157</ele>
        <time>2019-11-24T09:12:54Z</time>
      </trkpt>
      <trkpt lat="48.50445" lon="1.98792">
        <ele>157</ele>
        <time>2019-11-24T09:12:56Z</time>
      </trkpt>
      <trkpt lat="48.50449" lon="1.98804">
        <ele>156</ele>
        <time>2019-11-24T09:12:58Z</time>
      </trkpt>
      <trkpt lat="48.50453" lon="1.98817">
        <ele>156</ele>
        <time>2019-11-24T09:13:00Z</time>
      </trkpt>
      <trkpt lat="48.50459" lon="1.9883">
        <ele>156</ele>
        <time>2019-11-24T09:13:02Z</time>
      </trkpt>
      <trkpt lat="48.50465" lon="1.98841">
        <ele>154</ele>
        <time>2019-11-24T09:13:04Z</time>
      </trkpt>
      <trkpt lat="48.50468" lon="1.98848">
        <ele>154</ele>
        <time>2019-11-24T09:13:06Z</time>
      </trkpt>
      <trkpt lat="48.50475" lon="1.98846">
        <ele>154</ele>
        <time>2019-11-24T09:13:08Z</time>
      </trkpt>
      <trkpt lat="48.50482" lon="1.98847">
        <ele>154</ele>
        <time>2019-11-24T09:13:10Z</time>
      </trkpt>
      <trkpt lat="48.50489" lon="1.98848">
        <ele>154</ele>
        <time>2019-11-24T09:13:12Z</time>
      </trkpt>
      <trkpt lat="48.50496" lon="1.98848">
        <ele>154</ele>
        <time>2019-11-24T09:13:14Z</time>
      </trkpt>
      <trkpt lat="48.50506" lon="1.98853">
        <ele>151</ele>
        <time>2019-11-24T09:13:16Z</time>
      </trkpt>
      <trkpt lat="48.50514" lon="1.98854">
        <ele>151</ele>
        <time>2019-11-24T09:13:18Z</time>
      </trkpt>
      <trkpt lat="48.50524" lon="1.98858">
        <ele>150</ele>
        <time>2019-11-24T09:13:20Z</time>
      </trkpt>
      <trkpt lat="48.50534" lon="1.9886">
        <ele>149</ele>
        <time>2019-11-24T09:13:22Z</time>
      </trkpt>
      <trkpt lat="48.50543" lon="1.98862">
        <ele>149</ele>
        <time>2019-11-24T09:13:24Z</time>
      </trkpt>
      <trkpt lat="48.50553" lon="1.98863">
        <ele>148</ele>
        <time>2019-11-24T09:13:26Z</time>
      </trkpt>
      <trkpt lat="48.50561" lon="1.98864">
        <ele>148</ele>
        <time>2019-11-24T09:13:28Z</time>
      </trkpt>
      <trkpt lat="48.50569" lon="1.98866">
        <ele>148</ele>
        <time>2019-11-24T09:13:30Z</time>
      </trkpt>
      <trkpt lat="48.50575" lon="1.98868">
        <ele>148</ele>
        <time>2019-11-24T09:13:32Z</time>
      </trkpt>
      <trkpt lat="48.50582" lon="1.98874">
        <ele>147</ele>
        <time>2019-11-24T09:13:34Z</time>
      </trkpt>
      <trkpt lat="48.50588" lon="1.98882">
        <ele>143</ele>
        <time>2019-11-24T09:13:36Z</time>
      </trkpt>
      <trkpt lat="48.50595" lon="1.9889">
        <ele>142</ele>
        <time>2019-11-24T09:13:38Z</time>
      </trkpt>
      <trkpt lat="48.50602" lon="1.98897">
        <ele>142</ele>
        <time>2019-11-24T09:13:40Z</time>
      </trkpt>
      <trkpt lat="48.5061" lon="1.98902">
        <ele>142</ele>
        <time>2019-11-24T09:13:42Z</time>
      </trkpt>
      <trkpt lat="48.50619" lon="1.98906">
        <ele>141</ele>
        <time>2019-11-24T09:13:44Z</time>
      </trkpt>
      <trkpt lat="48.50631" lon="1.98909">
        <ele>141</ele>
        <time>2019-11-24T09:13:46Z</time>
      </trkpt>
      <trkpt lat="48.50642" lon="1.98911">
        <ele>140</ele>
        <time>2019-11-24T09:13:48Z</time>
      </trkpt>
      <trkpt lat="48.50654" lon="1.98913">
        <ele>139</ele>
        <time>2019-11-24T09:13:50Z</time>
      </trkpt>
      <trkpt lat="48.50667" lon="1.98917">
        <ele>137</ele>
        <time>2019-11-24T09:13:52Z</time>
      </trkpt>
      <trkpt lat="48.50678" lon="1.98927">
        <ele>136</ele>
        <time>2019-11-24T09:13:54Z</time>
      </trkpt>
      <trkpt lat="48.50686" lon="1.98937">
        <ele>136</ele>
        <time>2019-11-24T09:13:56Z</time>
      </trkpt>
      <trkpt lat="48.50693" lon="1.98949">
        <ele>136</ele>
        <time>2019-11-24T09:13:58Z</time>
      </trkpt>
      <trkpt lat="48.50696" lon="1.98959">
        <ele>135</ele>
        <time>2019-11-24T09:14:00Z</time>
      </trkpt>
      <trkpt lat="48.50701" lon="1.98968">
        <ele>135</ele>
        <time>2019-11-24T09:14:02Z</time>
      </trkpt>
      <trkpt lat="48.50707" lon="1.98978">
        <ele>135</ele>
        <time>2019-11-24T09:14:04Z</time>
      </trkpt>
      <trkpt lat="48.50711" lon="1.98989">
        <ele>135</ele>
        <time>2019-11-24T09:14:06Z</time>
      </trkpt>
      <trkpt lat="48.50715" lon="1.99002">
        <ele>132</ele>
        <time>2019-11-24T09:14:08Z</time>
      </trkpt>
      <trkpt lat="48.50719" lon="1.99014">
        <ele>132</ele>
        <time>2019-11-24T09:14:10Z</time>
      </trkpt>
      <trkpt lat="48.50723" lon="1.99028">
        <ele>132</ele>
        <time>2019-11-24T09:14:12Z</time>
      </trkpt>
      <trkpt lat="48.50728" lon="1.99041">
        <ele>131</ele>
        <time>2019-11-24T09:14:14Z</time>
      </trkpt>
      <trkpt lat="48.50733" lon="1.99056">
        <ele>131</ele>
        <time>2019-11-24T09:14:16Z</time>
      </trkpt>
      <trkpt lat="48.50738" lon="1.9907">
        <ele>131</ele>
        <time>2019-11-24T09:14:18Z</time>
      </trkpt>
      <trkpt lat="48.50745" lon="1.99085">
        <ele>130</ele>
        <time>2019-11-24T09:14:20Z</time>
      </trkpt>
      <trkpt lat="48.50752" lon="1.99099">
        <ele>131</ele>
        <time>2019-11-24T09:14:22Z</time>
      </trkpt>
      <trkpt lat="48.50757" lon="1.99113">
        <ele>131</ele>
        <time>2019-11-24T09:14:24Z</time>
      </trkpt>
      <trkpt lat="48.50761" lon="1.99124">
        <ele>130</ele>
        <time>2019-11-24T09:14:26Z</time>
      </trkpt>
      <trkpt lat="48.50766" lon="1.99132">
        <ele>130</ele>
        <time>2019-11-24T09:14:28Z</time>
      </trkpt>
      <trkpt lat="48.50773" lon="1.99136">
        <ele>130</ele>
        <time>2019-11-24T09:14:30Z</time>
      </trkpt>
      <trkpt lat="48.50782" lon="1.99135">
        <ele>130</ele>
        <time>2019-11-24T09:14:34Z</time>
      </trkpt>
      <trkpt lat="48.5079" lon="1.99135">
        <ele>131</ele>
        <time>2019-11-24T09:14:38Z</time>
      </trkpt>
      <trkpt lat="48.50794" lon="1.99136">
        <ele>131</ele>
        <time>2019-11-24T09:14:42Z</time>
      </trkpt>
      <trkpt lat="48.50799" lon="1.99136">
        <ele>131</ele>
        <time>2019-11-24T09:14:52Z</time>
      </trkpt>
      <trkpt lat="48.50805" lon="1.99139">
        <ele>131</ele>
        <time>2019-11-24T09:14:56Z</time>
      </trkpt>
      <trkpt lat="48.5081" lon="1.99143">
        <ele>131</ele>
        <time>2019-11-24T09:14:58Z</time>
      </trkpt>
      <trkpt lat="48.50817" lon="1.99145">
        <ele>131</ele>
        <time>2019-11-24T09:15:00Z</time>
      </trkpt>
      <trkpt lat="48.50826" lon="1.99146">
        <ele>131</ele>
        <time>2019-11-24T09:15:02Z</time>
      </trkpt>
      <trkpt lat="48.50835" lon="1.9915">
        <ele>133</ele>
        <time>2019-11-24T09:15:04Z</time>
      </trkpt>
      <trkpt lat="48.50843" lon="1.99158">
        <ele>133</ele>
        <time>2019-11-24T09:15:06Z</time>
      </trkpt>
      <trkpt lat="48.50851" lon="1.99166">
        <ele>133</ele>
        <time>2019-11-24T09:15:08Z</time>
      </trkpt>
      <trkpt lat="48.5086" lon="1.99169">
        <ele>129</ele>
        <time>2019-11-24T09:15:10Z</time>
      </trkpt>
      <trkpt lat="48.50868" lon="1.99172">
        <ele>129</ele>
        <time>2019-11-24T09:15:12Z</time>
      </trkpt>
      <trkpt lat="48.50875" lon="1.99176">
        <ele>129</ele>
        <time>2019-11-24T09:15:14Z</time>
      </trkpt>
      <trkpt lat="48.50882" lon="1.9918">
        <ele>129</ele>
        <time>2019-11-24T09:15:16Z</time>
      </trkpt>
      <trkpt lat="48.50888" lon="1.99183">
        <ele>129</ele>
        <time>2019-11-24T09:15:18Z</time>
      </trkpt>
      <trkpt lat="48.50895" lon="1.99183">
        <ele>130</ele>
        <time>2019-11-24T09:15:20Z</time>
      </trkpt>
      <trkpt lat="48.50901" lon="1.99181">
        <ele>131</ele>
        <time>2019-11-24T09:15:22Z</time>
      </trkpt>
      <trkpt lat="48.50906" lon="1.99182">
        <ele>131</ele>
        <time>2019-11-24T09:15:24Z</time>
      </trkpt>
      <trkpt lat="48.50914" lon="1.99183">
        <ele>131</ele>
        <time>2019-11-24T09:15:26Z</time>
      </trkpt>
      <trkpt lat="48.50919" lon="1.99185">
        <ele>132</ele>
        <time>2019-11-24T09:15:28Z</time>
      </trkpt>
      <trkpt lat="48.50926" lon="1.99188">
        <ele>132</ele>
        <time>2019-11-24T09:15:30Z</time>
      </trkpt>
      <trkpt lat="48.50933" lon="1.99194">
        <ele>131</ele>
        <time>2019-11-24T09:15:32Z</time>
      </trkpt>
      <trkpt lat="48.50939" lon="1.99199">
        <ele>131</ele>
        <time>2019-11-24T09:15:34Z</time>
      </trkpt>
      <trkpt lat="48.50944" lon="1.99204">
        <ele>130</ele>
        <time>2019-11-24T09:15:36Z</time>
      </trkpt>
      <trkpt lat="48.5095" lon="1.99209">
        <ele>130</ele>
        <time>2019-11-24T09:15:38Z</time>
      </trkpt>
      <trkpt lat="48.50957" lon="1.99208">
        <ele>130</ele>
        <time>2019-11-24T09:15:40Z</time>
      </trkpt>
      <trkpt lat="48.50964" lon="1.99207">
        <ele>130</ele>
        <time>2019-11-24T09:15:42Z</time>
      </trkpt>
      <trkpt lat="48.50969" lon="1.99207">
        <ele>130</ele>
        <time>2019-11-24T09:15:44Z</time>
      </trkpt>
      <trkpt lat="48.50976" lon="1.99206">
        <ele>130</ele>
        <time>2019-11-24T09:15:46Z</time>
      </trkpt>
      <trkpt lat="48.50982" lon="1.99208">
        <ele>130</ele>
        <time>2019-11-24T09:15:48Z</time>
      </trkpt>
      <trkpt lat="48.50988" lon="1.99213">
        <ele>130</ele>
        <time>2019-11-24T09:15:50Z</time>
      </trkpt>
      <trkpt lat="48.50992" lon="1.99215">
        <ele>130</ele>
        <time>2019-11-24T09:15:52Z</time>
      </trkpt>
      <trkpt lat="48.50999" lon="1.9922">
        <ele>130</ele>
        <time>2019-11-24T09:15:54Z</time>
      </trkpt>
      <trkpt lat="48.51005" lon="1.99226">
        <ele>129</ele>
        <time>2019-11-24T09:15:56Z</time>
      </trkpt>
      <trkpt lat="48.51013" lon="1.99235">
        <ele>128</ele>
        <time>2019-11-24T09:15:58Z</time>
      </trkpt>
      <trkpt lat="48.5102" lon="1.99242">
        <ele>128</ele>
        <time>2019-11-24T09:16:00Z</time>
      </trkpt>
      <trkpt lat="48.51026" lon="1.99249">
        <ele>128</ele>
        <time>2019-11-24T09:16:02Z</time>
      </trkpt>
      <trkpt lat="48.51033" lon="1.99257">
        <ele>124</ele>
        <time>2019-11-24T09:16:04Z</time>
      </trkpt>
      <trkpt lat="48.5104" lon="1.99265">
        <ele>124</ele>
        <time>2019-11-24T09:16:06Z</time>
      </trkpt>
      <trkpt lat="48.5105" lon="1.99275">
        <ele>124</ele>
        <time>2019-11-24T09:16:08Z</time>
      </trkpt>
      <trkpt lat="48.51058" lon="1.99284">
        <ele>124</ele>
        <time>2019-11-24T09:16:10Z</time>
      </trkpt>
      <trkpt lat="48.51064" lon="1.99293">
        <ele>124</ele>
        <time>2019-11-24T09:16:12Z</time>
      </trkpt>
      <trkpt lat="48.51068" lon="1.99302">
        <ele>123</ele>
        <time>2019-11-24T09:16:14Z</time>
      </trkpt>
      <trkpt lat="48.51074" lon="1.9931">
        <ele>123</ele>
        <time>2019-11-24T09:16:16Z</time>
      </trkpt>
      <trkpt lat="48.51077" lon="1.99316">
        <ele>123</ele>
        <time>2019-11-24T09:16:18Z</time>
      </trkpt>
      <trkpt lat="48.51084" lon="1.99318">
        <ele>124</ele>
        <time>2019-11-24T09:16:22Z</time>
      </trkpt>
      <trkpt lat="48.51088" lon="1.99309">
        <ele>125</ele>
        <time>2019-11-24T09:16:24Z</time>
      </trkpt>
      <trkpt lat="48.51091" lon="1.99298">
        <ele>125</ele>
        <time>2019-11-24T09:16:26Z</time>
      </trkpt>
      <trkpt lat="48.51096" lon="1.99287">
        <ele>125</ele>
        <time>2019-11-24T09:16:28Z</time>
      </trkpt>
      <trkpt lat="48.51102" lon="1.99278">
        <ele>126</ele>
        <time>2019-11-24T09:16:30Z</time>
      </trkpt>
      <trkpt lat="48.51106" lon="1.9927">
        <ele>126</ele>
        <time>2019-11-24T09:16:32Z</time>
      </trkpt>
      <trkpt lat="48.5111" lon="1.99259">
        <ele>126</ele>
        <time>2019-11-24T09:16:34Z</time>
      </trkpt>
      <trkpt lat="48.51115" lon="1.99248">
        <ele>128</ele>
        <time>2019-11-24T09:16:36Z</time>
      </trkpt>
      <trkpt lat="48.5112" lon="1.99237">
        <ele>128</ele>
        <time>2019-11-24T09:16:38Z</time>
      </trkpt>
      <trkpt lat="48.51127" lon="1.99225">
        <ele>129</ele>
        <time>2019-11-24T09:16:40Z</time>
      </trkpt>
      <trkpt lat="48.51133" lon="1.99213">
        <ele>129</ele>
        <time>2019-11-24T09:16:42Z</time>
      </trkpt>
      <trkpt lat="48.51137" lon="1.99203">
        <ele>129</ele>
        <time>2019-11-24T09:16:44Z</time>
      </trkpt>
      <trkpt lat="48.51142" lon="1.99192">
        <ele>129</ele>
        <time>2019-11-24T09:16:46Z</time>
      </trkpt>
      <trkpt lat="48.51146" lon="1.99182">
        <ele>130</ele>
        <time>2019-11-24T09:16:48Z</time>
      </trkpt>
      <trkpt lat="48.5115" lon="1.99173">
        <ele>130</ele>
        <time>2019-11-24T09:16:50Z</time>
      </trkpt>
      <trkpt lat="48.51155" lon="1.99163">
        <ele>132</ele>
        <time>2019-11-24T09:16:52Z</time>
      </trkpt>
      <trkpt lat="48.51159" lon="1.99153">
        <ele>132</ele>
        <time>2019-11-24T09:16:54Z</time>
      </trkpt>
      <trkpt lat="48.51163" lon="1.99146">
        <ele>132</ele>
        <time>2019-11-24T09:16:56Z</time>
      </trkpt>
      <trkpt lat="48.51166" lon="1.99138">
        <ele>132</ele>
        <time>2019-11-24T09:16:58Z</time>
      </trkpt>
      <trkpt lat="48.5117" lon="1.9913">
        <ele>133</ele>
        <time>2019-11-24T09:17:00Z</time>
      </trkpt>
      <trkpt lat="48.51174" lon="1.99122">
        <ele>133</ele>
        <time>2019-11-24T09:17:02Z</time>
      </trkpt>
      <trkpt lat="48.51178" lon="1.99116">
        <ele>133</ele>
        <time>2019-11-24T09:17:04Z</time>
      </trkpt>
      <trkpt lat="48.5118" lon="1.99108">
        <ele>133</ele>
        <time>2019-11-24T09:17:06Z</time>
      </trkpt>
      <trkpt lat="48.51185" lon="1.99096">
        <ele>134</ele>
        <time>2019-11-24T09:17:10Z</time>
      </trkpt>
      <trkpt lat="48.5119" lon="1.99085">
        <ele>134</ele>
        <time>2019-11-24T09:17:14Z</time>
      </trkpt>
      <trkpt lat="48.51194" lon="1.99078">
        <ele>136</ele>
        <time>2019-11-24T09:17:16Z</time>
      </trkpt>
      <trkpt lat="48.51197" lon="1.99072">
        <ele>136</ele>
        <time>2019-11-24T09:17:18Z</time>
      </trkpt>
      <trkpt lat="48.512" lon="1.99067">
        <ele>137</ele>
        <time>2019-11-24T09:17:20Z</time>
      </trkpt>
      <trkpt lat="48.51205" lon="1.99058">
        <ele>137</ele>
        <time>2019-11-24T09:17:24Z</time>
      </trkpt>
      <trkpt lat="48.51209" lon="1.99048">
        <ele>138</ele>
        <time>2019-11-24T09:17:28Z</time>
      </trkpt>
      <trkpt lat="48.51213" lon="1.9904">
        <ele>138</ele>
        <time>2019-11-24T09:17:32Z</time>
      </trkpt>
      <trkpt lat="48.51216" lon="1.99033">
        <ele>138</ele>
        <time>2019-11-24T09:17:34Z</time>
      </trkpt>
      <trkpt lat="48.51219" lon="1.99026">
        <ele>138</ele>
        <time>2019-11-24T09:17:36Z</time>
      </trkpt>
      <trkpt lat="48.51222" lon="1.99019">
        <ele>139</ele>
        <time>2019-11-24T09:17:38Z</time>
      </trkpt>
      <trkpt lat="48.51228" lon="1.99009">
        <ele>139</ele>
        <time>2019-11-24T09:17:42Z</time>
      </trkpt>
      <trkpt lat="48.51232" lon="1.99">
        <ele>143</ele>
        <time>2019-11-24T09:17:44Z</time>
      </trkpt>
      <trkpt lat="48.51235" lon="1.98992">
        <ele>143</ele>
        <time>2019-11-24T09:17:46Z</time>
      </trkpt>
      <trkpt lat="48.51239" lon="1.98987">
        <ele>143</ele>
        <time>2019-11-24T09:17:48Z</time>
      </trkpt>
      <trkpt lat="48.51245" lon="1.98977">
        <ele>143</ele>
        <time>2019-11-24T09:17:52Z</time>
      </trkpt>
      <trkpt lat="48.51248" lon="1.98971">
        <ele>144</ele>
        <time>2019-11-24T09:17:54Z</time>
      </trkpt>
      <trkpt lat="48.51252" lon="1.9896">
        <ele>142</ele>
        <time>2019-11-24T09:17:58Z</time>
      </trkpt>
      <trkpt lat="48.5126" lon="1.98949">
        <ele>143</ele>
        <time>2019-11-24T09:18:02Z</time>
      </trkpt>
      <trkpt lat="48.51262" lon="1.98941">
        <ele>143</ele>
        <time>2019-11-24T09:18:04Z</time>
      </trkpt>
      <trkpt lat="48.51265" lon="1.98932">
        <ele>144</ele>
        <time>2019-11-24T09:18:06Z</time>
      </trkpt>
      <trkpt lat="48.5127" lon="1.98925">
        <ele>144</ele>
        <time>2019-11-24T09:18:08Z</time>
      </trkpt>
      <trkpt lat="48.51273" lon="1.98919">
        <ele>144</ele>
        <time>2019-11-24T09:18:10Z</time>
      </trkpt>
      <trkpt lat="48.51277" lon="1.98912">
        <ele>144</ele>
        <time>2019-11-24T09:18:12Z</time>
      </trkpt>
      <trkpt lat="48.51279" lon="1.98904">
        <ele>144</ele>
        <time>2019-11-24T09:18:14Z</time>
      </trkpt>
      <trkpt lat="48.51285" lon="1.98895">
        <ele>143</ele>
        <time>2019-11-24T09:18:16Z</time>
      </trkpt>
      <trkpt lat="48.51291" lon="1.9888">
        <ele>143</ele>
        <time>2019-11-24T09:18:18Z</time>
      </trkpt>
      <trkpt lat="48.51297" lon="1.98863">
        <ele>142</ele>
        <time>2019-11-24T09:18:20Z</time>
      </trkpt>
      <trkpt lat="48.51303" lon="1.98848">
        <ele>141</ele>
        <time>2019-11-24T09:18:22Z</time>
      </trkpt>
      <trkpt lat="48.5131" lon="1.98834">
        <ele>141</ele>
        <time>2019-11-24T09:18:24Z</time>
      </trkpt>
      <trkpt lat="48.51316" lon="1.98819">
        <ele>140</ele>
        <time>2019-11-24T09:18:26Z</time>
      </trkpt>
      <trkpt lat="48.51323" lon="1.98806">
        <ele>140</ele>
        <time>2019-11-24T09:18:28Z</time>
      </trkpt>
      <trkpt lat="48.51327" lon="1.98796">
        <ele>140</ele>
        <time>2019-11-24T09:18:30Z</time>
      </trkpt>
      <trkpt lat="48.51333" lon="1.98785">
        <ele>140</ele>
        <time>2019-11-24T09:18:34Z</time>
      </trkpt>
      <trkpt lat="48.51336" lon="1.98779">
        <ele>135</ele>
        <time>2019-11-24T09:18:36Z</time>
      </trkpt>
      <trkpt lat="48.5134" lon="1.98772">
        <ele>136</ele>
        <time>2019-11-24T09:18:38Z</time>
      </trkpt>
      <trkpt lat="48.51343" lon="1.98764">
        <ele>136</ele>
        <time>2019-11-24T09:18:40Z</time>
      </trkpt>
      <trkpt lat="48.51346" lon="1.98756">
        <ele>136</ele>
        <time>2019-11-24T09:18:42Z</time>
      </trkpt>
      <trkpt lat="48.5135" lon="1.98747">
        <ele>136</ele>
        <time>2019-11-24T09:18:44Z</time>
      </trkpt>
      <trkpt lat="48.51353" lon="1.9874">
        <ele>136</ele>
        <time>2019-11-24T09:18:46Z</time>
      </trkpt>
      <trkpt lat="48.51356" lon="1.98734">
        <ele>136</ele>
        <time>2019-11-24T09:18:48Z</time>
      </trkpt>
      <trkpt lat="48.5136" lon="1.98724">
        <ele>135</ele>
        <time>2019-11-24T09:18:52Z</time>
      </trkpt>
      <trkpt lat="48.51365" lon="1.98717">
        <ele>135</ele>
        <time>2019-11-24T09:18:56Z</time>
      </trkpt>
      <trkpt lat="48.51367" lon="1.98711">
        <ele>135</ele>
        <time>2019-11-24T09:18:58Z</time>
      </trkpt>
      <trkpt lat="48.51371" lon="1.98705">
        <ele>135</ele>
        <time>2019-11-24T09:19:00Z</time>
      </trkpt>
      <trkpt lat="48.51375" lon="1.98697">
        <ele>135</ele>
        <time>2019-11-24T09:19:02Z</time>
      </trkpt>
      <trkpt lat="48.51379" lon="1.9869">
        <ele>135</ele>
        <time>2019-11-24T09:19:04Z</time>
      </trkpt>
      <trkpt lat="48.51382" lon="1.98684">
        <ele>135</ele>
        <time>2019-11-24T09:19:06Z</time>
      </trkpt>
      <trkpt lat="48.51386" lon="1.98676">
        <ele>135</ele>
        <time>2019-11-24T09:19:08Z</time>
      </trkpt>
      <trkpt lat="48.51389" lon="1.98668">
        <ele>135</ele>
        <time>2019-11-24T09:19:10Z</time>
      </trkpt>
      <trkpt lat="48.51394" lon="1.98658">
        <ele>134</ele>
        <time>2019-11-24T09:19:12Z</time>
      </trkpt>
      <trkpt lat="48.51397" lon="1.98649">
        <ele>134</ele>
        <time>2019-11-24T09:19:14Z</time>
      </trkpt>
      <trkpt lat="48.51402" lon="1.98639">
        <ele>134</ele>
        <time>2019-11-24T09:19:16Z</time>
      </trkpt>
      <trkpt lat="48.51407" lon="1.98629">
        <ele>134</ele>
        <time>2019-11-24T09:19:18Z</time>
      </trkpt>
      <trkpt lat="48.51413" lon="1.98618">
        <ele>134</ele>
        <time>2019-11-24T09:19:20Z</time>
      </trkpt>
      <trkpt lat="48.51417" lon="1.98606">
        <ele>131</ele>
        <time>2019-11-24T09:19:22Z</time>
      </trkpt>
      <trkpt lat="48.51422" lon="1.98596">
        <ele>131</ele>
        <time>2019-11-24T09:19:24Z</time>
      </trkpt>
      <trkpt lat="48.51426" lon="1.98586">
        <ele>131</ele>
        <time>2019-11-24T09:19:26Z</time>
      </trkpt>
      <trkpt lat="48.51431" lon="1.98577">
        <ele>130</ele>
        <time>2019-11-24T09:19:28Z</time>
      </trkpt>
      <trkpt lat="48.51434" lon="1.98571">
        <ele>130</ele>
        <time>2019-11-24T09:19:30Z</time>
      </trkpt>
      <trkpt lat="48.51439" lon="1.98559">
        <ele>129</ele>
        <time>2019-11-24T09:19:34Z</time>
      </trkpt>
      <trkpt lat="48.51444" lon="1.98549">
        <ele>129</ele>
        <time>2019-11-24T09:19:38Z</time>
      </trkpt>
      <trkpt lat="48.5145" lon="1.98543">
        <ele>128</ele>
        <time>2019-11-24T09:19:42Z</time>
      </trkpt>
      <trkpt lat="48.51455" lon="1.98544">
        <ele>128</ele>
        <time>2019-11-24T09:19:44Z</time>
      </trkpt>
      <trkpt lat="48.51459" lon="1.98548">
        <ele>128</ele>
        <time>2019-11-24T09:19:46Z</time>
      </trkpt>
      <trkpt lat="48.51463" lon="1.98556">
        <ele>128</ele>
        <time>2019-11-24T09:19:48Z</time>
      </trkpt>
      <trkpt lat="48.51466" lon="1.98563">
        <ele>128</ele>
        <time>2019-11-24T09:19:50Z</time>
      </trkpt>
      <trkpt lat="48.51469" lon="1.98571">
        <ele>128</ele>
        <time>2019-11-24T09:19:52Z</time>
      </trkpt>
      <trkpt lat="48.51474" lon="1.9858">
        <ele>128</ele>
        <time>2019-11-24T09:19:56Z</time>
      </trkpt>
      <trkpt lat="48.51477" lon="1.98586">
        <ele>129</ele>
        <time>2019-11-24T09:19:58Z</time>
      </trkpt>
      <trkpt lat="48.5148" lon="1.98595">
        <ele>129</ele>
        <time>2019-11-24T09:20:00Z</time>
      </trkpt>
      <trkpt lat="48.51485" lon="1.98605">
        <ele>129</ele>
        <time>2019-11-24T09:20:02Z</time>
      </trkpt>
      <trkpt lat="48.5149" lon="1.98616">
        <ele>129</ele>
        <time>2019-11-24T09:20:04Z</time>
      </trkpt>
      <trkpt lat="48.51495" lon="1.98628">
        <ele>129</ele>
        <time>2019-11-24T09:20:06Z</time>
      </trkpt>
      <trkpt lat="48.515" lon="1.98639">
        <ele>127</ele>
        <time>2019-11-24T09:20:08Z</time>
      </trkpt>
      <trkpt lat="48.51505" lon="1.9865">
        <ele>127</ele>
        <time>2019-11-24T09:20:10Z</time>
      </trkpt>
      <trkpt lat="48.51511" lon="1.98662">
        <ele>127</ele>
        <time>2019-11-24T09:20:12Z</time>
      </trkpt>
      <trkpt lat="48.51516" lon="1.98675">
        <ele>127</ele>
        <time>2019-11-24T09:20:14Z</time>
      </trkpt>
      <trkpt lat="48.51522" lon="1.98687">
        <ele>127</ele>
        <time>2019-11-24T09:20:16Z</time>
      </trkpt>
      <trkpt lat="48.51528" lon="1.98698">
        <ele>126</ele>
        <time>2019-11-24T09:20:18Z</time>
      </trkpt>
      <trkpt lat="48.51532" lon="1.98709">
        <ele>126</ele>
        <time>2019-11-24T09:20:20Z</time>
      </trkpt>
      <trkpt lat="48.51538" lon="1.98721">
        <ele>126</ele>
        <time>2019-11-24T09:20:22Z</time>
      </trkpt>
      <trkpt lat="48.51543" lon="1.98735">
        <ele>126</ele>
        <time>2019-11-24T09:20:24Z</time>
      </trkpt>
      <trkpt lat="48.51549" lon="1.98747">
        <ele>126</ele>
        <time>2019-11-24T09:20:26Z</time>
      </trkpt>
      <trkpt lat="48.51555" lon="1.98761">
        <ele>125</ele>
        <time>2019-11-24T09:20:28Z</time>
      </trkpt>
      <trkpt lat="48.51562" lon="1.98773">
        <ele>125</ele>
        <time>2019-11-24T09:20:30Z</time>
      </trkpt>
      <trkpt lat="48.51567" lon="1.98786">
        <ele>125</ele>
        <time>2019-11-24T09:20:32Z</time>
      </trkpt>
      <trkpt lat="48.51574" lon="1.988">
        <ele>125</ele>
        <time>2019-11-24T09:20:34Z</time>
      </trkpt>
      <trkpt lat="48.51581" lon="1.98813">
        <ele>125</ele>
        <time>2019-11-24T09:20:36Z</time>
      </trkpt>
      <trkpt lat="48.51588" lon="1.98827">
        <ele>123</ele>
        <time>2019-11-24T09:20:38Z</time>
      </trkpt>
      <trkpt lat="48.51594" lon="1.98841">
        <ele>123</ele>
        <time>2019-11-24T09:20:40Z</time>
      </trkpt>
      <trkpt lat="48.516" lon="1.98854">
        <ele>123</ele>
        <time>2019-11-24T09:20:42Z</time>
      </trkpt>
      <trkpt lat="48.51606" lon="1.98866">
        <ele>122</ele>
        <time>2019-11-24T09:20:44Z</time>
      </trkpt>
      <trkpt lat="48.51611" lon="1.98878">
        <ele>122</ele>
        <time>2019-11-24T09:20:46Z</time>
      </trkpt>
      <trkpt lat="48.51616" lon="1.98888">
        <ele>122</ele>
        <time>2019-11-24T09:20:48Z</time>
      </trkpt>
      <trkpt lat="48.51621" lon="1.98899">
        <ele>122</ele>
        <time>2019-11-24T09:20:50Z</time>
      </trkpt>
      <trkpt lat="48.51626" lon="1.98911">
        <ele>122</ele>
        <time>2019-11-24T09:20:52Z</time>
      </trkpt>
      <trkpt lat="48.51631" lon="1.98923">
        <ele>121</ele>
        <time>2019-11-24T09:20:54Z</time>
      </trkpt>
      <trkpt lat="48.51637" lon="1.98934">
        <ele>121</ele>
        <time>2019-11-24T09:20:56Z</time>
      </trkpt>
      <trkpt lat="48.51642" lon="1.98945">
        <ele>121</ele>
        <time>2019-11-24T09:20:58Z</time>
      </trkpt>
      <trkpt lat="48.51647" lon="1.98956">
        <ele>121</ele>
        <time>2019-11-24T09:21:00Z</time>
      </trkpt>
      <trkpt lat="48.51653" lon="1.98968">
        <ele>121</ele>
        <time>2019-11-24T09:21:02Z</time>
      </trkpt>
      <trkpt lat="48.51657" lon="1.98979">
        <ele>121</ele>
        <time>2019-11-24T09:21:04Z</time>
      </trkpt>
      <trkpt lat="48.51662" lon="1.98989">
        <ele>121</ele>
        <time>2019-11-24T09:21:06Z</time>
      </trkpt>
      <trkpt lat="48.51666" lon="1.98998">
        <ele>121</ele>
        <time>2019-11-24T09:21:08Z</time>
      </trkpt>
      <trkpt lat="48.5167" lon="1.99008">
        <ele>122</ele>
        <time>2019-11-24T09:21:10Z</time>
      </trkpt>
      <trkpt lat="48.51675" lon="1.99018">
        <ele>122</ele>
        <time>2019-11-24T09:21:12Z</time>
      </trkpt>
      <trkpt lat="48.51679" lon="1.99027">
        <ele>122</ele>
        <time>2019-11-24T09:21:14Z</time>
      </trkpt>
      <trkpt lat="48.51683" lon="1.99034">
        <ele>122</ele>
        <time>2019-11-24T09:21:16Z</time>
      </trkpt>
      <trkpt lat="48.51687" lon="1.99042">
        <ele>122</ele>
        <time>2019-11-24T09:21:18Z</time>
      </trkpt>
      <trkpt lat="48.5169" lon="1.9905">
        <ele>122</ele>
        <time>2019-11-24T09:21:20Z</time>
      </trkpt>
      <trkpt lat="48.51693" lon="1.99056">
        <ele>122</ele>
        <time>2019-11-24T09:21:22Z</time>
      </trkpt>
      <trkpt lat="48.51697" lon="1.99067">
        <ele>122</ele>
        <time>2019-11-24T09:21:26Z</time>
      </trkpt>
      <trkpt lat="48.51701" lon="1.99074">
        <ele>122</ele>
        <time>2019-11-24T09:21:28Z</time>
      </trkpt>
      <trkpt lat="48.51705" lon="1.99081">
        <ele>122</ele>
        <time>2019-11-24T09:21:30Z</time>
      </trkpt>
      <trkpt lat="48.51709" lon="1.99087">
        <ele>121</ele>
        <time>2019-11-24T09:21:32Z</time>
      </trkpt>
      <trkpt lat="48.51712" lon="1.99095">
        <ele>121</ele>
        <time>2019-11-24T09:21:34Z</time>
      </trkpt>
      <trkpt lat="48.51714" lon="1.99102">
        <ele>121</ele>
        <time>2019-11-24T09:21:36Z</time>
      </trkpt>
      <trkpt lat="48.51718" lon="1.9911">
        <ele>121</ele>
        <time>2019-11-24T09:21:38Z</time>
      </trkpt>
      <trkpt lat="48.51721" lon="1.99119">
        <ele>121</ele>
        <time>2019-11-24T09:21:40Z</time>
      </trkpt>
      <trkpt lat="48.51724" lon="1.99127">
        <ele>121</ele>
        <time>2019-11-24T09:21:42Z</time>
      </trkpt>
      <trkpt lat="48.51729" lon="1.99136">
        <ele>121</ele>
        <time>2019-11-24T09:21:44Z</time>
      </trkpt>
      <trkpt lat="48.51734" lon="1.99144">
        <ele>121</ele>
        <time>2019-11-24T09:21:46Z</time>
      </trkpt>
      <trkpt lat="48.51738" lon="1.99153">
        <ele>122</ele>
        <time>2019-11-24T09:21:48Z</time>
      </trkpt>
      <trkpt lat="48.51742" lon="1.99161">
        <ele>123</ele>
        <time>2019-11-24T09:21:50Z</time>
      </trkpt>
      <trkpt lat="48.51746" lon="1.99171">
        <ele>122</ele>
        <time>2019-11-24T09:21:52Z</time>
      </trkpt>
      <trkpt lat="48.51751" lon="1.99177">
        <ele>125</ele>
        <time>2019-11-24T09:21:54Z</time>
      </trkpt>
      <trkpt lat="48.51758" lon="1.99178">
        <ele>125</ele>
        <time>2019-11-24T09:21:56Z</time>
      </trkpt>
      <trkpt lat="48.51758" lon="1.9917">
        <ele>125</ele>
        <time>2019-11-24T09:22:00Z</time>
      </trkpt>
      <trkpt lat="48.51757" lon="1.99157">
        <ele>127</ele>
        <time>2019-11-24T09:22:04Z</time>
      </trkpt>
      <trkpt lat="48.51756" lon="1.9915">
        <ele>127</ele>
        <time>2019-11-24T09:22:06Z</time>
      </trkpt>
      <trkpt lat="48.51754" lon="1.99139">
        <ele>128</ele>
        <time>2019-11-24T09:22:10Z</time>
      </trkpt>
      <trkpt lat="48.51754" lon="1.99132">
        <ele>128</ele>
        <time>2019-11-24T09:22:12Z</time>
      </trkpt>
      <trkpt lat="48.51753" lon="1.99125">
        <ele>129</ele>
        <time>2019-11-24T09:22:14Z</time>
      </trkpt>
      <trkpt lat="48.51752" lon="1.9911">
        <ele>128</ele>
        <time>2019-11-24T09:22:18Z</time>
      </trkpt>
      <trkpt lat="48.5175" lon="1.99103">
        <ele>128</ele>
        <time>2019-11-24T09:22:20Z</time>
      </trkpt>
      <trkpt lat="48.5175" lon="1.99096">
        <ele>127</ele>
        <time>2019-11-24T09:22:22Z</time>
      </trkpt>
      <trkpt lat="48.51749" lon="1.99087">
        <ele>124</ele>
        <time>2019-11-24T09:22:24Z</time>
      </trkpt>
      <trkpt lat="48.51749" lon="1.99079">
        <ele>125</ele>
        <time>2019-11-24T09:22:26Z</time>
      </trkpt>
      <trkpt lat="48.51748" lon="1.99071">
        <ele>124</ele>
        <time>2019-11-24T09:22:28Z</time>
      </trkpt>
      <trkpt lat="48.51747" lon="1.99063">
        <ele>124</ele>
        <time>2019-11-24T09:22:30Z</time>
      </trkpt>
      <trkpt lat="48.51745" lon="1.99054">
        <ele>124</ele>
        <time>2019-11-24T09:22:32Z</time>
      </trkpt>
      <trkpt lat="48.51743" lon="1.99045">
        <ele>124</ele>
        <time>2019-11-24T09:22:34Z</time>
      </trkpt>
      <trkpt lat="48.51741" lon="1.99035">
        <ele>125</ele>
        <time>2019-11-24T09:22:36Z</time>
      </trkpt>
      <trkpt lat="48.5174" lon="1.99024">
        <ele>125</ele>
        <time>2019-11-24T09:22:38Z</time>
      </trkpt>
      <trkpt lat="48.51738" lon="1.99013">
        <ele>126</ele>
        <time>2019-11-24T09:22:40Z</time>
      </trkpt>
      <trkpt lat="48.51737" lon="1.99004">
        <ele>127</ele>
        <time>2019-11-24T09:22:42Z</time>
      </trkpt>
      <trkpt lat="48.51735" lon="1.98994">
        <ele>127</ele>
        <time>2019-11-24T09:22:44Z</time>
      </trkpt>
      <trkpt lat="48.51734" lon="1.98984">
        <ele>126</ele>
        <time>2019-11-24T09:22:46Z</time>
      </trkpt>
      <trkpt lat="48.51733" lon="1.98975">
        <ele>126</ele>
        <time>2019-11-24T09:22:48Z</time>
      </trkpt>
      <trkpt lat="48.51732" lon="1.98966">
        <ele>126</ele>
        <time>2019-11-24T09:22:50Z</time>
      </trkpt>
      <trkpt lat="48.5173" lon="1.98958">
        <ele>126</ele>
        <time>2019-11-24T09:22:52Z</time>
      </trkpt>
      <trkpt lat="48.51728" lon="1.98949">
        <ele>126</ele>
        <time>2019-11-24T09:22:54Z</time>
      </trkpt>
      <trkpt lat="48.51727" lon="1.98942">
        <ele>126</ele>
        <time>2019-11-24T09:22:56Z</time>
      </trkpt>
      <trkpt lat="48.51725" lon="1.98935">
        <ele>126</ele>
        <time>2019-11-24T09:22:58Z</time>
      </trkpt>
      <trkpt lat="48.51723" lon="1.98927">
        <ele>126</ele>
        <time>2019-11-24T09:23:00Z</time>
      </trkpt>
      <trkpt lat="48.51721" lon="1.98919">
        <ele>125</ele>
        <time>2019-11-24T09:23:02Z</time>
      </trkpt>
      <trkpt lat="48.51716" lon="1.98909">
        <ele>125</ele>
        <time>2019-11-24T09:23:04Z</time>
      </trkpt>
      <trkpt lat="48.51715" lon="1.98897">
        <ele>125</ele>
        <time>2019-11-24T09:23:06Z</time>
      </trkpt>
      <trkpt lat="48.51713" lon="1.98883">
        <ele>125</ele>
        <time>2019-11-24T09:23:08Z</time>
      </trkpt>
      <trkpt lat="48.51711" lon="1.98866">
        <ele>125</ele>
        <time>2019-11-24T09:23:10Z</time>
      </trkpt>
      <trkpt lat="48.51711" lon="1.98848">
        <ele>125</ele>
        <time>2019-11-24T09:23:12Z</time>
      </trkpt>
      <trkpt lat="48.51707" lon="1.98831">
        <ele>127</ele>
        <time>2019-11-24T09:23:14Z</time>
      </trkpt>
      <trkpt lat="48.51704" lon="1.98816">
        <ele>127</ele>
        <time>2019-11-24T09:23:16Z</time>
      </trkpt>
      <trkpt lat="48.51699" lon="1.98802">
        <ele>127</ele>
        <time>2019-11-24T09:23:18Z</time>
      </trkpt>
      <trkpt lat="48.51693" lon="1.9879">
        <ele>127</ele>
        <time>2019-11-24T09:23:20Z</time>
      </trkpt>
      <trkpt lat="48.51689" lon="1.98779">
        <ele>127</ele>
        <time>2019-11-24T09:23:22Z</time>
      </trkpt>
      <trkpt lat="48.51683" lon="1.98768">
        <ele>127</ele>
        <time>2019-11-24T09:23:24Z</time>
      </trkpt>
      <trkpt lat="48.51678" lon="1.98758">
        <ele>126</ele>
        <time>2019-11-24T09:23:26Z</time>
      </trkpt>
      <trkpt lat="48.51673" lon="1.98748">
        <ele>126</ele>
        <time>2019-11-24T09:23:28Z</time>
      </trkpt>
      <trkpt lat="48.51667" lon="1.98737">
        <ele>128</ele>
        <time>2019-11-24T09:23:30Z</time>
      </trkpt>
      <trkpt lat="48.51662" lon="1.98725">
        <ele>125</ele>
        <time>2019-11-24T09:23:32Z</time>
      </trkpt>
      <trkpt lat="48.51659" lon="1.98714">
        <ele>125</ele>
        <time>2019-11-24T09:23:34Z</time>
      </trkpt>
      <trkpt lat="48.51655" lon="1.98704">
        <ele>126</ele>
        <time>2019-11-24T09:23:36Z</time>
      </trkpt>
      <trkpt lat="48.51652" lon="1.98692">
        <ele>126</ele>
        <time>2019-11-24T09:23:38Z</time>
      </trkpt>
      <trkpt lat="48.51648" lon="1.98681">
        <ele>126</ele>
        <time>2019-11-24T09:23:40Z</time>
      </trkpt>
      <trkpt lat="48.51643" lon="1.98669">
        <ele>126</ele>
        <time>2019-11-24T09:23:42Z</time>
      </trkpt>
      <trkpt lat="48.51638" lon="1.98656">
        <ele>127</ele>
        <time>2019-11-24T09:23:44Z</time>
      </trkpt>
      <trkpt lat="48.51633" lon="1.98643">
        <ele>127</ele>
        <time>2019-11-24T09:23:46Z</time>
      </trkpt>
      <trkpt lat="48.51628" lon="1.98628">
        <ele>127</ele>
        <time>2019-11-24T09:23:48Z</time>
      </trkpt>
      <trkpt lat="48.51625" lon="1.98613">
        <ele>127</ele>
        <time>2019-11-24T09:23:50Z</time>
      </trkpt>
      <trkpt lat="48.51624" lon="1.98594">
        <ele>127</ele>
        <time>2019-11-24T09:23:52Z</time>
      </trkpt>
      <trkpt lat="48.51632" lon="1.98574">
        <ele>127</ele>
        <time>2019-11-24T09:23:54Z</time>
      </trkpt>
      <trkpt lat="48.51638" lon="1.98551">
        <ele>127</ele>
        <time>2019-11-24T09:23:56Z</time>
      </trkpt>
      <trkpt lat="48.51642" lon="1.98529">
        <ele>127</ele>
        <time>2019-11-24T09:23:58Z</time>
      </trkpt>
      <trkpt lat="48.51646" lon="1.98508">
        <ele>128</ele>
        <time>2019-11-24T09:24:00Z</time>
      </trkpt>
      <trkpt lat="48.5165" lon="1.98489">
        <ele>128</ele>
        <time>2019-11-24T09:24:02Z</time>
      </trkpt>
      <trkpt lat="48.51653" lon="1.9847">
        <ele>127</ele>
        <time>2019-11-24T09:24:04Z</time>
      </trkpt>
      <trkpt lat="48.51653" lon="1.98452">
        <ele>127</ele>
        <time>2019-11-24T09:24:06Z</time>
      </trkpt>
      <trkpt lat="48.5165" lon="1.98435">
        <ele>127</ele>
        <time>2019-11-24T09:24:08Z</time>
      </trkpt>
      <trkpt lat="48.51646" lon="1.98419">
        <ele>127</ele>
        <time>2019-11-24T09:24:10Z</time>
      </trkpt>
      <trkpt lat="48.51642" lon="1.98407">
        <ele>126</ele>
        <time>2019-11-24T09:24:12Z</time>
      </trkpt>
      <trkpt lat="48.51641" lon="1.98397">
        <ele>126</ele>
        <time>2019-11-24T09:24:14Z</time>
      </trkpt>
      <trkpt lat="48.51642" lon="1.98389">
        <ele>125</ele>
        <time>2019-11-24T09:24:16Z</time>
      </trkpt>
      <trkpt lat="48.51641" lon="1.98379">
        <ele>125</ele>
        <time>2019-11-24T09:24:18Z</time>
      </trkpt>
      <trkpt lat="48.51642" lon="1.98371">
        <ele>125</ele>
        <time>2019-11-24T09:24:20Z</time>
      </trkpt>
      <trkpt lat="48.51643" lon="1.98363">
        <ele>125</ele>
        <time>2019-11-24T09:24:22Z</time>
      </trkpt>
      <trkpt lat="48.51645" lon="1.98355">
        <ele>125</ele>
        <time>2019-11-24T09:24:24Z</time>
      </trkpt>
      <trkpt lat="48.51647" lon="1.98348">
        <ele>125</ele>
        <time>2019-11-24T09:24:26Z</time>
      </trkpt>
      <trkpt lat="48.51649" lon="1.98341">
        <ele>125</ele>
        <time>2019-11-24T09:24:28Z</time>
      </trkpt>
      <trkpt lat="48.51651" lon="1.98331">
        <ele>125</ele>
        <time>2019-11-24T09:24:30Z</time>
      </trkpt>
      <trkpt lat="48.51655" lon="1.98321">
        <ele>125</ele>
        <time>2019-11-24T09:24:32Z</time>
      </trkpt>
      <trkpt lat="48.51655" lon="1.98307">
        <ele>125</ele>
        <time>2019-11-24T09:24:34Z</time>
      </trkpt>
      <trkpt lat="48.51652" lon="1.98292">
        <ele>125</ele>
        <time>2019-11-24T09:24:36Z</time>
      </trkpt>
      <trkpt lat="48.51647" lon="1.98281">
        <ele>125</ele>
        <time>2019-11-24T09:24:38Z</time>
      </trkpt>
      <trkpt lat="48.5164" lon="1.9827">
        <ele>125</ele>
        <time>2019-11-24T09:24:40Z</time>
      </trkpt>
      <trkpt lat="48.51633" lon="1.9826">
        <ele>125</ele>
        <time>2019-11-24T09:24:42Z</time>
      </trkpt>
      <trkpt lat="48.51625" lon="1.98254">
        <ele>124</ele>
        <time>2019-11-24T09:24:44Z</time>
      </trkpt>
      <trkpt lat="48.51618" lon="1.98245">
        <ele>126</ele>
        <time>2019-11-24T09:24:46Z</time>
      </trkpt>
      <trkpt lat="48.5161" lon="1.98235">
        <ele>125</ele>
        <time>2019-11-24T09:24:48Z</time>
      </trkpt>
      <trkpt lat="48.51604" lon="1.98226">
        <ele>125</ele>
        <time>2019-11-24T09:24:50Z</time>
      </trkpt>
      <trkpt lat="48.51599" lon="1.98219">
        <ele>125</ele>
        <time>2019-11-24T09:24:52Z</time>
      </trkpt>
      <trkpt lat="48.51593" lon="1.98211">
        <ele>125</ele>
        <time>2019-11-24T09:24:54Z</time>
      </trkpt>
      <trkpt lat="48.51589" lon="1.98202">
        <ele>125</ele>
        <time>2019-11-24T09:24:56Z</time>
      </trkpt>
      <trkpt lat="48.51584" lon="1.98193">
        <ele>125</ele>
        <time>2019-11-24T09:24:58Z</time>
      </trkpt>
      <trkpt lat="48.51579" lon="1.98183">
        <ele>123</ele>
        <time>2019-11-24T09:25:00Z</time>
      </trkpt>
      <trkpt lat="48.51573" lon="1.98173">
        <ele>123</ele>
        <time>2019-11-24T09:25:02Z</time>
      </trkpt>
      <trkpt lat="48.51572" lon="1.98162">
        <ele>124</ele>
        <time>2019-11-24T09:25:04Z</time>
      </trkpt>
      <trkpt lat="48.51571" lon="1.9815">
        <ele>124</ele>
        <time>2019-11-24T09:25:06Z</time>
      </trkpt>
      <trkpt lat="48.5157" lon="1.98138">
        <ele>124</ele>
        <time>2019-11-24T09:25:08Z</time>
      </trkpt>
      <trkpt lat="48.51569" lon="1.98126">
        <ele>124</ele>
        <time>2019-11-24T09:25:10Z</time>
      </trkpt>
      <trkpt lat="48.51569" lon="1.98115">
        <ele>124</ele>
        <time>2019-11-24T09:25:12Z</time>
      </trkpt>
      <trkpt lat="48.5157" lon="1.98103">
        <ele>124</ele>
        <time>2019-11-24T09:25:14Z</time>
      </trkpt>
      <trkpt lat="48.51573" lon="1.98094">
        <ele>124</ele>
        <time>2019-11-24T09:25:16Z</time>
      </trkpt>
      <trkpt lat="48.51576" lon="1.98084">
        <ele>124</ele>
        <time>2019-11-24T09:25:18Z</time>
      </trkpt>
      <trkpt lat="48.51581" lon="1.98074">
        <ele>124</ele>
        <time>2019-11-24T09:25:20Z</time>
      </trkpt>
      <trkpt lat="48.51586" lon="1.98066">
        <ele>126</ele>
        <time>2019-11-24T09:25:22Z</time>
      </trkpt>
      <trkpt lat="48.5159" lon="1.98061">
        <ele>126</ele>
        <time>2019-11-24T09:25:24Z</time>
      </trkpt>
      <trkpt lat="48.51596" lon="1.98055">
        <ele>126</ele>
        <time>2019-11-24T09:25:26Z</time>
      </trkpt>
      <trkpt lat="48.51603" lon="1.98051">
        <ele>127</ele>
        <time>2019-11-24T09:25:28Z</time>
      </trkpt>
      <trkpt lat="48.51609" lon="1.98046">
        <ele>127</ele>
        <time>2019-11-24T09:25:30Z</time>
      </trkpt>
      <trkpt lat="48.51614" lon="1.9804">
        <ele>127</ele>
        <time>2019-11-24T09:25:32Z</time>
      </trkpt>
      <trkpt lat="48.51619" lon="1.98032">
        <ele>127</ele>
        <time>2019-11-24T09:25:34Z</time>
      </trkpt>
      <trkpt lat="48.51622" lon="1.98027">
        <ele>127</ele>
        <time>2019-11-24T09:25:36Z</time>
      </trkpt>
      <trkpt lat="48.51628" lon="1.98019">
        <ele>128</ele>
        <time>2019-11-24T09:25:38Z</time>
      </trkpt>
      <trkpt lat="48.5163" lon="1.98008">
        <ele>128</ele>
        <time>2019-11-24T09:25:40Z</time>
      </trkpt>
      <trkpt lat="48.51633" lon="1.98">
        <ele>129</ele>
        <time>2019-11-24T09:25:42Z</time>
      </trkpt>
      <trkpt lat="48.51633" lon="1.97987">
        <ele>129</ele>
        <time>2019-11-24T09:25:44Z</time>
      </trkpt>
      <trkpt lat="48.51634" lon="1.97976">
        <ele>129</ele>
        <time>2019-11-24T09:25:46Z</time>
      </trkpt>
      <trkpt lat="48.51634" lon="1.97965">
        <ele>129</ele>
        <time>2019-11-24T09:25:48Z</time>
      </trkpt>
      <trkpt lat="48.51633" lon="1.97952">
        <ele>129</ele>
        <time>2019-11-24T09:25:50Z</time>
      </trkpt>
      <trkpt lat="48.51631" lon="1.97938">
        <ele>129</ele>
        <time>2019-11-24T09:25:52Z</time>
      </trkpt>
      <trkpt lat="48.51632" lon="1.97928">
        <ele>130</ele>
        <time>2019-11-24T09:25:54Z</time>
      </trkpt>
      <trkpt lat="48.51633" lon="1.97917">
        <ele>130</ele>
        <time>2019-11-24T09:25:56Z</time>
      </trkpt>
      <trkpt lat="48.51632" lon="1.97906">
        <ele>131</ele>
        <time>2019-11-24T09:25:58Z</time>
      </trkpt>
      <trkpt lat="48.51632" lon="1.97895">
        <ele>131</ele>
        <time>2019-11-24T09:26:00Z</time>
      </trkpt>
      <trkpt lat="48.51633" lon="1.97886">
        <ele>131</ele>
        <time>2019-11-24T09:26:02Z</time>
      </trkpt>
      <trkpt lat="48.51632" lon="1.97876">
        <ele>131</ele>
        <time>2019-11-24T09:26:04Z</time>
      </trkpt>
      <trkpt lat="48.51631" lon="1.97865">
        <ele>131</ele>
        <time>2019-11-24T09:26:06Z</time>
      </trkpt>
      <trkpt lat="48.5163" lon="1.97854">
        <ele>131</ele>
        <time>2019-11-24T09:26:08Z</time>
      </trkpt>
      <trkpt lat="48.51628" lon="1.97843">
        <ele>131</ele>
        <time>2019-11-24T09:26:10Z</time>
      </trkpt>
      <trkpt lat="48.51625" lon="1.97834">
        <ele>131</ele>
        <time>2019-11-24T09:26:12Z</time>
      </trkpt>
      <trkpt lat="48.51622" lon="1.97826">
        <ele>131</ele>
        <time>2019-11-24T09:26:14Z</time>
      </trkpt>
      <trkpt lat="48.51619" lon="1.97818">
        <ele>131</ele>
        <time>2019-11-24T09:26:16Z</time>
      </trkpt>
      <trkpt lat="48.51617" lon="1.97808">
        <ele>131</ele>
        <time>2019-11-24T09:26:18Z</time>
      </trkpt>
      <trkpt lat="48.51615" lon="1.97799">
        <ele>131</ele>
        <time>2019-11-24T09:26:20Z</time>
      </trkpt>
      <trkpt lat="48.51615" lon="1.9779">
        <ele>131</ele>
        <time>2019-11-24T09:26:22Z</time>
      </trkpt>
      <trkpt lat="48.51614" lon="1.9778">
        <ele>131</ele>
        <time>2019-11-24T09:26:24Z</time>
      </trkpt>
      <trkpt lat="48.51611" lon="1.9777">
        <ele>131</ele>
        <time>2019-11-24T09:26:26Z</time>
      </trkpt>
      <trkpt lat="48.51609" lon="1.97759">
        <ele>131</ele>
        <time>2019-11-24T09:26:28Z</time>
      </trkpt>
      <trkpt lat="48.51606" lon="1.97749">
        <ele>131</ele>
        <time>2019-11-24T09:26:30Z</time>
      </trkpt>
      <trkpt lat="48.51602" lon="1.97738">
        <ele>131</ele>
        <time>2019-11-24T09:26:32Z</time>
      </trkpt>
      <trkpt lat="48.51599" lon="1.97728">
        <ele>132</ele>
        <time>2019-11-24T09:26:34Z</time>
      </trkpt>
      <trkpt lat="48.51596" lon="1.97718">
        <ele>132</ele>
        <time>2019-11-24T09:26:36Z</time>
      </trkpt>
      <trkpt lat="48.51594" lon="1.97708">
        <ele>132</ele>
        <time>2019-11-24T09:26:38Z</time>
      </trkpt>
      <trkpt lat="48.51592" lon="1.97698">
        <ele>132</ele>
        <time>2019-11-24T09:26:40Z</time>
      </trkpt>
      <trkpt lat="48.51591" lon="1.97688">
        <ele>132</ele>
        <time>2019-11-24T09:26:42Z</time>
      </trkpt>
      <trkpt lat="48.51591" lon="1.97678">
        <ele>131</ele>
        <time>2019-11-24T09:26:44Z</time>
      </trkpt>
      <trkpt lat="48.51591" lon="1.9767">
        <ele>131</ele>
        <time>2019-11-24T09:26:46Z</time>
      </trkpt>
      <trkpt lat="48.5159" lon="1.97659">
        <ele>132</ele>
        <time>2019-11-24T09:26:48Z</time>
      </trkpt>
      <trkpt lat="48.5159" lon="1.9765">
        <ele>132</ele>
        <time>2019-11-24T09:26:50Z</time>
      </trkpt>
      <trkpt lat="48.5159" lon="1.97642">
        <ele>133</ele>
        <time>2019-11-24T09:26:52Z</time>
      </trkpt>
      <trkpt lat="48.51591" lon="1.97634">
        <ele>133</ele>
        <time>2019-11-24T09:26:54Z</time>
      </trkpt>
      <trkpt lat="48.51591" lon="1.97625">
        <ele>133</ele>
        <time>2019-11-24T09:26:58Z</time>
      </trkpt>
      <trkpt lat="48.51589" lon="1.97613">
        <ele>133</ele>
        <time>2019-11-24T09:27:06Z</time>
      </trkpt>
      <trkpt lat="48.51587" lon="1.97605">
        <ele>133</ele>
        <time>2019-11-24T09:27:08Z</time>
      </trkpt>
      <trkpt lat="48.51584" lon="1.97597">
        <ele>133</ele>
        <time>2019-11-24T09:27:10Z</time>
      </trkpt>
      <trkpt lat="48.51582" lon="1.9759">
        <ele>131</ele>
        <time>2019-11-24T09:27:12Z</time>
      </trkpt>
      <trkpt lat="48.51581" lon="1.97582">
        <ele>131</ele>
        <time>2019-11-24T09:27:14Z</time>
      </trkpt>
      <trkpt lat="48.51578" lon="1.97575">
        <ele>131</ele>
        <time>2019-11-24T09:27:16Z</time>
      </trkpt>
      <trkpt lat="48.51577" lon="1.97567">
        <ele>132</ele>
        <time>2019-11-24T09:27:18Z</time>
      </trkpt>
      <trkpt lat="48.51574" lon="1.97556">
        <ele>132</ele>
        <time>2019-11-24T09:27:22Z</time>
      </trkpt>
      <trkpt lat="48.51573" lon="1.97544">
        <ele>132</ele>
        <time>2019-11-24T09:27:26Z</time>
      </trkpt>
      <trkpt lat="48.5157" lon="1.97533">
        <ele>132</ele>
        <time>2019-11-24T09:27:30Z</time>
      </trkpt>
      <trkpt lat="48.5157" lon="1.9752">
        <ele>131</ele>
        <time>2019-11-24T09:27:34Z</time>
      </trkpt>
      <trkpt lat="48.51568" lon="1.97508">
        <ele>131</ele>
        <time>2019-11-24T09:27:38Z</time>
      </trkpt>
      <trkpt lat="48.51567" lon="1.97501">
        <ele>131</ele>
        <time>2019-11-24T09:27:40Z</time>
      </trkpt>
      <trkpt lat="48.51567" lon="1.97494">
        <ele>131</ele>
        <time>2019-11-24T09:27:42Z</time>
      </trkpt>
      <trkpt lat="48.51566" lon="1.97487">
        <ele>131</ele>
        <time>2019-11-24T09:27:44Z</time>
      </trkpt>
      <trkpt lat="48.51565" lon="1.9748">
        <ele>132</ele>
        <time>2019-11-24T09:27:46Z</time>
      </trkpt>
      <trkpt lat="48.51564" lon="1.97473">
        <ele>132</ele>
        <time>2019-11-24T09:27:48Z</time>
      </trkpt>
      <trkpt lat="48.51563" lon="1.97465">
        <ele>132</ele>
        <time>2019-11-24T09:27:50Z</time>
      </trkpt>
      <trkpt lat="48.51562" lon="1.97457">
        <ele>132</ele>
        <time>2019-11-24T09:27:52Z</time>
      </trkpt>
      <trkpt lat="48.5156" lon="1.97447">
        <ele>132</ele>
        <time>2019-11-24T09:27:54Z</time>
      </trkpt>
      <trkpt lat="48.51559" lon="1.97435">
        <ele>132</ele>
        <time>2019-11-24T09:27:56Z</time>
      </trkpt>
      <trkpt lat="48.5156" lon="1.9742">
        <ele>132</ele>
        <time>2019-11-24T09:27:58Z</time>
      </trkpt>
      <trkpt lat="48.51562" lon="1.97407">
        <ele>133</ele>
        <time>2019-11-24T09:28:00Z</time>
      </trkpt>
      <trkpt lat="48.51565" lon="1.97394">
        <ele>133</ele>
        <time>2019-11-24T09:28:02Z</time>
      </trkpt>
      <trkpt lat="48.51567" lon="1.97384">
        <ele>134</ele>
        <time>2019-11-24T09:28:04Z</time>
      </trkpt>
      <trkpt lat="48.5157" lon="1.97376">
        <ele>134</ele>
        <time>2019-11-24T09:28:06Z</time>
      </trkpt>
      <trkpt lat="48.51571" lon="1.97366">
        <ele>134</ele>
        <time>2019-11-24T09:28:08Z</time>
      </trkpt>
      <trkpt lat="48.51571" lon="1.97356">
        <ele>134</ele>
        <time>2019-11-24T09:28:10Z</time>
      </trkpt>
      <trkpt lat="48.5157" lon="1.97346">
        <ele>134</ele>
        <time>2019-11-24T09:28:12Z</time>
      </trkpt>
      <trkpt lat="48.51569" lon="1.97337">
        <ele>134</ele>
        <time>2019-11-24T09:28:14Z</time>
      </trkpt>
      <trkpt lat="48.51569" lon="1.97328">
        <ele>136</ele>
        <time>2019-11-24T09:28:16Z</time>
      </trkpt>
      <trkpt lat="48.51568" lon="1.9732">
        <ele>137</ele>
        <time>2019-11-24T09:28:18Z</time>
      </trkpt>
      <trkpt lat="48.51566" lon="1.97305">
        <ele>138</ele>
        <time>2019-11-24T09:28:22Z</time>
      </trkpt>
      <trkpt lat="48.51564" lon="1.97296">
        <ele>139</ele>
        <time>2019-11-24T09:28:24Z</time>
      </trkpt>
      <trkpt lat="48.51563" lon="1.97288">
        <ele>139</ele>
        <time>2019-11-24T09:28:26Z</time>
      </trkpt>
      <trkpt lat="48.5156" lon="1.9728">
        <ele>139</ele>
        <time>2019-11-24T09:28:28Z</time>
      </trkpt>
      <trkpt lat="48.51557" lon="1.97272">
        <ele>140</ele>
        <time>2019-11-24T09:28:30Z</time>
      </trkpt>
      <trkpt lat="48.51553" lon="1.97265">
        <ele>140</ele>
        <time>2019-11-24T09:28:32Z</time>
      </trkpt>
      <trkpt lat="48.51549" lon="1.97258">
        <ele>140</ele>
        <time>2019-11-24T09:28:34Z</time>
      </trkpt>
      <trkpt lat="48.51544" lon="1.97251">
        <ele>140</ele>
        <time>2019-11-24T09:28:36Z</time>
      </trkpt>
      <trkpt lat="48.51541" lon="1.97246">
        <ele>143</ele>
        <time>2019-11-24T09:28:38Z</time>
      </trkpt>
      <trkpt lat="48.51537" lon="1.97239">
        <ele>143</ele>
        <time>2019-11-24T09:28:40Z</time>
      </trkpt>
      <trkpt lat="48.51534" lon="1.97231">
        <ele>143</ele>
        <time>2019-11-24T09:28:42Z</time>
      </trkpt>
      <trkpt lat="48.51531" lon="1.97224">
        <ele>143</ele>
        <time>2019-11-24T09:28:44Z</time>
      </trkpt>
      <trkpt lat="48.51527" lon="1.97217">
        <ele>143</ele>
        <time>2019-11-24T09:28:46Z</time>
      </trkpt>
      <trkpt lat="48.51524" lon="1.97211">
        <ele>144</ele>
        <time>2019-11-24T09:28:48Z</time>
      </trkpt>
      <trkpt lat="48.5152" lon="1.97199">
        <ele>144</ele>
        <time>2019-11-24T09:28:52Z</time>
      </trkpt>
      <trkpt lat="48.51515" lon="1.97187">
        <ele>143</ele>
        <time>2019-11-24T09:28:56Z</time>
      </trkpt>
      <trkpt lat="48.51512" lon="1.9718">
        <ele>143</ele>
        <time>2019-11-24T09:28:58Z</time>
      </trkpt>
      <trkpt lat="48.51509" lon="1.97172">
        <ele>142</ele>
        <time>2019-11-24T09:29:00Z</time>
      </trkpt>
      <trkpt lat="48.51506" lon="1.97166">
        <ele>143</ele>
        <time>2019-11-24T09:29:02Z</time>
      </trkpt>
      <trkpt lat="48.51503" lon="1.97159">
        <ele>144</ele>
        <time>2019-11-24T09:29:04Z</time>
      </trkpt>
      <trkpt lat="48.515" lon="1.97153">
        <ele>145</ele>
        <time>2019-11-24T09:29:06Z</time>
      </trkpt>
      <trkpt lat="48.51496" lon="1.97147">
        <ele>143</ele>
        <time>2019-11-24T09:29:08Z</time>
      </trkpt>
      <trkpt lat="48.51494" lon="1.9714">
        <ele>144</ele>
        <time>2019-11-24T09:29:10Z</time>
      </trkpt>
      <trkpt lat="48.5149" lon="1.97132">
        <ele>144</ele>
        <time>2019-11-24T09:29:12Z</time>
      </trkpt>
      <trkpt lat="48.51487" lon="1.97125">
        <ele>144</ele>
        <time>2019-11-24T09:29:14Z</time>
      </trkpt>
      <trkpt lat="48.51485" lon="1.97118">
        <ele>145</ele>
        <time>2019-11-24T09:29:16Z</time>
      </trkpt>
      <trkpt lat="48.51482" lon="1.97111">
        <ele>145</ele>
        <time>2019-11-24T09:29:18Z</time>
      </trkpt>
      <trkpt lat="48.51479" lon="1.97104">
        <ele>145</ele>
        <time>2019-11-24T09:29:20Z</time>
      </trkpt>
      <trkpt lat="48.51476" lon="1.97098">
        <ele>145</ele>
        <time>2019-11-24T09:29:22Z</time>
      </trkpt>
      <trkpt lat="48.51474" lon="1.9709">
        <ele>145</ele>
        <time>2019-11-24T09:29:24Z</time>
      </trkpt>
      <trkpt lat="48.51472" lon="1.97082">
        <ele>146</ele>
        <time>2019-11-24T09:29:26Z</time>
      </trkpt>
      <trkpt lat="48.5147" lon="1.97075">
        <ele>146</ele>
        <time>2019-11-24T09:29:28Z</time>
      </trkpt>
      <trkpt lat="48.51466" lon="1.97067">
        <ele>146</ele>
        <time>2019-11-24T09:29:30Z</time>
      </trkpt>
      <trkpt lat="48.51464" lon="1.9706">
        <ele>146</ele>
        <time>2019-11-24T09:29:32Z</time>
      </trkpt>
      <trkpt lat="48.51462" lon="1.97054">
        <ele>146</ele>
        <time>2019-11-24T09:29:34Z</time>
      </trkpt>
      <trkpt lat="48.51459" lon="1.97041">
        <ele>146</ele>
        <time>2019-11-24T09:29:38Z</time>
      </trkpt>
      <trkpt lat="48.51457" lon="1.97033">
        <ele>146</ele>
        <time>2019-11-24T09:29:40Z</time>
      </trkpt>
      <trkpt lat="48.51455" lon="1.97025">
        <ele>146</ele>
        <time>2019-11-24T09:29:42Z</time>
      </trkpt>
      <trkpt lat="48.51455" lon="1.97017">
        <ele>146</ele>
        <time>2019-11-24T09:29:44Z</time>
      </trkpt>
      <trkpt lat="48.51453" lon="1.97009">
        <ele>146</ele>
        <time>2019-11-24T09:29:46Z</time>
      </trkpt>
      <trkpt lat="48.51453" lon="1.97001">
        <ele>146</ele>
        <time>2019-11-24T09:29:48Z</time>
      </trkpt>
      <trkpt lat="48.51454" lon="1.96992">
        <ele>148</ele>
        <time>2019-11-24T09:29:50Z</time>
      </trkpt>
      <trkpt lat="48.51456" lon="1.96984">
        <ele>148</ele>
        <time>2019-11-24T09:29:52Z</time>
      </trkpt>
      <trkpt lat="48.5146" lon="1.96975">
        <ele>148</ele>
        <time>2019-11-24T09:29:54Z</time>
      </trkpt>
      <trkpt lat="48.51463" lon="1.96966">
        <ele>148</ele>
        <time>2019-11-24T09:29:56Z</time>
      </trkpt>
      <trkpt lat="48.51465" lon="1.96957">
        <ele>148</ele>
        <time>2019-11-24T09:29:58Z</time>
      </trkpt>
      <trkpt lat="48.51466" lon="1.96949">
        <ele>148</ele>
        <time>2019-11-24T09:30:00Z</time>
      </trkpt>
      <trkpt lat="48.51469" lon="1.96939">
        <ele>148</ele>
        <time>2019-11-24T09:30:02Z</time>
      </trkpt>
      <trkpt lat="48.5147" lon="1.96931">
        <ele>148</ele>
        <time>2019-11-24T09:30:04Z</time>
      </trkpt>
      <trkpt lat="48.51472" lon="1.96922">
        <ele>148</ele>
        <time>2019-11-24T09:30:06Z</time>
      </trkpt>
      <trkpt lat="48.51473" lon="1.96914">
        <ele>150</ele>
        <time>2019-11-24T09:30:08Z</time>
      </trkpt>
      <trkpt lat="48.51478" lon="1.96902">
        <ele>150</ele>
        <time>2019-11-24T09:30:12Z</time>
      </trkpt>
      <trkpt lat="48.51482" lon="1.96899">
        <ele>150</ele>
        <time>2019-11-24T09:30:14Z</time>
      </trkpt>
      <trkpt lat="48.51486" lon="1.96893">
        <ele>150</ele>
        <time>2019-11-24T09:30:16Z</time>
      </trkpt>
      <trkpt lat="48.5149" lon="1.96882">
        <ele>150</ele>
        <time>2019-11-24T09:30:20Z</time>
      </trkpt>
      <trkpt lat="48.51495" lon="1.96872">
        <ele>151</ele>
        <time>2019-11-24T09:30:24Z</time>
      </trkpt>
      <trkpt lat="48.51499" lon="1.96868">
        <ele>151</ele>
        <time>2019-11-24T09:30:26Z</time>
      </trkpt>
      <trkpt lat="48.51504" lon="1.9686">
        <ele>153</ele>
        <time>2019-11-24T09:30:30Z</time>
      </trkpt>
      <trkpt lat="48.5151" lon="1.96853">
        <ele>153</ele>
        <time>2019-11-24T09:30:34Z</time>
      </trkpt>
      <trkpt lat="48.51514" lon="1.96845">
        <ele>153</ele>
        <time>2019-11-24T09:30:38Z</time>
      </trkpt>
      <trkpt lat="48.51519" lon="1.96839">
        <ele>153</ele>
        <time>2019-11-24T09:30:42Z</time>
      </trkpt>
      <trkpt lat="48.51524" lon="1.96833">
        <ele>154</ele>
        <time>2019-11-24T09:30:46Z</time>
      </trkpt>
      <trkpt lat="48.5153" lon="1.96827">
        <ele>155</ele>
        <time>2019-11-24T09:30:50Z</time>
      </trkpt>
      <trkpt lat="48.51535" lon="1.9682">
        <ele>155</ele>
        <time>2019-11-24T09:30:56Z</time>
      </trkpt>
      <trkpt lat="48.51542" lon="1.96817">
        <ele>155</ele>
        <time>2019-11-24T09:31:02Z</time>
      </trkpt>
      <trkpt lat="48.51547" lon="1.96814">
        <ele>156</ele>
        <time>2019-11-24T09:31:06Z</time>
      </trkpt>
      <trkpt lat="48.51554" lon="1.96812">
        <ele>156</ele>
        <time>2019-11-24T09:31:10Z</time>
      </trkpt>
      <trkpt lat="48.51561" lon="1.96809">
        <ele>156</ele>
        <time>2019-11-24T09:31:14Z</time>
      </trkpt>
      <trkpt lat="48.51567" lon="1.96807">
        <ele>156</ele>
        <time>2019-11-24T09:31:18Z</time>
      </trkpt>
      <trkpt lat="48.51573" lon="1.96806">
        <ele>156</ele>
        <time>2019-11-24T09:31:22Z</time>
      </trkpt>
      <trkpt lat="48.51579" lon="1.96802">
        <ele>156</ele>
        <time>2019-11-24T09:31:26Z</time>
      </trkpt>
      <trkpt lat="48.51587" lon="1.96798">
        <ele>159</ele>
        <time>2019-11-24T09:31:30Z</time>
      </trkpt>
      <trkpt lat="48.51592" lon="1.96797">
        <ele>159</ele>
        <time>2019-11-24T09:31:34Z</time>
      </trkpt>
      <trkpt lat="48.51599" lon="1.96796">
        <ele>159</ele>
        <time>2019-11-24T09:31:38Z</time>
      </trkpt>
      <trkpt lat="48.51606" lon="1.96794">
        <ele>160</ele>
        <time>2019-11-24T09:31:42Z</time>
      </trkpt>
      <trkpt lat="48.51612" lon="1.96792">
        <ele>160</ele>
        <time>2019-11-24T09:31:46Z</time>
      </trkpt>
      <trkpt lat="48.5162" lon="1.96791">
        <ele>160</ele>
        <time>2019-11-24T09:31:50Z</time>
      </trkpt>
      <trkpt lat="48.51629" lon="1.9679">
        <ele>160</ele>
        <time>2019-11-24T09:31:54Z</time>
      </trkpt>
      <trkpt lat="48.51634" lon="1.9679">
        <ele>161</ele>
        <time>2019-11-24T09:31:56Z</time>
      </trkpt>
      <trkpt lat="48.51639" lon="1.96791">
        <ele>161</ele>
        <time>2019-11-24T09:31:58Z</time>
      </trkpt>
      <trkpt lat="48.51644" lon="1.96791">
        <ele>161</ele>
        <time>2019-11-24T09:32:00Z</time>
      </trkpt>
      <trkpt lat="48.51649" lon="1.96792">
        <ele>161</ele>
        <time>2019-11-24T09:32:02Z</time>
      </trkpt>
      <trkpt lat="48.51658" lon="1.96793">
        <ele>161</ele>
        <time>2019-11-24T09:32:06Z</time>
      </trkpt>
      <trkpt lat="48.51666" lon="1.96794">
        <ele>161</ele>
        <time>2019-11-24T09:32:10Z</time>
      </trkpt>
      <trkpt lat="48.5167" lon="1.96797">
        <ele>164</ele>
        <time>2019-11-24T09:32:12Z</time>
      </trkpt>
      <trkpt lat="48.51675" lon="1.96802">
        <ele>164</ele>
        <time>2019-11-24T09:32:14Z</time>
      </trkpt>
      <trkpt lat="48.51679" lon="1.96808">
        <ele>164</ele>
        <time>2019-11-24T09:32:16Z</time>
      </trkpt>
      <trkpt lat="48.51685" lon="1.96817">
        <ele>163</ele>
        <time>2019-11-24T09:32:20Z</time>
      </trkpt>
      <trkpt lat="48.51689" lon="1.96823">
        <ele>163</ele>
        <time>2019-11-24T09:32:22Z</time>
      </trkpt>
      <trkpt lat="48.51693" lon="1.96828">
        <ele>164</ele>
        <time>2019-11-24T09:32:24Z</time>
      </trkpt>
      <trkpt lat="48.51696" lon="1.96833">
        <ele>164</ele>
        <time>2019-11-24T09:32:26Z</time>
      </trkpt>
      <trkpt lat="48.51698" lon="1.9684">
        <ele>163</ele>
        <time>2019-11-24T09:32:28Z</time>
      </trkpt>
      <trkpt lat="48.51703" lon="1.96842">
        <ele>163</ele>
        <time>2019-11-24T09:32:30Z</time>
      </trkpt>
      <trkpt lat="48.51711" lon="1.96848">
        <ele>163</ele>
        <time>2019-11-24T09:32:34Z</time>
      </trkpt>
      <trkpt lat="48.51716" lon="1.96858">
        <ele>163</ele>
        <time>2019-11-24T09:32:38Z</time>
      </trkpt>
      <trkpt lat="48.5172" lon="1.96862">
        <ele>163</ele>
        <time>2019-11-24T09:32:40Z</time>
      </trkpt>
      <trkpt lat="48.51723" lon="1.96867">
        <ele>164</ele>
        <time>2019-11-24T09:32:42Z</time>
      </trkpt>
      <trkpt lat="48.51726" lon="1.96873">
        <ele>164</ele>
        <time>2019-11-24T09:32:44Z</time>
      </trkpt>
      <trkpt lat="48.5173" lon="1.96878">
        <ele>164</ele>
        <time>2019-11-24T09:32:46Z</time>
      </trkpt>
      <trkpt lat="48.51734" lon="1.96882">
        <ele>164</ele>
        <time>2019-11-24T09:32:48Z</time>
      </trkpt>
      <trkpt lat="48.51738" lon="1.96887">
        <ele>164</ele>
        <time>2019-11-24T09:32:50Z</time>
      </trkpt>
      <trkpt lat="48.51744" lon="1.96892">
        <ele>164</ele>
        <time>2019-11-24T09:32:52Z</time>
      </trkpt>
      <trkpt lat="48.51749" lon="1.96903">
        <ele>164</ele>
        <time>2019-11-24T09:32:56Z</time>
      </trkpt>
      <trkpt lat="48.51753" lon="1.96909">
        <ele>164</ele>
        <time>2019-11-24T09:32:58Z</time>
      </trkpt>
      <trkpt lat="48.51758" lon="1.96918">
        <ele>164</ele>
        <time>2019-11-24T09:33:02Z</time>
      </trkpt>
      <trkpt lat="48.51764" lon="1.96929">
        <ele>164</ele>
        <time>2019-11-24T09:33:06Z</time>
      </trkpt>
      <trkpt lat="48.51768" lon="1.9694">
        <ele>164</ele>
        <time>2019-11-24T09:33:10Z</time>
      </trkpt>
      <trkpt lat="48.51773" lon="1.96951">
        <ele>164</ele>
        <time>2019-11-24T09:33:14Z</time>
      </trkpt>
      <trkpt lat="48.51776" lon="1.96956">
        <ele>164</ele>
        <time>2019-11-24T09:33:16Z</time>
      </trkpt>
      <trkpt lat="48.5178" lon="1.96964">
        <ele>164</ele>
        <time>2019-11-24T09:33:20Z</time>
      </trkpt>
      <trkpt lat="48.51786" lon="1.96974">
        <ele>164</ele>
        <time>2019-11-24T09:33:24Z</time>
      </trkpt>
      <trkpt lat="48.51788" lon="1.96981">
        <ele>164</ele>
        <time>2019-11-24T09:33:26Z</time>
      </trkpt>
      <trkpt lat="48.51792" lon="1.96987">
        <ele>164</ele>
        <time>2019-11-24T09:33:28Z</time>
      </trkpt>
      <trkpt lat="48.51796" lon="1.96994">
        <ele>164</ele>
        <time>2019-11-24T09:33:30Z</time>
      </trkpt>
      <trkpt lat="48.51799" lon="1.97">
        <ele>163</ele>
        <time>2019-11-24T09:33:32Z</time>
      </trkpt>
      <trkpt lat="48.51802" lon="1.97008">
        <ele>163</ele>
        <time>2019-11-24T09:33:34Z</time>
      </trkpt>
      <trkpt lat="48.51804" lon="1.97017">
        <ele>163</ele>
        <time>2019-11-24T09:33:36Z</time>
      </trkpt>
      <trkpt lat="48.51808" lon="1.97023">
        <ele>163</ele>
        <time>2019-11-24T09:33:38Z</time>
      </trkpt>
      <trkpt lat="48.51811" lon="1.97031">
        <ele>163</ele>
        <time>2019-11-24T09:33:40Z</time>
      </trkpt>
      <trkpt lat="48.51814" lon="1.97038">
        <ele>163</ele>
        <time>2019-11-24T09:33:42Z</time>
      </trkpt>
      <trkpt lat="48.51817" lon="1.97046">
        <ele>163</ele>
        <time>2019-11-24T09:33:44Z</time>
      </trkpt>
      <trkpt lat="48.5182" lon="1.97053">
        <ele>163</ele>
        <time>2019-11-24T09:33:46Z</time>
      </trkpt>
      <trkpt lat="48.51823" lon="1.9706">
        <ele>162</ele>
        <time>2019-11-24T09:33:48Z</time>
      </trkpt>
      <trkpt lat="48.51826" lon="1.97065">
        <ele>162</ele>
        <time>2019-11-24T09:33:50Z</time>
      </trkpt>
      <trkpt lat="48.51831" lon="1.97073">
        <ele>162</ele>
        <time>2019-11-24T09:33:52Z</time>
      </trkpt>
      <trkpt lat="48.51835" lon="1.97079">
        <ele>162</ele>
        <time>2019-11-24T09:33:54Z</time>
      </trkpt>
      <trkpt lat="48.51837" lon="1.97086">
        <ele>162</ele>
        <time>2019-11-24T09:33:56Z</time>
      </trkpt>
      <trkpt lat="48.5184" lon="1.97093">
        <ele>161</ele>
        <time>2019-11-24T09:33:58Z</time>
      </trkpt>
      <trkpt lat="48.51842" lon="1.97099">
        <ele>161</ele>
        <time>2019-11-24T09:34:00Z</time>
      </trkpt>
      <trkpt lat="48.51846" lon="1.97105">
        <ele>161</ele>
        <time>2019-11-24T09:34:02Z</time>
      </trkpt>
      <trkpt lat="48.5185" lon="1.97114">
        <ele>160</ele>
        <time>2019-11-24T09:34:06Z</time>
      </trkpt>
      <trkpt lat="48.51854" lon="1.97122">
        <ele>160</ele>
        <time>2019-11-24T09:34:10Z</time>
      </trkpt>
      <trkpt lat="48.5186" lon="1.9712">
        <ele>160</ele>
        <time>2019-11-24T09:34:14Z</time>
      </trkpt>
      <trkpt lat="48.51866" lon="1.97115">
        <ele>160</ele>
        <time>2019-11-24T09:34:18Z</time>
      </trkpt>
      <trkpt lat="48.51873" lon="1.97112">
        <ele>161</ele>
        <time>2019-11-24T09:34:20Z</time>
      </trkpt>
      <trkpt lat="48.51879" lon="1.97109">
        <ele>161</ele>
        <time>2019-11-24T09:34:22Z</time>
      </trkpt>
      <trkpt lat="48.51884" lon="1.97106">
        <ele>161</ele>
        <time>2019-11-24T09:34:24Z</time>
      </trkpt>
      <trkpt lat="48.51889" lon="1.97105">
        <ele>161</ele>
        <time>2019-11-24T09:34:26Z</time>
      </trkpt>
      <trkpt lat="48.51893" lon="1.97101">
        <ele>161</ele>
        <time>2019-11-24T09:34:28Z</time>
      </trkpt>
      <trkpt lat="48.51901" lon="1.97094">
        <ele>161</ele>
        <time>2019-11-24T09:34:32Z</time>
      </trkpt>
      <trkpt lat="48.51909" lon="1.97092">
        <ele>161</ele>
        <time>2019-11-24T09:34:36Z</time>
      </trkpt>
      <trkpt lat="48.51916" lon="1.97105">
        <ele>161</ele>
        <time>2019-11-24T09:34:40Z</time>
      </trkpt>
      <trkpt lat="48.51921" lon="1.97112">
        <ele>162</ele>
        <time>2019-11-24T09:34:42Z</time>
      </trkpt>
      <trkpt lat="48.51921" lon="1.97121">
        <ele>162</ele>
        <time>2019-11-24T09:34:44Z</time>
      </trkpt>
      <trkpt lat="48.51924" lon="1.97131">
        <ele>161</ele>
        <time>2019-11-24T09:34:46Z</time>
      </trkpt>
      <trkpt lat="48.51927" lon="1.97139">
        <ele>161</ele>
        <time>2019-11-24T09:34:48Z</time>
      </trkpt>
      <trkpt lat="48.51929" lon="1.97148">
        <ele>161</ele>
        <time>2019-11-24T09:34:50Z</time>
      </trkpt>
      <trkpt lat="48.5193" lon="1.97158">
        <ele>161</ele>
        <time>2019-11-24T09:34:52Z</time>
      </trkpt>
      <trkpt lat="48.51933" lon="1.97168">
        <ele>160</ele>
        <time>2019-11-24T09:34:54Z</time>
      </trkpt>
      <trkpt lat="48.51936" lon="1.9718">
        <ele>161</ele>
        <time>2019-11-24T09:34:56Z</time>
      </trkpt>
      <trkpt lat="48.51935" lon="1.97191">
        <ele>161</ele>
        <time>2019-11-24T09:34:58Z</time>
      </trkpt>
      <trkpt lat="48.51939" lon="1.97202">
        <ele>161</ele>
        <time>2019-11-24T09:35:00Z</time>
      </trkpt>
      <trkpt lat="48.5194" lon="1.97216">
        <ele>160</ele>
        <time>2019-11-24T09:35:02Z</time>
      </trkpt>
      <trkpt lat="48.51942" lon="1.97229">
        <ele>160</ele>
        <time>2019-11-24T09:35:04Z</time>
      </trkpt>
      <trkpt lat="48.51943" lon="1.97243">
        <ele>160</ele>
        <time>2019-11-24T09:35:06Z</time>
      </trkpt>
      <trkpt lat="48.51944" lon="1.97256">
        <ele>160</ele>
        <time>2019-11-24T09:35:08Z</time>
      </trkpt>
      <trkpt lat="48.51947" lon="1.97266">
        <ele>160</ele>
        <time>2019-11-24T09:35:10Z</time>
      </trkpt>
      <trkpt lat="48.51948" lon="1.97281">
        <ele>160</ele>
        <time>2019-11-24T09:35:12Z</time>
      </trkpt>
      <trkpt lat="48.51951" lon="1.97294">
        <ele>160</ele>
        <time>2019-11-24T09:35:14Z</time>
      </trkpt>
      <trkpt lat="48.51951" lon="1.97306">
        <ele>160</ele>
        <time>2019-11-24T09:35:16Z</time>
      </trkpt>
      <trkpt lat="48.51952" lon="1.97318">
        <ele>160</ele>
        <time>2019-11-24T09:35:18Z</time>
      </trkpt>
      <trkpt lat="48.51956" lon="1.97332">
        <ele>160</ele>
        <time>2019-11-24T09:35:20Z</time>
      </trkpt>
      <trkpt lat="48.51959" lon="1.97346">
        <ele>160</ele>
        <time>2019-11-24T09:35:22Z</time>
      </trkpt>
      <trkpt lat="48.51961" lon="1.97359">
        <ele>160</ele>
        <time>2019-11-24T09:35:24Z</time>
      </trkpt>
      <trkpt lat="48.51963" lon="1.97372">
        <ele>160</ele>
        <time>2019-11-24T09:35:26Z</time>
      </trkpt>
      <trkpt lat="48.51964" lon="1.97386">
        <ele>160</ele>
        <time>2019-11-24T09:35:28Z</time>
      </trkpt>
      <trkpt lat="48.51966" lon="1.97401">
        <ele>160</ele>
        <time>2019-11-24T09:35:30Z</time>
      </trkpt>
      <trkpt lat="48.51969" lon="1.97415">
        <ele>160</ele>
        <time>2019-11-24T09:35:32Z</time>
      </trkpt>
      <trkpt lat="48.51971" lon="1.97429">
        <ele>160</ele>
        <time>2019-11-24T09:35:34Z</time>
      </trkpt>
      <trkpt lat="48.51972" lon="1.97443">
        <ele>160</ele>
        <time>2019-11-24T09:35:36Z</time>
      </trkpt>
      <trkpt lat="48.51974" lon="1.97456">
        <ele>160</ele>
        <time>2019-11-24T09:35:38Z</time>
      </trkpt>
      <trkpt lat="48.51976" lon="1.9747">
        <ele>160</ele>
        <time>2019-11-24T09:35:40Z</time>
      </trkpt>
      <trkpt lat="48.51979" lon="1.97484">
        <ele>160</ele>
        <time>2019-11-24T09:35:42Z</time>
      </trkpt>
      <trkpt lat="48.51982" lon="1.97498">
        <ele>161</ele>
        <time>2019-11-24T09:35:44Z</time>
      </trkpt>
      <trkpt lat="48.51984" lon="1.97512">
        <ele>160</ele>
        <time>2019-11-24T09:35:46Z</time>
      </trkpt>
      <trkpt lat="48.51986" lon="1.97526">
        <ele>160</ele>
        <time>2019-11-24T09:35:48Z</time>
      </trkpt>
      <trkpt lat="48.51989" lon="1.9754">
        <ele>160</ele>
        <time>2019-11-24T09:35:50Z</time>
      </trkpt>
      <trkpt lat="48.51991" lon="1.97552">
        <ele>160</ele>
        <time>2019-11-24T09:35:52Z</time>
      </trkpt>
      <trkpt lat="48.51993" lon="1.97567">
        <ele>161</ele>
        <time>2019-11-24T09:35:54Z</time>
      </trkpt>
      <trkpt lat="48.51996" lon="1.9758">
        <ele>161</ele>
        <time>2019-11-24T09:35:56Z</time>
      </trkpt>
      <trkpt lat="48.51997" lon="1.97594">
        <ele>161</ele>
        <time>2019-11-24T09:35:58Z</time>
      </trkpt>
      <trkpt lat="48.51999" lon="1.97608">
        <ele>160</ele>
        <time>2019-11-24T09:36:00Z</time>
      </trkpt>
      <trkpt lat="48.52001" lon="1.97621">
        <ele>163</ele>
        <time>2019-11-24T09:36:02Z</time>
      </trkpt>
      <trkpt lat="48.52003" lon="1.97635">
        <ele>163</ele>
        <time>2019-11-24T09:36:04Z</time>
      </trkpt>
      <trkpt lat="48.52006" lon="1.97649">
        <ele>163</ele>
        <time>2019-11-24T09:36:06Z</time>
      </trkpt>
      <trkpt lat="48.52007" lon="1.97661">
        <ele>163</ele>
        <time>2019-11-24T09:36:08Z</time>
      </trkpt>
      <trkpt lat="48.52011" lon="1.97674">
        <ele>163</ele>
        <time>2019-11-24T09:36:10Z</time>
      </trkpt>
      <trkpt lat="48.52013" lon="1.97687">
        <ele>163</ele>
        <time>2019-11-24T09:36:12Z</time>
      </trkpt>
      <trkpt lat="48.52014" lon="1.97699">
        <ele>163</ele>
        <time>2019-11-24T09:36:14Z</time>
      </trkpt>
      <trkpt lat="48.52016" lon="1.97712">
        <ele>163</ele>
        <time>2019-11-24T09:36:16Z</time>
      </trkpt>
      <trkpt lat="48.52018" lon="1.97727">
        <ele>163</ele>
        <time>2019-11-24T09:36:18Z</time>
      </trkpt>
      <trkpt lat="48.52019" lon="1.97743">
        <ele>163</ele>
        <time>2019-11-24T09:36:20Z</time>
      </trkpt>
      <trkpt lat="48.52021" lon="1.97756">
        <ele>163</ele>
        <time>2019-11-24T09:36:22Z</time>
      </trkpt>
      <trkpt lat="48.52024" lon="1.97769">
        <ele>163</ele>
        <time>2019-11-24T09:36:24Z</time>
      </trkpt>
      <trkpt lat="48.52026" lon="1.97783">
        <ele>164</ele>
        <time>2019-11-24T09:36:26Z</time>
      </trkpt>
      <trkpt lat="48.52029" lon="1.97797">
        <ele>164</ele>
        <time>2019-11-24T09:36:28Z</time>
      </trkpt>
      <trkpt lat="48.5203" lon="1.97811">
        <ele>164</ele>
        <time>2019-11-24T09:36:30Z</time>
      </trkpt>
      <trkpt lat="48.52032" lon="1.97823">
        <ele>164</ele>
        <time>2019-11-24T09:36:32Z</time>
      </trkpt>
      <trkpt lat="48.52034" lon="1.97834">
        <ele>164</ele>
        <time>2019-11-24T09:36:34Z</time>
      </trkpt>
      <trkpt lat="48.52036" lon="1.97847">
        <ele>164</ele>
        <time>2019-11-24T09:36:36Z</time>
      </trkpt>
      <trkpt lat="48.52039" lon="1.9786">
        <ele>164</ele>
        <time>2019-11-24T09:36:38Z</time>
      </trkpt>
      <trkpt lat="48.52041" lon="1.97872">
        <ele>164</ele>
        <time>2019-11-24T09:36:40Z</time>
      </trkpt>
      <trkpt lat="48.52043" lon="1.97886">
        <ele>164</ele>
        <time>2019-11-24T09:36:42Z</time>
      </trkpt>
      <trkpt lat="48.52045" lon="1.97899">
        <ele>164</ele>
        <time>2019-11-24T09:36:44Z</time>
      </trkpt>
      <trkpt lat="48.52047" lon="1.97911">
        <ele>164</ele>
        <time>2019-11-24T09:36:46Z</time>
      </trkpt>
      <trkpt lat="48.52047" lon="1.97924">
        <ele>164</ele>
        <time>2019-11-24T09:36:48Z</time>
      </trkpt>
      <trkpt lat="48.52048" lon="1.97937">
        <ele>164</ele>
        <time>2019-11-24T09:36:50Z</time>
      </trkpt>
      <trkpt lat="48.52049" lon="1.97951">
        <ele>164</ele>
        <time>2019-11-24T09:36:52Z</time>
      </trkpt>
      <trkpt lat="48.52053" lon="1.97964">
        <ele>164</ele>
        <time>2019-11-24T09:36:54Z</time>
      </trkpt>
      <trkpt lat="48.52054" lon="1.97976">
        <ele>164</ele>
        <time>2019-11-24T09:36:56Z</time>
      </trkpt>
      <trkpt lat="48.52057" lon="1.9799">
        <ele>164</ele>
        <time>2019-11-24T09:36:58Z</time>
      </trkpt>
      <trkpt lat="48.5206" lon="1.98002">
        <ele>163</ele>
        <time>2019-11-24T09:37:00Z</time>
      </trkpt>
      <trkpt lat="48.52062" lon="1.98015">
        <ele>162</ele>
        <time>2019-11-24T09:37:02Z</time>
      </trkpt>
      <trkpt lat="48.52065" lon="1.98029">
        <ele>162</ele>
        <time>2019-11-24T09:37:04Z</time>
      </trkpt>
      <trkpt lat="48.52067" lon="1.98043">
        <ele>162</ele>
        <time>2019-11-24T09:37:06Z</time>
      </trkpt>
      <trkpt lat="48.5207" lon="1.98056">
        <ele>161</ele>
        <time>2019-11-24T09:37:08Z</time>
      </trkpt>
      <trkpt lat="48.52071" lon="1.98072">
        <ele>161</ele>
        <time>2019-11-24T09:37:10Z</time>
      </trkpt>
      <trkpt lat="48.52074" lon="1.98086">
        <ele>159</ele>
        <time>2019-11-24T09:37:12Z</time>
      </trkpt>
      <trkpt lat="48.52075" lon="1.98099">
        <ele>159</ele>
        <time>2019-11-24T09:37:14Z</time>
      </trkpt>
      <trkpt lat="48.52077" lon="1.98111">
        <ele>159</ele>
        <time>2019-11-24T09:37:16Z</time>
      </trkpt>
      <trkpt lat="48.5208" lon="1.98125">
        <ele>158</ele>
        <time>2019-11-24T09:37:18Z</time>
      </trkpt>
      <trkpt lat="48.52082" lon="1.98138">
        <ele>158</ele>
        <time>2019-11-24T09:37:20Z</time>
      </trkpt>
      <trkpt lat="48.52084" lon="1.98151">
        <ele>157</ele>
        <time>2019-11-24T09:37:22Z</time>
      </trkpt>
      <trkpt lat="48.52087" lon="1.98165">
        <ele>157</ele>
        <time>2019-11-24T09:37:24Z</time>
      </trkpt>
      <trkpt lat="48.5209" lon="1.98178">
        <ele>157</ele>
        <time>2019-11-24T09:37:26Z</time>
      </trkpt>
      <trkpt lat="48.52091" lon="1.98192">
        <ele>157</ele>
        <time>2019-11-24T09:37:28Z</time>
      </trkpt>
      <trkpt lat="48.52094" lon="1.98205">
        <ele>157</ele>
        <time>2019-11-24T09:37:30Z</time>
      </trkpt>
      <trkpt lat="48.52094" lon="1.98217">
        <ele>156</ele>
        <time>2019-11-24T09:37:32Z</time>
      </trkpt>
      <trkpt lat="48.52097" lon="1.9823">
        <ele>156</ele>
        <time>2019-11-24T09:37:34Z</time>
      </trkpt>
      <trkpt lat="48.52099" lon="1.98244">
        <ele>156</ele>
        <time>2019-11-24T09:37:36Z</time>
      </trkpt>
      <trkpt lat="48.52101" lon="1.98256">
        <ele>156</ele>
        <time>2019-11-24T09:37:38Z</time>
      </trkpt>
      <trkpt lat="48.52103" lon="1.9827">
        <ele>156</ele>
        <time>2019-11-24T09:37:40Z</time>
      </trkpt>
      <trkpt lat="48.52104" lon="1.98284">
        <ele>156</ele>
        <time>2019-11-24T09:37:42Z</time>
      </trkpt>
      <trkpt lat="48.52107" lon="1.98298">
        <ele>156</ele>
        <time>2019-11-24T09:37:44Z</time>
      </trkpt>
      <trkpt lat="48.52109" lon="1.98312">
        <ele>156</ele>
        <time>2019-11-24T09:37:46Z</time>
      </trkpt>
      <trkpt lat="48.52111" lon="1.98327">
        <ele>156</ele>
        <time>2019-11-24T09:37:48Z</time>
      </trkpt>
      <trkpt lat="48.52113" lon="1.98341">
        <ele>156</ele>
        <time>2019-11-24T09:37:50Z</time>
      </trkpt>
      <trkpt lat="48.52115" lon="1.98355">
        <ele>157</ele>
        <time>2019-11-24T09:37:52Z</time>
      </trkpt>
      <trkpt lat="48.52118" lon="1.9837">
        <ele>157</ele>
        <time>2019-11-24T09:37:54Z</time>
      </trkpt>
      <trkpt lat="48.5212" lon="1.98384">
        <ele>157</ele>
        <time>2019-11-24T09:37:56Z</time>
      </trkpt>
      <trkpt lat="48.52122" lon="1.984">
        <ele>157</ele>
        <time>2019-11-24T09:37:58Z</time>
      </trkpt>
      <trkpt lat="48.52124" lon="1.98414">
        <ele>157</ele>
        <time>2019-11-24T09:38:00Z</time>
      </trkpt>
      <trkpt lat="48.52126" lon="1.98428">
        <ele>157</ele>
        <time>2019-11-24T09:38:02Z</time>
      </trkpt>
      <trkpt lat="48.52129" lon="1.98443">
        <ele>157</ele>
        <time>2019-11-24T09:38:04Z</time>
      </trkpt>
      <trkpt lat="48.52131" lon="1.98458">
        <ele>157</ele>
        <time>2019-11-24T09:38:06Z</time>
      </trkpt>
      <trkpt lat="48.52134" lon="1.98473">
        <ele>157</ele>
        <time>2019-11-24T09:38:08Z</time>
      </trkpt>
      <trkpt lat="48.52136" lon="1.98486">
        <ele>157</ele>
        <time>2019-11-24T09:38:10Z</time>
      </trkpt>
      <trkpt lat="48.52142" lon="1.98496">
        <ele>157</ele>
        <time>2019-11-24T09:38:12Z</time>
      </trkpt>
      <trkpt lat="48.52149" lon="1.98502">
        <ele>157</ele>
        <time>2019-11-24T09:38:14Z</time>
      </trkpt>
      <trkpt lat="48.52155" lon="1.98512">
        <ele>158</ele>
        <time>2019-11-24T09:38:16Z</time>
      </trkpt>
      <trkpt lat="48.52159" lon="1.98522">
        <ele>157</ele>
        <time>2019-11-24T09:38:18Z</time>
      </trkpt>
      <trkpt lat="48.52162" lon="1.98534">
        <ele>157</ele>
        <time>2019-11-24T09:38:20Z</time>
      </trkpt>
      <trkpt lat="48.52166" lon="1.9855">
        <ele>157</ele>
        <time>2019-11-24T09:38:22Z</time>
      </trkpt>
      <trkpt lat="48.52171" lon="1.98567">
        <ele>155</ele>
        <time>2019-11-24T09:38:24Z</time>
      </trkpt>
      <trkpt lat="48.52179" lon="1.98581">
        <ele>155</ele>
        <time>2019-11-24T09:38:26Z</time>
      </trkpt>
      <trkpt lat="48.52187" lon="1.98593">
        <ele>155</ele>
        <time>2019-11-24T09:38:28Z</time>
      </trkpt>
      <trkpt lat="48.52195" lon="1.98605">
        <ele>154</ele>
        <time>2019-11-24T09:38:30Z</time>
      </trkpt>
      <trkpt lat="48.52203" lon="1.98616">
        <ele>154</ele>
        <time>2019-11-24T09:38:32Z</time>
      </trkpt>
      <trkpt lat="48.5221" lon="1.98623">
        <ele>154</ele>
        <time>2019-11-24T09:38:34Z</time>
      </trkpt>
      <trkpt lat="48.52217" lon="1.98633">
        <ele>153</ele>
        <time>2019-11-24T09:38:36Z</time>
      </trkpt>
      <trkpt lat="48.52223" lon="1.98643">
        <ele>153</ele>
        <time>2019-11-24T09:38:38Z</time>
      </trkpt>
      <trkpt lat="48.52229" lon="1.98657">
        <ele>153</ele>
        <time>2019-11-24T09:38:40Z</time>
      </trkpt>
      <trkpt lat="48.52234" lon="1.9867">
        <ele>153</ele>
        <time>2019-11-24T09:38:42Z</time>
      </trkpt>
      <trkpt lat="48.52238" lon="1.9868">
        <ele>153</ele>
        <time>2019-11-24T09:38:44Z</time>
      </trkpt>
      <trkpt lat="48.52243" lon="1.98688">
        <ele>153</ele>
        <time>2019-11-24T09:38:46Z</time>
      </trkpt>
      <trkpt lat="48.52245" lon="1.98696">
        <ele>154</ele>
        <time>2019-11-24T09:38:48Z</time>
      </trkpt>
      <trkpt lat="48.5225" lon="1.98705">
        <ele>154</ele>
        <time>2019-11-24T09:38:50Z</time>
      </trkpt>
      <trkpt lat="48.52256" lon="1.98715">
        <ele>148</ele>
        <time>2019-11-24T09:38:52Z</time>
      </trkpt>
      <trkpt lat="48.52264" lon="1.98723">
        <ele>148</ele>
        <time>2019-11-24T09:38:54Z</time>
      </trkpt>
      <trkpt lat="48.52271" lon="1.98736">
        <ele>148</ele>
        <time>2019-11-24T09:38:56Z</time>
      </trkpt>
      <trkpt lat="48.52279" lon="1.98748">
        <ele>147</ele>
        <time>2019-11-24T09:38:58Z</time>
      </trkpt>
      <trkpt lat="48.52287" lon="1.98761">
        <ele>147</ele>
        <time>2019-11-24T09:39:00Z</time>
      </trkpt>
      <trkpt lat="48.52294" lon="1.98774">
        <ele>146</ele>
        <time>2019-11-24T09:39:02Z</time>
      </trkpt>
      <trkpt lat="48.52299" lon="1.98787">
        <ele>146</ele>
        <time>2019-11-24T09:39:04Z</time>
      </trkpt>
      <trkpt lat="48.52307" lon="1.98798">
        <ele>145</ele>
        <time>2019-11-24T09:39:06Z</time>
      </trkpt>
      <trkpt lat="48.52315" lon="1.98809">
        <ele>145</ele>
        <time>2019-11-24T09:39:08Z</time>
      </trkpt>
      <trkpt lat="48.52319" lon="1.98816">
        <ele>144</ele>
        <time>2019-11-24T09:39:10Z</time>
      </trkpt>
      <trkpt lat="48.52323" lon="1.9881">
        <ele>144</ele>
        <time>2019-11-24T09:39:12Z</time>
      </trkpt>
      <trkpt lat="48.52327" lon="1.98797">
        <ele>144</ele>
        <time>2019-11-24T09:39:14Z</time>
      </trkpt>
      <trkpt lat="48.52328" lon="1.98782">
        <ele>144</ele>
        <time>2019-11-24T09:39:16Z</time>
      </trkpt>
      <trkpt lat="48.52327" lon="1.98763">
        <ele>143</ele>
        <time>2019-11-24T09:39:18Z</time>
      </trkpt>
      <trkpt lat="48.52327" lon="1.98744">
        <ele>142</ele>
        <time>2019-11-24T09:39:20Z</time>
      </trkpt>
      <trkpt lat="48.52328" lon="1.98724">
        <ele>143</ele>
        <time>2019-11-24T09:39:22Z</time>
      </trkpt>
      <trkpt lat="48.5233" lon="1.98704">
        <ele>143</ele>
        <time>2019-11-24T09:39:24Z</time>
      </trkpt>
      <trkpt lat="48.52334" lon="1.98685">
        <ele>139</ele>
        <time>2019-11-24T09:39:26Z</time>
      </trkpt>
      <trkpt lat="48.52337" lon="1.98663">
        <ele>138</ele>
        <time>2019-11-24T09:39:28Z</time>
      </trkpt>
      <trkpt lat="48.52341" lon="1.98641">
        <ele>137</ele>
        <time>2019-11-24T09:39:30Z</time>
      </trkpt>
      <trkpt lat="48.52346" lon="1.98618">
        <ele>136</ele>
        <time>2019-11-24T09:39:32Z</time>
      </trkpt>
      <trkpt lat="48.52352" lon="1.98596">
        <ele>136</ele>
        <time>2019-11-24T09:39:34Z</time>
      </trkpt>
      <trkpt lat="48.52359" lon="1.98575">
        <ele>134</ele>
        <time>2019-11-24T09:39:36Z</time>
      </trkpt>
      <trkpt lat="48.52365" lon="1.98555">
        <ele>133</ele>
        <time>2019-11-24T09:39:38Z</time>
      </trkpt>
      <trkpt lat="48.52373" lon="1.98535">
        <ele>133</ele>
        <time>2019-11-24T09:39:40Z</time>
      </trkpt>
      <trkpt lat="48.52381" lon="1.98517">
        <ele>132</ele>
        <time>2019-11-24T09:39:42Z</time>
      </trkpt>
      <trkpt lat="48.52389" lon="1.98503">
        <ele>132</ele>
        <time>2019-11-24T09:39:44Z</time>
      </trkpt>
      <trkpt lat="48.52396" lon="1.98486">
        <ele>131</ele>
        <time>2019-11-24T09:39:46Z</time>
      </trkpt>
      <trkpt lat="48.52404" lon="1.98468">
        <ele>131</ele>
        <time>2019-11-24T09:39:48Z</time>
      </trkpt>
      <trkpt lat="48.52408" lon="1.98452">
        <ele>132</ele>
        <time>2019-11-24T09:39:50Z</time>
      </trkpt>
      <trkpt lat="48.52412" lon="1.9844">
        <ele>132</ele>
        <time>2019-11-24T09:39:52Z</time>
      </trkpt>
      <trkpt lat="48.52417" lon="1.9843">
        <ele>129</ele>
        <time>2019-11-24T09:39:54Z</time>
      </trkpt>
      <trkpt lat="48.52423" lon="1.98419">
        <ele>130</ele>
        <time>2019-11-24T09:39:56Z</time>
      </trkpt>
      <trkpt lat="48.52429" lon="1.98409">
        <ele>130</ele>
        <time>2019-11-24T09:39:58Z</time>
      </trkpt>
      <trkpt lat="48.52433" lon="1.98395">
        <ele>129</ele>
        <time>2019-11-24T09:40:00Z</time>
      </trkpt>
      <trkpt lat="48.52438" lon="1.98381">
        <ele>129</ele>
        <time>2019-11-24T09:40:02Z</time>
      </trkpt>
      <trkpt lat="48.52444" lon="1.98371">
        <ele>129</ele>
        <time>2019-11-24T09:40:04Z</time>
      </trkpt>
      <trkpt lat="48.52449" lon="1.98359">
        <ele>129</ele>
        <time>2019-11-24T09:40:06Z</time>
      </trkpt>
      <trkpt lat="48.52454" lon="1.98344">
        <ele>129</ele>
        <time>2019-11-24T09:40:08Z</time>
      </trkpt>
      <trkpt lat="48.52459" lon="1.98332">
        <ele>130</ele>
        <time>2019-11-24T09:40:10Z</time>
      </trkpt>
      <trkpt lat="48.52462" lon="1.98318">
        <ele>130</ele>
        <time>2019-11-24T09:40:12Z</time>
      </trkpt>
      <trkpt lat="48.52465" lon="1.98306">
        <ele>130</ele>
        <time>2019-11-24T09:40:14Z</time>
      </trkpt>
      <trkpt lat="48.52469" lon="1.9829">
        <ele>130</ele>
        <time>2019-11-24T09:40:16Z</time>
      </trkpt>
      <trkpt lat="48.52472" lon="1.98272">
        <ele>129</ele>
        <time>2019-11-24T09:40:18Z</time>
      </trkpt>
      <trkpt lat="48.52473" lon="1.98254">
        <ele>129</ele>
        <time>2019-11-24T09:40:20Z</time>
      </trkpt>
      <trkpt lat="48.52474" lon="1.98233">
        <ele>127</ele>
        <time>2019-11-24T09:40:22Z</time>
      </trkpt>
      <trkpt lat="48.52476" lon="1.98211">
        <ele>127</ele>
        <time>2019-11-24T09:40:24Z</time>
      </trkpt>
      <trkpt lat="48.52473" lon="1.98191">
        <ele>126</ele>
        <time>2019-11-24T09:40:26Z</time>
      </trkpt>
      <trkpt lat="48.52469" lon="1.98171">
        <ele>125</ele>
        <time>2019-11-24T09:40:28Z</time>
      </trkpt>
      <trkpt lat="48.52468" lon="1.98148">
        <ele>124</ele>
        <time>2019-11-24T09:40:30Z</time>
      </trkpt>
      <trkpt lat="48.52469" lon="1.98131">
        <ele>123</ele>
        <time>2019-11-24T09:40:32Z</time>
      </trkpt>
      <trkpt lat="48.52469" lon="1.98113">
        <ele>123</ele>
        <time>2019-11-24T09:40:34Z</time>
      </trkpt>
      <trkpt lat="48.52469" lon="1.98098">
        <ele>123</ele>
        <time>2019-11-24T09:40:36Z</time>
      </trkpt>
      <trkpt lat="48.5247" lon="1.98083">
        <ele>124</ele>
        <time>2019-11-24T09:40:38Z</time>
      </trkpt>
      <trkpt lat="48.52469" lon="1.98068">
        <ele>125</ele>
        <time>2019-11-24T09:40:40Z</time>
      </trkpt>
      <trkpt lat="48.52467" lon="1.98052">
        <ele>125</ele>
        <time>2019-11-24T09:40:42Z</time>
      </trkpt>
      <trkpt lat="48.52467" lon="1.98036">
        <ele>126</ele>
        <time>2019-11-24T09:40:44Z</time>
      </trkpt>
      <trkpt lat="48.52466" lon="1.9802">
        <ele>126</ele>
        <time>2019-11-24T09:40:46Z</time>
      </trkpt>
      <trkpt lat="48.52465" lon="1.98006">
        <ele>126</ele>
        <time>2019-11-24T09:40:48Z</time>
      </trkpt>
      <trkpt lat="48.52466" lon="1.97992">
        <ele>130</ele>
        <time>2019-11-24T09:40:50Z</time>
      </trkpt>
      <trkpt lat="48.52471" lon="1.97981">
        <ele>130</ele>
        <time>2019-11-24T09:40:52Z</time>
      </trkpt>
      <trkpt lat="48.52477" lon="1.97971">
        <ele>130</ele>
        <time>2019-11-24T09:40:54Z</time>
      </trkpt>
      <trkpt lat="48.52479" lon="1.97962">
        <ele>130</ele>
        <time>2019-11-24T09:40:56Z</time>
      </trkpt>
      <trkpt lat="48.5248" lon="1.97955">
        <ele>131</ele>
        <time>2019-11-24T09:40:58Z</time>
      </trkpt>
      <trkpt lat="48.52481" lon="1.97947">
        <ele>131</ele>
        <time>2019-11-24T09:41:00Z</time>
      </trkpt>
      <trkpt lat="48.52481" lon="1.97939">
        <ele>131</ele>
        <time>2019-11-24T09:41:02Z</time>
      </trkpt>
      <trkpt lat="48.52481" lon="1.97932">
        <ele>131</ele>
        <time>2019-11-24T09:41:04Z</time>
      </trkpt>
      <trkpt lat="48.52481" lon="1.97925">
        <ele>131</ele>
        <time>2019-11-24T09:41:06Z</time>
      </trkpt>
      <trkpt lat="48.52485" lon="1.97911">
        <ele>133</ele>
        <time>2019-11-24T09:41:10Z</time>
      </trkpt>
      <trkpt lat="48.52487" lon="1.97904">
        <ele>133</ele>
        <time>2019-11-24T09:41:12Z</time>
      </trkpt>
      <trkpt lat="48.52489" lon="1.97898">
        <ele>133</ele>
        <time>2019-11-24T09:41:14Z</time>
      </trkpt>
      <trkpt lat="48.52492" lon="1.9789">
        <ele>134</ele>
        <time>2019-11-24T09:41:16Z</time>
      </trkpt>
      <trkpt lat="48.52495" lon="1.97882">
        <ele>134</ele>
        <time>2019-11-24T09:41:18Z</time>
      </trkpt>
      <trkpt lat="48.52496" lon="1.97873">
        <ele>134</ele>
        <time>2019-11-24T09:41:20Z</time>
      </trkpt>
      <trkpt lat="48.52497" lon="1.97864">
        <ele>134</ele>
        <time>2019-11-24T09:41:22Z</time>
      </trkpt>
      <trkpt lat="48.52495" lon="1.97855">
        <ele>134</ele>
        <time>2019-11-24T09:41:24Z</time>
      </trkpt>
      <trkpt lat="48.52493" lon="1.97846">
        <ele>134</ele>
        <time>2019-11-24T09:41:26Z</time>
      </trkpt>
      <trkpt lat="48.52489" lon="1.97839">
        <ele>134</ele>
        <time>2019-11-24T09:41:28Z</time>
      </trkpt>
      <trkpt lat="48.52483" lon="1.97835">
        <ele>134</ele>
        <time>2019-11-24T09:41:30Z</time>
      </trkpt>
      <trkpt lat="48.52475" lon="1.97831">
        <ele>134</ele>
        <time>2019-11-24T09:41:34Z</time>
      </trkpt>
      <trkpt lat="48.52468" lon="1.97828">
        <ele>135</ele>
        <time>2019-11-24T09:41:38Z</time>
      </trkpt>
      <trkpt lat="48.52461" lon="1.97824">
        <ele>135</ele>
        <time>2019-11-24T09:41:42Z</time>
      </trkpt>
      <trkpt lat="48.52452" lon="1.97821">
        <ele>135</ele>
        <time>2019-11-24T09:41:46Z</time>
      </trkpt>
      <trkpt lat="48.52447" lon="1.97816">
        <ele>135</ele>
        <time>2019-11-24T09:41:50Z</time>
      </trkpt>
      <trkpt lat="48.52442" lon="1.97814">
        <ele>136</ele>
        <time>2019-11-24T09:41:52Z</time>
      </trkpt>
      <trkpt lat="48.52438" lon="1.97812">
        <ele>136</ele>
        <time>2019-11-24T09:41:54Z</time>
      </trkpt>
      <trkpt lat="48.52433" lon="1.97811">
        <ele>136</ele>
        <time>2019-11-24T09:41:56Z</time>
      </trkpt>
      <trkpt lat="48.52428" lon="1.97809">
        <ele>136</ele>
        <time>2019-11-24T09:41:58Z</time>
      </trkpt>
      <trkpt lat="48.52424" lon="1.97808">
        <ele>136</ele>
        <time>2019-11-24T09:42:00Z</time>
      </trkpt>
      <trkpt lat="48.52419" lon="1.97807">
        <ele>136</ele>
        <time>2019-11-24T09:42:02Z</time>
      </trkpt>
      <trkpt lat="48.52411" lon="1.97804">
        <ele>140</ele>
        <time>2019-11-24T09:42:06Z</time>
      </trkpt>
      <trkpt lat="48.52406" lon="1.97802">
        <ele>140</ele>
        <time>2019-11-24T09:42:08Z</time>
      </trkpt>
      <trkpt lat="48.524" lon="1.97799">
        <ele>140</ele>
        <time>2019-11-24T09:42:10Z</time>
      </trkpt>
      <trkpt lat="48.52396" lon="1.97797">
        <ele>140</ele>
        <time>2019-11-24T09:42:12Z</time>
      </trkpt>
      <trkpt lat="48.52386" lon="1.97794">
        <ele>140</ele>
        <time>2019-11-24T09:42:16Z</time>
      </trkpt>
      <trkpt lat="48.52381" lon="1.97792">
        <ele>141</ele>
        <time>2019-11-24T09:42:18Z</time>
      </trkpt>
      <trkpt lat="48.52377" lon="1.97789">
        <ele>141</ele>
        <time>2019-11-24T09:42:20Z</time>
      </trkpt>
      <trkpt lat="48.52373" lon="1.97787">
        <ele>141</ele>
        <time>2019-11-24T09:42:22Z</time>
      </trkpt>
      <trkpt lat="48.52368" lon="1.97785">
        <ele>141</ele>
        <time>2019-11-24T09:42:24Z</time>
      </trkpt>
      <trkpt lat="48.52363" lon="1.97782">
        <ele>141</ele>
        <time>2019-11-24T09:42:26Z</time>
      </trkpt>
      <trkpt lat="48.52355" lon="1.97779">
        <ele>141</ele>
        <time>2019-11-24T09:42:30Z</time>
      </trkpt>
      <trkpt lat="48.52347" lon="1.97775">
        <ele>142</ele>
        <time>2019-11-24T09:42:34Z</time>
      </trkpt>
      <trkpt lat="48.5234" lon="1.97771">
        <ele>142</ele>
        <time>2019-11-24T09:42:38Z</time>
      </trkpt>
      <trkpt lat="48.52334" lon="1.97766">
        <ele>142</ele>
        <time>2019-11-24T09:42:42Z</time>
      </trkpt>
      <trkpt lat="48.52327" lon="1.97763">
        <ele>145</ele>
        <time>2019-11-24T09:42:46Z</time>
      </trkpt>
      <trkpt lat="48.5232" lon="1.97759">
        <ele>146</ele>
        <time>2019-11-24T09:42:50Z</time>
      </trkpt>
      <trkpt lat="48.52313" lon="1.97757">
        <ele>146</ele>
        <time>2019-11-24T09:42:54Z</time>
      </trkpt>
      <trkpt lat="48.52308" lon="1.97756">
        <ele>147</ele>
        <time>2019-11-24T09:42:56Z</time>
      </trkpt>
      <trkpt lat="48.52301" lon="1.97753">
        <ele>147</ele>
        <time>2019-11-24T09:43:00Z</time>
      </trkpt>
      <trkpt lat="48.52293" lon="1.97748">
        <ele>147</ele>
        <time>2019-11-24T09:43:04Z</time>
      </trkpt>
      <trkpt lat="48.52289" lon="1.97745">
        <ele>147</ele>
        <time>2019-11-24T09:43:06Z</time>
      </trkpt>
      <trkpt lat="48.52285" lon="1.97732">
        <ele>147</ele>
        <time>2019-11-24T09:43:10Z</time>
      </trkpt>
      <trkpt lat="48.52287" lon="1.97725">
        <ele>147</ele>
        <time>2019-11-24T09:43:12Z</time>
      </trkpt>
      <trkpt lat="48.52288" lon="1.97715">
        <ele>147</ele>
        <time>2019-11-24T09:43:14Z</time>
      </trkpt>
      <trkpt lat="48.52288" lon="1.977">
        <ele>146</ele>
        <time>2019-11-24T09:43:16Z</time>
      </trkpt>
      <trkpt lat="48.52287" lon="1.97683">
        <ele>146</ele>
        <time>2019-11-24T09:43:18Z</time>
      </trkpt>
      <trkpt lat="48.52283" lon="1.97666">
        <ele>144</ele>
        <time>2019-11-24T09:43:20Z</time>
      </trkpt>
      <trkpt lat="48.52284" lon="1.97651">
        <ele>144</ele>
        <time>2019-11-24T09:43:22Z</time>
      </trkpt>
      <trkpt lat="48.52283" lon="1.97635">
        <ele>143</ele>
        <time>2019-11-24T09:43:24Z</time>
      </trkpt>
      <trkpt lat="48.52285" lon="1.97608">
        <ele>143</ele>
        <time>2019-11-24T09:43:26Z</time>
      </trkpt>
      <trkpt lat="48.52285" lon="1.97584">
        <ele>143</ele>
        <time>2019-11-24T09:43:28Z</time>
      </trkpt>
      <trkpt lat="48.52286" lon="1.97573">
        <ele>141</ele>
        <time>2019-11-24T09:43:30Z</time>
      </trkpt>
      <trkpt lat="48.52287" lon="1.97561">
        <ele>141</ele>
        <time>2019-11-24T09:43:32Z</time>
      </trkpt>
      <trkpt lat="48.52288" lon="1.97549">
        <ele>141</ele>
        <time>2019-11-24T09:43:34Z</time>
      </trkpt>
      <trkpt lat="48.5229" lon="1.97533">
        <ele>140</ele>
        <time>2019-11-24T09:43:36Z</time>
      </trkpt>
      <trkpt lat="48.5229" lon="1.97515">
        <ele>140</ele>
        <time>2019-11-24T09:43:38Z</time>
      </trkpt>
      <trkpt lat="48.52292" lon="1.97494">
        <ele>140</ele>
        <time>2019-11-24T09:43:40Z</time>
      </trkpt>
      <trkpt lat="48.52292" lon="1.97467">
        <ele>139</ele>
        <time>2019-11-24T09:43:42Z</time>
      </trkpt>
      <trkpt lat="48.52294" lon="1.97443">
        <ele>139</ele>
        <time>2019-11-24T09:43:44Z</time>
      </trkpt>
      <trkpt lat="48.52295" lon="1.97426">
        <ele>139</ele>
        <time>2019-11-24T09:43:46Z</time>
      </trkpt>
      <trkpt lat="48.52296" lon="1.9741">
        <ele>138</ele>
        <time>2019-11-24T09:43:48Z</time>
      </trkpt>
      <trkpt lat="48.52296" lon="1.97396">
        <ele>138</ele>
        <time>2019-11-24T09:43:50Z</time>
      </trkpt>
      <trkpt lat="48.52297" lon="1.97377">
        <ele>138</ele>
        <time>2019-11-24T09:43:52Z</time>
      </trkpt>
      <trkpt lat="48.52297" lon="1.97358">
        <ele>137</ele>
        <time>2019-11-24T09:43:54Z</time>
      </trkpt>
      <trkpt lat="48.52299" lon="1.97344">
        <ele>137</ele>
        <time>2019-11-24T09:43:56Z</time>
      </trkpt>
      <trkpt lat="48.523" lon="1.97325">
        <ele>135</ele>
        <time>2019-11-24T09:43:58Z</time>
      </trkpt>
      <trkpt lat="48.523" lon="1.97311">
        <ele>135</ele>
        <time>2019-11-24T09:44:00Z</time>
      </trkpt>
      <trkpt lat="48.52302" lon="1.97296">
        <ele>135</ele>
        <time>2019-11-24T09:44:02Z</time>
      </trkpt>
      <trkpt lat="48.52302" lon="1.97277">
        <ele>135</ele>
        <time>2019-11-24T09:44:04Z</time>
      </trkpt>
      <trkpt lat="48.52305" lon="1.97253">
        <ele>134</ele>
        <time>2019-11-24T09:44:06Z</time>
      </trkpt>
      <trkpt lat="48.52307" lon="1.97228">
        <ele>134</ele>
        <time>2019-11-24T09:44:08Z</time>
      </trkpt>
      <trkpt lat="48.52309" lon="1.97202">
        <ele>134</ele>
        <time>2019-11-24T09:44:10Z</time>
      </trkpt>
      <trkpt lat="48.52309" lon="1.97181">
        <ele>134</ele>
        <time>2019-11-24T09:44:12Z</time>
      </trkpt>
      <trkpt lat="48.52309" lon="1.97166">
        <ele>134</ele>
        <time>2019-11-24T09:44:14Z</time>
      </trkpt>
      <trkpt lat="48.52311" lon="1.97154">
        <ele>135</ele>
        <time>2019-11-24T09:44:16Z</time>
      </trkpt>
      <trkpt lat="48.52315" lon="1.97143">
        <ele>135</ele>
        <time>2019-11-24T09:44:18Z</time>
      </trkpt>
      <trkpt lat="48.52322" lon="1.97139">
        <ele>135</ele>
        <time>2019-11-24T09:44:20Z</time>
      </trkpt>
      <trkpt lat="48.5233" lon="1.97138">
        <ele>135</ele>
        <time>2019-11-24T09:44:22Z</time>
      </trkpt>
      <trkpt lat="48.52339" lon="1.97138">
        <ele>133</ele>
        <time>2019-11-24T09:44:24Z</time>
      </trkpt>
      <trkpt lat="48.52349" lon="1.9714">
        <ele>132</ele>
        <time>2019-11-24T09:44:26Z</time>
      </trkpt>
      <trkpt lat="48.5236" lon="1.9714">
        <ele>132</ele>
        <time>2019-11-24T09:44:28Z</time>
      </trkpt>
      <trkpt lat="48.52371" lon="1.97144">
        <ele>132</ele>
        <time>2019-11-24T09:44:30Z</time>
      </trkpt>
      <trkpt lat="48.52383" lon="1.97144">
        <ele>132</ele>
        <time>2019-11-24T09:44:32Z</time>
      </trkpt>
      <trkpt lat="48.52396" lon="1.97144">
        <ele>132</ele>
        <time>2019-11-24T09:44:34Z</time>
      </trkpt>
      <trkpt lat="48.52408" lon="1.97146">
        <ele>131</ele>
        <time>2019-11-24T09:44:36Z</time>
      </trkpt>
      <trkpt lat="48.52418" lon="1.97148">
        <ele>131</ele>
        <time>2019-11-24T09:44:38Z</time>
      </trkpt>
      <trkpt lat="48.52428" lon="1.9715">
        <ele>131</ele>
        <time>2019-11-24T09:44:40Z</time>
      </trkpt>
      <trkpt lat="48.52437" lon="1.97151">
        <ele>131</ele>
        <time>2019-11-24T09:44:42Z</time>
      </trkpt>
      <trkpt lat="48.52445" lon="1.97154">
        <ele>131</ele>
        <time>2019-11-24T09:44:44Z</time>
      </trkpt>
      <trkpt lat="48.52453" lon="1.97153">
        <ele>131</ele>
        <time>2019-11-24T09:44:46Z</time>
      </trkpt>
      <trkpt lat="48.52461" lon="1.97153">
        <ele>131</ele>
        <time>2019-11-24T09:44:48Z</time>
      </trkpt>
      <trkpt lat="48.5247" lon="1.97152">
        <ele>131</ele>
        <time>2019-11-24T09:44:50Z</time>
      </trkpt>
      <trkpt lat="48.52478" lon="1.97153">
        <ele>131</ele>
        <time>2019-11-24T09:44:52Z</time>
      </trkpt>
      <trkpt lat="48.52487" lon="1.97158">
        <ele>131</ele>
        <time>2019-11-24T09:44:54Z</time>
      </trkpt>
      <trkpt lat="48.52495" lon="1.97157">
        <ele>131</ele>
        <time>2019-11-24T09:44:56Z</time>
      </trkpt>
      <trkpt lat="48.52505" lon="1.97159">
        <ele>130</ele>
        <time>2019-11-24T09:44:58Z</time>
      </trkpt>
      <trkpt lat="48.52514" lon="1.9716">
        <ele>130</ele>
        <time>2019-11-24T09:45:00Z</time>
      </trkpt>
      <trkpt lat="48.52524" lon="1.97163">
        <ele>130</ele>
        <time>2019-11-24T09:45:02Z</time>
      </trkpt>
      <trkpt lat="48.52535" lon="1.97164">
        <ele>131</ele>
        <time>2019-11-24T09:45:04Z</time>
      </trkpt>
      <trkpt lat="48.52546" lon="1.97166">
        <ele>130</ele>
        <time>2019-11-24T09:45:06Z</time>
      </trkpt>
      <trkpt lat="48.52556" lon="1.97167">
        <ele>129</ele>
        <time>2019-11-24T09:45:08Z</time>
      </trkpt>
      <trkpt lat="48.52566" lon="1.97168">
        <ele>129</ele>
        <time>2019-11-24T09:45:10Z</time>
      </trkpt>
      <trkpt lat="48.52577" lon="1.97168">
        <ele>129</ele>
        <time>2019-11-24T09:45:12Z</time>
      </trkpt>
      <trkpt lat="48.52586" lon="1.97169">
        <ele>129</ele>
        <time>2019-11-24T09:45:14Z</time>
      </trkpt>
      <trkpt lat="48.52595" lon="1.9717">
        <ele>128</ele>
        <time>2019-11-24T09:45:16Z</time>
      </trkpt>
      <trkpt lat="48.52604" lon="1.97171">
        <ele>127</ele>
        <time>2019-11-24T09:45:18Z</time>
      </trkpt>
      <trkpt lat="48.52611" lon="1.97175">
        <ele>126</ele>
        <time>2019-11-24T09:45:20Z</time>
      </trkpt>
      <trkpt lat="48.52616" lon="1.97176">
        <ele>125</ele>
        <time>2019-11-24T09:45:22Z</time>
      </trkpt>
      <trkpt lat="48.52619" lon="1.9717">
        <ele>125</ele>
        <time>2019-11-24T09:45:36Z</time>
      </trkpt>
      <trkpt lat="48.52623" lon="1.97168">
        <ele>125</ele>
        <time>2019-11-24T09:55:58Z</time>
      </trkpt>
      <trkpt lat="48.52626" lon="1.9716">
        <ele>126</ele>
        <time>2019-11-24T09:56:20Z</time>
      </trkpt>
      <trkpt lat="48.52623" lon="1.97153">
        <ele>126</ele>
        <time>2019-11-24T09:56:24Z</time>
      </trkpt>
      <trkpt lat="48.52619" lon="1.9715">
        <ele>127</ele>
        <time>2019-11-24T09:56:28Z</time>
      </trkpt>
      <trkpt lat="48.52613" lon="1.97147">
        <ele>127</ele>
        <time>2019-11-24T09:56:32Z</time>
      </trkpt>
      <trkpt lat="48.52608" lon="1.9714">
        <ele>127</ele>
        <time>2019-11-24T09:56:36Z</time>
      </trkpt>
      <trkpt lat="48.52603" lon="1.97134">
        <ele>127</ele>
        <time>2019-11-24T09:56:40Z</time>
      </trkpt>
      <trkpt lat="48.52596" lon="1.97126">
        <ele>127</ele>
        <time>2019-11-24T09:56:44Z</time>
      </trkpt>
      <trkpt lat="48.52589" lon="1.97121">
        <ele>127</ele>
        <time>2019-11-24T09:56:48Z</time>
      </trkpt>
      <trkpt lat="48.52582" lon="1.97117">
        <ele>130</ele>
        <time>2019-11-24T09:56:52Z</time>
      </trkpt>
      <trkpt lat="48.52574" lon="1.97116">
        <ele>130</ele>
        <time>2019-11-24T09:56:56Z</time>
      </trkpt>
      <trkpt lat="48.52566" lon="1.97114">
        <ele>130</ele>
        <time>2019-11-24T09:57:00Z</time>
      </trkpt>
      <trkpt lat="48.5256" lon="1.9711">
        <ele>130</ele>
        <time>2019-11-24T09:57:04Z</time>
      </trkpt>
      <trkpt lat="48.52553" lon="1.97107">
        <ele>130</ele>
        <time>2019-11-24T09:57:08Z</time>
      </trkpt>
      <trkpt lat="48.52546" lon="1.97104">
        <ele>131</ele>
        <time>2019-11-24T09:57:12Z</time>
      </trkpt>
      <trkpt lat="48.5254" lon="1.97099">
        <ele>131</ele>
        <time>2019-11-24T09:57:16Z</time>
      </trkpt>
      <trkpt lat="48.52536" lon="1.97096">
        <ele>131</ele>
        <time>2019-11-24T09:57:18Z</time>
      </trkpt>
      <trkpt lat="48.52529" lon="1.97091">
        <ele>132</ele>
        <time>2019-11-24T09:57:22Z</time>
      </trkpt>
      <trkpt lat="48.52523" lon="1.97085">
        <ele>132</ele>
        <time>2019-11-24T09:57:26Z</time>
      </trkpt>
      <trkpt lat="48.52518" lon="1.97082">
        <ele>132</ele>
        <time>2019-11-24T09:57:28Z</time>
      </trkpt>
      <trkpt lat="48.52514" lon="1.9708">
        <ele>133</ele>
        <time>2019-11-24T09:57:30Z</time>
      </trkpt>
      <trkpt lat="48.52508" lon="1.97076">
        <ele>133</ele>
        <time>2019-11-24T09:57:32Z</time>
      </trkpt>
      <trkpt lat="48.52502" lon="1.9707">
        <ele>133</ele>
        <time>2019-11-24T09:57:34Z</time>
      </trkpt>
      <trkpt lat="48.52494" lon="1.97064">
        <ele>134</ele>
        <time>2019-11-24T09:57:36Z</time>
      </trkpt>
      <trkpt lat="48.52489" lon="1.9706">
        <ele>134</ele>
        <time>2019-11-24T09:57:38Z</time>
      </trkpt>
      <trkpt lat="48.52483" lon="1.97056">
        <ele>134</ele>
        <time>2019-11-24T09:57:40Z</time>
      </trkpt>
      <trkpt lat="48.52476" lon="1.97051">
        <ele>134</ele>
        <time>2019-11-24T09:57:42Z</time>
      </trkpt>
      <trkpt lat="48.5247" lon="1.97047">
        <ele>134</ele>
        <time>2019-11-24T09:57:44Z</time>
      </trkpt>
      <trkpt lat="48.52463" lon="1.97043">
        <ele>134</ele>
        <time>2019-11-24T09:57:46Z</time>
      </trkpt>
      <trkpt lat="48.52457" lon="1.9704">
        <ele>134</ele>
        <time>2019-11-24T09:57:48Z</time>
      </trkpt>
      <trkpt lat="48.52451" lon="1.97038">
        <ele>134</ele>
        <time>2019-11-24T09:57:50Z</time>
      </trkpt>
      <trkpt lat="48.52444" lon="1.97036">
        <ele>134</ele>
        <time>2019-11-24T09:57:52Z</time>
      </trkpt>
      <trkpt lat="48.52438" lon="1.97034">
        <ele>134</ele>
        <time>2019-11-24T09:57:54Z</time>
      </trkpt>
      <trkpt lat="48.52432" lon="1.97032">
        <ele>135</ele>
        <time>2019-11-24T09:57:56Z</time>
      </trkpt>
      <trkpt lat="48.52426" lon="1.97031">
        <ele>135</ele>
        <time>2019-11-24T09:57:58Z</time>
      </trkpt>
      <trkpt lat="48.5242" lon="1.97031">
        <ele>135</ele>
        <time>2019-11-24T09:58:00Z</time>
      </trkpt>
      <trkpt lat="48.52415" lon="1.9703">
        <ele>137</ele>
        <time>2019-11-24T09:58:02Z</time>
      </trkpt>
      <trkpt lat="48.52407" lon="1.97029">
        <ele>137</ele>
        <time>2019-11-24T09:58:04Z</time>
      </trkpt>
      <trkpt lat="48.52402" lon="1.97026">
        <ele>137</ele>
        <time>2019-11-24T09:58:06Z</time>
      </trkpt>
      <trkpt lat="48.52398" lon="1.97026">
        <ele>137</ele>
        <time>2019-11-24T09:58:08Z</time>
      </trkpt>
      <trkpt lat="48.52392" lon="1.97024">
        <ele>137</ele>
        <time>2019-11-24T09:58:10Z</time>
      </trkpt>
      <trkpt lat="48.52387" lon="1.97022">
        <ele>137</ele>
        <time>2019-11-24T09:58:12Z</time>
      </trkpt>
      <trkpt lat="48.52381" lon="1.9702">
        <ele>138</ele>
        <time>2019-11-24T09:58:14Z</time>
      </trkpt>
      <trkpt lat="48.52374" lon="1.97018">
        <ele>138</ele>
        <time>2019-11-24T09:58:16Z</time>
      </trkpt>
      <trkpt lat="48.52368" lon="1.97015">
        <ele>138</ele>
        <time>2019-11-24T09:58:18Z</time>
      </trkpt>
      <trkpt lat="48.52359" lon="1.97011">
        <ele>139</ele>
        <time>2019-11-24T09:58:22Z</time>
      </trkpt>
      <trkpt lat="48.52352" lon="1.97009">
        <ele>140</ele>
        <time>2019-11-24T09:58:26Z</time>
      </trkpt>
      <trkpt lat="48.52342" lon="1.97008">
        <ele>141</ele>
        <time>2019-11-24T09:58:30Z</time>
      </trkpt>
      <trkpt lat="48.52338" lon="1.97008">
        <ele>142</ele>
        <time>2019-11-24T09:58:32Z</time>
      </trkpt>
      <trkpt lat="48.5233" lon="1.97009">
        <ele>143</ele>
        <time>2019-11-24T09:58:36Z</time>
      </trkpt>
      <trkpt lat="48.52322" lon="1.97013">
        <ele>142</ele>
        <time>2019-11-24T09:58:40Z</time>
      </trkpt>
      <trkpt lat="48.52313" lon="1.97012">
        <ele>142</ele>
        <time>2019-11-24T09:58:44Z</time>
      </trkpt>
      <trkpt lat="48.52305" lon="1.97005">
        <ele>142</ele>
        <time>2019-11-24T09:58:48Z</time>
      </trkpt>
      <trkpt lat="48.52298" lon="1.96998">
        <ele>146</ele>
        <time>2019-11-24T09:58:52Z</time>
      </trkpt>
      <trkpt lat="48.52294" lon="1.96994">
        <ele>146</ele>
        <time>2019-11-24T09:58:54Z</time>
      </trkpt>
      <trkpt lat="48.52288" lon="1.96986">
        <ele>146</ele>
        <time>2019-11-24T09:58:58Z</time>
      </trkpt>
      <trkpt lat="48.52282" lon="1.96976">
        <ele>146</ele>
        <time>2019-11-24T09:59:02Z</time>
      </trkpt>
      <trkpt lat="48.52278" lon="1.96964">
        <ele>146</ele>
        <time>2019-11-24T09:59:06Z</time>
      </trkpt>
      <trkpt lat="48.52276" lon="1.96957">
        <ele>146</ele>
        <time>2019-11-24T09:59:08Z</time>
      </trkpt>
      <trkpt lat="48.52276" lon="1.96943">
        <ele>147</ele>
        <time>2019-11-24T09:59:12Z</time>
      </trkpt>
      <trkpt lat="48.52276" lon="1.96935">
        <ele>147</ele>
        <time>2019-11-24T09:59:14Z</time>
      </trkpt>
      <trkpt lat="48.52278" lon="1.96924">
        <ele>147</ele>
        <time>2019-11-24T09:59:18Z</time>
      </trkpt>
      <trkpt lat="48.5228" lon="1.96914">
        <ele>149</ele>
        <time>2019-11-24T09:59:22Z</time>
      </trkpt>
      <trkpt lat="48.52281" lon="1.96904">
        <ele>149</ele>
        <time>2019-11-24T09:59:26Z</time>
      </trkpt>
      <trkpt lat="48.52282" lon="1.96894">
        <ele>149</ele>
        <time>2019-11-24T09:59:30Z</time>
      </trkpt>
      <trkpt lat="48.52281" lon="1.96884">
        <ele>149</ele>
        <time>2019-11-24T09:59:34Z</time>
      </trkpt>
      <trkpt lat="48.52277" lon="1.96873">
        <ele>150</ele>
        <time>2019-11-24T09:59:38Z</time>
      </trkpt>
      <trkpt lat="48.52273" lon="1.96864">
        <ele>150</ele>
        <time>2019-11-24T09:59:42Z</time>
      </trkpt>
      <trkpt lat="48.5227" lon="1.96855">
        <ele>151</ele>
        <time>2019-11-24T09:59:46Z</time>
      </trkpt>
      <trkpt lat="48.52267" lon="1.96845">
        <ele>152</ele>
        <time>2019-11-24T09:59:50Z</time>
      </trkpt>
      <trkpt lat="48.52265" lon="1.96835">
        <ele>152</ele>
        <time>2019-11-24T09:59:54Z</time>
      </trkpt>
      <trkpt lat="48.52263" lon="1.96826">
        <ele>154</ele>
        <time>2019-11-24T09:59:58Z</time>
      </trkpt>
      <trkpt lat="48.52259" lon="1.96819">
        <ele>154</ele>
        <time>2019-11-24T10:00:02Z</time>
      </trkpt>
      <trkpt lat="48.52256" lon="1.96813">
        <ele>154</ele>
        <time>2019-11-24T10:00:06Z</time>
      </trkpt>
      <trkpt lat="48.52249" lon="1.96805">
        <ele>159</ele>
        <time>2019-11-24T10:00:10Z</time>
      </trkpt>
      <trkpt lat="48.52244" lon="1.96798">
        <ele>159</ele>
        <time>2019-11-24T10:00:14Z</time>
      </trkpt>
      <trkpt lat="48.52238" lon="1.96792">
        <ele>160</ele>
        <time>2019-11-24T10:00:18Z</time>
      </trkpt>
      <trkpt lat="48.52234" lon="1.9679">
        <ele>160</ele>
        <time>2019-11-24T10:00:20Z</time>
      </trkpt>
      <trkpt lat="48.52227" lon="1.96781">
        <ele>161</ele>
        <time>2019-11-24T10:00:24Z</time>
      </trkpt>
      <trkpt lat="48.52223" lon="1.96777">
        <ele>161</ele>
        <time>2019-11-24T10:00:26Z</time>
      </trkpt>
      <trkpt lat="48.52218" lon="1.96774">
        <ele>161</ele>
        <time>2019-11-24T10:00:28Z</time>
      </trkpt>
      <trkpt lat="48.52215" lon="1.96769">
        <ele>161</ele>
        <time>2019-11-24T10:00:30Z</time>
      </trkpt>
      <trkpt lat="48.5221" lon="1.96765">
        <ele>161</ele>
        <time>2019-11-24T10:00:32Z</time>
      </trkpt>
      <trkpt lat="48.52206" lon="1.9676">
        <ele>162</ele>
        <time>2019-11-24T10:00:34Z</time>
      </trkpt>
      <trkpt lat="48.52202" lon="1.96756">
        <ele>162</ele>
        <time>2019-11-24T10:00:36Z</time>
      </trkpt>
      <trkpt lat="48.52198" lon="1.9675">
        <ele>162</ele>
        <time>2019-11-24T10:00:38Z</time>
      </trkpt>
      <trkpt lat="48.5219" lon="1.96742">
        <ele>164</ele>
        <time>2019-11-24T10:00:42Z</time>
      </trkpt>
      <trkpt lat="48.52183" lon="1.9674">
        <ele>164</ele>
        <time>2019-11-24T10:00:44Z</time>
      </trkpt>
      <trkpt lat="48.52177" lon="1.96736">
        <ele>164</ele>
        <time>2019-11-24T10:00:46Z</time>
      </trkpt>
      <trkpt lat="48.52173" lon="1.96732">
        <ele>164</ele>
        <time>2019-11-24T10:00:48Z</time>
      </trkpt>
      <trkpt lat="48.52168" lon="1.96727">
        <ele>164</ele>
        <time>2019-11-24T10:00:50Z</time>
      </trkpt>
      <trkpt lat="48.52164" lon="1.96723">
        <ele>165</ele>
        <time>2019-11-24T10:00:52Z</time>
      </trkpt>
      <trkpt lat="48.52159" lon="1.96718">
        <ele>165</ele>
        <time>2019-11-24T10:00:54Z</time>
      </trkpt>
      <trkpt lat="48.52155" lon="1.96713">
        <ele>165</ele>
        <time>2019-11-24T10:00:56Z</time>
      </trkpt>
      <trkpt lat="48.52151" lon="1.96709">
        <ele>165</ele>
        <time>2019-11-24T10:00:58Z</time>
      </trkpt>
      <trkpt lat="48.52147" lon="1.96703">
        <ele>165</ele>
        <time>2019-11-24T10:01:00Z</time>
      </trkpt>
      <trkpt lat="48.52141" lon="1.96701">
        <ele>165</ele>
        <time>2019-11-24T10:01:02Z</time>
      </trkpt>
      <trkpt lat="48.52134" lon="1.96693">
        <ele>164</ele>
        <time>2019-11-24T10:01:06Z</time>
      </trkpt>
      <trkpt lat="48.52126" lon="1.96688">
        <ele>164</ele>
        <time>2019-11-24T10:01:10Z</time>
      </trkpt>
      <trkpt lat="48.52118" lon="1.96681">
        <ele>164</ele>
        <time>2019-11-24T10:01:14Z</time>
      </trkpt>
      <trkpt lat="48.52109" lon="1.96677">
        <ele>164</ele>
        <time>2019-11-24T10:01:18Z</time>
      </trkpt>
      <trkpt lat="48.52105" lon="1.96674">
        <ele>164</ele>
        <time>2019-11-24T10:01:20Z</time>
      </trkpt>
      <trkpt lat="48.521" lon="1.96671">
        <ele>164</ele>
        <time>2019-11-24T10:01:22Z</time>
      </trkpt>
      <trkpt lat="48.52096" lon="1.96668">
        <ele>164</ele>
        <time>2019-11-24T10:01:24Z</time>
      </trkpt>
      <trkpt lat="48.5209" lon="1.96666">
        <ele>163</ele>
        <time>2019-11-24T10:01:26Z</time>
      </trkpt>
      <trkpt lat="48.52086" lon="1.96663">
        <ele>163</ele>
        <time>2019-11-24T10:01:28Z</time>
      </trkpt>
      <trkpt lat="48.52082" lon="1.96652">
        <ele>163</ele>
        <time>2019-11-24T10:01:32Z</time>
      </trkpt>
      <trkpt lat="48.52084" lon="1.96641">
        <ele>164</ele>
        <time>2019-11-24T10:01:36Z</time>
      </trkpt>
      <trkpt lat="48.52087" lon="1.96631">
        <ele>164</ele>
        <time>2019-11-24T10:01:40Z</time>
      </trkpt>
      <trkpt lat="48.5209" lon="1.96625">
        <ele>164</ele>
        <time>2019-11-24T10:01:42Z</time>
      </trkpt>
      <trkpt lat="48.52093" lon="1.9662">
        <ele>164</ele>
        <time>2019-11-24T10:01:44Z</time>
      </trkpt>
      <trkpt lat="48.52095" lon="1.96613">
        <ele>164</ele>
        <time>2019-11-24T10:01:46Z</time>
      </trkpt>
      <trkpt lat="48.52096" lon="1.96605">
        <ele>164</ele>
        <time>2019-11-24T10:01:48Z</time>
      </trkpt>
      <trkpt lat="48.52097" lon="1.96597">
        <ele>164</ele>
        <time>2019-11-24T10:01:50Z</time>
      </trkpt>
      <trkpt lat="48.52099" lon="1.9659">
        <ele>164</ele>
        <time>2019-11-24T10:01:52Z</time>
      </trkpt>
      <trkpt lat="48.52101" lon="1.96582">
        <ele>164</ele>
        <time>2019-11-24T10:01:54Z</time>
      </trkpt>
      <trkpt lat="48.52104" lon="1.96575">
        <ele>164</ele>
        <time>2019-11-24T10:01:56Z</time>
      </trkpt>
      <trkpt lat="48.52108" lon="1.9657">
        <ele>165</ele>
        <time>2019-11-24T10:01:58Z</time>
      </trkpt>
      <trkpt lat="48.52111" lon="1.96563">
        <ele>165</ele>
        <time>2019-11-24T10:02:00Z</time>
      </trkpt>
      <trkpt lat="48.52114" lon="1.96556">
        <ele>165</ele>
        <time>2019-11-24T10:02:02Z</time>
      </trkpt>
      <trkpt lat="48.52117" lon="1.96547">
        <ele>165</ele>
        <time>2019-11-24T10:02:04Z</time>
      </trkpt>
      <trkpt lat="48.52117" lon="1.9654">
        <ele>165</ele>
        <time>2019-11-24T10:02:06Z</time>
      </trkpt>
      <trkpt lat="48.5212" lon="1.96533">
        <ele>165</ele>
        <time>2019-11-24T10:02:08Z</time>
      </trkpt>
      <trkpt lat="48.52124" lon="1.96521">
        <ele>165</ele>
        <time>2019-11-24T10:02:12Z</time>
      </trkpt>
      <trkpt lat="48.52127" lon="1.96514">
        <ele>165</ele>
        <time>2019-11-24T10:02:14Z</time>
      </trkpt>
      <trkpt lat="48.52131" lon="1.96506">
        <ele>165</ele>
        <time>2019-11-24T10:02:16Z</time>
      </trkpt>
      <trkpt lat="48.52133" lon="1.96499">
        <ele>165</ele>
        <time>2019-11-24T10:02:18Z</time>
      </trkpt>
      <trkpt lat="48.52136" lon="1.96493">
        <ele>165</ele>
        <time>2019-11-24T10:02:20Z</time>
      </trkpt>
      <trkpt lat="48.52138" lon="1.96486">
        <ele>165</ele>
        <time>2019-11-24T10:02:22Z</time>
      </trkpt>
      <trkpt lat="48.5214" lon="1.96479">
        <ele>165</ele>
        <time>2019-11-24T10:02:24Z</time>
      </trkpt>
      <trkpt lat="48.52142" lon="1.96473">
        <ele>165</ele>
        <time>2019-11-24T10:02:26Z</time>
      </trkpt>
      <trkpt lat="48.52145" lon="1.96467">
        <ele>165</ele>
        <time>2019-11-24T10:02:28Z</time>
      </trkpt>
      <trkpt lat="48.52149" lon="1.96456">
        <ele>166</ele>
        <time>2019-11-24T10:02:32Z</time>
      </trkpt>
      <trkpt lat="48.52152" lon="1.9645">
        <ele>166</ele>
        <time>2019-11-24T10:02:34Z</time>
      </trkpt>
      <trkpt lat="48.52155" lon="1.96444">
        <ele>166</ele>
        <time>2019-11-24T10:02:36Z</time>
      </trkpt>
      <trkpt lat="48.52159" lon="1.96439">
        <ele>166</ele>
        <time>2019-11-24T10:02:38Z</time>
      </trkpt>
      <trkpt lat="48.52163" lon="1.96434">
        <ele>166</ele>
        <time>2019-11-24T10:02:40Z</time>
      </trkpt>
      <trkpt lat="48.52169" lon="1.96426">
        <ele>165</ele>
        <time>2019-11-24T10:02:44Z</time>
      </trkpt>
      <trkpt lat="48.52178" lon="1.96419">
        <ele>165</ele>
        <time>2019-11-24T10:02:48Z</time>
      </trkpt>
      <trkpt lat="48.52186" lon="1.9641">
        <ele>165</ele>
        <time>2019-11-24T10:02:52Z</time>
      </trkpt>
      <trkpt lat="48.5219" lon="1.96405">
        <ele>165</ele>
        <time>2019-11-24T10:02:54Z</time>
      </trkpt>
      <trkpt lat="48.52194" lon="1.96402">
        <ele>165</ele>
        <time>2019-11-24T10:02:56Z</time>
      </trkpt>
      <trkpt lat="48.52201" lon="1.96395">
        <ele>165</ele>
        <time>2019-11-24T10:03:00Z</time>
      </trkpt>
      <trkpt lat="48.52208" lon="1.96389">
        <ele>165</ele>
        <time>2019-11-24T10:03:04Z</time>
      </trkpt>
      <trkpt lat="48.52212" lon="1.96386">
        <ele>165</ele>
        <time>2019-11-24T10:03:06Z</time>
      </trkpt>
      <trkpt lat="48.52217" lon="1.96382">
        <ele>165</ele>
        <time>2019-11-24T10:03:08Z</time>
      </trkpt>
      <trkpt lat="48.52221" lon="1.96378">
        <ele>165</ele>
        <time>2019-11-24T10:03:10Z</time>
      </trkpt>
      <trkpt lat="48.52229" lon="1.96372">
        <ele>165</ele>
        <time>2019-11-24T10:03:14Z</time>
      </trkpt>
      <trkpt lat="48.52234" lon="1.96366">
        <ele>165</ele>
        <time>2019-11-24T10:03:18Z</time>
      </trkpt>
      <trkpt lat="48.52239" lon="1.96363">
        <ele>165</ele>
        <time>2019-11-24T10:03:20Z</time>
      </trkpt>
      <trkpt lat="48.52244" lon="1.96354">
        <ele>165</ele>
        <time>2019-11-24T10:03:24Z</time>
      </trkpt>
      <trkpt lat="48.52251" lon="1.96346">
        <ele>164</ele>
        <time>2019-11-24T10:03:28Z</time>
      </trkpt>
      <trkpt lat="48.52257" lon="1.96341">
        <ele>164</ele>
        <time>2019-11-24T10:03:32Z</time>
      </trkpt>
      <trkpt lat="48.52262" lon="1.96337">
        <ele>164</ele>
        <time>2019-11-24T10:03:34Z</time>
      </trkpt>
      <trkpt lat="48.52267" lon="1.96333">
        <ele>165</ele>
        <time>2019-11-24T10:03:36Z</time>
      </trkpt>
      <trkpt lat="48.52274" lon="1.96328">
        <ele>164</ele>
        <time>2019-11-24T10:03:38Z</time>
      </trkpt>
      <trkpt lat="48.5228" lon="1.96321">
        <ele>164</ele>
        <time>2019-11-24T10:03:40Z</time>
      </trkpt>
      <trkpt lat="48.52286" lon="1.96316">
        <ele>164</ele>
        <time>2019-11-24T10:03:42Z</time>
      </trkpt>
      <trkpt lat="48.52293" lon="1.9631">
        <ele>164</ele>
        <time>2019-11-24T10:03:44Z</time>
      </trkpt>
      <trkpt lat="48.52298" lon="1.96306">
        <ele>164</ele>
        <time>2019-11-24T10:03:46Z</time>
      </trkpt>
      <trkpt lat="48.52305" lon="1.96299">
        <ele>164</ele>
        <time>2019-11-24T10:03:48Z</time>
      </trkpt>
      <trkpt lat="48.5231" lon="1.96293">
        <ele>164</ele>
        <time>2019-11-24T10:03:50Z</time>
      </trkpt>
      <trkpt lat="48.52316" lon="1.96289">
        <ele>164</ele>
        <time>2019-11-24T10:03:52Z</time>
      </trkpt>
      <trkpt lat="48.52322" lon="1.96284">
        <ele>164</ele>
        <time>2019-11-24T10:03:54Z</time>
      </trkpt>
      <trkpt lat="48.52328" lon="1.96278">
        <ele>164</ele>
        <time>2019-11-24T10:03:56Z</time>
      </trkpt>
      <trkpt lat="48.52335" lon="1.96272">
        <ele>162</ele>
        <time>2019-11-24T10:03:58Z</time>
      </trkpt>
      <trkpt lat="48.52342" lon="1.96266">
        <ele>162</ele>
        <time>2019-11-24T10:04:00Z</time>
      </trkpt>
      <trkpt lat="48.52349" lon="1.96259">
        <ele>162</ele>
        <time>2019-11-24T10:04:02Z</time>
      </trkpt>
      <trkpt lat="48.52356" lon="1.96253">
        <ele>161</ele>
        <time>2019-11-24T10:04:04Z</time>
      </trkpt>
      <trkpt lat="48.52363" lon="1.96247">
        <ele>160</ele>
        <time>2019-11-24T10:04:06Z</time>
      </trkpt>
      <trkpt lat="48.52369" lon="1.96239">
        <ele>160</ele>
        <time>2019-11-24T10:04:08Z</time>
      </trkpt>
      <trkpt lat="48.52374" lon="1.96234">
        <ele>159</ele>
        <time>2019-11-24T10:04:10Z</time>
      </trkpt>
      <trkpt lat="48.52377" lon="1.96225">
        <ele>159</ele>
        <time>2019-11-24T10:04:14Z</time>
      </trkpt>
      <trkpt lat="48.5237" lon="1.96219">
        <ele>159</ele>
        <time>2019-11-24T10:04:18Z</time>
      </trkpt>
      <trkpt lat="48.52363" lon="1.96213">
        <ele>159</ele>
        <time>2019-11-24T10:04:22Z</time>
      </trkpt>
      <trkpt lat="48.52367" lon="1.96207">
        <ele>159</ele>
        <time>2019-11-24T10:04:24Z</time>
      </trkpt>
      <trkpt lat="48.52369" lon="1.96201">
        <ele>159</ele>
        <time>2019-11-24T10:04:26Z</time>
      </trkpt>
      <trkpt lat="48.52373" lon="1.96194">
        <ele>159</ele>
        <time>2019-11-24T10:04:28Z</time>
      </trkpt>
      <trkpt lat="48.52375" lon="1.96188">
        <ele>159</ele>
        <time>2019-11-24T10:04:30Z</time>
      </trkpt>
      <trkpt lat="48.52375" lon="1.9618">
        <ele>159</ele>
        <time>2019-11-24T10:04:32Z</time>
      </trkpt>
      <trkpt lat="48.52373" lon="1.9617">
        <ele>159</ele>
        <time>2019-11-24T10:04:36Z</time>
      </trkpt>
      <trkpt lat="48.5238" lon="1.96167">
        <ele>158</ele>
        <time>2019-11-24T10:04:40Z</time>
      </trkpt>
      <trkpt lat="48.52386" lon="1.96159">
        <ele>156</ele>
        <time>2019-11-24T10:04:42Z</time>
      </trkpt>
      <trkpt lat="48.52394" lon="1.96156">
        <ele>155</ele>
        <time>2019-11-24T10:04:44Z</time>
      </trkpt>
      <trkpt lat="48.52405" lon="1.96159">
        <ele>155</ele>
        <time>2019-11-24T10:04:46Z</time>
      </trkpt>
      <trkpt lat="48.52417" lon="1.96165">
        <ele>153</ele>
        <time>2019-11-24T10:04:48Z</time>
      </trkpt>
      <trkpt lat="48.52428" lon="1.96167">
        <ele>152</ele>
        <time>2019-11-24T10:04:50Z</time>
      </trkpt>
      <trkpt lat="48.52437" lon="1.96165">
        <ele>149</ele>
        <time>2019-11-24T10:04:52Z</time>
      </trkpt>
      <trkpt lat="48.52443" lon="1.96165">
        <ele>148</ele>
        <time>2019-11-24T10:04:54Z</time>
      </trkpt>
      <trkpt lat="48.52451" lon="1.96166">
        <ele>146</ele>
        <time>2019-11-24T10:04:56Z</time>
      </trkpt>
      <trkpt lat="48.5246" lon="1.96163">
        <ele>145</ele>
        <time>2019-11-24T10:04:58Z</time>
      </trkpt>
      <trkpt lat="48.52468" lon="1.96157">
        <ele>144</ele>
        <time>2019-11-24T10:05:00Z</time>
      </trkpt>
      <trkpt lat="48.52471" lon="1.96145">
        <ele>144</ele>
        <time>2019-11-24T10:05:02Z</time>
      </trkpt>
      <trkpt lat="48.5248" lon="1.9613">
        <ele>143</ele>
        <time>2019-11-24T10:05:04Z</time>
      </trkpt>
      <trkpt lat="48.52486" lon="1.96117">
        <ele>142</ele>
        <time>2019-11-24T10:05:06Z</time>
      </trkpt>
      <trkpt lat="48.52491" lon="1.96102">
        <ele>140</ele>
        <time>2019-11-24T10:05:08Z</time>
      </trkpt>
      <trkpt lat="48.52492" lon="1.96086">
        <ele>137</ele>
        <time>2019-11-24T10:05:10Z</time>
      </trkpt>
      <trkpt lat="48.52494" lon="1.96069">
        <ele>136</ele>
        <time>2019-11-24T10:05:12Z</time>
      </trkpt>
      <trkpt lat="48.52502" lon="1.96054">
        <ele>130</ele>
        <time>2019-11-24T10:05:14Z</time>
      </trkpt>
      <trkpt lat="48.52506" lon="1.9604">
        <ele>129</ele>
        <time>2019-11-24T10:05:16Z</time>
      </trkpt>
      <trkpt lat="48.52511" lon="1.96026">
        <ele>129</ele>
        <time>2019-11-24T10:05:18Z</time>
      </trkpt>
      <trkpt lat="48.52513" lon="1.96009">
        <ele>128</ele>
        <time>2019-11-24T10:05:20Z</time>
      </trkpt>
      <trkpt lat="48.52521" lon="1.95991">
        <ele>125</ele>
        <time>2019-11-24T10:05:22Z</time>
      </trkpt>
      <trkpt lat="48.52528" lon="1.95972">
        <ele>124</ele>
        <time>2019-11-24T10:05:24Z</time>
      </trkpt>
      <trkpt lat="48.52535" lon="1.95953">
        <ele>124</ele>
        <time>2019-11-24T10:05:26Z</time>
      </trkpt>
      <trkpt lat="48.52541" lon="1.95935">
        <ele>123</ele>
        <time>2019-11-24T10:05:28Z</time>
      </trkpt>
      <trkpt lat="48.52549" lon="1.95925">
        <ele>122</ele>
        <time>2019-11-24T10:05:30Z</time>
      </trkpt>
      <trkpt lat="48.5256" lon="1.9592">
        <ele>121</ele>
        <time>2019-11-24T10:05:32Z</time>
      </trkpt>
      <trkpt lat="48.52571" lon="1.95911">
        <ele>119</ele>
        <time>2019-11-24T10:05:34Z</time>
      </trkpt>
      <trkpt lat="48.5258" lon="1.95903">
        <ele>119</ele>
        <time>2019-11-24T10:05:36Z</time>
      </trkpt>
      <trkpt lat="48.52588" lon="1.95901">
        <ele>117</ele>
        <time>2019-11-24T10:05:38Z</time>
      </trkpt>
      <trkpt lat="48.52593" lon="1.95908">
        <ele>117</ele>
        <time>2019-11-24T10:05:40Z</time>
      </trkpt>
      <trkpt lat="48.52593" lon="1.95916">
        <ele>117</ele>
        <time>2019-11-24T10:05:42Z</time>
      </trkpt>
      <trkpt lat="48.52594" lon="1.95923">
        <ele>118</ele>
        <time>2019-11-24T10:05:44Z</time>
      </trkpt>
      <trkpt lat="48.52597" lon="1.95936">
        <ele>119</ele>
        <time>2019-11-24T10:05:48Z</time>
      </trkpt>
      <trkpt lat="48.52601" lon="1.95948">
        <ele>119</ele>
        <time>2019-11-24T10:05:52Z</time>
      </trkpt>
      <trkpt lat="48.52604" lon="1.95956">
        <ele>119</ele>
        <time>2019-11-24T10:05:54Z</time>
      </trkpt>
      <trkpt lat="48.52607" lon="1.95962">
        <ele>119</ele>
        <time>2019-11-24T10:05:56Z</time>
      </trkpt>
      <trkpt lat="48.52609" lon="1.95969">
        <ele>120</ele>
        <time>2019-11-24T10:05:58Z</time>
      </trkpt>
      <trkpt lat="48.52611" lon="1.95974">
        <ele>120</ele>
        <time>2019-11-24T10:06:00Z</time>
      </trkpt>
      <trkpt lat="48.52615" lon="1.95982">
        <ele>120</ele>
        <time>2019-11-24T10:06:02Z</time>
      </trkpt>
      <trkpt lat="48.5262" lon="1.9599">
        <ele>120</ele>
        <time>2019-11-24T10:06:04Z</time>
      </trkpt>
      <trkpt lat="48.52625" lon="1.96">
        <ele>122</ele>
        <time>2019-11-24T10:06:06Z</time>
      </trkpt>
      <trkpt lat="48.52628" lon="1.96013">
        <ele>122</ele>
        <time>2019-11-24T10:06:08Z</time>
      </trkpt>
      <trkpt lat="48.52631" lon="1.96021">
        <ele>122</ele>
        <time>2019-11-24T10:06:10Z</time>
      </trkpt>
      <trkpt lat="48.52636" lon="1.96033">
        <ele>122</ele>
        <time>2019-11-24T10:06:12Z</time>
      </trkpt>
      <trkpt lat="48.5264" lon="1.96044">
        <ele>123</ele>
        <time>2019-11-24T10:06:14Z</time>
      </trkpt>
      <trkpt lat="48.52645" lon="1.96053">
        <ele>123</ele>
        <time>2019-11-24T10:06:16Z</time>
      </trkpt>
      <trkpt lat="48.5265" lon="1.9605">
        <ele>122</ele>
        <time>2019-11-24T10:06:22Z</time>
      </trkpt>
      <trkpt lat="48.52653" lon="1.96046">
        <ele>122</ele>
        <time>2019-11-24T10:06:24Z</time>
      </trkpt>
      <trkpt lat="48.52658" lon="1.96037">
        <ele>122</ele>
        <time>2019-11-24T10:06:26Z</time>
      </trkpt>
      <trkpt lat="48.52667" lon="1.96026">
        <ele>121</ele>
        <time>2019-11-24T10:06:28Z</time>
      </trkpt>
      <trkpt lat="48.52678" lon="1.96012">
        <ele>118</ele>
        <time>2019-11-24T10:06:30Z</time>
      </trkpt>
      <trkpt lat="48.52689" lon="1.95998">
        <ele>116</ele>
        <time>2019-11-24T10:06:32Z</time>
      </trkpt>
      <trkpt lat="48.52699" lon="1.95985">
        <ele>116</ele>
        <time>2019-11-24T10:06:34Z</time>
      </trkpt>
      <trkpt lat="48.52709" lon="1.95973">
        <ele>115</ele>
        <time>2019-11-24T10:06:36Z</time>
      </trkpt>
      <trkpt lat="48.52715" lon="1.95963">
        <ele>115</ele>
        <time>2019-11-24T10:06:38Z</time>
      </trkpt>
      <trkpt lat="48.52718" lon="1.95958">
        <ele>115</ele>
        <time>2019-11-24T10:06:56Z</time>
      </trkpt>
      <trkpt lat="48.52724" lon="1.95951">
        <ele>115</ele>
        <time>2019-11-24T10:07:02Z</time>
      </trkpt>
      <trkpt lat="48.5273" lon="1.95945">
        <ele>115</ele>
        <time>2019-11-24T10:07:06Z</time>
      </trkpt>
      <trkpt lat="48.52736" lon="1.95938">
        <ele>114</ele>
        <time>2019-11-24T10:07:10Z</time>
      </trkpt>
      <trkpt lat="48.5274" lon="1.95933">
        <ele>114</ele>
        <time>2019-11-24T10:07:12Z</time>
      </trkpt>
      <trkpt lat="48.52744" lon="1.95926">
        <ele>114</ele>
        <time>2019-11-24T10:07:14Z</time>
      </trkpt>
      <trkpt lat="48.5275" lon="1.9592">
        <ele>113</ele>
        <time>2019-11-24T10:07:16Z</time>
      </trkpt>
      <trkpt lat="48.52755" lon="1.95914">
        <ele>113</ele>
        <time>2019-11-24T10:07:18Z</time>
      </trkpt>
      <trkpt lat="48.52761" lon="1.95908">
        <ele>113</ele>
        <time>2019-11-24T10:07:20Z</time>
      </trkpt>
      <trkpt lat="48.52766" lon="1.95902">
        <ele>112</ele>
        <time>2019-11-24T10:07:22Z</time>
      </trkpt>
      <trkpt lat="48.5277" lon="1.95898">
        <ele>112</ele>
        <time>2019-11-24T10:07:24Z</time>
      </trkpt>
      <trkpt lat="48.52776" lon="1.95893">
        <ele>112</ele>
        <time>2019-11-24T10:07:26Z</time>
      </trkpt>
      <trkpt lat="48.52782" lon="1.95889">
        <ele>112</ele>
        <time>2019-11-24T10:07:28Z</time>
      </trkpt>
      <trkpt lat="48.52788" lon="1.95886">
        <ele>112</ele>
        <time>2019-11-24T10:07:30Z</time>
      </trkpt>
      <trkpt lat="48.52793" lon="1.95881">
        <ele>112</ele>
        <time>2019-11-24T10:07:32Z</time>
      </trkpt>
      <trkpt lat="48.52798" lon="1.95877">
        <ele>112</ele>
        <time>2019-11-24T10:07:34Z</time>
      </trkpt>
      <trkpt lat="48.52802" lon="1.95872">
        <ele>112</ele>
        <time>2019-11-24T10:07:36Z</time>
      </trkpt>
      <trkpt lat="48.5281" lon="1.95864">
        <ele>112</ele>
        <time>2019-11-24T10:07:40Z</time>
      </trkpt>
      <trkpt lat="48.52814" lon="1.95856">
        <ele>113</ele>
        <time>2019-11-24T10:07:42Z</time>
      </trkpt>
      <trkpt lat="48.52816" lon="1.95849">
        <ele>113</ele>
        <time>2019-11-24T10:07:44Z</time>
      </trkpt>
      <trkpt lat="48.52815" lon="1.95842">
        <ele>113</ele>
        <time>2019-11-24T10:07:46Z</time>
      </trkpt>
      <trkpt lat="48.52813" lon="1.95836">
        <ele>113</ele>
        <time>2019-11-24T10:07:48Z</time>
      </trkpt>
      <trkpt lat="48.52811" lon="1.9583">
        <ele>113</ele>
        <time>2019-11-24T10:07:50Z</time>
      </trkpt>
      <trkpt lat="48.52809" lon="1.95823">
        <ele>113</ele>
        <time>2019-11-24T10:07:52Z</time>
      </trkpt>
      <trkpt lat="48.52808" lon="1.95816">
        <ele>113</ele>
        <time>2019-11-24T10:07:54Z</time>
      </trkpt>
      <trkpt lat="48.52806" lon="1.9581">
        <ele>112</ele>
        <time>2019-11-24T10:07:56Z</time>
      </trkpt>
      <trkpt lat="48.52804" lon="1.95802">
        <ele>112</ele>
        <time>2019-11-24T10:07:58Z</time>
      </trkpt>
      <trkpt lat="48.52803" lon="1.95794">
        <ele>112</ele>
        <time>2019-11-24T10:08:00Z</time>
      </trkpt>
      <trkpt lat="48.52801" lon="1.95786">
        <ele>112</ele>
        <time>2019-11-24T10:08:02Z</time>
      </trkpt>
      <trkpt lat="48.52799" lon="1.95778">
        <ele>112</ele>
        <time>2019-11-24T10:08:04Z</time>
      </trkpt>
      <trkpt lat="48.52797" lon="1.9577">
        <ele>112</ele>
        <time>2019-11-24T10:08:06Z</time>
      </trkpt>
      <trkpt lat="48.52795" lon="1.9576">
        <ele>112</ele>
        <time>2019-11-24T10:08:08Z</time>
      </trkpt>
      <trkpt lat="48.52793" lon="1.9575">
        <ele>112</ele>
        <time>2019-11-24T10:08:10Z</time>
      </trkpt>
      <trkpt lat="48.52791" lon="1.9574">
        <ele>112</ele>
        <time>2019-11-24T10:08:12Z</time>
      </trkpt>
      <trkpt lat="48.52788" lon="1.9573">
        <ele>112</ele>
        <time>2019-11-24T10:08:14Z</time>
      </trkpt>
      <trkpt lat="48.52785" lon="1.95721">
        <ele>112</ele>
        <time>2019-11-24T10:08:16Z</time>
      </trkpt>
      <trkpt lat="48.52782" lon="1.95711">
        <ele>112</ele>
        <time>2019-11-24T10:08:18Z</time>
      </trkpt>
      <trkpt lat="48.52779" lon="1.95702">
        <ele>112</ele>
        <time>2019-11-24T10:08:20Z</time>
      </trkpt>
      <trkpt lat="48.52777" lon="1.95693">
        <ele>112</ele>
        <time>2019-11-24T10:08:22Z</time>
      </trkpt>
      <trkpt lat="48.52774" lon="1.95684">
        <ele>111</ele>
        <time>2019-11-24T10:08:24Z</time>
      </trkpt>
      <trkpt lat="48.52771" lon="1.95676">
        <ele>111</ele>
        <time>2019-11-24T10:08:26Z</time>
      </trkpt>
      <trkpt lat="48.52769" lon="1.95667">
        <ele>111</ele>
        <time>2019-11-24T10:08:28Z</time>
      </trkpt>
      <trkpt lat="48.52767" lon="1.95659">
        <ele>111</ele>
        <time>2019-11-24T10:08:30Z</time>
      </trkpt>
      <trkpt lat="48.52763" lon="1.95651">
        <ele>111</ele>
        <time>2019-11-24T10:08:32Z</time>
      </trkpt>
      <trkpt lat="48.52761" lon="1.95644">
        <ele>111</ele>
        <time>2019-11-24T10:08:34Z</time>
      </trkpt>
      <trkpt lat="48.52758" lon="1.95635">
        <ele>111</ele>
        <time>2019-11-24T10:08:36Z</time>
      </trkpt>
      <trkpt lat="48.52755" lon="1.95626">
        <ele>112</ele>
        <time>2019-11-24T10:08:38Z</time>
      </trkpt>
      <trkpt lat="48.52754" lon="1.95618">
        <ele>112</ele>
        <time>2019-11-24T10:08:40Z</time>
      </trkpt>
      <trkpt lat="48.52749" lon="1.95609">
        <ele>111</ele>
        <time>2019-11-24T10:08:44Z</time>
      </trkpt>
      <trkpt lat="48.52754" lon="1.95601">
        <ele>112</ele>
        <time>2019-11-24T10:08:48Z</time>
      </trkpt>
      <trkpt lat="48.52759" lon="1.95597">
        <ele>112</ele>
        <time>2019-11-24T10:08:50Z</time>
      </trkpt>
      <trkpt lat="48.52765" lon="1.95592">
        <ele>112</ele>
        <time>2019-11-24T10:08:52Z</time>
      </trkpt>
      <trkpt lat="48.52772" lon="1.95586">
        <ele>112</ele>
        <time>2019-11-24T10:08:54Z</time>
      </trkpt>
      <trkpt lat="48.52779" lon="1.9558">
        <ele>112</ele>
        <time>2019-11-24T10:08:56Z</time>
      </trkpt>
      <trkpt lat="48.52785" lon="1.95574">
        <ele>112</ele>
        <time>2019-11-24T10:08:58Z</time>
      </trkpt>
      <trkpt lat="48.52791" lon="1.95569">
        <ele>112</ele>
        <time>2019-11-24T10:09:00Z</time>
      </trkpt>
      <trkpt lat="48.52798" lon="1.95562">
        <ele>112</ele>
        <time>2019-11-24T10:09:02Z</time>
      </trkpt>
      <trkpt lat="48.52804" lon="1.95558">
        <ele>112</ele>
        <time>2019-11-24T10:09:04Z</time>
      </trkpt>
      <trkpt lat="48.52811" lon="1.95554">
        <ele>112</ele>
        <time>2019-11-24T10:09:06Z</time>
      </trkpt>
      <trkpt lat="48.52817" lon="1.95551">
        <ele>112</ele>
        <time>2019-11-24T10:09:08Z</time>
      </trkpt>
      <trkpt lat="48.52824" lon="1.9555">
        <ele>112</ele>
        <time>2019-11-24T10:09:10Z</time>
      </trkpt>
      <trkpt lat="48.52828" lon="1.95547">
        <ele>112</ele>
        <time>2019-11-24T10:09:12Z</time>
      </trkpt>
      <trkpt lat="48.52834" lon="1.95545">
        <ele>111</ele>
        <time>2019-11-24T10:09:14Z</time>
      </trkpt>
      <trkpt lat="48.52841" lon="1.95543">
        <ele>111</ele>
        <time>2019-11-24T10:09:16Z</time>
      </trkpt>
      <trkpt lat="48.52848" lon="1.95541">
        <ele>111</ele>
        <time>2019-11-24T10:09:18Z</time>
      </trkpt>
      <trkpt lat="48.52856" lon="1.95539">
        <ele>111</ele>
        <time>2019-11-24T10:09:20Z</time>
      </trkpt>
      <trkpt lat="48.52864" lon="1.95536">
        <ele>111</ele>
        <time>2019-11-24T10:09:22Z</time>
      </trkpt>
      <trkpt lat="48.52872" lon="1.95534">
        <ele>111</ele>
        <time>2019-11-24T10:09:24Z</time>
      </trkpt>
      <trkpt lat="48.5288" lon="1.9553">
        <ele>111</ele>
        <time>2019-11-24T10:09:26Z</time>
      </trkpt>
      <trkpt lat="48.52888" lon="1.95527">
        <ele>111</ele>
        <time>2019-11-24T10:09:28Z</time>
      </trkpt>
      <trkpt lat="48.52896" lon="1.95524">
        <ele>111</ele>
        <time>2019-11-24T10:09:30Z</time>
      </trkpt>
      <trkpt lat="48.52905" lon="1.9552">
        <ele>110</ele>
        <time>2019-11-24T10:09:32Z</time>
      </trkpt>
      <trkpt lat="48.52912" lon="1.95515">
        <ele>110</ele>
        <time>2019-11-24T10:09:34Z</time>
      </trkpt>
      <trkpt lat="48.5292" lon="1.95509">
        <ele>111</ele>
        <time>2019-11-24T10:09:36Z</time>
      </trkpt>
      <trkpt lat="48.52926" lon="1.95502">
        <ele>111</ele>
        <time>2019-11-24T10:09:38Z</time>
      </trkpt>
      <trkpt lat="48.52931" lon="1.95496">
        <ele>112</ele>
        <time>2019-11-24T10:09:40Z</time>
      </trkpt>
      <trkpt lat="48.52935" lon="1.95487">
        <ele>112</ele>
        <time>2019-11-24T10:09:44Z</time>
      </trkpt>
      <trkpt lat="48.52934" lon="1.9548">
        <ele>113</ele>
        <time>2019-11-24T10:09:46Z</time>
      </trkpt>
      <trkpt lat="48.5293" lon="1.95473">
        <ele>113</ele>
        <time>2019-11-24T10:09:48Z</time>
      </trkpt>
      <trkpt lat="48.52924" lon="1.95465">
        <ele>113</ele>
        <time>2019-11-24T10:09:50Z</time>
      </trkpt>
      <trkpt lat="48.52919" lon="1.95456">
        <ele>113</ele>
        <time>2019-11-24T10:09:52Z</time>
      </trkpt>
      <trkpt lat="48.52914" lon="1.95447">
        <ele>111</ele>
        <time>2019-11-24T10:09:54Z</time>
      </trkpt>
      <trkpt lat="48.5291" lon="1.95437">
        <ele>112</ele>
        <time>2019-11-24T10:09:56Z</time>
      </trkpt>
      <trkpt lat="48.52907" lon="1.95427">
        <ele>112</ele>
        <time>2019-11-24T10:09:58Z</time>
      </trkpt>
      <trkpt lat="48.52903" lon="1.95417">
        <ele>112</ele>
        <time>2019-11-24T10:10:00Z</time>
      </trkpt>
      <trkpt lat="48.529" lon="1.95406">
        <ele>113</ele>
        <time>2019-11-24T10:10:02Z</time>
      </trkpt>
      <trkpt lat="48.52897" lon="1.95396">
        <ele>113</ele>
        <time>2019-11-24T10:10:04Z</time>
      </trkpt>
      <trkpt lat="48.52893" lon="1.95386">
        <ele>113</ele>
        <time>2019-11-24T10:10:06Z</time>
      </trkpt>
      <trkpt lat="48.5289" lon="1.95376">
        <ele>113</ele>
        <time>2019-11-24T10:10:08Z</time>
      </trkpt>
      <trkpt lat="48.52886" lon="1.95366">
        <ele>113</ele>
        <time>2019-11-24T10:10:10Z</time>
      </trkpt>
      <trkpt lat="48.52883" lon="1.95355">
        <ele>113</ele>
        <time>2019-11-24T10:10:12Z</time>
      </trkpt>
      <trkpt lat="48.52879" lon="1.95345">
        <ele>113</ele>
        <time>2019-11-24T10:10:14Z</time>
      </trkpt>
      <trkpt lat="48.52876" lon="1.95334">
        <ele>113</ele>
        <time>2019-11-24T10:10:16Z</time>
      </trkpt>
      <trkpt lat="48.52872" lon="1.95323">
        <ele>115</ele>
        <time>2019-11-24T10:10:18Z</time>
      </trkpt>
      <trkpt lat="48.52869" lon="1.95312">
        <ele>115</ele>
        <time>2019-11-24T10:10:20Z</time>
      </trkpt>
      <trkpt lat="48.52868" lon="1.95301">
        <ele>115</ele>
        <time>2019-11-24T10:10:22Z</time>
      </trkpt>
      <trkpt lat="48.52873" lon="1.95293">
        <ele>115</ele>
        <time>2019-11-24T10:10:24Z</time>
      </trkpt>
      <trkpt lat="48.5288" lon="1.95291">
        <ele>115</ele>
        <time>2019-11-24T10:10:26Z</time>
      </trkpt>
      <trkpt lat="48.52887" lon="1.95292">
        <ele>115</ele>
        <time>2019-11-24T10:10:28Z</time>
      </trkpt>
      <trkpt lat="48.52894" lon="1.95293">
        <ele>116</ele>
        <time>2019-11-24T10:10:30Z</time>
      </trkpt>
      <trkpt lat="48.529" lon="1.95292">
        <ele>116</ele>
        <time>2019-11-24T10:10:32Z</time>
      </trkpt>
      <trkpt lat="48.52906" lon="1.95293">
        <ele>116</ele>
        <time>2019-11-24T10:10:34Z</time>
      </trkpt>
      <trkpt lat="48.52912" lon="1.95293">
        <ele>116</ele>
        <time>2019-11-24T10:10:36Z</time>
      </trkpt>
      <trkpt lat="48.52919" lon="1.95294">
        <ele>119</ele>
        <time>2019-11-24T10:10:38Z</time>
      </trkpt>
      <trkpt lat="48.52925" lon="1.95294">
        <ele>119</ele>
        <time>2019-11-24T10:10:40Z</time>
      </trkpt>
      <trkpt lat="48.52931" lon="1.95295">
        <ele>119</ele>
        <time>2019-11-24T10:10:42Z</time>
      </trkpt>
      <trkpt lat="48.52936" lon="1.95295">
        <ele>119</ele>
        <time>2019-11-24T10:10:44Z</time>
      </trkpt>
      <trkpt lat="48.52942" lon="1.95296">
        <ele>119</ele>
        <time>2019-11-24T10:10:46Z</time>
      </trkpt>
      <trkpt lat="48.52948" lon="1.95297">
        <ele>119</ele>
        <time>2019-11-24T10:10:48Z</time>
      </trkpt>
      <trkpt lat="48.52954" lon="1.95298">
        <ele>119</ele>
        <time>2019-11-24T10:10:50Z</time>
      </trkpt>
      <trkpt lat="48.52959" lon="1.95298">
        <ele>120</ele>
        <time>2019-11-24T10:10:52Z</time>
      </trkpt>
      <trkpt lat="48.52964" lon="1.95298">
        <ele>120</ele>
        <time>2019-11-24T10:10:54Z</time>
      </trkpt>
      <trkpt lat="48.52969" lon="1.95298">
        <ele>120</ele>
        <time>2019-11-24T10:10:56Z</time>
      </trkpt>
      <trkpt lat="48.52975" lon="1.95297">
        <ele>120</ele>
        <time>2019-11-24T10:10:58Z</time>
      </trkpt>
      <trkpt lat="48.5298" lon="1.95298">
        <ele>120</ele>
        <time>2019-11-24T10:11:00Z</time>
      </trkpt>
      <trkpt lat="48.52989" lon="1.95298">
        <ele>120</ele>
        <time>2019-11-24T10:11:04Z</time>
      </trkpt>
      <trkpt lat="48.52998" lon="1.95298">
        <ele>121</ele>
        <time>2019-11-24T10:11:08Z</time>
      </trkpt>
      <trkpt lat="48.53007" lon="1.95298">
        <ele>124</ele>
        <time>2019-11-24T10:11:12Z</time>
      </trkpt>
      <trkpt lat="48.53015" lon="1.95296">
        <ele>124</ele>
        <time>2019-11-24T10:11:16Z</time>
      </trkpt>
      <trkpt lat="48.53021" lon="1.95294">
        <ele>125</ele>
        <time>2019-11-24T10:11:20Z</time>
      </trkpt>
      <trkpt lat="48.53029" lon="1.95292">
        <ele>125</ele>
        <time>2019-11-24T10:11:24Z</time>
      </trkpt>
      <trkpt lat="48.53035" lon="1.9529">
        <ele>125</ele>
        <time>2019-11-24T10:11:28Z</time>
      </trkpt>
      <trkpt lat="48.53042" lon="1.95286">
        <ele>125</ele>
        <time>2019-11-24T10:11:32Z</time>
      </trkpt>
      <trkpt lat="48.5305" lon="1.95282">
        <ele>126</ele>
        <time>2019-11-24T10:11:36Z</time>
      </trkpt>
      <trkpt lat="48.53057" lon="1.95279">
        <ele>126</ele>
        <time>2019-11-24T10:11:40Z</time>
      </trkpt>
      <trkpt lat="48.53064" lon="1.95275">
        <ele>126</ele>
        <time>2019-11-24T10:11:44Z</time>
      </trkpt>
      <trkpt lat="48.53071" lon="1.95271">
        <ele>127</ele>
        <time>2019-11-24T10:11:48Z</time>
      </trkpt>
      <trkpt lat="48.53078" lon="1.95267">
        <ele>127</ele>
        <time>2019-11-24T10:11:52Z</time>
      </trkpt>
      <trkpt lat="48.53085" lon="1.95264">
        <ele>129</ele>
        <time>2019-11-24T10:11:56Z</time>
      </trkpt>
      <trkpt lat="48.5309" lon="1.95263">
        <ele>129</ele>
        <time>2019-11-24T10:11:58Z</time>
      </trkpt>
      <trkpt lat="48.53098" lon="1.95259">
        <ele>129</ele>
        <time>2019-11-24T10:12:02Z</time>
      </trkpt>
      <trkpt lat="48.53105" lon="1.95252">
        <ele>128</ele>
        <time>2019-11-24T10:12:06Z</time>
      </trkpt>
      <trkpt lat="48.53109" lon="1.95248">
        <ele>130</ele>
        <time>2019-11-24T10:12:08Z</time>
      </trkpt>
      <trkpt lat="48.53113" lon="1.95244">
        <ele>130</ele>
        <time>2019-11-24T10:12:10Z</time>
      </trkpt>
      <trkpt lat="48.53117" lon="1.9524">
        <ele>130</ele>
        <time>2019-11-24T10:12:12Z</time>
      </trkpt>
      <trkpt lat="48.53121" lon="1.95235">
        <ele>130</ele>
        <time>2019-11-24T10:12:14Z</time>
      </trkpt>
      <trkpt lat="48.53126" lon="1.9523">
        <ele>130</ele>
        <time>2019-11-24T10:12:16Z</time>
      </trkpt>
      <trkpt lat="48.5313" lon="1.95223">
        <ele>130</ele>
        <time>2019-11-24T10:12:18Z</time>
      </trkpt>
      <trkpt lat="48.53135" lon="1.95217">
        <ele>130</ele>
        <time>2019-11-24T10:12:20Z</time>
      </trkpt>
      <trkpt lat="48.53139" lon="1.95211">
        <ele>130</ele>
        <time>2019-11-24T10:12:22Z</time>
      </trkpt>
      <trkpt lat="48.53143" lon="1.95205">
        <ele>130</ele>
        <time>2019-11-24T10:12:24Z</time>
      </trkpt>
      <trkpt lat="48.53147" lon="1.95199">
        <ele>130</ele>
        <time>2019-11-24T10:12:26Z</time>
      </trkpt>
      <trkpt lat="48.53152" lon="1.95193">
        <ele>130</ele>
        <time>2019-11-24T10:12:28Z</time>
      </trkpt>
      <trkpt lat="48.53156" lon="1.95187">
        <ele>130</ele>
        <time>2019-11-24T10:12:30Z</time>
      </trkpt>
      <trkpt lat="48.53161" lon="1.95181">
        <ele>130</ele>
        <time>2019-11-24T10:12:32Z</time>
      </trkpt>
      <trkpt lat="48.53166" lon="1.95175">
        <ele>130</ele>
        <time>2019-11-24T10:12:34Z</time>
      </trkpt>
      <trkpt lat="48.5317" lon="1.9517">
        <ele>130</ele>
        <time>2019-11-24T10:12:36Z</time>
      </trkpt>
      <trkpt lat="48.53174" lon="1.95163">
        <ele>130</ele>
        <time>2019-11-24T10:12:38Z</time>
      </trkpt>
      <trkpt lat="48.53178" lon="1.95157">
        <ele>130</ele>
        <time>2019-11-24T10:12:40Z</time>
      </trkpt>
      <trkpt lat="48.53182" lon="1.95152">
        <ele>130</ele>
        <time>2019-11-24T10:12:42Z</time>
      </trkpt>
      <trkpt lat="48.53186" lon="1.95146">
        <ele>130</ele>
        <time>2019-11-24T10:12:44Z</time>
      </trkpt>
      <trkpt lat="48.5319" lon="1.9514">
        <ele>130</ele>
        <time>2019-11-24T10:12:46Z</time>
      </trkpt>
      <trkpt lat="48.53195" lon="1.95133">
        <ele>130</ele>
        <time>2019-11-24T10:12:48Z</time>
      </trkpt>
      <trkpt lat="48.53199" lon="1.95126">
        <ele>130</ele>
        <time>2019-11-24T10:12:50Z</time>
      </trkpt>
      <trkpt lat="48.53204" lon="1.9512">
        <ele>130</ele>
        <time>2019-11-24T10:12:52Z</time>
      </trkpt>
      <trkpt lat="48.53209" lon="1.95113">
        <ele>130</ele>
        <time>2019-11-24T10:12:54Z</time>
      </trkpt>
      <trkpt lat="48.53214" lon="1.95106">
        <ele>130</ele>
        <time>2019-11-24T10:12:56Z</time>
      </trkpt>
      <trkpt lat="48.53219" lon="1.95098">
        <ele>130</ele>
        <time>2019-11-24T10:12:58Z</time>
      </trkpt>
      <trkpt lat="48.53225" lon="1.9509">
        <ele>130</ele>
        <time>2019-11-24T10:13:00Z</time>
      </trkpt>
      <trkpt lat="48.53231" lon="1.9508">
        <ele>131</ele>
        <time>2019-11-24T10:13:02Z</time>
      </trkpt>
      <trkpt lat="48.53236" lon="1.95071">
        <ele>131</ele>
        <time>2019-11-24T10:13:04Z</time>
      </trkpt>
      <trkpt lat="48.53241" lon="1.95062">
        <ele>131</ele>
        <time>2019-11-24T10:13:06Z</time>
      </trkpt>
      <trkpt lat="48.53247" lon="1.95053">
        <ele>131</ele>
        <time>2019-11-24T10:13:08Z</time>
      </trkpt>
      <trkpt lat="48.53252" lon="1.95042">
        <ele>129</ele>
        <time>2019-11-24T10:13:10Z</time>
      </trkpt>
      <trkpt lat="48.53257" lon="1.95032">
        <ele>129</ele>
        <time>2019-11-24T10:13:12Z</time>
      </trkpt>
      <trkpt lat="48.53263" lon="1.95021">
        <ele>129</ele>
        <time>2019-11-24T10:13:14Z</time>
      </trkpt>
      <trkpt lat="48.53268" lon="1.95011">
        <ele>129</ele>
        <time>2019-11-24T10:13:16Z</time>
      </trkpt>
      <trkpt lat="48.53274" lon="1.95">
        <ele>129</ele>
        <time>2019-11-24T10:13:18Z</time>
      </trkpt>
      <trkpt lat="48.53279" lon="1.94989">
        <ele>130</ele>
        <time>2019-11-24T10:13:20Z</time>
      </trkpt>
      <trkpt lat="48.53284" lon="1.94979">
        <ele>130</ele>
        <time>2019-11-24T10:13:22Z</time>
      </trkpt>
      <trkpt lat="48.53289" lon="1.94969">
        <ele>130</ele>
        <time>2019-11-24T10:13:24Z</time>
      </trkpt>
      <trkpt lat="48.53293" lon="1.94959">
        <ele>130</ele>
        <time>2019-11-24T10:13:26Z</time>
      </trkpt>
      <trkpt lat="48.53296" lon="1.94951">
        <ele>130</ele>
        <time>2019-11-24T10:13:28Z</time>
      </trkpt>
      <trkpt lat="48.53301" lon="1.94943">
        <ele>130</ele>
        <time>2019-11-24T10:13:30Z</time>
      </trkpt>
      <trkpt lat="48.53304" lon="1.94934">
        <ele>130</ele>
        <time>2019-11-24T10:13:32Z</time>
      </trkpt>
      <trkpt lat="48.53308" lon="1.94925">
        <ele>130</ele>
        <time>2019-11-24T10:13:34Z</time>
      </trkpt>
      <trkpt lat="48.53312" lon="1.94916">
        <ele>131</ele>
        <time>2019-11-24T10:13:36Z</time>
      </trkpt>
      <trkpt lat="48.53316" lon="1.94906">
        <ele>131</ele>
        <time>2019-11-24T10:13:38Z</time>
      </trkpt>
      <trkpt lat="48.53319" lon="1.94897">
        <ele>132</ele>
        <time>2019-11-24T10:13:40Z</time>
      </trkpt>
      <trkpt lat="48.53323" lon="1.94888">
        <ele>132</ele>
        <time>2019-11-24T10:13:42Z</time>
      </trkpt>
      <trkpt lat="48.53327" lon="1.94879">
        <ele>132</ele>
        <time>2019-11-24T10:13:44Z</time>
      </trkpt>
      <trkpt lat="48.53331" lon="1.94871">
        <ele>132</ele>
        <time>2019-11-24T10:13:46Z</time>
      </trkpt>
      <trkpt lat="48.53335" lon="1.94865">
        <ele>130</ele>
        <time>2019-11-24T10:13:48Z</time>
      </trkpt>
      <trkpt lat="48.53338" lon="1.94859">
        <ele>130</ele>
        <time>2019-11-24T10:13:50Z</time>
      </trkpt>
      <trkpt lat="48.53343" lon="1.94852">
        <ele>131</ele>
        <time>2019-11-24T10:13:52Z</time>
      </trkpt>
      <trkpt lat="48.53348" lon="1.94846">
        <ele>131</ele>
        <time>2019-11-24T10:13:54Z</time>
      </trkpt>
      <trkpt lat="48.53353" lon="1.94841">
        <ele>131</ele>
        <time>2019-11-24T10:13:56Z</time>
      </trkpt>
      <trkpt lat="48.53357" lon="1.94836">
        <ele>131</ele>
        <time>2019-11-24T10:13:58Z</time>
      </trkpt>
      <trkpt lat="48.53362" lon="1.94831">
        <ele>132</ele>
        <time>2019-11-24T10:14:00Z</time>
      </trkpt>
      <trkpt lat="48.53366" lon="1.94825">
        <ele>132</ele>
        <time>2019-11-24T10:14:02Z</time>
      </trkpt>
      <trkpt lat="48.53371" lon="1.9482">
        <ele>132</ele>
        <time>2019-11-24T10:14:04Z</time>
      </trkpt>
      <trkpt lat="48.53376" lon="1.94815">
        <ele>132</ele>
        <time>2019-11-24T10:14:06Z</time>
      </trkpt>
      <trkpt lat="48.53381" lon="1.94809">
        <ele>132</ele>
        <time>2019-11-24T10:14:08Z</time>
      </trkpt>
      <trkpt lat="48.53386" lon="1.94803">
        <ele>132</ele>
        <time>2019-11-24T10:14:10Z</time>
      </trkpt>
      <trkpt lat="48.53392" lon="1.94798">
        <ele>132</ele>
        <time>2019-11-24T10:14:12Z</time>
      </trkpt>
      <trkpt lat="48.53397" lon="1.94792">
        <ele>132</ele>
        <time>2019-11-24T10:14:14Z</time>
      </trkpt>
      <trkpt lat="48.53402" lon="1.94787">
        <ele>132</ele>
        <time>2019-11-24T10:14:16Z</time>
      </trkpt>
      <trkpt lat="48.53407" lon="1.94782">
        <ele>132</ele>
        <time>2019-11-24T10:14:18Z</time>
      </trkpt>
      <trkpt lat="48.53411" lon="1.94777">
        <ele>132</ele>
        <time>2019-11-24T10:14:20Z</time>
      </trkpt>
      <trkpt lat="48.53416" lon="1.94772">
        <ele>132</ele>
        <time>2019-11-24T10:14:22Z</time>
      </trkpt>
      <trkpt lat="48.5342" lon="1.94769">
        <ele>132</ele>
        <time>2019-11-24T10:14:24Z</time>
      </trkpt>
      <trkpt lat="48.53424" lon="1.94764">
        <ele>132</ele>
        <time>2019-11-24T10:14:26Z</time>
      </trkpt>
      <trkpt lat="48.53429" lon="1.9476">
        <ele>132</ele>
        <time>2019-11-24T10:14:28Z</time>
      </trkpt>
      <trkpt lat="48.53433" lon="1.94755">
        <ele>132</ele>
        <time>2019-11-24T10:14:30Z</time>
      </trkpt>
      <trkpt lat="48.53437" lon="1.94752">
        <ele>131</ele>
        <time>2019-11-24T10:14:32Z</time>
      </trkpt>
      <trkpt lat="48.53442" lon="1.94748">
        <ele>133</ele>
        <time>2019-11-24T10:14:34Z</time>
      </trkpt>
      <trkpt lat="48.53446" lon="1.94744">
        <ele>133</ele>
        <time>2019-11-24T10:14:36Z</time>
      </trkpt>
      <trkpt lat="48.53451" lon="1.9474">
        <ele>133</ele>
        <time>2019-11-24T10:14:38Z</time>
      </trkpt>
      <trkpt lat="48.53456" lon="1.94737">
        <ele>133</ele>
        <time>2019-11-24T10:14:40Z</time>
      </trkpt>
      <trkpt lat="48.5346" lon="1.94733">
        <ele>133</ele>
        <time>2019-11-24T10:14:42Z</time>
      </trkpt>
      <trkpt lat="48.53464" lon="1.94731">
        <ele>133</ele>
        <time>2019-11-24T10:14:44Z</time>
      </trkpt>
      <trkpt lat="48.53469" lon="1.94728">
        <ele>133</ele>
        <time>2019-11-24T10:14:46Z</time>
      </trkpt>
      <trkpt lat="48.53473" lon="1.94725">
        <ele>133</ele>
        <time>2019-11-24T10:14:48Z</time>
      </trkpt>
      <trkpt lat="48.53478" lon="1.94722">
        <ele>133</ele>
        <time>2019-11-24T10:14:50Z</time>
      </trkpt>
      <trkpt lat="48.53483" lon="1.94719">
        <ele>133</ele>
        <time>2019-11-24T10:14:52Z</time>
      </trkpt>
      <trkpt lat="48.53487" lon="1.94716">
        <ele>133</ele>
        <time>2019-11-24T10:14:54Z</time>
      </trkpt>
      <trkpt lat="48.53492" lon="1.94713">
        <ele>133</ele>
        <time>2019-11-24T10:14:56Z</time>
      </trkpt>
      <trkpt lat="48.53496" lon="1.9471">
        <ele>133</ele>
        <time>2019-11-24T10:14:58Z</time>
      </trkpt>
      <trkpt lat="48.53501" lon="1.94707">
        <ele>130</ele>
        <time>2019-11-24T10:15:00Z</time>
      </trkpt>
      <trkpt lat="48.53505" lon="1.94703">
        <ele>130</ele>
        <time>2019-11-24T10:15:02Z</time>
      </trkpt>
      <trkpt lat="48.5351" lon="1.94699">
        <ele>130</ele>
        <time>2019-11-24T10:15:04Z</time>
      </trkpt>
      <trkpt lat="48.53515" lon="1.94696">
        <ele>130</ele>
        <time>2019-11-24T10:15:06Z</time>
      </trkpt>
      <trkpt lat="48.53519" lon="1.94691">
        <ele>130</ele>
        <time>2019-11-24T10:15:08Z</time>
      </trkpt>
      <trkpt lat="48.53524" lon="1.94686">
        <ele>130</ele>
        <time>2019-11-24T10:15:10Z</time>
      </trkpt>
      <trkpt lat="48.53528" lon="1.94681">
        <ele>130</ele>
        <time>2019-11-24T10:15:12Z</time>
      </trkpt>
      <trkpt lat="48.53532" lon="1.94676">
        <ele>130</ele>
        <time>2019-11-24T10:15:14Z</time>
      </trkpt>
      <trkpt lat="48.53536" lon="1.94671">
        <ele>130</ele>
        <time>2019-11-24T10:15:16Z</time>
      </trkpt>
      <trkpt lat="48.5354" lon="1.94665">
        <ele>133</ele>
        <time>2019-11-24T10:15:18Z</time>
      </trkpt>
      <trkpt lat="48.53545" lon="1.94658">
        <ele>133</ele>
        <time>2019-11-24T10:15:20Z</time>
      </trkpt>
      <trkpt lat="48.53549" lon="1.94651">
        <ele>133</ele>
        <time>2019-11-24T10:15:22Z</time>
      </trkpt>
      <trkpt lat="48.53554" lon="1.94644">
        <ele>133</ele>
        <time>2019-11-24T10:15:24Z</time>
      </trkpt>
      <trkpt lat="48.53559" lon="1.94637">
        <ele>133</ele>
        <time>2019-11-24T10:15:26Z</time>
      </trkpt>
      <trkpt lat="48.53564" lon="1.94628">
        <ele>133</ele>
        <time>2019-11-24T10:15:28Z</time>
      </trkpt>
      <trkpt lat="48.53571" lon="1.94617">
        <ele>134</ele>
        <time>2019-11-24T10:15:30Z</time>
      </trkpt>
      <trkpt lat="48.53578" lon="1.94607">
        <ele>134</ele>
        <time>2019-11-24T10:15:32Z</time>
      </trkpt>
      <trkpt lat="48.53585" lon="1.94594">
        <ele>132</ele>
        <time>2019-11-24T10:15:34Z</time>
      </trkpt>
      <trkpt lat="48.53593" lon="1.94581">
        <ele>133</ele>
        <time>2019-11-24T10:15:36Z</time>
      </trkpt>
      <trkpt lat="48.53601" lon="1.94567">
        <ele>132</ele>
        <time>2019-11-24T10:15:38Z</time>
      </trkpt>
      <trkpt lat="48.53608" lon="1.94553">
        <ele>131</ele>
        <time>2019-11-24T10:15:40Z</time>
      </trkpt>
      <trkpt lat="48.53615" lon="1.94537">
        <ele>131</ele>
        <time>2019-11-24T10:15:42Z</time>
      </trkpt>
      <trkpt lat="48.53621" lon="1.94526">
        <ele>131</ele>
        <time>2019-11-24T10:15:44Z</time>
      </trkpt>
      <trkpt lat="48.53629" lon="1.94516">
        <ele>130</ele>
        <time>2019-11-24T10:15:46Z</time>
      </trkpt>
      <trkpt lat="48.53637" lon="1.94508">
        <ele>129</ele>
        <time>2019-11-24T10:15:48Z</time>
      </trkpt>
      <trkpt lat="48.53645" lon="1.94497">
        <ele>129</ele>
        <time>2019-11-24T10:15:50Z</time>
      </trkpt>
      <trkpt lat="48.53652" lon="1.94485">
        <ele>128</ele>
        <time>2019-11-24T10:15:52Z</time>
      </trkpt>
      <trkpt lat="48.53659" lon="1.94475">
        <ele>129</ele>
        <time>2019-11-24T10:15:54Z</time>
      </trkpt>
      <trkpt lat="48.53667" lon="1.94462">
        <ele>124</ele>
        <time>2019-11-24T10:15:56Z</time>
      </trkpt>
      <trkpt lat="48.53676" lon="1.9445">
        <ele>124</ele>
        <time>2019-11-24T10:15:58Z</time>
      </trkpt>
      <trkpt lat="48.53684" lon="1.94438">
        <ele>124</ele>
        <time>2019-11-24T10:16:00Z</time>
      </trkpt>
      <trkpt lat="48.53691" lon="1.94428">
        <ele>124</ele>
        <time>2019-11-24T10:16:02Z</time>
      </trkpt>
      <trkpt lat="48.53698" lon="1.94417">
        <ele>124</ele>
        <time>2019-11-24T10:16:04Z</time>
      </trkpt>
      <trkpt lat="48.53706" lon="1.94407">
        <ele>125</ele>
        <time>2019-11-24T10:16:06Z</time>
      </trkpt>
      <trkpt lat="48.53713" lon="1.94396">
        <ele>125</ele>
        <time>2019-11-24T10:16:08Z</time>
      </trkpt>
      <trkpt lat="48.53721" lon="1.94384">
        <ele>125</ele>
        <time>2019-11-24T10:16:10Z</time>
      </trkpt>
      <trkpt lat="48.53729" lon="1.94371">
        <ele>125</ele>
        <time>2019-11-24T10:16:12Z</time>
      </trkpt>
      <trkpt lat="48.53737" lon="1.94358">
        <ele>125</ele>
        <time>2019-11-24T10:16:14Z</time>
      </trkpt>
      <trkpt lat="48.53745" lon="1.94343">
        <ele>125</ele>
        <time>2019-11-24T10:16:16Z</time>
      </trkpt>
      <trkpt lat="48.53754" lon="1.94327">
        <ele>125</ele>
        <time>2019-11-24T10:16:18Z</time>
      </trkpt>
      <trkpt lat="48.53763" lon="1.94311">
        <ele>125</ele>
        <time>2019-11-24T10:16:20Z</time>
      </trkpt>
      <trkpt lat="48.53771" lon="1.94294">
        <ele>125</ele>
        <time>2019-11-24T10:16:22Z</time>
      </trkpt>
      <trkpt lat="48.5378" lon="1.94279">
        <ele>125</ele>
        <time>2019-11-24T10:16:24Z</time>
      </trkpt>
      <trkpt lat="48.53789" lon="1.94264">
        <ele>125</ele>
        <time>2019-11-24T10:16:26Z</time>
      </trkpt>
      <trkpt lat="48.53799" lon="1.94251">
        <ele>125</ele>
        <time>2019-11-24T10:16:28Z</time>
      </trkpt>
      <trkpt lat="48.5381" lon="1.94239">
        <ele>125</ele>
        <time>2019-11-24T10:16:30Z</time>
      </trkpt>
      <trkpt lat="48.53822" lon="1.94229">
        <ele>125</ele>
        <time>2019-11-24T10:16:32Z</time>
      </trkpt>
      <trkpt lat="48.53832" lon="1.94219">
        <ele>125</ele>
        <time>2019-11-24T10:16:34Z</time>
      </trkpt>
      <trkpt lat="48.53844" lon="1.94208">
        <ele>127</ele>
        <time>2019-11-24T10:16:36Z</time>
      </trkpt>
      <trkpt lat="48.53856" lon="1.94199">
        <ele>128</ele>
        <time>2019-11-24T10:16:38Z</time>
      </trkpt>
      <trkpt lat="48.53869" lon="1.9419">
        <ele>128</ele>
        <time>2019-11-24T10:16:40Z</time>
      </trkpt>
      <trkpt lat="48.53882" lon="1.9418">
        <ele>128</ele>
        <time>2019-11-24T10:16:42Z</time>
      </trkpt>
      <trkpt lat="48.53896" lon="1.94171">
        <ele>129</ele>
        <time>2019-11-24T10:16:44Z</time>
      </trkpt>
      <trkpt lat="48.53909" lon="1.94162">
        <ele>129</ele>
        <time>2019-11-24T10:16:46Z</time>
      </trkpt>
      <trkpt lat="48.53922" lon="1.94149">
        <ele>131</ele>
        <time>2019-11-24T10:16:48Z</time>
      </trkpt>
      <trkpt lat="48.53934" lon="1.94135">
        <ele>131</ele>
        <time>2019-11-24T10:16:50Z</time>
      </trkpt>
      <trkpt lat="48.53945" lon="1.94119">
        <ele>131</ele>
        <time>2019-11-24T10:16:52Z</time>
      </trkpt>
      <trkpt lat="48.53955" lon="1.94102">
        <ele>131</ele>
        <time>2019-11-24T10:16:54Z</time>
      </trkpt>
      <trkpt lat="48.53965" lon="1.94085">
        <ele>131</ele>
        <time>2019-11-24T10:16:56Z</time>
      </trkpt>
      <trkpt lat="48.53976" lon="1.94069">
        <ele>128</ele>
        <time>2019-11-24T10:16:58Z</time>
      </trkpt>
      <trkpt lat="48.53987" lon="1.94052">
        <ele>128</ele>
        <time>2019-11-24T10:17:00Z</time>
      </trkpt>
      <trkpt lat="48.53999" lon="1.94039">
        <ele>128</ele>
        <time>2019-11-24T10:17:02Z</time>
      </trkpt>
      <trkpt lat="48.54012" lon="1.94026">
        <ele>130</ele>
        <time>2019-11-24T10:17:04Z</time>
      </trkpt>
      <trkpt lat="48.54025" lon="1.94014">
        <ele>130</ele>
        <time>2019-11-24T10:17:06Z</time>
      </trkpt>
      <trkpt lat="48.54038" lon="1.94002">
        <ele>130</ele>
        <time>2019-11-24T10:17:08Z</time>
      </trkpt>
      <trkpt lat="48.54051" lon="1.93992">
        <ele>127</ele>
        <time>2019-11-24T10:17:10Z</time>
      </trkpt>
      <trkpt lat="48.54065" lon="1.93983">
        <ele>127</ele>
        <time>2019-11-24T10:17:12Z</time>
      </trkpt>
      <trkpt lat="48.5408" lon="1.93976">
        <ele>127</ele>
        <time>2019-11-24T10:17:14Z</time>
      </trkpt>
      <trkpt lat="48.54095" lon="1.93971">
        <ele>129</ele>
        <time>2019-11-24T10:17:16Z</time>
      </trkpt>
      <trkpt lat="48.54111" lon="1.93968">
        <ele>129</ele>
        <time>2019-11-24T10:17:18Z</time>
      </trkpt>
      <trkpt lat="48.54126" lon="1.93963">
        <ele>129</ele>
        <time>2019-11-24T10:17:20Z</time>
      </trkpt>
      <trkpt lat="48.54142" lon="1.93956">
        <ele>129</ele>
        <time>2019-11-24T10:17:22Z</time>
      </trkpt>
      <trkpt lat="48.54157" lon="1.93946">
        <ele>129</ele>
        <time>2019-11-24T10:17:24Z</time>
      </trkpt>
      <trkpt lat="48.54171" lon="1.93936">
        <ele>130</ele>
        <time>2019-11-24T10:17:26Z</time>
      </trkpt>
      <trkpt lat="48.54184" lon="1.93926">
        <ele>130</ele>
        <time>2019-11-24T10:17:28Z</time>
      </trkpt>
      <trkpt lat="48.54197" lon="1.93915">
        <ele>129</ele>
        <time>2019-11-24T10:17:30Z</time>
      </trkpt>
      <trkpt lat="48.5421" lon="1.93906">
        <ele>129</ele>
        <time>2019-11-24T10:17:32Z</time>
      </trkpt>
      <trkpt lat="48.54222" lon="1.93897">
        <ele>129</ele>
        <time>2019-11-24T10:17:34Z</time>
      </trkpt>
      <trkpt lat="48.54233" lon="1.93887">
        <ele>129</ele>
        <time>2019-11-24T10:17:36Z</time>
      </trkpt>
      <trkpt lat="48.54244" lon="1.93878">
        <ele>129</ele>
        <time>2019-11-24T10:17:38Z</time>
      </trkpt>
      <trkpt lat="48.54254" lon="1.93867">
        <ele>129</ele>
        <time>2019-11-24T10:17:40Z</time>
      </trkpt>
      <trkpt lat="48.54264" lon="1.93858">
        <ele>129</ele>
        <time>2019-11-24T10:17:42Z</time>
      </trkpt>
      <trkpt lat="48.54273" lon="1.93849">
        <ele>129</ele>
        <time>2019-11-24T10:17:44Z</time>
      </trkpt>
      <trkpt lat="48.54282" lon="1.93841">
        <ele>129</ele>
        <time>2019-11-24T10:17:46Z</time>
      </trkpt>
      <trkpt lat="48.54291" lon="1.93832">
        <ele>130</ele>
        <time>2019-11-24T10:17:48Z</time>
      </trkpt>
      <trkpt lat="48.543" lon="1.93824">
        <ele>130</ele>
        <time>2019-11-24T10:17:50Z</time>
      </trkpt>
      <trkpt lat="48.54309" lon="1.93816">
        <ele>130</ele>
        <time>2019-11-24T10:17:52Z</time>
      </trkpt>
      <trkpt lat="48.54319" lon="1.93808">
        <ele>130</ele>
        <time>2019-11-24T10:17:54Z</time>
      </trkpt>
      <trkpt lat="48.54328" lon="1.93799">
        <ele>130</ele>
        <time>2019-11-24T10:17:56Z</time>
      </trkpt>
      <trkpt lat="48.54337" lon="1.93791">
        <ele>131</ele>
        <time>2019-11-24T10:17:58Z</time>
      </trkpt>
      <trkpt lat="48.54346" lon="1.93784">
        <ele>132</ele>
        <time>2019-11-24T10:18:00Z</time>
      </trkpt>
      <trkpt lat="48.54355" lon="1.93776">
        <ele>132</ele>
        <time>2019-11-24T10:18:02Z</time>
      </trkpt>
      <trkpt lat="48.54363" lon="1.93769">
        <ele>132</ele>
        <time>2019-11-24T10:18:04Z</time>
      </trkpt>
      <trkpt lat="48.5437" lon="1.93766">
        <ele>132</ele>
        <time>2019-11-24T10:18:06Z</time>
      </trkpt>
      <trkpt lat="48.54373" lon="1.93774">
        <ele>132</ele>
        <time>2019-11-24T10:18:08Z</time>
      </trkpt>
      <trkpt lat="48.54375" lon="1.93785">
        <ele>132</ele>
        <time>2019-11-24T10:18:10Z</time>
      </trkpt>
      <trkpt lat="48.54377" lon="1.93796">
        <ele>132</ele>
        <time>2019-11-24T10:18:12Z</time>
      </trkpt>
      <trkpt lat="48.54379" lon="1.93808">
        <ele>132</ele>
        <time>2019-11-24T10:18:14Z</time>
      </trkpt>
      <trkpt lat="48.54382" lon="1.93821">
        <ele>132</ele>
        <time>2019-11-24T10:18:16Z</time>
      </trkpt>
      <trkpt lat="48.54386" lon="1.93834">
        <ele>134</ele>
        <time>2019-11-24T10:18:18Z</time>
      </trkpt>
      <trkpt lat="48.5439" lon="1.93847">
        <ele>134</ele>
        <time>2019-11-24T10:18:20Z</time>
      </trkpt>
      <trkpt lat="48.54394" lon="1.93858">
        <ele>134</ele>
        <time>2019-11-24T10:18:22Z</time>
      </trkpt>
      <trkpt lat="48.544" lon="1.93866">
        <ele>135</ele>
        <time>2019-11-24T10:18:24Z</time>
      </trkpt>
      <trkpt lat="48.54406" lon="1.93873">
        <ele>135</ele>
        <time>2019-11-24T10:18:26Z</time>
      </trkpt>
      <trkpt lat="48.54411" lon="1.9388">
        <ele>136</ele>
        <time>2019-11-24T10:18:28Z</time>
      </trkpt>
      <trkpt lat="48.54416" lon="1.93885">
        <ele>136</ele>
        <time>2019-11-24T10:18:30Z</time>
      </trkpt>
      <trkpt lat="48.54421" lon="1.9389">
        <ele>140</ele>
        <time>2019-11-24T10:18:32Z</time>
      </trkpt>
      <trkpt lat="48.54426" lon="1.93898">
        <ele>140</ele>
        <time>2019-11-24T10:18:34Z</time>
      </trkpt>
      <trkpt lat="48.54431" lon="1.93905">
        <ele>140</ele>
        <time>2019-11-24T10:18:36Z</time>
      </trkpt>
      <trkpt lat="48.54436" lon="1.93911">
        <ele>140</ele>
        <time>2019-11-24T10:18:38Z</time>
      </trkpt>
      <trkpt lat="48.54442" lon="1.93918">
        <ele>145</ele>
        <time>2019-11-24T10:18:40Z</time>
      </trkpt>
      <trkpt lat="48.54447" lon="1.93926">
        <ele>146</ele>
        <time>2019-11-24T10:18:42Z</time>
      </trkpt>
      <trkpt lat="48.54452" lon="1.93931">
        <ele>146</ele>
        <time>2019-11-24T10:18:44Z</time>
      </trkpt>
      <trkpt lat="48.54456" lon="1.93935">
        <ele>147</ele>
        <time>2019-11-24T10:18:46Z</time>
      </trkpt>
      <trkpt lat="48.5446" lon="1.93934">
        <ele>147</ele>
        <time>2019-11-24T10:18:48Z</time>
      </trkpt>
      <trkpt lat="48.54466" lon="1.93934">
        <ele>147</ele>
        <time>2019-11-24T10:18:50Z</time>
      </trkpt>
      <trkpt lat="48.5447" lon="1.93934">
        <ele>147</ele>
        <time>2019-11-24T10:18:52Z</time>
      </trkpt>
      <trkpt lat="48.54477" lon="1.93933">
        <ele>147</ele>
        <time>2019-11-24T10:18:56Z</time>
      </trkpt>
      <trkpt lat="48.54483" lon="1.93934">
        <ele>147</ele>
        <time>2019-11-24T10:19:00Z</time>
      </trkpt>
      <trkpt lat="48.5449" lon="1.93933">
        <ele>147</ele>
        <time>2019-11-24T10:19:04Z</time>
      </trkpt>
      <trkpt lat="48.54498" lon="1.93931">
        <ele>146</ele>
        <time>2019-11-24T10:19:08Z</time>
      </trkpt>
      <trkpt lat="48.54506" lon="1.93933">
        <ele>149</ele>
        <time>2019-11-24T10:19:12Z</time>
      </trkpt>
      <trkpt lat="48.54513" lon="1.93938">
        <ele>151</ele>
        <time>2019-11-24T10:19:16Z</time>
      </trkpt>
      <trkpt lat="48.54519" lon="1.93943">
        <ele>151</ele>
        <time>2019-11-24T10:19:20Z</time>
      </trkpt>
      <trkpt lat="48.54524" lon="1.9395">
        <ele>152</ele>
        <time>2019-11-24T10:19:24Z</time>
      </trkpt>
      <trkpt lat="48.54529" lon="1.93955">
        <ele>153</ele>
        <time>2019-11-24T10:19:28Z</time>
      </trkpt>
      <trkpt lat="48.54534" lon="1.93961">
        <ele>153</ele>
        <time>2019-11-24T10:19:32Z</time>
      </trkpt>
      <trkpt lat="48.54539" lon="1.93968">
        <ele>154</ele>
        <time>2019-11-24T10:19:36Z</time>
      </trkpt>
      <trkpt lat="48.54543" lon="1.93975">
        <ele>154</ele>
        <time>2019-11-24T10:19:40Z</time>
      </trkpt>
      <trkpt lat="48.54547" lon="1.93982">
        <ele>155</ele>
        <time>2019-11-24T10:19:44Z</time>
      </trkpt>
      <trkpt lat="48.54551" lon="1.93988">
        <ele>155</ele>
        <time>2019-11-24T10:19:48Z</time>
      </trkpt>
      <trkpt lat="48.54555" lon="1.93994">
        <ele>155</ele>
        <time>2019-11-24T10:19:52Z</time>
      </trkpt>
      <trkpt lat="48.54559" lon="1.94">
        <ele>156</ele>
        <time>2019-11-24T10:19:56Z</time>
      </trkpt>
      <trkpt lat="48.54562" lon="1.94005">
        <ele>160</ele>
        <time>2019-11-24T10:20:00Z</time>
      </trkpt>
      <trkpt lat="48.54568" lon="1.94011">
        <ele>160</ele>
        <time>2019-11-24T10:20:04Z</time>
      </trkpt>
      <trkpt lat="48.54573" lon="1.94019">
        <ele>160</ele>
        <time>2019-11-24T10:20:10Z</time>
      </trkpt>
      <trkpt lat="48.54578" lon="1.94024">
        <ele>160</ele>
        <time>2019-11-24T10:20:16Z</time>
      </trkpt>
      <trkpt lat="48.54583" lon="1.94027">
        <ele>160</ele>
        <time>2019-11-24T10:20:20Z</time>
      </trkpt>
      <trkpt lat="48.54589" lon="1.94032">
        <ele>164</ele>
        <time>2019-11-24T10:20:26Z</time>
      </trkpt>
      <trkpt lat="48.54594" lon="1.94037">
        <ele>164</ele>
        <time>2019-11-24T10:20:32Z</time>
      </trkpt>
      <trkpt lat="48.54597" lon="1.94044">
        <ele>164</ele>
        <time>2019-11-24T10:20:38Z</time>
      </trkpt>
      <trkpt lat="48.54599" lon="1.94051">
        <ele>165</ele>
        <time>2019-11-24T10:20:42Z</time>
      </trkpt>
      <trkpt lat="48.54595" lon="1.94057">
        <ele>165</ele>
        <time>2019-11-24T10:20:50Z</time>
      </trkpt>
      <trkpt lat="48.54589" lon="1.9406">
        <ele>165</ele>
        <time>2019-11-24T10:20:56Z</time>
      </trkpt>
      <trkpt lat="48.54586" lon="1.94064">
        <ele>165</ele>
        <time>2019-11-24T10:21:00Z</time>
      </trkpt>
      <trkpt lat="48.5458" lon="1.9407">
        <ele>163</ele>
        <time>2019-11-24T10:21:06Z</time>
      </trkpt>
      <trkpt lat="48.54577" lon="1.94075">
        <ele>164</ele>
        <time>2019-11-24T10:21:10Z</time>
      </trkpt>
      <trkpt lat="48.54574" lon="1.94083">
        <ele>164</ele>
        <time>2019-11-24T10:21:14Z</time>
      </trkpt>
      <trkpt lat="48.54568" lon="1.9409">
        <ele>165</ele>
        <time>2019-11-24T10:21:18Z</time>
      </trkpt>
      <trkpt lat="48.54563" lon="1.94098">
        <ele>166</ele>
        <time>2019-11-24T10:21:22Z</time>
      </trkpt>
      <trkpt lat="48.54557" lon="1.94107">
        <ele>166</ele>
        <time>2019-11-24T10:21:26Z</time>
      </trkpt>
      <trkpt lat="48.54551" lon="1.94114">
        <ele>166</ele>
        <time>2019-11-24T10:21:30Z</time>
      </trkpt>
      <trkpt lat="48.54545" lon="1.94121">
        <ele>166</ele>
        <time>2019-11-24T10:21:34Z</time>
      </trkpt>
      <trkpt lat="48.54538" lon="1.9413">
        <ele>166</ele>
        <time>2019-11-24T10:21:38Z</time>
      </trkpt>
      <trkpt lat="48.54532" lon="1.94137">
        <ele>166</ele>
        <time>2019-11-24T10:21:42Z</time>
      </trkpt>
      <trkpt lat="48.54526" lon="1.94144">
        <ele>166</ele>
        <time>2019-11-24T10:21:46Z</time>
      </trkpt>
      <trkpt lat="48.54519" lon="1.94151">
        <ele>167</ele>
        <time>2019-11-24T10:21:50Z</time>
      </trkpt>
      <trkpt lat="48.54513" lon="1.94158">
        <ele>167</ele>
        <time>2019-11-24T10:21:54Z</time>
      </trkpt>
      <trkpt lat="48.54507" lon="1.94163">
        <ele>167</ele>
        <time>2019-11-24T10:21:58Z</time>
      </trkpt>
      <trkpt lat="48.54503" lon="1.94167">
        <ele>168</ele>
        <time>2019-11-24T10:22:00Z</time>
      </trkpt>
      <trkpt lat="48.54497" lon="1.94173">
        <ele>168</ele>
        <time>2019-11-24T10:22:04Z</time>
      </trkpt>
      <trkpt lat="48.5449" lon="1.94179">
        <ele>168</ele>
        <time>2019-11-24T10:22:08Z</time>
      </trkpt>
      <trkpt lat="48.54484" lon="1.94183">
        <ele>168</ele>
        <time>2019-11-24T10:22:12Z</time>
      </trkpt>
      <trkpt lat="48.54478" lon="1.9419">
        <ele>168</ele>
        <time>2019-11-24T10:22:16Z</time>
      </trkpt>
      <trkpt lat="48.54474" lon="1.94193">
        <ele>168</ele>
        <time>2019-11-24T10:22:18Z</time>
      </trkpt>
      <trkpt lat="48.54468" lon="1.94197">
        <ele>168</ele>
        <time>2019-11-24T10:22:22Z</time>
      </trkpt>
      <trkpt lat="48.54462" lon="1.942">
        <ele>168</ele>
        <time>2019-11-24T10:22:26Z</time>
      </trkpt>
      <trkpt lat="48.54455" lon="1.94202">
        <ele>168</ele>
        <time>2019-11-24T10:22:30Z</time>
      </trkpt>
      <trkpt lat="48.54449" lon="1.94208">
        <ele>168</ele>
        <time>2019-11-24T10:22:34Z</time>
      </trkpt>
      <trkpt lat="48.54444" lon="1.94214">
        <ele>168</ele>
        <time>2019-11-24T10:22:38Z</time>
      </trkpt>
      <trkpt lat="48.54438" lon="1.94221">
        <ele>169</ele>
        <time>2019-11-24T10:22:42Z</time>
      </trkpt>
      <trkpt lat="48.54433" lon="1.94229">
        <ele>169</ele>
        <time>2019-11-24T10:22:46Z</time>
      </trkpt>
      <trkpt lat="48.54428" lon="1.94237">
        <ele>169</ele>
        <time>2019-11-24T10:22:50Z</time>
      </trkpt>
      <trkpt lat="48.54425" lon="1.94245">
        <ele>169</ele>
        <time>2019-11-24T10:22:54Z</time>
      </trkpt>
      <trkpt lat="48.54422" lon="1.94254">
        <ele>170</ele>
        <time>2019-11-24T10:22:58Z</time>
      </trkpt>
      <trkpt lat="48.5442" lon="1.94263">
        <ele>170</ele>
        <time>2019-11-24T10:23:02Z</time>
      </trkpt>
      <trkpt lat="48.54417" lon="1.9427">
        <ele>169</ele>
        <time>2019-11-24T10:23:06Z</time>
      </trkpt>
      <trkpt lat="48.54415" lon="1.94276">
        <ele>169</ele>
        <time>2019-11-24T10:23:16Z</time>
      </trkpt>
      <trkpt lat="48.54413" lon="1.94283">
        <ele>169</ele>
        <time>2019-11-24T10:24:18Z</time>
      </trkpt>
      <trkpt lat="48.54414" lon="1.94276">
        <ele>169</ele>
        <time>2019-11-24T10:25:38Z</time>
      </trkpt>
      <trkpt lat="48.54418" lon="1.94269">
        <ele>170</ele>
        <time>2019-11-24T10:25:46Z</time>
      </trkpt>
      <trkpt lat="48.5442" lon="1.9426">
        <ele>170</ele>
        <time>2019-11-24T10:25:50Z</time>
      </trkpt>
      <trkpt lat="48.54423" lon="1.9425">
        <ele>170</ele>
        <time>2019-11-24T10:25:54Z</time>
      </trkpt>
      <trkpt lat="48.54428" lon="1.94238">
        <ele>169</ele>
        <time>2019-11-24T10:25:58Z</time>
      </trkpt>
      <trkpt lat="48.54433" lon="1.94227">
        <ele>169</ele>
        <time>2019-11-24T10:26:02Z</time>
      </trkpt>
      <trkpt lat="48.54436" lon="1.94219">
        <ele>169</ele>
        <time>2019-11-24T10:26:06Z</time>
      </trkpt>
      <trkpt lat="48.5444" lon="1.94213">
        <ele>168</ele>
        <time>2019-11-24T10:26:10Z</time>
      </trkpt>
      <trkpt lat="48.54444" lon="1.94206">
        <ele>168</ele>
        <time>2019-11-24T10:26:16Z</time>
      </trkpt>
      <trkpt lat="48.54452" lon="1.94199">
        <ele>168</ele>
        <time>2019-11-24T10:26:22Z</time>
      </trkpt>
      <trkpt lat="48.54457" lon="1.94196">
        <ele>168</ele>
        <time>2019-11-24T10:26:24Z</time>
      </trkpt>
      <trkpt lat="48.54461" lon="1.94193">
        <ele>168</ele>
        <time>2019-11-24T10:26:26Z</time>
      </trkpt>
      <trkpt lat="48.54465" lon="1.94191">
        <ele>168</ele>
        <time>2019-11-24T10:26:28Z</time>
      </trkpt>
      <trkpt lat="48.54472" lon="1.94189">
        <ele>168</ele>
        <time>2019-11-24T10:26:30Z</time>
      </trkpt>
      <trkpt lat="48.54479" lon="1.94187">
        <ele>168</ele>
        <time>2019-11-24T10:26:32Z</time>
      </trkpt>
      <trkpt lat="48.54485" lon="1.94183">
        <ele>168</ele>
        <time>2019-11-24T10:26:34Z</time>
      </trkpt>
      <trkpt lat="48.5449" lon="1.94178">
        <ele>168</ele>
        <time>2019-11-24T10:26:36Z</time>
      </trkpt>
      <trkpt lat="48.54494" lon="1.94173">
        <ele>168</ele>
        <time>2019-11-24T10:26:38Z</time>
      </trkpt>
      <trkpt lat="48.545" lon="1.94168">
        <ele>168</ele>
        <time>2019-11-24T10:26:40Z</time>
      </trkpt>
      <trkpt lat="48.54504" lon="1.94164">
        <ele>168</ele>
        <time>2019-11-24T10:26:42Z</time>
      </trkpt>
      <trkpt lat="48.54508" lon="1.94158">
        <ele>167</ele>
        <time>2019-11-24T10:26:44Z</time>
      </trkpt>
      <trkpt lat="48.54512" lon="1.94154">
        <ele>167</ele>
        <time>2019-11-24T10:26:46Z</time>
      </trkpt>
      <trkpt lat="48.54517" lon="1.94148">
        <ele>167</ele>
        <time>2019-11-24T10:26:48Z</time>
      </trkpt>
      <trkpt lat="48.5452" lon="1.94143">
        <ele>166</ele>
        <time>2019-11-24T10:26:50Z</time>
      </trkpt>
      <trkpt lat="48.54526" lon="1.94138">
        <ele>166</ele>
        <time>2019-11-24T10:26:52Z</time>
      </trkpt>
      <trkpt lat="48.5453" lon="1.94133">
        <ele>166</ele>
        <time>2019-11-24T10:26:54Z</time>
      </trkpt>
      <trkpt lat="48.54535" lon="1.94128">
        <ele>166</ele>
        <time>2019-11-24T10:26:56Z</time>
      </trkpt>
      <trkpt lat="48.5454" lon="1.94123">
        <ele>166</ele>
        <time>2019-11-24T10:26:58Z</time>
      </trkpt>
      <trkpt lat="48.54544" lon="1.94118">
        <ele>166</ele>
        <time>2019-11-24T10:27:00Z</time>
      </trkpt>
      <trkpt lat="48.54549" lon="1.94112">
        <ele>166</ele>
        <time>2019-11-24T10:27:02Z</time>
      </trkpt>
      <trkpt lat="48.54554" lon="1.94105">
        <ele>166</ele>
        <time>2019-11-24T10:27:04Z</time>
      </trkpt>
      <trkpt lat="48.54561" lon="1.94098">
        <ele>166</ele>
        <time>2019-11-24T10:27:06Z</time>
      </trkpt>
      <trkpt lat="48.54566" lon="1.94091">
        <ele>165</ele>
        <time>2019-11-24T10:27:08Z</time>
      </trkpt>
      <trkpt lat="48.54572" lon="1.94082">
        <ele>164</ele>
        <time>2019-11-24T10:27:10Z</time>
      </trkpt>
      <trkpt lat="48.54576" lon="1.94074">
        <ele>164</ele>
        <time>2019-11-24T10:27:12Z</time>
      </trkpt>
      <trkpt lat="48.54581" lon="1.94068">
        <ele>163</ele>
        <time>2019-11-24T10:27:14Z</time>
      </trkpt>
      <trkpt lat="48.54588" lon="1.94061">
        <ele>165</ele>
        <time>2019-11-24T10:27:18Z</time>
      </trkpt>
      <trkpt lat="48.54594" lon="1.94057">
        <ele>165</ele>
        <time>2019-11-24T10:27:22Z</time>
      </trkpt>
      <trkpt lat="48.546" lon="1.94052">
        <ele>165</ele>
        <time>2019-11-24T10:28:10Z</time>
      </trkpt>
      <trkpt lat="48.54607" lon="1.94052">
        <ele>165</ele>
        <time>2019-11-24T10:28:14Z</time>
      </trkpt>
      <trkpt lat="48.54612" lon="1.9405">
        <ele>165</ele>
        <time>2019-11-24T10:28:16Z</time>
      </trkpt>
      <trkpt lat="48.54618" lon="1.94049">
        <ele>165</ele>
        <time>2019-11-24T10:28:18Z</time>
      </trkpt>
      <trkpt lat="48.54625" lon="1.94046">
        <ele>165</ele>
        <time>2019-11-24T10:28:20Z</time>
      </trkpt>
      <trkpt lat="48.54633" lon="1.9404">
        <ele>166</ele>
        <time>2019-11-24T10:28:24Z</time>
      </trkpt>
      <trkpt lat="48.54639" lon="1.94037">
        <ele>166</ele>
        <time>2019-11-24T10:28:28Z</time>
      </trkpt>
      <trkpt lat="48.54645" lon="1.94035">
        <ele>166</ele>
        <time>2019-11-24T10:28:30Z</time>
      </trkpt>
      <trkpt lat="48.54648" lon="1.9403">
        <ele>166</ele>
        <time>2019-11-24T10:28:32Z</time>
      </trkpt>
      <trkpt lat="48.54651" lon="1.94023">
        <ele>166</ele>
        <time>2019-11-24T10:28:34Z</time>
      </trkpt>
      <trkpt lat="48.5465" lon="1.94014">
        <ele>167</ele>
        <time>2019-11-24T10:28:36Z</time>
      </trkpt>
      <trkpt lat="48.54647" lon="1.94005">
        <ele>167</ele>
        <time>2019-11-24T10:28:38Z</time>
      </trkpt>
      <trkpt lat="48.54644" lon="1.93994">
        <ele>165</ele>
        <time>2019-11-24T10:28:40Z</time>
      </trkpt>
      <trkpt lat="48.54642" lon="1.93983">
        <ele>165</ele>
        <time>2019-11-24T10:28:42Z</time>
      </trkpt>
      <trkpt lat="48.54639" lon="1.93971">
        <ele>164</ele>
        <time>2019-11-24T10:28:44Z</time>
      </trkpt>
      <trkpt lat="48.54635" lon="1.93956">
        <ele>164</ele>
        <time>2019-11-24T10:28:46Z</time>
      </trkpt>
      <trkpt lat="48.5463" lon="1.93941">
        <ele>164</ele>
        <time>2019-11-24T10:28:48Z</time>
      </trkpt>
      <trkpt lat="48.54625" lon="1.93928">
        <ele>163</ele>
        <time>2019-11-24T10:28:50Z</time>
      </trkpt>
      <trkpt lat="48.54619" lon="1.93912">
        <ele>162</ele>
        <time>2019-11-24T10:28:52Z</time>
      </trkpt>
      <trkpt lat="48.54616" lon="1.93898">
        <ele>161</ele>
        <time>2019-11-24T10:28:54Z</time>
      </trkpt>
      <trkpt lat="48.5461" lon="1.93883">
        <ele>161</ele>
        <time>2019-11-24T10:28:56Z</time>
      </trkpt>
      <trkpt lat="48.54607" lon="1.93868">
        <ele>160</ele>
        <time>2019-11-24T10:28:58Z</time>
      </trkpt>
      <trkpt lat="48.54602" lon="1.93853">
        <ele>159</ele>
        <time>2019-11-24T10:29:00Z</time>
      </trkpt>
      <trkpt lat="48.54597" lon="1.93841">
        <ele>158</ele>
        <time>2019-11-24T10:29:02Z</time>
      </trkpt>
      <trkpt lat="48.54593" lon="1.93822">
        <ele>157</ele>
        <time>2019-11-24T10:29:04Z</time>
      </trkpt>
      <trkpt lat="48.54591" lon="1.93808">
        <ele>157</ele>
        <time>2019-11-24T10:29:06Z</time>
      </trkpt>
      <trkpt lat="48.54588" lon="1.93799">
        <ele>157</ele>
        <time>2019-11-24T10:29:08Z</time>
      </trkpt>
      <trkpt lat="48.5459" lon="1.93789">
        <ele>157</ele>
        <time>2019-11-24T10:29:10Z</time>
      </trkpt>
      <trkpt lat="48.54585" lon="1.9377">
        <ele>155</ele>
        <time>2019-11-24T10:29:12Z</time>
      </trkpt>
      <trkpt lat="48.54584" lon="1.93755">
        <ele>153</ele>
        <time>2019-11-24T10:29:14Z</time>
      </trkpt>
      <trkpt lat="48.54586" lon="1.93738">
        <ele>152</ele>
        <time>2019-11-24T10:29:16Z</time>
      </trkpt>
      <trkpt lat="48.54593" lon="1.93716">
        <ele>153</ele>
        <time>2019-11-24T10:29:18Z</time>
      </trkpt>
      <trkpt lat="48.546" lon="1.93693">
        <ele>151</ele>
        <time>2019-11-24T10:29:20Z</time>
      </trkpt>
      <trkpt lat="48.54605" lon="1.93673">
        <ele>150</ele>
        <time>2019-11-24T10:29:22Z</time>
      </trkpt>
      <trkpt lat="48.54611" lon="1.93657">
        <ele>146</ele>
        <time>2019-11-24T10:29:24Z</time>
      </trkpt>
      <trkpt lat="48.54616" lon="1.93644">
        <ele>147</ele>
        <time>2019-11-24T10:29:26Z</time>
      </trkpt>
      <trkpt lat="48.54621" lon="1.93629">
        <ele>146</ele>
        <time>2019-11-24T10:29:28Z</time>
      </trkpt>
      <trkpt lat="48.54625" lon="1.93614">
        <ele>146</ele>
        <time>2019-11-24T10:29:30Z</time>
      </trkpt>
      <trkpt lat="48.54632" lon="1.936">
        <ele>146</ele>
        <time>2019-11-24T10:29:32Z</time>
      </trkpt>
      <trkpt lat="48.54642" lon="1.93591">
        <ele>146</ele>
        <time>2019-11-24T10:29:34Z</time>
      </trkpt>
      <trkpt lat="48.54654" lon="1.93583">
        <ele>145</ele>
        <time>2019-11-24T10:29:36Z</time>
      </trkpt>
      <trkpt lat="48.54668" lon="1.93571">
        <ele>149</ele>
        <time>2019-11-24T10:29:38Z</time>
      </trkpt>
      <trkpt lat="48.54682" lon="1.93556">
        <ele>149</ele>
        <time>2019-11-24T10:29:40Z</time>
      </trkpt>
      <trkpt lat="48.54692" lon="1.93539">
        <ele>149</ele>
        <time>2019-11-24T10:29:42Z</time>
      </trkpt>
      <trkpt lat="48.54701" lon="1.93529">
        <ele>149</ele>
        <time>2019-11-24T10:29:44Z</time>
      </trkpt>
      <trkpt lat="48.54708" lon="1.9352">
        <ele>149</ele>
        <time>2019-11-24T10:29:46Z</time>
      </trkpt>
      <trkpt lat="48.54712" lon="1.93513">
        <ele>150</ele>
        <time>2019-11-24T10:29:48Z</time>
      </trkpt>
      <trkpt lat="48.54715" lon="1.93505">
        <ele>150</ele>
        <time>2019-11-24T10:29:50Z</time>
      </trkpt>
      <trkpt lat="48.54718" lon="1.93496">
        <ele>145</ele>
        <time>2019-11-24T10:29:52Z</time>
      </trkpt>
      <trkpt lat="48.54722" lon="1.93485">
        <ele>145</ele>
        <time>2019-11-24T10:29:54Z</time>
      </trkpt>
      <trkpt lat="48.54725" lon="1.93475">
        <ele>145</ele>
        <time>2019-11-24T10:29:56Z</time>
      </trkpt>
      <trkpt lat="48.54731" lon="1.93463">
        <ele>144</ele>
        <time>2019-11-24T10:29:58Z</time>
      </trkpt>
      <trkpt lat="48.54738" lon="1.93451">
        <ele>144</ele>
        <time>2019-11-24T10:30:00Z</time>
      </trkpt>
      <trkpt lat="48.54745" lon="1.93441">
        <ele>144</ele>
        <time>2019-11-24T10:30:02Z</time>
      </trkpt>
      <trkpt lat="48.54754" lon="1.93432">
        <ele>147</ele>
        <time>2019-11-24T10:30:04Z</time>
      </trkpt>
      <trkpt lat="48.54768" lon="1.93428">
        <ele>147</ele>
        <time>2019-11-24T10:30:06Z</time>
      </trkpt>
      <trkpt lat="48.54781" lon="1.93425">
        <ele>148</ele>
        <time>2019-11-24T10:30:08Z</time>
      </trkpt>
      <trkpt lat="48.54793" lon="1.93419">
        <ele>149</ele>
        <time>2019-11-24T10:30:10Z</time>
      </trkpt>
      <trkpt lat="48.54804" lon="1.93416">
        <ele>145</ele>
        <time>2019-11-24T10:30:12Z</time>
      </trkpt>
      <trkpt lat="48.54811" lon="1.93413">
        <ele>145</ele>
        <time>2019-11-24T10:30:14Z</time>
      </trkpt>
      <trkpt lat="48.54817" lon="1.93413">
        <ele>146</ele>
        <time>2019-11-24T10:30:16Z</time>
      </trkpt>
      <trkpt lat="48.54824" lon="1.93414">
        <ele>147</ele>
        <time>2019-11-24T10:30:20Z</time>
      </trkpt>
      <trkpt lat="48.54832" lon="1.93413">
        <ele>148</ele>
        <time>2019-11-24T10:30:24Z</time>
      </trkpt>
      <trkpt lat="48.54838" lon="1.93411">
        <ele>150</ele>
        <time>2019-11-24T10:30:26Z</time>
      </trkpt>
      <trkpt lat="48.54843" lon="1.93413">
        <ele>150</ele>
        <time>2019-11-24T10:30:28Z</time>
      </trkpt>
      <trkpt lat="48.54853" lon="1.93414">
        <ele>151</ele>
        <time>2019-11-24T10:30:32Z</time>
      </trkpt>
      <trkpt lat="48.54857" lon="1.93417">
        <ele>155</ele>
        <time>2019-11-24T10:30:34Z</time>
      </trkpt>
      <trkpt lat="48.54862" lon="1.93421">
        <ele>155</ele>
        <time>2019-11-24T10:30:36Z</time>
      </trkpt>
      <trkpt lat="48.54868" lon="1.93422">
        <ele>156</ele>
        <time>2019-11-24T10:30:40Z</time>
      </trkpt>
      <trkpt lat="48.54875" lon="1.93427">
        <ele>157</ele>
        <time>2019-11-24T10:30:44Z</time>
      </trkpt>
      <trkpt lat="48.54881" lon="1.93433">
        <ele>157</ele>
        <time>2019-11-24T10:30:48Z</time>
      </trkpt>
      <trkpt lat="48.54884" lon="1.93438">
        <ele>158</ele>
        <time>2019-11-24T10:30:54Z</time>
      </trkpt>
      <trkpt lat="48.54888" lon="1.93442">
        <ele>158</ele>
        <time>2019-11-24T10:31:00Z</time>
      </trkpt>
      <trkpt lat="48.54893" lon="1.93445">
        <ele>158</ele>
        <time>2019-11-24T10:31:08Z</time>
      </trkpt>
      <trkpt lat="48.54898" lon="1.93447">
        <ele>159</ele>
        <time>2019-11-24T10:31:14Z</time>
      </trkpt>
      <trkpt lat="48.54903" lon="1.93449">
        <ele>159</ele>
        <time>2019-11-24T10:31:20Z</time>
      </trkpt>
      <trkpt lat="48.54907" lon="1.9345">
        <ele>159</ele>
        <time>2019-11-24T10:31:28Z</time>
      </trkpt>
      <trkpt lat="48.54912" lon="1.93454">
        <ele>159</ele>
        <time>2019-11-24T10:31:36Z</time>
      </trkpt>
      <trkpt lat="48.54917" lon="1.93456">
        <ele>163</ele>
        <time>2019-11-24T10:31:44Z</time>
      </trkpt>
      <trkpt lat="48.54922" lon="1.93457">
        <ele>163</ele>
        <time>2019-11-24T10:31:52Z</time>
      </trkpt>
      <trkpt lat="48.54928" lon="1.93459">
        <ele>163</ele>
        <time>2019-11-24T10:31:58Z</time>
      </trkpt>
      <trkpt lat="48.54934" lon="1.93459">
        <ele>163</ele>
        <time>2019-11-24T10:32:04Z</time>
      </trkpt>
      <trkpt lat="48.54942" lon="1.93461">
        <ele>164</ele>
        <time>2019-11-24T10:32:12Z</time>
      </trkpt>
      <trkpt lat="48.54946" lon="1.93465">
        <ele>164</ele>
        <time>2019-11-24T10:35:10Z</time>
      </trkpt>
      <trkpt lat="48.54951" lon="1.93467">
        <ele>164</ele>
        <time>2019-11-24T10:35:14Z</time>
      </trkpt>
      <trkpt lat="48.54956" lon="1.93468">
        <ele>164</ele>
        <time>2019-11-24T10:35:16Z</time>
      </trkpt>
      <trkpt lat="48.54962" lon="1.93471">
        <ele>164</ele>
        <time>2019-11-24T10:35:18Z</time>
      </trkpt>
      <trkpt lat="48.54967" lon="1.93473">
        <ele>164</ele>
        <time>2019-11-24T10:35:20Z</time>
      </trkpt>
      <trkpt lat="48.54973" lon="1.93474">
        <ele>165</ele>
        <time>2019-11-24T10:35:22Z</time>
      </trkpt>
      <trkpt lat="48.54978" lon="1.93475">
        <ele>165</ele>
        <time>2019-11-24T10:35:24Z</time>
      </trkpt>
      <trkpt lat="48.54984" lon="1.93476">
        <ele>165</ele>
        <time>2019-11-24T10:35:26Z</time>
      </trkpt>
      <trkpt lat="48.54992" lon="1.93477">
        <ele>165</ele>
        <time>2019-11-24T10:35:28Z</time>
      </trkpt>
      <trkpt lat="48.54999" lon="1.9348">
        <ele>165</ele>
        <time>2019-11-24T10:35:30Z</time>
      </trkpt>
      <trkpt lat="48.55006" lon="1.93479">
        <ele>167</ele>
        <time>2019-11-24T10:35:32Z</time>
      </trkpt>
      <trkpt lat="48.55015" lon="1.93482">
        <ele>167</ele>
        <time>2019-11-24T10:35:34Z</time>
      </trkpt>
      <trkpt lat="48.55024" lon="1.93485">
        <ele>167</ele>
        <time>2019-11-24T10:35:36Z</time>
      </trkpt>
      <trkpt lat="48.55033" lon="1.93489">
        <ele>167</ele>
        <time>2019-11-24T10:35:38Z</time>
      </trkpt>
      <trkpt lat="48.55041" lon="1.93492">
        <ele>167</ele>
        <time>2019-11-24T10:35:40Z</time>
      </trkpt>
      <trkpt lat="48.5505" lon="1.93495">
        <ele>167</ele>
        <time>2019-11-24T10:35:42Z</time>
      </trkpt>
      <trkpt lat="48.55058" lon="1.93497">
        <ele>167</ele>
        <time>2019-11-24T10:35:44Z</time>
      </trkpt>
      <trkpt lat="48.55067" lon="1.93499">
        <ele>167</ele>
        <time>2019-11-24T10:35:46Z</time>
      </trkpt>
      <trkpt lat="48.55076" lon="1.93497">
        <ele>167</ele>
        <time>2019-11-24T10:35:48Z</time>
      </trkpt>
      <trkpt lat="48.55085" lon="1.9349">
        <ele>167</ele>
        <time>2019-11-24T10:35:50Z</time>
      </trkpt>
      <trkpt lat="48.55093" lon="1.93482">
        <ele>167</ele>
        <time>2019-11-24T10:35:52Z</time>
      </trkpt>
      <trkpt lat="48.55101" lon="1.93472">
        <ele>167</ele>
        <time>2019-11-24T10:35:54Z</time>
      </trkpt>
      <trkpt lat="48.55109" lon="1.93463">
        <ele>167</ele>
        <time>2019-11-24T10:35:56Z</time>
      </trkpt>
      <trkpt lat="48.55119" lon="1.93454">
        <ele>167</ele>
        <time>2019-11-24T10:35:58Z</time>
      </trkpt>
      <trkpt lat="48.55129" lon="1.93445">
        <ele>167</ele>
        <time>2019-11-24T10:36:00Z</time>
      </trkpt>
      <trkpt lat="48.55139" lon="1.93436">
        <ele>167</ele>
        <time>2019-11-24T10:36:02Z</time>
      </trkpt>
      <trkpt lat="48.55148" lon="1.93428">
        <ele>166</ele>
        <time>2019-11-24T10:36:04Z</time>
      </trkpt>
      <trkpt lat="48.55154" lon="1.93418">
        <ele>166</ele>
        <time>2019-11-24T10:36:06Z</time>
      </trkpt>
      <trkpt lat="48.55163" lon="1.93406">
        <ele>166</ele>
        <time>2019-11-24T10:36:08Z</time>
      </trkpt>
      <trkpt lat="48.55174" lon="1.93396">
        <ele>165</ele>
        <time>2019-11-24T10:36:10Z</time>
      </trkpt>
      <trkpt lat="48.55185" lon="1.93385">
        <ele>164</ele>
        <time>2019-11-24T10:36:12Z</time>
      </trkpt>
      <trkpt lat="48.55195" lon="1.93378">
        <ele>164</ele>
        <time>2019-11-24T10:36:14Z</time>
      </trkpt>
      <trkpt lat="48.55204" lon="1.93368">
        <ele>164</ele>
        <time>2019-11-24T10:36:16Z</time>
      </trkpt>
      <trkpt lat="48.55213" lon="1.93358">
        <ele>163</ele>
        <time>2019-11-24T10:36:18Z</time>
      </trkpt>
      <trkpt lat="48.55222" lon="1.93348">
        <ele>162</ele>
        <time>2019-11-24T10:36:20Z</time>
      </trkpt>
      <trkpt lat="48.5523" lon="1.93339">
        <ele>161</ele>
        <time>2019-11-24T10:36:22Z</time>
      </trkpt>
      <trkpt lat="48.55238" lon="1.9333">
        <ele>159</ele>
        <time>2019-11-24T10:36:24Z</time>
      </trkpt>
      <trkpt lat="48.55243" lon="1.93321">
        <ele>159</ele>
        <time>2019-11-24T10:36:26Z</time>
      </trkpt>
      <trkpt lat="48.55243" lon="1.93311">
        <ele>159</ele>
        <time>2019-11-24T10:36:28Z</time>
      </trkpt>
      <trkpt lat="48.55237" lon="1.933">
        <ele>159</ele>
        <time>2019-11-24T10:36:30Z</time>
      </trkpt>
      <trkpt lat="48.55227" lon="1.9329">
        <ele>159</ele>
        <time>2019-11-24T10:36:32Z</time>
      </trkpt>
      <trkpt lat="48.55216" lon="1.9328">
        <ele>159</ele>
        <time>2019-11-24T10:36:34Z</time>
      </trkpt>
      <trkpt lat="48.55206" lon="1.93272">
        <ele>159</ele>
        <time>2019-11-24T10:36:36Z</time>
      </trkpt>
      <trkpt lat="48.55197" lon="1.93268">
        <ele>160</ele>
        <time>2019-11-24T10:36:38Z</time>
      </trkpt>
      <trkpt lat="48.5519" lon="1.93265">
        <ele>160</ele>
        <time>2019-11-24T10:36:40Z</time>
      </trkpt>
      <trkpt lat="48.55184" lon="1.93262">
        <ele>160</ele>
        <time>2019-11-24T10:36:42Z</time>
      </trkpt>
      <trkpt lat="48.55179" lon="1.93261">
        <ele>160</ele>
        <time>2019-11-24T10:36:44Z</time>
      </trkpt>
      <trkpt lat="48.55174" lon="1.93259">
        <ele>161</ele>
        <time>2019-11-24T10:36:46Z</time>
      </trkpt>
      <trkpt lat="48.55167" lon="1.93258">
        <ele>161</ele>
        <time>2019-11-24T10:36:48Z</time>
      </trkpt>
      <trkpt lat="48.55161" lon="1.93257">
        <ele>162</ele>
        <time>2019-11-24T10:36:50Z</time>
      </trkpt>
      <trkpt lat="48.55153" lon="1.93254">
        <ele>163</ele>
        <time>2019-11-24T10:36:52Z</time>
      </trkpt>
      <trkpt lat="48.55148" lon="1.93253">
        <ele>163</ele>
        <time>2019-11-24T10:36:54Z</time>
      </trkpt>
      <trkpt lat="48.5514" lon="1.93251">
        <ele>164</ele>
        <time>2019-11-24T10:36:56Z</time>
      </trkpt>
      <trkpt lat="48.55133" lon="1.93249">
        <ele>162</ele>
        <time>2019-11-24T10:36:58Z</time>
      </trkpt>
      <trkpt lat="48.55126" lon="1.93247">
        <ele>162</ele>
        <time>2019-11-24T10:37:00Z</time>
      </trkpt>
      <trkpt lat="48.55119" lon="1.93245">
        <ele>163</ele>
        <time>2019-11-24T10:37:02Z</time>
      </trkpt>
      <trkpt lat="48.55113" lon="1.9324">
        <ele>163</ele>
        <time>2019-11-24T10:37:04Z</time>
      </trkpt>
      <trkpt lat="48.55105" lon="1.93237">
        <ele>163</ele>
        <time>2019-11-24T10:37:06Z</time>
      </trkpt>
      <trkpt lat="48.55098" lon="1.93235">
        <ele>164</ele>
        <time>2019-11-24T10:37:08Z</time>
      </trkpt>
      <trkpt lat="48.5509" lon="1.93233">
        <ele>164</ele>
        <time>2019-11-24T10:37:10Z</time>
      </trkpt>
      <trkpt lat="48.55083" lon="1.9323">
        <ele>164</ele>
        <time>2019-11-24T10:37:12Z</time>
      </trkpt>
      <trkpt lat="48.55075" lon="1.93225">
        <ele>165</ele>
        <time>2019-11-24T10:37:14Z</time>
      </trkpt>
      <trkpt lat="48.55068" lon="1.9322">
        <ele>165</ele>
        <time>2019-11-24T10:37:16Z</time>
      </trkpt>
      <trkpt lat="48.55062" lon="1.93212">
        <ele>164</ele>
        <time>2019-11-24T10:37:18Z</time>
      </trkpt>
      <trkpt lat="48.55058" lon="1.93202">
        <ele>164</ele>
        <time>2019-11-24T10:37:20Z</time>
      </trkpt>
      <trkpt lat="48.55053" lon="1.93192">
        <ele>164</ele>
        <time>2019-11-24T10:37:22Z</time>
      </trkpt>
      <trkpt lat="48.55048" lon="1.93181">
        <ele>164</ele>
        <time>2019-11-24T10:37:24Z</time>
      </trkpt>
      <trkpt lat="48.55043" lon="1.9317">
        <ele>164</ele>
        <time>2019-11-24T10:37:26Z</time>
      </trkpt>
      <trkpt lat="48.55038" lon="1.9316">
        <ele>162</ele>
        <time>2019-11-24T10:37:28Z</time>
      </trkpt>
      <trkpt lat="48.55035" lon="1.93149">
        <ele>162</ele>
        <time>2019-11-24T10:37:30Z</time>
      </trkpt>
      <trkpt lat="48.55027" lon="1.93139">
        <ele>161</ele>
        <time>2019-11-24T10:37:32Z</time>
      </trkpt>
      <trkpt lat="48.5502" lon="1.9313">
        <ele>161</ele>
        <time>2019-11-24T10:37:34Z</time>
      </trkpt>
      <trkpt lat="48.55013" lon="1.93121">
        <ele>161</ele>
        <time>2019-11-24T10:37:36Z</time>
      </trkpt>
      <trkpt lat="48.55006" lon="1.9311">
        <ele>160</ele>
        <time>2019-11-24T10:37:38Z</time>
      </trkpt>
      <trkpt lat="48.54999" lon="1.93098">
        <ele>157</ele>
        <time>2019-11-24T10:37:40Z</time>
      </trkpt>
      <trkpt lat="48.54987" lon="1.93087">
        <ele>157</ele>
        <time>2019-11-24T10:37:42Z</time>
      </trkpt>
      <trkpt lat="48.54973" lon="1.93074">
        <ele>153</ele>
        <time>2019-11-24T10:37:44Z</time>
      </trkpt>
      <trkpt lat="48.54957" lon="1.93062">
        <ele>150</ele>
        <time>2019-11-24T10:37:46Z</time>
      </trkpt>
      <trkpt lat="48.54943" lon="1.93048">
        <ele>149</ele>
        <time>2019-11-24T10:37:48Z</time>
      </trkpt>
      <trkpt lat="48.54928" lon="1.93032">
        <ele>148</ele>
        <time>2019-11-24T10:37:50Z</time>
      </trkpt>
      <trkpt lat="48.54916" lon="1.9301">
        <ele>143</ele>
        <time>2019-11-24T10:37:52Z</time>
      </trkpt>
      <trkpt lat="48.54908" lon="1.92983">
        <ele>142</ele>
        <time>2019-11-24T10:37:54Z</time>
      </trkpt>
      <trkpt lat="48.54901" lon="1.92954">
        <ele>142</ele>
        <time>2019-11-24T10:37:56Z</time>
      </trkpt>
      <trkpt lat="48.54895" lon="1.92926">
        <ele>142</ele>
        <time>2019-11-24T10:37:58Z</time>
      </trkpt>
      <trkpt lat="48.54889" lon="1.929">
        <ele>142</ele>
        <time>2019-11-24T10:38:00Z</time>
      </trkpt>
      <trkpt lat="48.54883" lon="1.92876">
        <ele>142</ele>
        <time>2019-11-24T10:38:02Z</time>
      </trkpt>
      <trkpt lat="48.54879" lon="1.92854">
        <ele>142</ele>
        <time>2019-11-24T10:38:04Z</time>
      </trkpt>
      <trkpt lat="48.54873" lon="1.92835">
        <ele>142</ele>
        <time>2019-11-24T10:38:06Z</time>
      </trkpt>
      <trkpt lat="48.54867" lon="1.92821">
        <ele>142</ele>
        <time>2019-11-24T10:38:08Z</time>
      </trkpt>
      <trkpt lat="48.54856" lon="1.92813">
        <ele>142</ele>
        <time>2019-11-24T10:38:10Z</time>
      </trkpt>
      <trkpt lat="48.54848" lon="1.92809">
        <ele>142</ele>
        <time>2019-11-24T10:38:12Z</time>
      </trkpt>
      <trkpt lat="48.54838" lon="1.92813">
        <ele>141</ele>
        <time>2019-11-24T10:38:14Z</time>
      </trkpt>
      <trkpt lat="48.54828" lon="1.92818">
        <ele>140</ele>
        <time>2019-11-24T10:38:16Z</time>
      </trkpt>
      <trkpt lat="48.54819" lon="1.92819">
        <ele>140</ele>
        <time>2019-11-24T10:38:18Z</time>
      </trkpt>
      <trkpt lat="48.5481" lon="1.92815">
        <ele>140</ele>
        <time>2019-11-24T10:38:20Z</time>
      </trkpt>
      <trkpt lat="48.54803" lon="1.92812">
        <ele>140</ele>
        <time>2019-11-24T10:38:22Z</time>
      </trkpt>
      <trkpt lat="48.54798" lon="1.92808">
        <ele>140</ele>
        <time>2019-11-24T10:38:24Z</time>
      </trkpt>
      <trkpt lat="48.54793" lon="1.92803">
        <ele>140</ele>
        <time>2019-11-24T10:38:26Z</time>
      </trkpt>
      <trkpt lat="48.54789" lon="1.92797">
        <ele>140</ele>
        <time>2019-11-24T10:38:28Z</time>
      </trkpt>
      <trkpt lat="48.54788" lon="1.92789">
        <ele>141</ele>
        <time>2019-11-24T10:38:30Z</time>
      </trkpt>
      <trkpt lat="48.54788" lon="1.92779">
        <ele>141</ele>
        <time>2019-11-24T10:38:32Z</time>
      </trkpt>
      <trkpt lat="48.54789" lon="1.92767">
        <ele>141</ele>
        <time>2019-11-24T10:38:34Z</time>
      </trkpt>
      <trkpt lat="48.54792" lon="1.92756">
        <ele>141</ele>
        <time>2019-11-24T10:38:36Z</time>
      </trkpt>
      <trkpt lat="48.54793" lon="1.92743">
        <ele>142</ele>
        <time>2019-11-24T10:38:38Z</time>
      </trkpt>
      <trkpt lat="48.54794" lon="1.9273">
        <ele>142</ele>
        <time>2019-11-24T10:38:40Z</time>
      </trkpt>
      <trkpt lat="48.54797" lon="1.92718">
        <ele>143</ele>
        <time>2019-11-24T10:38:42Z</time>
      </trkpt>
      <trkpt lat="48.548" lon="1.92706">
        <ele>143</ele>
        <time>2019-11-24T10:38:44Z</time>
      </trkpt>
      <trkpt lat="48.54804" lon="1.92696">
        <ele>143</ele>
        <time>2019-11-24T10:38:46Z</time>
      </trkpt>
      <trkpt lat="48.54807" lon="1.92688">
        <ele>143</ele>
        <time>2019-11-24T10:38:48Z</time>
      </trkpt>
      <trkpt lat="48.54808" lon="1.92681">
        <ele>143</ele>
        <time>2019-11-24T10:39:04Z</time>
      </trkpt>
      <trkpt lat="48.54812" lon="1.92671">
        <ele>143</ele>
        <time>2019-11-24T10:39:24Z</time>
      </trkpt>
      <trkpt lat="48.54814" lon="1.9266">
        <ele>144</ele>
        <time>2019-11-24T10:39:28Z</time>
      </trkpt>
      <trkpt lat="48.54819" lon="1.92652">
        <ele>144</ele>
        <time>2019-11-24T10:39:30Z</time>
      </trkpt>
      <trkpt lat="48.54823" lon="1.92643">
        <ele>144</ele>
        <time>2019-11-24T10:39:32Z</time>
      </trkpt>
      <trkpt lat="48.54825" lon="1.92631">
        <ele>144</ele>
        <time>2019-11-24T10:39:34Z</time>
      </trkpt>
      <trkpt lat="48.54829" lon="1.92619">
        <ele>144</ele>
        <time>2019-11-24T10:39:36Z</time>
      </trkpt>
      <trkpt lat="48.54832" lon="1.92605">
        <ele>144</ele>
        <time>2019-11-24T10:39:38Z</time>
      </trkpt>
      <trkpt lat="48.54835" lon="1.92592">
        <ele>144</ele>
        <time>2019-11-24T10:39:40Z</time>
      </trkpt>
      <trkpt lat="48.54839" lon="1.9258">
        <ele>144</ele>
        <time>2019-11-24T10:39:42Z</time>
      </trkpt>
      <trkpt lat="48.54843" lon="1.92568">
        <ele>144</ele>
        <time>2019-11-24T10:39:44Z</time>
      </trkpt>
      <trkpt lat="48.54845" lon="1.92556">
        <ele>145</ele>
        <time>2019-11-24T10:39:46Z</time>
      </trkpt>
      <trkpt lat="48.54849" lon="1.92543">
        <ele>145</ele>
        <time>2019-11-24T10:39:48Z</time>
      </trkpt>
      <trkpt lat="48.54852" lon="1.92531">
        <ele>145</ele>
        <time>2019-11-24T10:39:50Z</time>
      </trkpt>
      <trkpt lat="48.54856" lon="1.92519">
        <ele>145</ele>
        <time>2019-11-24T10:39:52Z</time>
      </trkpt>
      <trkpt lat="48.54859" lon="1.92508">
        <ele>145</ele>
        <time>2019-11-24T10:39:54Z</time>
      </trkpt>
      <trkpt lat="48.54863" lon="1.92496">
        <ele>144</ele>
        <time>2019-11-24T10:39:56Z</time>
      </trkpt>
      <trkpt lat="48.54866" lon="1.92484">
        <ele>144</ele>
        <time>2019-11-24T10:39:58Z</time>
      </trkpt>
      <trkpt lat="48.54869" lon="1.92472">
        <ele>144</ele>
        <time>2019-11-24T10:40:00Z</time>
      </trkpt>
      <trkpt lat="48.54873" lon="1.92461">
        <ele>144</ele>
        <time>2019-11-24T10:40:02Z</time>
      </trkpt>
      <trkpt lat="48.54876" lon="1.92449">
        <ele>144</ele>
        <time>2019-11-24T10:40:04Z</time>
      </trkpt>
      <trkpt lat="48.5488" lon="1.92438">
        <ele>145</ele>
        <time>2019-11-24T10:40:06Z</time>
      </trkpt>
      <trkpt lat="48.54884" lon="1.92427">
        <ele>145</ele>
        <time>2019-11-24T10:40:08Z</time>
      </trkpt>
      <trkpt lat="48.54887" lon="1.92415">
        <ele>144</ele>
        <time>2019-11-24T10:40:10Z</time>
      </trkpt>
      <trkpt lat="48.54891" lon="1.92404">
        <ele>144</ele>
        <time>2019-11-24T10:40:12Z</time>
      </trkpt>
      <trkpt lat="48.54894" lon="1.92392">
        <ele>144</ele>
        <time>2019-11-24T10:40:14Z</time>
      </trkpt>
      <trkpt lat="48.54898" lon="1.9238">
        <ele>144</ele>
        <time>2019-11-24T10:40:16Z</time>
      </trkpt>
      <trkpt lat="48.54901" lon="1.92368">
        <ele>143</ele>
        <time>2019-11-24T10:40:18Z</time>
      </trkpt>
      <trkpt lat="48.54905" lon="1.92356">
        <ele>143</ele>
        <time>2019-11-24T10:40:20Z</time>
      </trkpt>
      <trkpt lat="48.54908" lon="1.92343">
        <ele>143</ele>
        <time>2019-11-24T10:40:22Z</time>
      </trkpt>
      <trkpt lat="48.54912" lon="1.92331">
        <ele>143</ele>
        <time>2019-11-24T10:40:24Z</time>
      </trkpt>
      <trkpt lat="48.54915" lon="1.92319">
        <ele>143</ele>
        <time>2019-11-24T10:40:26Z</time>
      </trkpt>
      <trkpt lat="48.54919" lon="1.92307">
        <ele>144</ele>
        <time>2019-11-24T10:40:28Z</time>
      </trkpt>
      <trkpt lat="48.54923" lon="1.92295">
        <ele>144</ele>
        <time>2019-11-24T10:40:30Z</time>
      </trkpt>
      <trkpt lat="48.54926" lon="1.92283">
        <ele>144</ele>
        <time>2019-11-24T10:40:32Z</time>
      </trkpt>
      <trkpt lat="48.5493" lon="1.92271">
        <ele>144</ele>
        <time>2019-11-24T10:40:34Z</time>
      </trkpt>
      <trkpt lat="48.54933" lon="1.92258">
        <ele>144</ele>
        <time>2019-11-24T10:40:36Z</time>
      </trkpt>
      <trkpt lat="48.54937" lon="1.92246">
        <ele>143</ele>
        <time>2019-11-24T10:40:38Z</time>
      </trkpt>
      <trkpt lat="48.5494" lon="1.92235">
        <ele>144</ele>
        <time>2019-11-24T10:40:40Z</time>
      </trkpt>
      <trkpt lat="48.54943" lon="1.92223">
        <ele>144</ele>
        <time>2019-11-24T10:40:42Z</time>
      </trkpt>
      <trkpt lat="48.54946" lon="1.92212">
        <ele>144</ele>
        <time>2019-11-24T10:40:44Z</time>
      </trkpt>
      <trkpt lat="48.54949" lon="1.92202">
        <ele>144</ele>
        <time>2019-11-24T10:40:46Z</time>
      </trkpt>
      <trkpt lat="48.54952" lon="1.92192">
        <ele>144</ele>
        <time>2019-11-24T10:40:48Z</time>
      </trkpt>
      <trkpt lat="48.54955" lon="1.92181">
        <ele>144</ele>
        <time>2019-11-24T10:40:50Z</time>
      </trkpt>
      <trkpt lat="48.54957" lon="1.92171">
        <ele>144</ele>
        <time>2019-11-24T10:40:52Z</time>
      </trkpt>
      <trkpt lat="48.5496" lon="1.92161">
        <ele>145</ele>
        <time>2019-11-24T10:40:54Z</time>
      </trkpt>
      <trkpt lat="48.54963" lon="1.92152">
        <ele>145</ele>
        <time>2019-11-24T10:40:56Z</time>
      </trkpt>
      <trkpt lat="48.54965" lon="1.92143">
        <ele>145</ele>
        <time>2019-11-24T10:40:58Z</time>
      </trkpt>
      <trkpt lat="48.54968" lon="1.92132">
        <ele>146</ele>
        <time>2019-11-24T10:41:00Z</time>
      </trkpt>
      <trkpt lat="48.54971" lon="1.9212">
        <ele>146</ele>
        <time>2019-11-24T10:41:02Z</time>
      </trkpt>
      <trkpt lat="48.54975" lon="1.92109">
        <ele>146</ele>
        <time>2019-11-24T10:41:04Z</time>
      </trkpt>
      <trkpt lat="48.54979" lon="1.92096">
        <ele>146</ele>
        <time>2019-11-24T10:41:06Z</time>
      </trkpt>
      <trkpt lat="48.54983" lon="1.92083">
        <ele>148</ele>
        <time>2019-11-24T10:41:08Z</time>
      </trkpt>
      <trkpt lat="48.54986" lon="1.92069">
        <ele>148</ele>
        <time>2019-11-24T10:41:10Z</time>
      </trkpt>
      <trkpt lat="48.54991" lon="1.92055">
        <ele>148</ele>
        <time>2019-11-24T10:41:12Z</time>
      </trkpt>
      <trkpt lat="48.54996" lon="1.9204">
        <ele>148</ele>
        <time>2019-11-24T10:41:14Z</time>
      </trkpt>
      <trkpt lat="48.55001" lon="1.92026">
        <ele>149</ele>
        <time>2019-11-24T10:41:16Z</time>
      </trkpt>
      <trkpt lat="48.55007" lon="1.92014">
        <ele>149</ele>
        <time>2019-11-24T10:41:18Z</time>
      </trkpt>
      <trkpt lat="48.55011" lon="1.92002">
        <ele>150</ele>
        <time>2019-11-24T10:41:20Z</time>
      </trkpt>
      <trkpt lat="48.55019" lon="1.91989">
        <ele>150</ele>
        <time>2019-11-24T10:41:22Z</time>
      </trkpt>
      <trkpt lat="48.55021" lon="1.9198">
        <ele>150</ele>
        <time>2019-11-24T10:41:24Z</time>
      </trkpt>
      <trkpt lat="48.55022" lon="1.91967">
        <ele>150</ele>
        <time>2019-11-24T10:41:26Z</time>
      </trkpt>
      <trkpt lat="48.55025" lon="1.91952">
        <ele>150</ele>
        <time>2019-11-24T10:41:28Z</time>
      </trkpt>
      <trkpt lat="48.55027" lon="1.91939">
        <ele>150</ele>
        <time>2019-11-24T10:41:30Z</time>
      </trkpt>
      <trkpt lat="48.5503" lon="1.91928">
        <ele>150</ele>
        <time>2019-11-24T10:41:32Z</time>
      </trkpt>
      <trkpt lat="48.55032" lon="1.91918">
        <ele>150</ele>
        <time>2019-11-24T10:41:34Z</time>
      </trkpt>
      <trkpt lat="48.55035" lon="1.91908">
        <ele>151</ele>
        <time>2019-11-24T10:41:36Z</time>
      </trkpt>
      <trkpt lat="48.55037" lon="1.91898">
        <ele>151</ele>
        <time>2019-11-24T10:41:38Z</time>
      </trkpt>
      <trkpt lat="48.5504" lon="1.9189">
        <ele>151</ele>
        <time>2019-11-24T10:41:40Z</time>
      </trkpt>
      <trkpt lat="48.55042" lon="1.91881">
        <ele>151</ele>
        <time>2019-11-24T10:41:42Z</time>
      </trkpt>
      <trkpt lat="48.55044" lon="1.91872">
        <ele>151</ele>
        <time>2019-11-24T10:41:44Z</time>
      </trkpt>
      <trkpt lat="48.55047" lon="1.91863">
        <ele>151</ele>
        <time>2019-11-24T10:41:46Z</time>
      </trkpt>
      <trkpt lat="48.55049" lon="1.91854">
        <ele>151</ele>
        <time>2019-11-24T10:41:48Z</time>
      </trkpt>
      <trkpt lat="48.55052" lon="1.91846">
        <ele>151</ele>
        <time>2019-11-24T10:41:50Z</time>
      </trkpt>
      <trkpt lat="48.55054" lon="1.91837">
        <ele>151</ele>
        <time>2019-11-24T10:41:52Z</time>
      </trkpt>
      <trkpt lat="48.55057" lon="1.91829">
        <ele>153</ele>
        <time>2019-11-24T10:41:54Z</time>
      </trkpt>
      <trkpt lat="48.55059" lon="1.9182">
        <ele>153</ele>
        <time>2019-11-24T10:41:56Z</time>
      </trkpt>
      <trkpt lat="48.55061" lon="1.91811">
        <ele>153</ele>
        <time>2019-11-24T10:41:58Z</time>
      </trkpt>
      <trkpt lat="48.55063" lon="1.91802">
        <ele>154</ele>
        <time>2019-11-24T10:42:00Z</time>
      </trkpt>
      <trkpt lat="48.55065" lon="1.91793">
        <ele>154</ele>
        <time>2019-11-24T10:42:02Z</time>
      </trkpt>
      <trkpt lat="48.55067" lon="1.91783">
        <ele>154</ele>
        <time>2019-11-24T10:42:04Z</time>
      </trkpt>
      <trkpt lat="48.55067" lon="1.91773">
        <ele>154</ele>
        <time>2019-11-24T10:42:06Z</time>
      </trkpt>
      <trkpt lat="48.55069" lon="1.91764">
        <ele>155</ele>
        <time>2019-11-24T10:42:08Z</time>
      </trkpt>
      <trkpt lat="48.5507" lon="1.91754">
        <ele>155</ele>
        <time>2019-11-24T10:42:10Z</time>
      </trkpt>
      <trkpt lat="48.55072" lon="1.91746">
        <ele>157</ele>
        <time>2019-11-24T10:42:12Z</time>
      </trkpt>
      <trkpt lat="48.55072" lon="1.91737">
        <ele>157</ele>
        <time>2019-11-24T10:42:14Z</time>
      </trkpt>
      <trkpt lat="48.55073" lon="1.9173">
        <ele>157</ele>
        <time>2019-11-24T10:42:16Z</time>
      </trkpt>
      <trkpt lat="48.55074" lon="1.91722">
        <ele>157</ele>
        <time>2019-11-24T10:42:18Z</time>
      </trkpt>
      <trkpt lat="48.55075" lon="1.91713">
        <ele>157</ele>
        <time>2019-11-24T10:42:20Z</time>
      </trkpt>
      <trkpt lat="48.55077" lon="1.91696">
        <ele>158</ele>
        <time>2019-11-24T10:42:24Z</time>
      </trkpt>
      <trkpt lat="48.55077" lon="1.91686">
        <ele>158</ele>
        <time>2019-11-24T10:42:26Z</time>
      </trkpt>
      <trkpt lat="48.55077" lon="1.91676">
        <ele>158</ele>
        <time>2019-11-24T10:42:28Z</time>
      </trkpt>
      <trkpt lat="48.55077" lon="1.91663">
        <ele>160</ele>
        <time>2019-11-24T10:42:30Z</time>
      </trkpt>
      <trkpt lat="48.55077" lon="1.91653">
        <ele>160</ele>
        <time>2019-11-24T10:42:32Z</time>
      </trkpt>
      <trkpt lat="48.55077" lon="1.9164">
        <ele>161</ele>
        <time>2019-11-24T10:42:34Z</time>
      </trkpt>
      <trkpt lat="48.55077" lon="1.91627">
        <ele>161</ele>
        <time>2019-11-24T10:42:36Z</time>
      </trkpt>
      <trkpt lat="48.55077" lon="1.91615">
        <ele>161</ele>
        <time>2019-11-24T10:42:38Z</time>
      </trkpt>
      <trkpt lat="48.55077" lon="1.916">
        <ele>162</ele>
        <time>2019-11-24T10:42:40Z</time>
      </trkpt>
      <trkpt lat="48.55077" lon="1.91588">
        <ele>162</ele>
        <time>2019-11-24T10:42:42Z</time>
      </trkpt>
      <trkpt lat="48.55078" lon="1.91576">
        <ele>162</ele>
        <time>2019-11-24T10:42:44Z</time>
      </trkpt>
      <trkpt lat="48.55077" lon="1.91562">
        <ele>163</ele>
        <time>2019-11-24T10:42:46Z</time>
      </trkpt>
      <trkpt lat="48.55076" lon="1.91549">
        <ele>163</ele>
        <time>2019-11-24T10:42:48Z</time>
      </trkpt>
      <trkpt lat="48.55077" lon="1.91534">
        <ele>162</ele>
        <time>2019-11-24T10:42:50Z</time>
      </trkpt>
      <trkpt lat="48.55077" lon="1.9152">
        <ele>162</ele>
        <time>2019-11-24T10:42:52Z</time>
      </trkpt>
      <trkpt lat="48.55077" lon="1.91504">
        <ele>161</ele>
        <time>2019-11-24T10:42:54Z</time>
      </trkpt>
      <trkpt lat="48.55077" lon="1.91486">
        <ele>161</ele>
        <time>2019-11-24T10:42:56Z</time>
      </trkpt>
      <trkpt lat="48.55079" lon="1.9147">
        <ele>162</ele>
        <time>2019-11-24T10:42:58Z</time>
      </trkpt>
      <trkpt lat="48.55078" lon="1.91453">
        <ele>162</ele>
        <time>2019-11-24T10:43:00Z</time>
      </trkpt>
      <trkpt lat="48.55079" lon="1.91436">
        <ele>161</ele>
        <time>2019-11-24T10:43:02Z</time>
      </trkpt>
      <trkpt lat="48.55079" lon="1.91418">
        <ele>160</ele>
        <time>2019-11-24T10:43:04Z</time>
      </trkpt>
      <trkpt lat="48.5508" lon="1.91399">
        <ele>160</ele>
        <time>2019-11-24T10:43:06Z</time>
      </trkpt>
      <trkpt lat="48.55081" lon="1.9138">
        <ele>160</ele>
        <time>2019-11-24T10:43:08Z</time>
      </trkpt>
      <trkpt lat="48.55081" lon="1.91361">
        <ele>160</ele>
        <time>2019-11-24T10:43:10Z</time>
      </trkpt>
      <trkpt lat="48.55082" lon="1.91344">
        <ele>159</ele>
        <time>2019-11-24T10:43:12Z</time>
      </trkpt>
      <trkpt lat="48.55084" lon="1.91328">
        <ele>157</ele>
        <time>2019-11-24T10:43:14Z</time>
      </trkpt>
      <trkpt lat="48.55086" lon="1.91313">
        <ele>156</ele>
        <time>2019-11-24T10:43:16Z</time>
      </trkpt>
      <trkpt lat="48.55087" lon="1.91299">
        <ele>156</ele>
        <time>2019-11-24T10:43:18Z</time>
      </trkpt>
      <trkpt lat="48.55091" lon="1.91287">
        <ele>156</ele>
        <time>2019-11-24T10:43:20Z</time>
      </trkpt>
      <trkpt lat="48.55099" lon="1.91284">
        <ele>156</ele>
        <time>2019-11-24T10:43:22Z</time>
      </trkpt>
      <trkpt lat="48.55104" lon="1.91289">
        <ele>156</ele>
        <time>2019-11-24T10:43:24Z</time>
      </trkpt>
      <trkpt lat="48.55109" lon="1.91297">
        <ele>156</ele>
        <time>2019-11-24T10:43:26Z</time>
      </trkpt>
      <trkpt lat="48.55114" lon="1.91303">
        <ele>156</ele>
        <time>2019-11-24T10:43:28Z</time>
      </trkpt>
      <trkpt lat="48.55119" lon="1.91311">
        <ele>156</ele>
        <time>2019-11-24T10:43:30Z</time>
      </trkpt>
      <trkpt lat="48.55121" lon="1.91321">
        <ele>156</ele>
        <time>2019-11-24T10:43:32Z</time>
      </trkpt>
      <trkpt lat="48.55123" lon="1.91332">
        <ele>156</ele>
        <time>2019-11-24T10:43:34Z</time>
      </trkpt>
      <trkpt lat="48.55124" lon="1.91343">
        <ele>156</ele>
        <time>2019-11-24T10:43:36Z</time>
      </trkpt>
      <trkpt lat="48.55126" lon="1.91355">
        <ele>156</ele>
        <time>2019-11-24T10:43:38Z</time>
      </trkpt>
      <trkpt lat="48.55128" lon="1.91367">
        <ele>156</ele>
        <time>2019-11-24T10:43:40Z</time>
      </trkpt>
      <trkpt lat="48.5513" lon="1.9138">
        <ele>156</ele>
        <time>2019-11-24T10:43:42Z</time>
      </trkpt>
      <trkpt lat="48.55132" lon="1.91395">
        <ele>156</ele>
        <time>2019-11-24T10:43:44Z</time>
      </trkpt>
      <trkpt lat="48.55134" lon="1.91411">
        <ele>155</ele>
        <time>2019-11-24T10:43:46Z</time>
      </trkpt>
      <trkpt lat="48.55136" lon="1.91428">
        <ele>156</ele>
        <time>2019-11-24T10:43:48Z</time>
      </trkpt>
      <trkpt lat="48.55137" lon="1.91446">
        <ele>156</ele>
        <time>2019-11-24T10:43:50Z</time>
      </trkpt>
      <trkpt lat="48.5514" lon="1.91467">
        <ele>156</ele>
        <time>2019-11-24T10:43:52Z</time>
      </trkpt>
      <trkpt lat="48.5514" lon="1.91486">
        <ele>156</ele>
        <time>2019-11-24T10:43:54Z</time>
      </trkpt>
      <trkpt lat="48.5514" lon="1.91506">
        <ele>157</ele>
        <time>2019-11-24T10:43:56Z</time>
      </trkpt>
      <trkpt lat="48.55141" lon="1.91523">
        <ele>157</ele>
        <time>2019-11-24T10:43:58Z</time>
      </trkpt>
      <trkpt lat="48.55143" lon="1.91529">
        <ele>158</ele>
        <time>2019-11-24T10:44:02Z</time>
      </trkpt>
      <trkpt lat="48.55145" lon="1.91536">
        <ele>158</ele>
        <time>2019-11-24T10:44:12Z</time>
      </trkpt>
      <trkpt lat="48.55145" lon="1.91549">
        <ele>158</ele>
        <time>2019-11-24T10:46:08Z</time>
      </trkpt>
      <trkpt lat="48.55146" lon="1.91556">
        <ele>158</ele>
        <time>2019-11-24T10:46:10Z</time>
      </trkpt>
      <trkpt lat="48.55146" lon="1.91565">
        <ele>158</ele>
        <time>2019-11-24T10:46:12Z</time>
      </trkpt>
      <trkpt lat="48.55146" lon="1.91573">
        <ele>158</ele>
        <time>2019-11-24T10:46:14Z</time>
      </trkpt>
      <trkpt lat="48.5514" lon="1.91582">
        <ele>158</ele>
        <time>2019-11-24T10:46:18Z</time>
      </trkpt>
      <trkpt lat="48.55141" lon="1.91592">
        <ele>158</ele>
        <time>2019-11-24T10:46:20Z</time>
      </trkpt>
      <trkpt lat="48.55143" lon="1.91603">
        <ele>158</ele>
        <time>2019-11-24T10:46:22Z</time>
      </trkpt>
      <trkpt lat="48.55144" lon="1.91614">
        <ele>158</ele>
        <time>2019-11-24T10:46:24Z</time>
      </trkpt>
      <trkpt lat="48.55143" lon="1.91625">
        <ele>158</ele>
        <time>2019-11-24T10:46:26Z</time>
      </trkpt>
      <trkpt lat="48.55144" lon="1.91637">
        <ele>158</ele>
        <time>2019-11-24T10:46:28Z</time>
      </trkpt>
      <trkpt lat="48.55144" lon="1.91648">
        <ele>158</ele>
        <time>2019-11-24T10:46:30Z</time>
      </trkpt>
      <trkpt lat="48.55145" lon="1.91661">
        <ele>158</ele>
        <time>2019-11-24T10:46:32Z</time>
      </trkpt>
      <trkpt lat="48.55146" lon="1.91673">
        <ele>157</ele>
        <time>2019-11-24T10:46:34Z</time>
      </trkpt>
      <trkpt lat="48.55146" lon="1.91686">
        <ele>157</ele>
        <time>2019-11-24T10:46:36Z</time>
      </trkpt>
      <trkpt lat="48.55147" lon="1.91699">
        <ele>157</ele>
        <time>2019-11-24T10:46:38Z</time>
      </trkpt>
      <trkpt lat="48.55148" lon="1.91713">
        <ele>156</ele>
        <time>2019-11-24T10:46:40Z</time>
      </trkpt>
      <trkpt lat="48.55147" lon="1.91726">
        <ele>156</ele>
        <time>2019-11-24T10:46:42Z</time>
      </trkpt>
      <trkpt lat="48.55146" lon="1.9174">
        <ele>156</ele>
        <time>2019-11-24T10:46:44Z</time>
      </trkpt>
      <trkpt lat="48.55147" lon="1.91752">
        <ele>155</ele>
        <time>2019-11-24T10:46:46Z</time>
      </trkpt>
      <trkpt lat="48.55149" lon="1.91764">
        <ele>154</ele>
        <time>2019-11-24T10:46:48Z</time>
      </trkpt>
      <trkpt lat="48.55157" lon="1.91771">
        <ele>154</ele>
        <time>2019-11-24T10:46:50Z</time>
      </trkpt>
      <trkpt lat="48.55163" lon="1.91772">
        <ele>154</ele>
        <time>2019-11-24T10:46:52Z</time>
      </trkpt>
      <trkpt lat="48.55167" lon="1.91774">
        <ele>157</ele>
        <time>2019-11-24T10:46:54Z</time>
      </trkpt>
      <trkpt lat="48.55175" lon="1.91781">
        <ele>158</ele>
        <time>2019-11-24T10:46:58Z</time>
      </trkpt>
      <trkpt lat="48.55173" lon="1.91787">
        <ele>158</ele>
        <time>2019-11-24T10:47:30Z</time>
      </trkpt>
      <trkpt lat="48.55178" lon="1.91788">
        <ele>158</ele>
        <time>2019-11-24T10:48:22Z</time>
      </trkpt>
      <trkpt lat="48.55179" lon="1.91795">
        <ele>158</ele>
        <time>2019-11-24T10:48:30Z</time>
      </trkpt>
      <trkpt lat="48.55184" lon="1.91801">
        <ele>158</ele>
        <time>2019-11-24T10:48:42Z</time>
      </trkpt>
      <trkpt lat="48.55188" lon="1.91801">
        <ele>158</ele>
        <time>2019-11-24T10:48:54Z</time>
      </trkpt>
      <trkpt lat="48.55193" lon="1.91802">
        <ele>159</ele>
        <time>2019-11-24T10:49:02Z</time>
      </trkpt>
      <trkpt lat="48.55197" lon="1.91805">
        <ele>159</ele>
        <time>2019-11-24T10:49:08Z</time>
      </trkpt>
      <trkpt lat="48.55201" lon="1.9181">
        <ele>159</ele>
        <time>2019-11-24T10:49:14Z</time>
      </trkpt>
      <trkpt lat="48.55206" lon="1.91814">
        <ele>159</ele>
        <time>2019-11-24T10:49:24Z</time>
      </trkpt>
      <trkpt lat="48.55207" lon="1.91824">
        <ele>159</ele>
        <time>2019-11-24T10:49:30Z</time>
      </trkpt>
      <trkpt lat="48.55209" lon="1.91836">
        <ele>160</ele>
        <time>2019-11-24T10:49:34Z</time>
      </trkpt>
      <trkpt lat="48.55209" lon="1.91844">
        <ele>160</ele>
        <time>2019-11-24T10:49:36Z</time>
      </trkpt>
      <trkpt lat="48.55211" lon="1.91851">
        <ele>160</ele>
        <time>2019-11-24T10:49:38Z</time>
      </trkpt>
      <trkpt lat="48.55212" lon="1.91859">
        <ele>160</ele>
        <time>2019-11-24T10:49:40Z</time>
      </trkpt>
      <trkpt lat="48.55212" lon="1.91867">
        <ele>160</ele>
        <time>2019-11-24T10:49:42Z</time>
      </trkpt>
      <trkpt lat="48.55212" lon="1.91877">
        <ele>160</ele>
        <time>2019-11-24T10:49:44Z</time>
      </trkpt>
      <trkpt lat="48.55214" lon="1.91886">
        <ele>160</ele>
        <time>2019-11-24T10:49:46Z</time>
      </trkpt>
      <trkpt lat="48.55214" lon="1.91896">
        <ele>160</ele>
        <time>2019-11-24T10:49:48Z</time>
      </trkpt>
      <trkpt lat="48.55216" lon="1.91907">
        <ele>161</ele>
        <time>2019-11-24T10:49:50Z</time>
      </trkpt>
      <trkpt lat="48.55217" lon="1.9192">
        <ele>161</ele>
        <time>2019-11-24T10:49:52Z</time>
      </trkpt>
      <trkpt lat="48.55218" lon="1.91934">
        <ele>161</ele>
        <time>2019-11-24T10:49:54Z</time>
      </trkpt>
      <trkpt lat="48.55221" lon="1.91948">
        <ele>161</ele>
        <time>2019-11-24T10:49:56Z</time>
      </trkpt>
      <trkpt lat="48.55224" lon="1.91961">
        <ele>161</ele>
        <time>2019-11-24T10:49:58Z</time>
      </trkpt>
      <trkpt lat="48.55226" lon="1.91973">
        <ele>161</ele>
        <time>2019-11-24T10:50:00Z</time>
      </trkpt>
      <trkpt lat="48.55227" lon="1.91983">
        <ele>162</ele>
        <time>2019-11-24T10:50:02Z</time>
      </trkpt>
      <trkpt lat="48.55229" lon="1.91993">
        <ele>162</ele>
        <time>2019-11-24T10:50:04Z</time>
      </trkpt>
      <trkpt lat="48.5523" lon="1.92002">
        <ele>163</ele>
        <time>2019-11-24T10:50:06Z</time>
      </trkpt>
      <trkpt lat="48.55231" lon="1.92011">
        <ele>162</ele>
        <time>2019-11-24T10:50:08Z</time>
      </trkpt>
      <trkpt lat="48.5523" lon="1.92021">
        <ele>162</ele>
        <time>2019-11-24T10:50:10Z</time>
      </trkpt>
      <trkpt lat="48.55231" lon="1.92035">
        <ele>162</ele>
        <time>2019-11-24T10:50:12Z</time>
      </trkpt>
      <trkpt lat="48.55233" lon="1.92048">
        <ele>162</ele>
        <time>2019-11-24T10:50:14Z</time>
      </trkpt>
      <trkpt lat="48.55235" lon="1.9206">
        <ele>163</ele>
        <time>2019-11-24T10:50:16Z</time>
      </trkpt>
      <trkpt lat="48.55235" lon="1.9207">
        <ele>163</ele>
        <time>2019-11-24T10:50:18Z</time>
      </trkpt>
      <trkpt lat="48.55234" lon="1.92081">
        <ele>164</ele>
        <time>2019-11-24T10:50:20Z</time>
      </trkpt>
      <trkpt lat="48.55232" lon="1.9209">
        <ele>164</ele>
        <time>2019-11-24T10:50:22Z</time>
      </trkpt>
      <trkpt lat="48.55231" lon="1.92097">
        <ele>164</ele>
        <time>2019-11-24T10:50:24Z</time>
      </trkpt>
      <trkpt lat="48.55231" lon="1.92109">
        <ele>163</ele>
        <time>2019-11-24T10:50:28Z</time>
      </trkpt>
      <trkpt lat="48.55232" lon="1.92116">
        <ele>163</ele>
        <time>2019-11-24T10:50:30Z</time>
      </trkpt>
      <trkpt lat="48.55233" lon="1.92122">
        <ele>163</ele>
        <time>2019-11-24T10:50:32Z</time>
      </trkpt>
      <trkpt lat="48.55234" lon="1.9213">
        <ele>163</ele>
        <time>2019-11-24T10:50:34Z</time>
      </trkpt>
      <trkpt lat="48.55235" lon="1.92139">
        <ele>164</ele>
        <time>2019-11-24T10:50:36Z</time>
      </trkpt>
      <trkpt lat="48.55237" lon="1.92147">
        <ele>164</ele>
        <time>2019-11-24T10:50:38Z</time>
      </trkpt>
      <trkpt lat="48.55239" lon="1.92154">
        <ele>165</ele>
        <time>2019-11-24T10:50:40Z</time>
      </trkpt>
      <trkpt lat="48.55239" lon="1.92163">
        <ele>166</ele>
        <time>2019-11-24T10:50:42Z</time>
      </trkpt>
      <trkpt lat="48.5524" lon="1.92171">
        <ele>166</ele>
        <time>2019-11-24T10:50:44Z</time>
      </trkpt>
      <trkpt lat="48.55241" lon="1.92179">
        <ele>166</ele>
        <time>2019-11-24T10:50:46Z</time>
      </trkpt>
      <trkpt lat="48.55243" lon="1.92188">
        <ele>165</ele>
        <time>2019-11-24T10:50:48Z</time>
      </trkpt>
      <trkpt lat="48.55245" lon="1.92197">
        <ele>165</ele>
        <time>2019-11-24T10:50:50Z</time>
      </trkpt>
      <trkpt lat="48.55246" lon="1.92206">
        <ele>165</ele>
        <time>2019-11-24T10:50:52Z</time>
      </trkpt>
      <trkpt lat="48.55246" lon="1.92215">
        <ele>165</ele>
        <time>2019-11-24T10:50:54Z</time>
      </trkpt>
      <trkpt lat="48.55245" lon="1.92224">
        <ele>165</ele>
        <time>2019-11-24T10:50:56Z</time>
      </trkpt>
      <trkpt lat="48.55246" lon="1.92231">
        <ele>166</ele>
        <time>2019-11-24T10:50:58Z</time>
      </trkpt>
      <trkpt lat="48.55248" lon="1.92239">
        <ele>166</ele>
        <time>2019-11-24T10:51:00Z</time>
      </trkpt>
      <trkpt lat="48.55249" lon="1.92245">
        <ele>167</ele>
        <time>2019-11-24T10:51:02Z</time>
      </trkpt>
      <trkpt lat="48.5525" lon="1.92259">
        <ele>168</ele>
        <time>2019-11-24T10:51:06Z</time>
      </trkpt>
      <trkpt lat="48.5525" lon="1.92273">
        <ele>168</ele>
        <time>2019-11-24T10:51:10Z</time>
      </trkpt>
      <trkpt lat="48.5525" lon="1.9228">
        <ele>168</ele>
        <time>2019-11-24T10:51:12Z</time>
      </trkpt>
      <trkpt lat="48.55251" lon="1.92288">
        <ele>168</ele>
        <time>2019-11-24T10:51:14Z</time>
      </trkpt>
      <trkpt lat="48.55251" lon="1.92297">
        <ele>168</ele>
        <time>2019-11-24T10:51:16Z</time>
      </trkpt>
      <trkpt lat="48.55251" lon="1.92306">
        <ele>168</ele>
        <time>2019-11-24T10:51:18Z</time>
      </trkpt>
      <trkpt lat="48.55251" lon="1.92314">
        <ele>168</ele>
        <time>2019-11-24T10:51:20Z</time>
      </trkpt>
      <trkpt lat="48.55253" lon="1.9232">
        <ele>168</ele>
        <time>2019-11-24T10:51:22Z</time>
      </trkpt>
      <trkpt lat="48.55254" lon="1.92329">
        <ele>168</ele>
        <time>2019-11-24T10:51:24Z</time>
      </trkpt>
      <trkpt lat="48.55254" lon="1.92336">
        <ele>168</ele>
        <time>2019-11-24T10:51:26Z</time>
      </trkpt>
      <trkpt lat="48.55252" lon="1.92343">
        <ele>168</ele>
        <time>2019-11-24T10:51:28Z</time>
      </trkpt>
      <trkpt lat="48.55248" lon="1.92352">
        <ele>166</ele>
        <time>2019-11-24T10:51:32Z</time>
      </trkpt>
      <trkpt lat="48.55246" lon="1.92359">
        <ele>166</ele>
        <time>2019-11-24T10:52:06Z</time>
      </trkpt>
      <trkpt lat="48.55243" lon="1.92372">
        <ele>166</ele>
        <time>2019-11-24T10:52:10Z</time>
      </trkpt>
      <trkpt lat="48.5524" lon="1.9238">
        <ele>165</ele>
        <time>2019-11-24T10:52:12Z</time>
      </trkpt>
      <trkpt lat="48.5524" lon="1.92391">
        <ele>165</ele>
        <time>2019-11-24T10:52:14Z</time>
      </trkpt>
      <trkpt lat="48.55242" lon="1.92401">
        <ele>166</ele>
        <time>2019-11-24T10:52:16Z</time>
      </trkpt>
      <trkpt lat="48.55248" lon="1.92409">
        <ele>166</ele>
        <time>2019-11-24T10:52:18Z</time>
      </trkpt>
      <trkpt lat="48.55253" lon="1.92417">
        <ele>167</ele>
        <time>2019-11-24T10:52:20Z</time>
      </trkpt>
      <trkpt lat="48.55258" lon="1.92424">
        <ele>167</ele>
        <time>2019-11-24T10:52:22Z</time>
      </trkpt>
      <trkpt lat="48.55263" lon="1.92433">
        <ele>167</ele>
        <time>2019-11-24T10:52:24Z</time>
      </trkpt>
      <trkpt lat="48.55268" lon="1.92441">
        <ele>167</ele>
        <time>2019-11-24T10:52:26Z</time>
      </trkpt>
      <trkpt lat="48.55273" lon="1.92451">
        <ele>166</ele>
        <time>2019-11-24T10:52:28Z</time>
      </trkpt>
      <trkpt lat="48.55279" lon="1.92463">
        <ele>166</ele>
        <time>2019-11-24T10:52:30Z</time>
      </trkpt>
      <trkpt lat="48.55284" lon="1.92476">
        <ele>166</ele>
        <time>2019-11-24T10:52:32Z</time>
      </trkpt>
      <trkpt lat="48.55287" lon="1.92487">
        <ele>166</ele>
        <time>2019-11-24T10:52:34Z</time>
      </trkpt>
      <trkpt lat="48.55291" lon="1.92499">
        <ele>166</ele>
        <time>2019-11-24T10:52:36Z</time>
      </trkpt>
      <trkpt lat="48.55296" lon="1.92511">
        <ele>165</ele>
        <time>2019-11-24T10:52:38Z</time>
      </trkpt>
      <trkpt lat="48.55299" lon="1.92523">
        <ele>165</ele>
        <time>2019-11-24T10:52:40Z</time>
      </trkpt>
      <trkpt lat="48.55306" lon="1.92536">
        <ele>165</ele>
        <time>2019-11-24T10:52:42Z</time>
      </trkpt>
      <trkpt lat="48.55312" lon="1.9255">
        <ele>165</ele>
        <time>2019-11-24T10:52:44Z</time>
      </trkpt>
      <trkpt lat="48.55317" lon="1.92564">
        <ele>165</ele>
        <time>2019-11-24T10:52:46Z</time>
      </trkpt>
      <trkpt lat="48.55322" lon="1.92576">
        <ele>165</ele>
        <time>2019-11-24T10:52:48Z</time>
      </trkpt>
      <trkpt lat="48.55322" lon="1.92593">
        <ele>164</ele>
        <time>2019-11-24T10:52:50Z</time>
      </trkpt>
      <trkpt lat="48.55321" lon="1.92608">
        <ele>163</ele>
        <time>2019-11-24T10:52:52Z</time>
      </trkpt>
      <trkpt lat="48.55323" lon="1.9262">
        <ele>162</ele>
        <time>2019-11-24T10:52:54Z</time>
      </trkpt>
      <trkpt lat="48.55327" lon="1.92629">
        <ele>162</ele>
        <time>2019-11-24T10:52:56Z</time>
      </trkpt>
      <trkpt lat="48.5533" lon="1.9264">
        <ele>162</ele>
        <time>2019-11-24T10:52:58Z</time>
      </trkpt>
      <trkpt lat="48.55332" lon="1.9265">
        <ele>162</ele>
        <time>2019-11-24T10:53:00Z</time>
      </trkpt>
      <trkpt lat="48.55335" lon="1.9266">
        <ele>163</ele>
        <time>2019-11-24T10:53:02Z</time>
      </trkpt>
      <trkpt lat="48.55337" lon="1.92672">
        <ele>162</ele>
        <time>2019-11-24T10:53:04Z</time>
      </trkpt>
      <trkpt lat="48.55341" lon="1.92683">
        <ele>163</ele>
        <time>2019-11-24T10:53:06Z</time>
      </trkpt>
      <trkpt lat="48.55338" lon="1.92695">
        <ele>163</ele>
        <time>2019-11-24T10:53:08Z</time>
      </trkpt>
      <trkpt lat="48.55338" lon="1.92708">
        <ele>163</ele>
        <time>2019-11-24T10:53:10Z</time>
      </trkpt>
      <trkpt lat="48.5534" lon="1.92722">
        <ele>163</ele>
        <time>2019-11-24T10:53:12Z</time>
      </trkpt>
      <trkpt lat="48.55341" lon="1.92733">
        <ele>163</ele>
        <time>2019-11-24T10:53:14Z</time>
      </trkpt>
      <trkpt lat="48.55343" lon="1.92746">
        <ele>162</ele>
        <time>2019-11-24T10:53:16Z</time>
      </trkpt>
      <trkpt lat="48.55344" lon="1.92757">
        <ele>162</ele>
        <time>2019-11-24T10:53:18Z</time>
      </trkpt>
      <trkpt lat="48.55347" lon="1.92768">
        <ele>163</ele>
        <time>2019-11-24T10:53:20Z</time>
      </trkpt>
      <trkpt lat="48.55349" lon="1.92778">
        <ele>163</ele>
        <time>2019-11-24T10:53:22Z</time>
      </trkpt>
      <trkpt lat="48.55352" lon="1.92789">
        <ele>163</ele>
        <time>2019-11-24T10:53:24Z</time>
      </trkpt>
      <trkpt lat="48.55354" lon="1.92799">
        <ele>163</ele>
        <time>2019-11-24T10:53:26Z</time>
      </trkpt>
      <trkpt lat="48.55357" lon="1.92808">
        <ele>163</ele>
        <time>2019-11-24T10:53:28Z</time>
      </trkpt>
      <trkpt lat="48.55362" lon="1.92815">
        <ele>163</ele>
        <time>2019-11-24T10:53:30Z</time>
      </trkpt>
      <trkpt lat="48.55367" lon="1.92821">
        <ele>163</ele>
        <time>2019-11-24T10:53:32Z</time>
      </trkpt>
      <trkpt lat="48.55372" lon="1.92828">
        <ele>163</ele>
        <time>2019-11-24T10:53:34Z</time>
      </trkpt>
      <trkpt lat="48.55377" lon="1.92835">
        <ele>163</ele>
        <time>2019-11-24T10:53:36Z</time>
      </trkpt>
      <trkpt lat="48.55381" lon="1.92842">
        <ele>164</ele>
        <time>2019-11-24T10:53:38Z</time>
      </trkpt>
      <trkpt lat="48.55385" lon="1.92852">
        <ele>164</ele>
        <time>2019-11-24T10:53:40Z</time>
      </trkpt>
      <trkpt lat="48.55387" lon="1.92861">
        <ele>164</ele>
        <time>2019-11-24T10:53:42Z</time>
      </trkpt>
      <trkpt lat="48.5539" lon="1.92868">
        <ele>164</ele>
        <time>2019-11-24T10:53:44Z</time>
      </trkpt>
      <trkpt lat="48.55394" lon="1.92875">
        <ele>164</ele>
        <time>2019-11-24T10:53:46Z</time>
      </trkpt>
      <trkpt lat="48.55398" lon="1.92882">
        <ele>164</ele>
        <time>2019-11-24T10:53:48Z</time>
      </trkpt>
      <trkpt lat="48.55403" lon="1.9289">
        <ele>164</ele>
        <time>2019-11-24T10:53:50Z</time>
      </trkpt>
      <trkpt lat="48.55408" lon="1.92894">
        <ele>164</ele>
        <time>2019-11-24T10:53:52Z</time>
      </trkpt>
      <trkpt lat="48.55413" lon="1.929">
        <ele>164</ele>
        <time>2019-11-24T10:53:54Z</time>
      </trkpt>
      <trkpt lat="48.55417" lon="1.92904">
        <ele>166</ele>
        <time>2019-11-24T10:53:56Z</time>
      </trkpt>
      <trkpt lat="48.5542" lon="1.92912">
        <ele>165</ele>
        <time>2019-11-24T10:53:58Z</time>
      </trkpt>
      <trkpt lat="48.55421" lon="1.92921">
        <ele>165</ele>
        <time>2019-11-24T10:54:00Z</time>
      </trkpt>
      <trkpt lat="48.55426" lon="1.92928">
        <ele>165</ele>
        <time>2019-11-24T10:54:02Z</time>
      </trkpt>
      <trkpt lat="48.55431" lon="1.92935">
        <ele>165</ele>
        <time>2019-11-24T10:54:04Z</time>
      </trkpt>
      <trkpt lat="48.55437" lon="1.92939">
        <ele>165</ele>
        <time>2019-11-24T10:54:06Z</time>
      </trkpt>
      <trkpt lat="48.55443" lon="1.92942">
        <ele>165</ele>
        <time>2019-11-24T10:54:08Z</time>
      </trkpt>
      <trkpt lat="48.55448" lon="1.92948">
        <ele>165</ele>
        <time>2019-11-24T10:54:10Z</time>
      </trkpt>
      <trkpt lat="48.55452" lon="1.92953">
        <ele>165</ele>
        <time>2019-11-24T10:54:12Z</time>
      </trkpt>
      <trkpt lat="48.55457" lon="1.92957">
        <ele>165</ele>
        <time>2019-11-24T10:54:14Z</time>
      </trkpt>
      <trkpt lat="48.55462" lon="1.92961">
        <ele>165</ele>
        <time>2019-11-24T10:54:16Z</time>
      </trkpt>
      <trkpt lat="48.55469" lon="1.92962">
        <ele>165</ele>
        <time>2019-11-24T10:54:18Z</time>
      </trkpt>
      <trkpt lat="48.55476" lon="1.92966">
        <ele>165</ele>
        <time>2019-11-24T10:54:20Z</time>
      </trkpt>
      <trkpt lat="48.55482" lon="1.92972">
        <ele>165</ele>
        <time>2019-11-24T10:54:22Z</time>
      </trkpt>
      <trkpt lat="48.55486" lon="1.92983">
        <ele>166</ele>
        <time>2019-11-24T10:54:24Z</time>
      </trkpt>
      <trkpt lat="48.55489" lon="1.92995">
        <ele>166</ele>
        <time>2019-11-24T10:54:26Z</time>
      </trkpt>
      <trkpt lat="48.55492" lon="1.93005">
        <ele>165</ele>
        <time>2019-11-24T10:54:28Z</time>
      </trkpt>
      <trkpt lat="48.55495" lon="1.93015">
        <ele>165</ele>
        <time>2019-11-24T10:54:30Z</time>
      </trkpt>
      <trkpt lat="48.55498" lon="1.93025">
        <ele>164</ele>
        <time>2019-11-24T10:54:32Z</time>
      </trkpt>
      <trkpt lat="48.55505" lon="1.9303">
        <ele>166</ele>
        <time>2019-11-24T10:54:34Z</time>
      </trkpt>
      <trkpt lat="48.5551" lon="1.93039">
        <ele>166</ele>
        <time>2019-11-24T10:54:36Z</time>
      </trkpt>
      <trkpt lat="48.5551" lon="1.93051">
        <ele>165</ele>
        <time>2019-11-24T10:54:38Z</time>
      </trkpt>
      <trkpt lat="48.55511" lon="1.93064">
        <ele>165</ele>
        <time>2019-11-24T10:54:40Z</time>
      </trkpt>
      <trkpt lat="48.55516" lon="1.93073">
        <ele>165</ele>
        <time>2019-11-24T10:54:42Z</time>
      </trkpt>
      <trkpt lat="48.5552" lon="1.93082">
        <ele>165</ele>
        <time>2019-11-24T10:54:44Z</time>
      </trkpt>
      <trkpt lat="48.55524" lon="1.93092">
        <ele>164</ele>
        <time>2019-11-24T10:54:46Z</time>
      </trkpt>
      <trkpt lat="48.55528" lon="1.93101">
        <ele>164</ele>
        <time>2019-11-24T10:54:48Z</time>
      </trkpt>
      <trkpt lat="48.55535" lon="1.93108">
        <ele>164</ele>
        <time>2019-11-24T10:54:50Z</time>
      </trkpt>
      <trkpt lat="48.55542" lon="1.93112">
        <ele>165</ele>
        <time>2019-11-24T10:54:52Z</time>
      </trkpt>
      <trkpt lat="48.5555" lon="1.93116">
        <ele>165</ele>
        <time>2019-11-24T10:54:54Z</time>
      </trkpt>
      <trkpt lat="48.55555" lon="1.9312">
        <ele>165</ele>
        <time>2019-11-24T10:54:56Z</time>
      </trkpt>
      <trkpt lat="48.55561" lon="1.93122">
        <ele>165</ele>
        <time>2019-11-24T10:54:58Z</time>
      </trkpt>
      <trkpt lat="48.55566" lon="1.93126">
        <ele>165</ele>
        <time>2019-11-24T10:55:00Z</time>
      </trkpt>
      <trkpt lat="48.55571" lon="1.93129">
        <ele>165</ele>
        <time>2019-11-24T10:55:02Z</time>
      </trkpt>
      <trkpt lat="48.55575" lon="1.93137">
        <ele>165</ele>
        <time>2019-11-24T10:55:04Z</time>
      </trkpt>
      <trkpt lat="48.55577" lon="1.93147">
        <ele>166</ele>
        <time>2019-11-24T10:55:06Z</time>
      </trkpt>
      <trkpt lat="48.55575" lon="1.93158">
        <ele>166</ele>
        <time>2019-11-24T10:55:08Z</time>
      </trkpt>
      <trkpt lat="48.55572" lon="1.93167">
        <ele>166</ele>
        <time>2019-11-24T10:55:10Z</time>
      </trkpt>
      <trkpt lat="48.55568" lon="1.93173">
        <ele>166</ele>
        <time>2019-11-24T10:55:12Z</time>
      </trkpt>
      <trkpt lat="48.55565" lon="1.93182">
        <ele>165</ele>
        <time>2019-11-24T10:55:14Z</time>
      </trkpt>
      <trkpt lat="48.55564" lon="1.93192">
        <ele>165</ele>
        <time>2019-11-24T10:55:16Z</time>
      </trkpt>
      <trkpt lat="48.55565" lon="1.93202">
        <ele>165</ele>
        <time>2019-11-24T10:55:18Z</time>
      </trkpt>
      <trkpt lat="48.55569" lon="1.93213">
        <ele>165</ele>
        <time>2019-11-24T10:55:20Z</time>
      </trkpt>
      <trkpt lat="48.55571" lon="1.93223">
        <ele>165</ele>
        <time>2019-11-24T10:55:22Z</time>
      </trkpt>
      <trkpt lat="48.55573" lon="1.93232">
        <ele>166</ele>
        <time>2019-11-24T10:55:24Z</time>
      </trkpt>
      <trkpt lat="48.55575" lon="1.93241">
        <ele>166</ele>
        <time>2019-11-24T10:55:26Z</time>
      </trkpt>
      <trkpt lat="48.55578" lon="1.93251">
        <ele>167</ele>
        <time>2019-11-24T10:55:28Z</time>
      </trkpt>
      <trkpt lat="48.55579" lon="1.93259">
        <ele>166</ele>
        <time>2019-11-24T10:55:30Z</time>
      </trkpt>
      <trkpt lat="48.55578" lon="1.93269">
        <ele>165</ele>
        <time>2019-11-24T10:55:32Z</time>
      </trkpt>
      <trkpt lat="48.55578" lon="1.93279">
        <ele>165</ele>
        <time>2019-11-24T10:55:34Z</time>
      </trkpt>
      <trkpt lat="48.55576" lon="1.93289">
        <ele>164</ele>
        <time>2019-11-24T10:55:36Z</time>
      </trkpt>
      <trkpt lat="48.55577" lon="1.93297">
        <ele>164</ele>
        <time>2019-11-24T10:55:38Z</time>
      </trkpt>
      <trkpt lat="48.55577" lon="1.93307">
        <ele>164</ele>
        <time>2019-11-24T10:55:40Z</time>
      </trkpt>
      <trkpt lat="48.55577" lon="1.93317">
        <ele>164</ele>
        <time>2019-11-24T10:55:42Z</time>
      </trkpt>
      <trkpt lat="48.55577" lon="1.93326">
        <ele>164</ele>
        <time>2019-11-24T10:55:44Z</time>
      </trkpt>
      <trkpt lat="48.55579" lon="1.93336">
        <ele>164</ele>
        <time>2019-11-24T10:55:46Z</time>
      </trkpt>
      <trkpt lat="48.55582" lon="1.93344">
        <ele>164</ele>
        <time>2019-11-24T10:55:48Z</time>
      </trkpt>
      <trkpt lat="48.55585" lon="1.93353">
        <ele>166</ele>
        <time>2019-11-24T10:55:50Z</time>
      </trkpt>
      <trkpt lat="48.55587" lon="1.93361">
        <ele>166</ele>
        <time>2019-11-24T10:55:52Z</time>
      </trkpt>
      <trkpt lat="48.55587" lon="1.93372">
        <ele>166</ele>
        <time>2019-11-24T10:55:54Z</time>
      </trkpt>
      <trkpt lat="48.5559" lon="1.93377">
        <ele>166</ele>
        <time>2019-11-24T10:55:56Z</time>
      </trkpt>
      <trkpt lat="48.55594" lon="1.93383">
        <ele>166</ele>
        <time>2019-11-24T10:55:58Z</time>
      </trkpt>
      <trkpt lat="48.55598" lon="1.93392">
        <ele>166</ele>
        <time>2019-11-24T10:56:00Z</time>
      </trkpt>
      <trkpt lat="48.55603" lon="1.93401">
        <ele>166</ele>
        <time>2019-11-24T10:56:02Z</time>
      </trkpt>
      <trkpt lat="48.55605" lon="1.9341">
        <ele>166</ele>
        <time>2019-11-24T10:56:04Z</time>
      </trkpt>
      <trkpt lat="48.55605" lon="1.93418">
        <ele>165</ele>
        <time>2019-11-24T10:56:06Z</time>
      </trkpt>
      <trkpt lat="48.55604" lon="1.93433">
        <ele>166</ele>
        <time>2019-11-24T10:56:10Z</time>
      </trkpt>
      <trkpt lat="48.55605" lon="1.93449">
        <ele>166</ele>
        <time>2019-11-24T10:56:14Z</time>
      </trkpt>
      <trkpt lat="48.55606" lon="1.9346">
        <ele>166</ele>
        <time>2019-11-24T10:56:16Z</time>
      </trkpt>
      <trkpt lat="48.55605" lon="1.93472">
        <ele>166</ele>
        <time>2019-11-24T10:56:18Z</time>
      </trkpt>
      <trkpt lat="48.55608" lon="1.93481">
        <ele>166</ele>
        <time>2019-11-24T10:56:20Z</time>
      </trkpt>
      <trkpt lat="48.55611" lon="1.93489">
        <ele>166</ele>
        <time>2019-11-24T10:56:22Z</time>
      </trkpt>
      <trkpt lat="48.5561" lon="1.93498">
        <ele>166</ele>
        <time>2019-11-24T10:56:24Z</time>
      </trkpt>
      <trkpt lat="48.55612" lon="1.93507">
        <ele>166</ele>
        <time>2019-11-24T10:56:26Z</time>
      </trkpt>
      <trkpt lat="48.55616" lon="1.93517">
        <ele>167</ele>
        <time>2019-11-24T10:56:28Z</time>
      </trkpt>
      <trkpt lat="48.55621" lon="1.93524">
        <ele>167</ele>
        <time>2019-11-24T10:56:30Z</time>
      </trkpt>
      <trkpt lat="48.55622" lon="1.93538">
        <ele>167</ele>
        <time>2019-11-24T10:56:32Z</time>
      </trkpt>
      <trkpt lat="48.55625" lon="1.93548">
        <ele>167</ele>
        <time>2019-11-24T10:56:34Z</time>
      </trkpt>
      <trkpt lat="48.55629" lon="1.93558">
        <ele>167</ele>
        <time>2019-11-24T10:56:36Z</time>
      </trkpt>
      <trkpt lat="48.55633" lon="1.93568">
        <ele>167</ele>
        <time>2019-11-24T10:56:38Z</time>
      </trkpt>
      <trkpt lat="48.55635" lon="1.93576">
        <ele>167</ele>
        <time>2019-11-24T10:56:40Z</time>
      </trkpt>
      <trkpt lat="48.55638" lon="1.93585">
        <ele>167</ele>
        <time>2019-11-24T10:56:42Z</time>
      </trkpt>
      <trkpt lat="48.55641" lon="1.93594">
        <ele>167</ele>
        <time>2019-11-24T10:56:44Z</time>
      </trkpt>
      <trkpt lat="48.55643" lon="1.93604">
        <ele>167</ele>
        <time>2019-11-24T10:56:46Z</time>
      </trkpt>
      <trkpt lat="48.55647" lon="1.93613">
        <ele>167</ele>
        <time>2019-11-24T10:56:48Z</time>
      </trkpt>
      <trkpt lat="48.55651" lon="1.93623">
        <ele>167</ele>
        <time>2019-11-24T10:56:50Z</time>
      </trkpt>
      <trkpt lat="48.55654" lon="1.93632">
        <ele>167</ele>
        <time>2019-11-24T10:56:52Z</time>
      </trkpt>
      <trkpt lat="48.55658" lon="1.93641">
        <ele>167</ele>
        <time>2019-11-24T10:56:54Z</time>
      </trkpt>
      <trkpt lat="48.55662" lon="1.9365">
        <ele>167</ele>
        <time>2019-11-24T10:56:56Z</time>
      </trkpt>
      <trkpt lat="48.55666" lon="1.93658">
        <ele>167</ele>
        <time>2019-11-24T10:56:58Z</time>
      </trkpt>
      <trkpt lat="48.55669" lon="1.93665">
        <ele>168</ele>
        <time>2019-11-24T10:57:00Z</time>
      </trkpt>
      <trkpt lat="48.55674" lon="1.93674">
        <ele>168</ele>
        <time>2019-11-24T10:57:02Z</time>
      </trkpt>
      <trkpt lat="48.55677" lon="1.93679">
        <ele>167</ele>
        <time>2019-11-24T10:57:04Z</time>
      </trkpt>
      <trkpt lat="48.5568" lon="1.93685">
        <ele>167</ele>
        <time>2019-11-24T10:57:06Z</time>
      </trkpt>
      <trkpt lat="48.55685" lon="1.93693">
        <ele>167</ele>
        <time>2019-11-24T10:57:08Z</time>
      </trkpt>
      <trkpt lat="48.5569" lon="1.93702">
        <ele>167</ele>
        <time>2019-11-24T10:57:10Z</time>
      </trkpt>
      <trkpt lat="48.55694" lon="1.9371">
        <ele>167</ele>
        <time>2019-11-24T10:57:12Z</time>
      </trkpt>
      <trkpt lat="48.55699" lon="1.9372">
        <ele>167</ele>
        <time>2019-11-24T10:57:14Z</time>
      </trkpt>
      <trkpt lat="48.55705" lon="1.93727">
        <ele>167</ele>
        <time>2019-11-24T10:57:16Z</time>
      </trkpt>
      <trkpt lat="48.5571" lon="1.93735">
        <ele>167</ele>
        <time>2019-11-24T10:57:18Z</time>
      </trkpt>
      <trkpt lat="48.55715" lon="1.93745">
        <ele>166</ele>
        <time>2019-11-24T10:57:20Z</time>
      </trkpt>
      <trkpt lat="48.5572" lon="1.93757">
        <ele>165</ele>
        <time>2019-11-24T10:57:22Z</time>
      </trkpt>
      <trkpt lat="48.55726" lon="1.93769">
        <ele>165</ele>
        <time>2019-11-24T10:57:24Z</time>
      </trkpt>
      <trkpt lat="48.55727" lon="1.93777">
        <ele>165</ele>
        <time>2019-11-24T10:57:26Z</time>
      </trkpt>
      <trkpt lat="48.5573" lon="1.93788">
        <ele>165</ele>
        <time>2019-11-24T10:57:28Z</time>
      </trkpt>
      <trkpt lat="48.55736" lon="1.93795">
        <ele>164</ele>
        <time>2019-11-24T10:57:30Z</time>
      </trkpt>
      <trkpt lat="48.55741" lon="1.93803">
        <ele>164</ele>
        <time>2019-11-24T10:57:32Z</time>
      </trkpt>
      <trkpt lat="48.55743" lon="1.93813">
        <ele>164</ele>
        <time>2019-11-24T10:57:34Z</time>
      </trkpt>
      <trkpt lat="48.55749" lon="1.93824">
        <ele>163</ele>
        <time>2019-11-24T10:57:36Z</time>
      </trkpt>
      <trkpt lat="48.55749" lon="1.9384">
        <ele>163</ele>
        <time>2019-11-24T10:57:38Z</time>
      </trkpt>
      <trkpt lat="48.55752" lon="1.93856">
        <ele>162</ele>
        <time>2019-11-24T10:57:40Z</time>
      </trkpt>
      <trkpt lat="48.55755" lon="1.93873">
        <ele>162</ele>
        <time>2019-11-24T10:57:42Z</time>
      </trkpt>
      <trkpt lat="48.55756" lon="1.93886">
        <ele>162</ele>
        <time>2019-11-24T10:57:44Z</time>
      </trkpt>
      <trkpt lat="48.55761" lon="1.93897">
        <ele>162</ele>
        <time>2019-11-24T10:57:46Z</time>
      </trkpt>
      <trkpt lat="48.55769" lon="1.939">
        <ele>162</ele>
        <time>2019-11-24T10:57:48Z</time>
      </trkpt>
      <trkpt lat="48.55774" lon="1.93909">
        <ele>162</ele>
        <time>2019-11-24T10:57:50Z</time>
      </trkpt>
      <trkpt lat="48.55774" lon="1.93918">
        <ele>163</ele>
        <time>2019-11-24T10:57:52Z</time>
      </trkpt>
      <trkpt lat="48.55775" lon="1.93927">
        <ele>163</ele>
        <time>2019-11-24T10:57:54Z</time>
      </trkpt>
      <trkpt lat="48.55775" lon="1.93937">
        <ele>163</ele>
        <time>2019-11-24T10:57:56Z</time>
      </trkpt>
      <trkpt lat="48.55776" lon="1.93945">
        <ele>163</ele>
        <time>2019-11-24T10:57:58Z</time>
      </trkpt>
      <trkpt lat="48.55777" lon="1.93957">
        <ele>164</ele>
        <time>2019-11-24T10:58:02Z</time>
      </trkpt>
      <trkpt lat="48.55778" lon="1.93967">
        <ele>164</ele>
        <time>2019-11-24T10:58:06Z</time>
      </trkpt>
      <trkpt lat="48.55781" lon="1.93974">
        <ele>164</ele>
        <time>2019-11-24T10:58:10Z</time>
      </trkpt>
      <trkpt lat="48.55783" lon="1.9398">
        <ele>164</ele>
        <time>2019-11-24T10:58:22Z</time>
      </trkpt>
      <trkpt lat="48.55786" lon="1.93987">
        <ele>164</ele>
        <time>2019-11-24T10:58:32Z</time>
      </trkpt>
      <trkpt lat="48.55791" lon="1.93993">
        <ele>164</ele>
        <time>2019-11-24T10:58:36Z</time>
      </trkpt>
      <trkpt lat="48.55798" lon="1.93998">
        <ele>165</ele>
        <time>2019-11-24T10:58:40Z</time>
      </trkpt>
      <trkpt lat="48.55803" lon="1.94003">
        <ele>166</ele>
        <time>2019-11-24T10:58:42Z</time>
      </trkpt>
      <trkpt lat="48.55808" lon="1.9401">
        <ele>166</ele>
        <time>2019-11-24T10:58:44Z</time>
      </trkpt>
      <trkpt lat="48.55813" lon="1.94018">
        <ele>166</ele>
        <time>2019-11-24T10:58:46Z</time>
      </trkpt>
      <trkpt lat="48.55817" lon="1.94027">
        <ele>166</ele>
        <time>2019-11-24T10:58:48Z</time>
      </trkpt>
      <trkpt lat="48.55822" lon="1.94035">
        <ele>166</ele>
        <time>2019-11-24T10:58:50Z</time>
      </trkpt>
      <trkpt lat="48.55827" lon="1.9404">
        <ele>166</ele>
        <time>2019-11-24T10:58:52Z</time>
      </trkpt>
      <trkpt lat="48.55833" lon="1.94045">
        <ele>166</ele>
        <time>2019-11-24T10:58:54Z</time>
      </trkpt>
      <trkpt lat="48.55838" lon="1.94054">
        <ele>165</ele>
        <time>2019-11-24T10:58:56Z</time>
      </trkpt>
      <trkpt lat="48.55841" lon="1.94064">
        <ele>165</ele>
        <time>2019-11-24T10:58:58Z</time>
      </trkpt>
      <trkpt lat="48.55846" lon="1.94074">
        <ele>165</ele>
        <time>2019-11-24T10:59:00Z</time>
      </trkpt>
      <trkpt lat="48.55848" lon="1.94085">
        <ele>163</ele>
        <time>2019-11-24T10:59:02Z</time>
      </trkpt>
      <trkpt lat="48.55847" lon="1.94097">
        <ele>162</ele>
        <time>2019-11-24T10:59:04Z</time>
      </trkpt>
      <trkpt lat="48.55848" lon="1.94107">
        <ele>162</ele>
        <time>2019-11-24T10:59:06Z</time>
      </trkpt>
      <trkpt lat="48.55852" lon="1.94116">
        <ele>161</ele>
        <time>2019-11-24T10:59:08Z</time>
      </trkpt>
      <trkpt lat="48.55857" lon="1.94122">
        <ele>161</ele>
        <time>2019-11-24T10:59:10Z</time>
      </trkpt>
      <trkpt lat="48.55864" lon="1.94128">
        <ele>160</ele>
        <time>2019-11-24T10:59:12Z</time>
      </trkpt>
      <trkpt lat="48.55865" lon="1.94139">
        <ele>160</ele>
        <time>2019-11-24T10:59:14Z</time>
      </trkpt>
      <trkpt lat="48.55862" lon="1.94147">
        <ele>160</ele>
        <time>2019-11-24T10:59:16Z</time>
      </trkpt>
      <trkpt lat="48.55867" lon="1.94158">
        <ele>160</ele>
        <time>2019-11-24T10:59:18Z</time>
      </trkpt>
      <trkpt lat="48.55871" lon="1.94177">
        <ele>157</ele>
        <time>2019-11-24T10:59:20Z</time>
      </trkpt>
      <trkpt lat="48.55876" lon="1.9419">
        <ele>156</ele>
        <time>2019-11-24T10:59:22Z</time>
      </trkpt>
      <trkpt lat="48.55882" lon="1.94201">
        <ele>156</ele>
        <time>2019-11-24T10:59:24Z</time>
      </trkpt>
      <trkpt lat="48.55888" lon="1.94209">
        <ele>156</ele>
        <time>2019-11-24T10:59:26Z</time>
      </trkpt>
      <trkpt lat="48.55892" lon="1.94219">
        <ele>155</ele>
        <time>2019-11-24T10:59:28Z</time>
      </trkpt>
      <trkpt lat="48.55895" lon="1.94228">
        <ele>155</ele>
        <time>2019-11-24T10:59:30Z</time>
      </trkpt>
      <trkpt lat="48.55904" lon="1.94239">
        <ele>154</ele>
        <time>2019-11-24T10:59:32Z</time>
      </trkpt>
      <trkpt lat="48.55911" lon="1.94251">
        <ele>152</ele>
        <time>2019-11-24T10:59:34Z</time>
      </trkpt>
      <trkpt lat="48.55923" lon="1.94263">
        <ele>150</ele>
        <time>2019-11-24T10:59:36Z</time>
      </trkpt>
      <trkpt lat="48.55934" lon="1.94276">
        <ele>150</ele>
        <time>2019-11-24T10:59:38Z</time>
      </trkpt>
      <trkpt lat="48.55946" lon="1.94285">
        <ele>149</ele>
        <time>2019-11-24T10:59:40Z</time>
      </trkpt>
      <trkpt lat="48.55954" lon="1.94295">
        <ele>149</ele>
        <time>2019-11-24T10:59:42Z</time>
      </trkpt>
      <trkpt lat="48.5596" lon="1.94315">
        <ele>149</ele>
        <time>2019-11-24T10:59:44Z</time>
      </trkpt>
      <trkpt lat="48.55961" lon="1.94335">
        <ele>150</ele>
        <time>2019-11-24T10:59:46Z</time>
      </trkpt>
      <trkpt lat="48.55968" lon="1.94348">
        <ele>150</ele>
        <time>2019-11-24T10:59:48Z</time>
      </trkpt>
      <trkpt lat="48.55979" lon="1.94353">
        <ele>149</ele>
        <time>2019-11-24T10:59:50Z</time>
      </trkpt>
      <trkpt lat="48.55988" lon="1.94361">
        <ele>149</ele>
        <time>2019-11-24T10:59:52Z</time>
      </trkpt>
      <trkpt lat="48.55994" lon="1.94378">
        <ele>150</ele>
        <time>2019-11-24T10:59:54Z</time>
      </trkpt>
      <trkpt lat="48.55997" lon="1.94389">
        <ele>150</ele>
        <time>2019-11-24T10:59:56Z</time>
      </trkpt>
      <trkpt lat="48.55998" lon="1.944">
        <ele>149</ele>
        <time>2019-11-24T11:00:00Z</time>
      </trkpt>
      <trkpt lat="48.56" lon="1.94406">
        <ele>149</ele>
        <time>2019-11-24T11:00:02Z</time>
      </trkpt>
      <trkpt lat="48.56004" lon="1.94417">
        <ele>149</ele>
        <time>2019-11-24T11:00:06Z</time>
      </trkpt>
      <trkpt lat="48.56004" lon="1.94424">
        <ele>149</ele>
        <time>2019-11-24T11:00:08Z</time>
      </trkpt>
      <trkpt lat="48.56008" lon="1.94435">
        <ele>149</ele>
        <time>2019-11-24T11:00:12Z</time>
      </trkpt>
      <trkpt lat="48.5601" lon="1.94446">
        <ele>149</ele>
        <time>2019-11-24T11:00:16Z</time>
      </trkpt>
      <trkpt lat="48.56012" lon="1.94457">
        <ele>149</ele>
        <time>2019-11-24T11:00:20Z</time>
      </trkpt>
      <trkpt lat="48.56016" lon="1.94468">
        <ele>150</ele>
        <time>2019-11-24T11:00:24Z</time>
      </trkpt>
      <trkpt lat="48.56017" lon="1.94477">
        <ele>150</ele>
        <time>2019-11-24T11:00:26Z</time>
      </trkpt>
      <trkpt lat="48.56016" lon="1.94489">
        <ele>150</ele>
        <time>2019-11-24T11:00:28Z</time>
      </trkpt>
      <trkpt lat="48.56014" lon="1.94498">
        <ele>150</ele>
        <time>2019-11-24T11:00:32Z</time>
      </trkpt>
      <trkpt lat="48.5601" lon="1.94509">
        <ele>151</ele>
        <time>2019-11-24T11:00:36Z</time>
      </trkpt>
      <trkpt lat="48.56006" lon="1.94517">
        <ele>151</ele>
        <time>2019-11-24T11:00:40Z</time>
      </trkpt>
      <trkpt lat="48.56005" lon="1.94525">
        <ele>151</ele>
        <time>2019-11-24T11:00:42Z</time>
      </trkpt>
      <trkpt lat="48.56006" lon="1.94534">
        <ele>151</ele>
        <time>2019-11-24T11:00:44Z</time>
      </trkpt>
      <trkpt lat="48.56008" lon="1.94543">
        <ele>152</ele>
        <time>2019-11-24T11:00:46Z</time>
      </trkpt>
      <trkpt lat="48.56011" lon="1.94552">
        <ele>152</ele>
        <time>2019-11-24T11:00:48Z</time>
      </trkpt>
      <trkpt lat="48.56015" lon="1.94559">
        <ele>152</ele>
        <time>2019-11-24T11:00:50Z</time>
      </trkpt>
      <trkpt lat="48.56019" lon="1.94568">
        <ele>152</ele>
        <time>2019-11-24T11:00:52Z</time>
      </trkpt>
      <trkpt lat="48.56022" lon="1.94581">
        <ele>152</ele>
        <time>2019-11-24T11:00:54Z</time>
      </trkpt>
      <trkpt lat="48.56025" lon="1.94594">
        <ele>154</ele>
        <time>2019-11-24T11:00:56Z</time>
      </trkpt>
      <trkpt lat="48.56031" lon="1.94606">
        <ele>154</ele>
        <time>2019-11-24T11:00:58Z</time>
      </trkpt>
      <trkpt lat="48.5604" lon="1.94615">
        <ele>154</ele>
        <time>2019-11-24T11:01:00Z</time>
      </trkpt>
      <trkpt lat="48.56045" lon="1.94626">
        <ele>154</ele>
        <time>2019-11-24T11:01:02Z</time>
      </trkpt>
      <trkpt lat="48.56046" lon="1.94637">
        <ele>155</ele>
        <time>2019-11-24T11:01:04Z</time>
      </trkpt>
      <trkpt lat="48.56047" lon="1.94646">
        <ele>155</ele>
        <time>2019-11-24T11:01:06Z</time>
      </trkpt>
      <trkpt lat="48.56052" lon="1.94657">
        <ele>155</ele>
        <time>2019-11-24T11:01:10Z</time>
      </trkpt>
      <trkpt lat="48.56052" lon="1.94664">
        <ele>155</ele>
        <time>2019-11-24T11:01:12Z</time>
      </trkpt>
      <trkpt lat="48.5605" lon="1.94671">
        <ele>158</ele>
        <time>2019-11-24T11:01:14Z</time>
      </trkpt>
      <trkpt lat="48.56049" lon="1.94679">
        <ele>158</ele>
        <time>2019-11-24T11:01:16Z</time>
      </trkpt>
      <trkpt lat="48.56046" lon="1.94685">
        <ele>158</ele>
        <time>2019-11-24T11:01:18Z</time>
      </trkpt>
      <trkpt lat="48.56044" lon="1.94692">
        <ele>158</ele>
        <time>2019-11-24T11:01:20Z</time>
      </trkpt>
      <trkpt lat="48.56042" lon="1.94698">
        <ele>158</ele>
        <time>2019-11-24T11:01:22Z</time>
      </trkpt>
      <trkpt lat="48.56038" lon="1.9471">
        <ele>158</ele>
        <time>2019-11-24T11:01:26Z</time>
      </trkpt>
      <trkpt lat="48.56035" lon="1.94722">
        <ele>158</ele>
        <time>2019-11-24T11:01:30Z</time>
      </trkpt>
      <trkpt lat="48.56033" lon="1.94728">
        <ele>159</ele>
        <time>2019-11-24T11:01:32Z</time>
      </trkpt>
      <trkpt lat="48.56029" lon="1.94741">
        <ele>159</ele>
        <time>2019-11-24T11:01:36Z</time>
      </trkpt>
      <trkpt lat="48.56026" lon="1.94748">
        <ele>159</ele>
        <time>2019-11-24T11:01:38Z</time>
      </trkpt>
      <trkpt lat="48.56024" lon="1.94754">
        <ele>160</ele>
        <time>2019-11-24T11:01:40Z</time>
      </trkpt>
      <trkpt lat="48.56022" lon="1.94767">
        <ele>160</ele>
        <time>2019-11-24T11:01:44Z</time>
      </trkpt>
      <trkpt lat="48.56022" lon="1.94776">
        <ele>161</ele>
        <time>2019-11-24T11:01:46Z</time>
      </trkpt>
      <trkpt lat="48.56019" lon="1.94787">
        <ele>161</ele>
        <time>2019-11-24T11:01:48Z</time>
      </trkpt>
      <trkpt lat="48.56017" lon="1.94796">
        <ele>161</ele>
        <time>2019-11-24T11:01:50Z</time>
      </trkpt>
      <trkpt lat="48.56012" lon="1.94802">
        <ele>161</ele>
        <time>2019-11-24T11:01:52Z</time>
      </trkpt>
      <trkpt lat="48.56007" lon="1.94806">
        <ele>161</ele>
        <time>2019-11-24T11:01:54Z</time>
      </trkpt>
      <trkpt lat="48.56002" lon="1.94811">
        <ele>161</ele>
        <time>2019-11-24T11:01:56Z</time>
      </trkpt>
      <trkpt lat="48.55997" lon="1.94819">
        <ele>161</ele>
        <time>2019-11-24T11:01:58Z</time>
      </trkpt>
      <trkpt lat="48.55991" lon="1.94829">
        <ele>161</ele>
        <time>2019-11-24T11:02:00Z</time>
      </trkpt>
      <trkpt lat="48.55986" lon="1.94838">
        <ele>161</ele>
        <time>2019-11-24T11:02:02Z</time>
      </trkpt>
      <trkpt lat="48.55984" lon="1.94845">
        <ele>161</ele>
        <time>2019-11-24T11:02:04Z</time>
      </trkpt>
      <trkpt lat="48.55981" lon="1.94852">
        <ele>162</ele>
        <time>2019-11-24T11:02:06Z</time>
      </trkpt>
      <trkpt lat="48.55977" lon="1.9486">
        <ele>162</ele>
        <time>2019-11-24T11:02:08Z</time>
      </trkpt>
      <trkpt lat="48.55975" lon="1.94868">
        <ele>162</ele>
        <time>2019-11-24T11:02:10Z</time>
      </trkpt>
      <trkpt lat="48.55972" lon="1.94876">
        <ele>162</ele>
        <time>2019-11-24T11:02:12Z</time>
      </trkpt>
      <trkpt lat="48.55968" lon="1.94884">
        <ele>162</ele>
        <time>2019-11-24T11:02:14Z</time>
      </trkpt>
      <trkpt lat="48.55964" lon="1.94893">
        <ele>162</ele>
        <time>2019-11-24T11:02:16Z</time>
      </trkpt>
      <trkpt lat="48.55962" lon="1.94902">
        <ele>162</ele>
        <time>2019-11-24T11:02:18Z</time>
      </trkpt>
      <trkpt lat="48.55958" lon="1.94911">
        <ele>163</ele>
        <time>2019-11-24T11:02:20Z</time>
      </trkpt>
      <trkpt lat="48.55955" lon="1.94919">
        <ele>163</ele>
        <time>2019-11-24T11:02:22Z</time>
      </trkpt>
      <trkpt lat="48.55951" lon="1.94928">
        <ele>163</ele>
        <time>2019-11-24T11:02:24Z</time>
      </trkpt>
      <trkpt lat="48.55948" lon="1.94936">
        <ele>163</ele>
        <time>2019-11-24T11:02:26Z</time>
      </trkpt>
      <trkpt lat="48.55945" lon="1.94944">
        <ele>163</ele>
        <time>2019-11-24T11:02:28Z</time>
      </trkpt>
      <trkpt lat="48.55941" lon="1.94954">
        <ele>163</ele>
        <time>2019-11-24T11:02:30Z</time>
      </trkpt>
      <trkpt lat="48.55937" lon="1.94963">
        <ele>163</ele>
        <time>2019-11-24T11:02:32Z</time>
      </trkpt>
      <trkpt lat="48.55935" lon="1.94972">
        <ele>163</ele>
        <time>2019-11-24T11:02:34Z</time>
      </trkpt>
      <trkpt lat="48.55931" lon="1.94982">
        <ele>164</ele>
        <time>2019-11-24T11:02:36Z</time>
      </trkpt>
      <trkpt lat="48.55928" lon="1.94991">
        <ele>164</ele>
        <time>2019-11-24T11:02:38Z</time>
      </trkpt>
      <trkpt lat="48.55924" lon="1.95">
        <ele>165</ele>
        <time>2019-11-24T11:02:40Z</time>
      </trkpt>
      <trkpt lat="48.55921" lon="1.95009">
        <ele>165</ele>
        <time>2019-11-24T11:02:42Z</time>
      </trkpt>
      <trkpt lat="48.55917" lon="1.95018">
        <ele>165</ele>
        <time>2019-11-24T11:02:44Z</time>
      </trkpt>
      <trkpt lat="48.55914" lon="1.95027">
        <ele>168</ele>
        <time>2019-11-24T11:02:46Z</time>
      </trkpt>
      <trkpt lat="48.55911" lon="1.95036">
        <ele>168</ele>
        <time>2019-11-24T11:02:48Z</time>
      </trkpt>
      <trkpt lat="48.55908" lon="1.95045">
        <ele>168</ele>
        <time>2019-11-24T11:02:50Z</time>
      </trkpt>
      <trkpt lat="48.55905" lon="1.95054">
        <ele>168</ele>
        <time>2019-11-24T11:02:52Z</time>
      </trkpt>
      <trkpt lat="48.55901" lon="1.95063">
        <ele>168</ele>
        <time>2019-11-24T11:02:54Z</time>
      </trkpt>
      <trkpt lat="48.55898" lon="1.95071">
        <ele>168</ele>
        <time>2019-11-24T11:02:56Z</time>
      </trkpt>
      <trkpt lat="48.55895" lon="1.9508">
        <ele>169</ele>
        <time>2019-11-24T11:02:58Z</time>
      </trkpt>
      <trkpt lat="48.55892" lon="1.95088">
        <ele>169</ele>
        <time>2019-11-24T11:03:00Z</time>
      </trkpt>
      <trkpt lat="48.5589" lon="1.95096">
        <ele>169</ele>
        <time>2019-11-24T11:03:02Z</time>
      </trkpt>
      <trkpt lat="48.55888" lon="1.95104">
        <ele>170</ele>
        <time>2019-11-24T11:03:04Z</time>
      </trkpt>
      <trkpt lat="48.55885" lon="1.95113">
        <ele>170</ele>
        <time>2019-11-24T11:03:06Z</time>
      </trkpt>
      <trkpt lat="48.55882" lon="1.95121">
        <ele>170</ele>
        <time>2019-11-24T11:03:08Z</time>
      </trkpt>
      <trkpt lat="48.55878" lon="1.95127">
        <ele>170</ele>
        <time>2019-11-24T11:03:10Z</time>
      </trkpt>
      <trkpt lat="48.55874" lon="1.95132">
        <ele>170</ele>
        <time>2019-11-24T11:03:12Z</time>
      </trkpt>
      <trkpt lat="48.55868" lon="1.95136">
        <ele>170</ele>
        <time>2019-11-24T11:03:16Z</time>
      </trkpt>
      <trkpt lat="48.55862" lon="1.95135">
        <ele>171</ele>
        <time>2019-11-24T11:03:28Z</time>
      </trkpt>
      <trkpt lat="48.55857" lon="1.95143">
        <ele>171</ele>
        <time>2019-11-24T11:05:26Z</time>
      </trkpt>
      <trkpt lat="48.55855" lon="1.9515">
        <ele>171</ele>
        <time>2019-11-24T11:05:28Z</time>
      </trkpt>
      <trkpt lat="48.55854" lon="1.95158">
        <ele>171</ele>
        <time>2019-11-24T11:05:30Z</time>
      </trkpt>
      <trkpt lat="48.55851" lon="1.95167">
        <ele>171</ele>
        <time>2019-11-24T11:05:32Z</time>
      </trkpt>
      <trkpt lat="48.5585" lon="1.95174">
        <ele>172</ele>
        <time>2019-11-24T11:05:34Z</time>
      </trkpt>
      <trkpt lat="48.55849" lon="1.95182">
        <ele>172</ele>
        <time>2019-11-24T11:05:36Z</time>
      </trkpt>
      <trkpt lat="48.55847" lon="1.95191">
        <ele>172</ele>
        <time>2019-11-24T11:05:38Z</time>
      </trkpt>
      <trkpt lat="48.55843" lon="1.95198">
        <ele>172</ele>
        <time>2019-11-24T11:05:40Z</time>
      </trkpt>
      <trkpt lat="48.55841" lon="1.95206">
        <ele>172</ele>
        <time>2019-11-24T11:05:42Z</time>
      </trkpt>
      <trkpt lat="48.55837" lon="1.95212">
        <ele>172</ele>
        <time>2019-11-24T11:05:44Z</time>
      </trkpt>
      <trkpt lat="48.55833" lon="1.95223">
        <ele>172</ele>
        <time>2019-11-24T11:05:48Z</time>
      </trkpt>
      <trkpt lat="48.55831" lon="1.95232">
        <ele>173</ele>
        <time>2019-11-24T11:05:50Z</time>
      </trkpt>
      <trkpt lat="48.55827" lon="1.95241">
        <ele>173</ele>
        <time>2019-11-24T11:05:52Z</time>
      </trkpt>
      <trkpt lat="48.55821" lon="1.9525">
        <ele>173</ele>
        <time>2019-11-24T11:05:54Z</time>
      </trkpt>
      <trkpt lat="48.55817" lon="1.95259">
        <ele>173</ele>
        <time>2019-11-24T11:05:56Z</time>
      </trkpt>
      <trkpt lat="48.55814" lon="1.95269">
        <ele>173</ele>
        <time>2019-11-24T11:05:58Z</time>
      </trkpt>
      <trkpt lat="48.55808" lon="1.95277">
        <ele>173</ele>
        <time>2019-11-24T11:06:00Z</time>
      </trkpt>
      <trkpt lat="48.55803" lon="1.95284">
        <ele>173</ele>
        <time>2019-11-24T11:06:02Z</time>
      </trkpt>
      <trkpt lat="48.55799" lon="1.95291">
        <ele>173</ele>
        <time>2019-11-24T11:06:04Z</time>
      </trkpt>
      <trkpt lat="48.55794" lon="1.95297">
        <ele>173</ele>
        <time>2019-11-24T11:06:06Z</time>
      </trkpt>
      <trkpt lat="48.55788" lon="1.95301">
        <ele>173</ele>
        <time>2019-11-24T11:06:08Z</time>
      </trkpt>
      <trkpt lat="48.55783" lon="1.953">
        <ele>173</ele>
        <time>2019-11-24T11:06:10Z</time>
      </trkpt>
      <trkpt lat="48.55776" lon="1.95299">
        <ele>173</ele>
        <time>2019-11-24T11:06:12Z</time>
      </trkpt>
      <trkpt lat="48.5577" lon="1.95295">
        <ele>173</ele>
        <time>2019-11-24T11:06:14Z</time>
      </trkpt>
      <trkpt lat="48.55766" lon="1.95293">
        <ele>173</ele>
        <time>2019-11-24T11:06:16Z</time>
      </trkpt>
      <trkpt lat="48.55761" lon="1.95291">
        <ele>173</ele>
        <time>2019-11-24T11:06:18Z</time>
      </trkpt>
      <trkpt lat="48.55757" lon="1.95291">
        <ele>173</ele>
        <time>2019-11-24T11:06:20Z</time>
      </trkpt>
      <trkpt lat="48.55751" lon="1.9529">
        <ele>173</ele>
        <time>2019-11-24T11:06:22Z</time>
      </trkpt>
      <trkpt lat="48.55746" lon="1.9529">
        <ele>174</ele>
        <time>2019-11-24T11:06:24Z</time>
      </trkpt>
      <trkpt lat="48.55737" lon="1.95296">
        <ele>174</ele>
        <time>2019-11-24T11:06:28Z</time>
      </trkpt>
      <trkpt lat="48.55731" lon="1.95296">
        <ele>174</ele>
        <time>2019-11-24T11:06:30Z</time>
      </trkpt>
      <trkpt lat="48.55723" lon="1.95288">
        <ele>174</ele>
        <time>2019-11-24T11:06:34Z</time>
      </trkpt>
      <trkpt lat="48.55718" lon="1.95285">
        <ele>174</ele>
        <time>2019-11-24T11:06:36Z</time>
      </trkpt>
      <trkpt lat="48.55714" lon="1.95281">
        <ele>174</ele>
        <time>2019-11-24T11:06:38Z</time>
      </trkpt>
      <trkpt lat="48.5571" lon="1.95276">
        <ele>174</ele>
        <time>2019-11-24T11:06:40Z</time>
      </trkpt>
      <trkpt lat="48.55702" lon="1.95272">
        <ele>174</ele>
        <time>2019-11-24T11:06:42Z</time>
      </trkpt>
      <trkpt lat="48.55696" lon="1.95267">
        <ele>175</ele>
        <time>2019-11-24T11:06:44Z</time>
      </trkpt>
      <trkpt lat="48.5569" lon="1.95262">
        <ele>175</ele>
        <time>2019-11-24T11:06:46Z</time>
      </trkpt>
      <trkpt lat="48.55686" lon="1.95258">
        <ele>175</ele>
        <time>2019-11-24T11:06:48Z</time>
      </trkpt>
      <trkpt lat="48.55682" lon="1.95255">
        <ele>175</ele>
        <time>2019-11-24T11:06:50Z</time>
      </trkpt>
      <trkpt lat="48.55675" lon="1.95246">
        <ele>176</ele>
        <time>2019-11-24T11:06:54Z</time>
      </trkpt>
      <trkpt lat="48.55665" lon="1.95245">
        <ele>176</ele>
        <time>2019-11-24T11:06:58Z</time>
      </trkpt>
      <trkpt lat="48.55659" lon="1.95243">
        <ele>176</ele>
        <time>2019-11-24T11:07:00Z</time>
      </trkpt>
      <trkpt lat="48.55655" lon="1.95239">
        <ele>176</ele>
        <time>2019-11-24T11:07:02Z</time>
      </trkpt>
      <trkpt lat="48.55647" lon="1.95241">
        <ele>175</ele>
        <time>2019-11-24T11:07:04Z</time>
      </trkpt>
      <trkpt lat="48.55641" lon="1.95241">
        <ele>175</ele>
        <time>2019-11-24T11:07:06Z</time>
      </trkpt>
      <trkpt lat="48.55637" lon="1.95241">
        <ele>175</ele>
        <time>2019-11-24T11:07:08Z</time>
      </trkpt>
      <trkpt lat="48.5563" lon="1.95241">
        <ele>175</ele>
        <time>2019-11-24T11:07:10Z</time>
      </trkpt>
      <trkpt lat="48.55624" lon="1.95242">
        <ele>175</ele>
        <time>2019-11-24T11:07:12Z</time>
      </trkpt>
      <trkpt lat="48.55614" lon="1.95237">
        <ele>175</ele>
        <time>2019-11-24T11:07:16Z</time>
      </trkpt>
      <trkpt lat="48.55608" lon="1.95235">
        <ele>175</ele>
        <time>2019-11-24T11:07:18Z</time>
      </trkpt>
      <trkpt lat="48.55602" lon="1.9524">
        <ele>175</ele>
        <time>2019-11-24T11:07:20Z</time>
      </trkpt>
      <trkpt lat="48.55596" lon="1.95247">
        <ele>174</ele>
        <time>2019-11-24T11:07:22Z</time>
      </trkpt>
      <trkpt lat="48.5559" lon="1.95252">
        <ele>174</ele>
        <time>2019-11-24T11:07:24Z</time>
      </trkpt>
      <trkpt lat="48.55584" lon="1.95257">
        <ele>174</ele>
        <time>2019-11-24T11:07:26Z</time>
      </trkpt>
      <trkpt lat="48.55577" lon="1.95262">
        <ele>174</ele>
        <time>2019-11-24T11:07:28Z</time>
      </trkpt>
      <trkpt lat="48.55571" lon="1.95268">
        <ele>174</ele>
        <time>2019-11-24T11:07:30Z</time>
      </trkpt>
      <trkpt lat="48.55565" lon="1.95272">
        <ele>174</ele>
        <time>2019-11-24T11:07:32Z</time>
      </trkpt>
      <trkpt lat="48.55559" lon="1.95278">
        <ele>174</ele>
        <time>2019-11-24T11:07:34Z</time>
      </trkpt>
      <trkpt lat="48.55553" lon="1.95284">
        <ele>174</ele>
        <time>2019-11-24T11:07:36Z</time>
      </trkpt>
      <trkpt lat="48.55547" lon="1.9529">
        <ele>174</ele>
        <time>2019-11-24T11:07:38Z</time>
      </trkpt>
      <trkpt lat="48.5554" lon="1.95295">
        <ele>173</ele>
        <time>2019-11-24T11:07:40Z</time>
      </trkpt>
      <trkpt lat="48.55534" lon="1.953">
        <ele>173</ele>
        <time>2019-11-24T11:07:42Z</time>
      </trkpt>
      <trkpt lat="48.55528" lon="1.95306">
        <ele>173</ele>
        <time>2019-11-24T11:07:44Z</time>
      </trkpt>
      <trkpt lat="48.55521" lon="1.9531">
        <ele>173</ele>
        <time>2019-11-24T11:07:46Z</time>
      </trkpt>
      <trkpt lat="48.55515" lon="1.95315">
        <ele>173</ele>
        <time>2019-11-24T11:07:48Z</time>
      </trkpt>
      <trkpt lat="48.55509" lon="1.9532">
        <ele>173</ele>
        <time>2019-11-24T11:07:50Z</time>
      </trkpt>
      <trkpt lat="48.55502" lon="1.95326">
        <ele>173</ele>
        <time>2019-11-24T11:07:52Z</time>
      </trkpt>
      <trkpt lat="48.55496" lon="1.95331">
        <ele>173</ele>
        <time>2019-11-24T11:07:54Z</time>
      </trkpt>
      <trkpt lat="48.55491" lon="1.95336">
        <ele>173</ele>
        <time>2019-11-24T11:07:56Z</time>
      </trkpt>
      <trkpt lat="48.55484" lon="1.9534">
        <ele>174</ele>
        <time>2019-11-24T11:07:58Z</time>
      </trkpt>
      <trkpt lat="48.55477" lon="1.95345">
        <ele>174</ele>
        <time>2019-11-24T11:08:00Z</time>
      </trkpt>
      <trkpt lat="48.55472" lon="1.95351">
        <ele>174</ele>
        <time>2019-11-24T11:08:02Z</time>
      </trkpt>
      <trkpt lat="48.55465" lon="1.95355">
        <ele>174</ele>
        <time>2019-11-24T11:08:04Z</time>
      </trkpt>
      <trkpt lat="48.55459" lon="1.9536">
        <ele>174</ele>
        <time>2019-11-24T11:08:06Z</time>
      </trkpt>
      <trkpt lat="48.55454" lon="1.95364">
        <ele>174</ele>
        <time>2019-11-24T11:08:08Z</time>
      </trkpt>
      <trkpt lat="48.55449" lon="1.95368">
        <ele>174</ele>
        <time>2019-11-24T11:08:10Z</time>
      </trkpt>
      <trkpt lat="48.55443" lon="1.95372">
        <ele>174</ele>
        <time>2019-11-24T11:08:12Z</time>
      </trkpt>
      <trkpt lat="48.55436" lon="1.95379">
        <ele>174</ele>
        <time>2019-11-24T11:08:14Z</time>
      </trkpt>
      <trkpt lat="48.55431" lon="1.95384">
        <ele>174</ele>
        <time>2019-11-24T11:08:16Z</time>
      </trkpt>
      <trkpt lat="48.55423" lon="1.9539">
        <ele>175</ele>
        <time>2019-11-24T11:08:18Z</time>
      </trkpt>
      <trkpt lat="48.55415" lon="1.95395">
        <ele>175</ele>
        <time>2019-11-24T11:08:20Z</time>
      </trkpt>
      <trkpt lat="48.5541" lon="1.954">
        <ele>175</ele>
        <time>2019-11-24T11:08:22Z</time>
      </trkpt>
      <trkpt lat="48.55405" lon="1.95405">
        <ele>175</ele>
        <time>2019-11-24T11:08:24Z</time>
      </trkpt>
      <trkpt lat="48.55401" lon="1.95409">
        <ele>175</ele>
        <time>2019-11-24T11:08:26Z</time>
      </trkpt>
      <trkpt lat="48.55393" lon="1.95414">
        <ele>175</ele>
        <time>2019-11-24T11:08:28Z</time>
      </trkpt>
      <trkpt lat="48.55385" lon="1.95419">
        <ele>174</ele>
        <time>2019-11-24T11:08:30Z</time>
      </trkpt>
      <trkpt lat="48.5538" lon="1.95425">
        <ele>174</ele>
        <time>2019-11-24T11:08:32Z</time>
      </trkpt>
      <trkpt lat="48.55375" lon="1.95429">
        <ele>174</ele>
        <time>2019-11-24T11:08:34Z</time>
      </trkpt>
      <trkpt lat="48.5537" lon="1.95434">
        <ele>174</ele>
        <time>2019-11-24T11:08:36Z</time>
      </trkpt>
      <trkpt lat="48.55366" lon="1.9544">
        <ele>174</ele>
        <time>2019-11-24T11:08:38Z</time>
      </trkpt>
      <trkpt lat="48.55359" lon="1.95445">
        <ele>174</ele>
        <time>2019-11-24T11:08:40Z</time>
      </trkpt>
      <trkpt lat="48.55353" lon="1.9545">
        <ele>174</ele>
        <time>2019-11-24T11:08:42Z</time>
      </trkpt>
      <trkpt lat="48.55346" lon="1.95456">
        <ele>174</ele>
        <time>2019-11-24T11:08:44Z</time>
      </trkpt>
      <trkpt lat="48.55339" lon="1.95463">
        <ele>174</ele>
        <time>2019-11-24T11:08:46Z</time>
      </trkpt>
      <trkpt lat="48.55333" lon="1.95468">
        <ele>173</ele>
        <time>2019-11-24T11:08:48Z</time>
      </trkpt>
      <trkpt lat="48.55324" lon="1.95473">
        <ele>173</ele>
        <time>2019-11-24T11:08:50Z</time>
      </trkpt>
      <trkpt lat="48.55316" lon="1.95477">
        <ele>173</ele>
        <time>2019-11-24T11:08:52Z</time>
      </trkpt>
      <trkpt lat="48.5531" lon="1.95481">
        <ele>173</ele>
        <time>2019-11-24T11:08:54Z</time>
      </trkpt>
      <trkpt lat="48.55302" lon="1.95484">
        <ele>173</ele>
        <time>2019-11-24T11:08:56Z</time>
      </trkpt>
      <trkpt lat="48.55296" lon="1.95491">
        <ele>173</ele>
        <time>2019-11-24T11:08:58Z</time>
      </trkpt>
      <trkpt lat="48.55291" lon="1.95499">
        <ele>172</ele>
        <time>2019-11-24T11:09:00Z</time>
      </trkpt>
      <trkpt lat="48.55287" lon="1.95506">
        <ele>171</ele>
        <time>2019-11-24T11:09:02Z</time>
      </trkpt>
      <trkpt lat="48.55284" lon="1.95515">
        <ele>171</ele>
        <time>2019-11-24T11:09:04Z</time>
      </trkpt>
      <trkpt lat="48.55281" lon="1.95524">
        <ele>171</ele>
        <time>2019-11-24T11:09:06Z</time>
      </trkpt>
      <trkpt lat="48.55279" lon="1.95534">
        <ele>171</ele>
        <time>2019-11-24T11:09:08Z</time>
      </trkpt>
      <trkpt lat="48.55275" lon="1.95544">
        <ele>171</ele>
        <time>2019-11-24T11:09:10Z</time>
      </trkpt>
      <trkpt lat="48.55271" lon="1.95555">
        <ele>171</ele>
        <time>2019-11-24T11:09:12Z</time>
      </trkpt>
      <trkpt lat="48.55269" lon="1.95566">
        <ele>171</ele>
        <time>2019-11-24T11:09:14Z</time>
      </trkpt>
      <trkpt lat="48.55266" lon="1.95578">
        <ele>171</ele>
        <time>2019-11-24T11:09:16Z</time>
      </trkpt>
      <trkpt lat="48.55263" lon="1.95589">
        <ele>171</ele>
        <time>2019-11-24T11:09:18Z</time>
      </trkpt>
      <trkpt lat="48.55259" lon="1.956">
        <ele>171</ele>
        <time>2019-11-24T11:09:20Z</time>
      </trkpt>
      <trkpt lat="48.55257" lon="1.95609">
        <ele>171</ele>
        <time>2019-11-24T11:09:22Z</time>
      </trkpt>
      <trkpt lat="48.55254" lon="1.95618">
        <ele>171</ele>
        <time>2019-11-24T11:09:24Z</time>
      </trkpt>
      <trkpt lat="48.55252" lon="1.95627">
        <ele>171</ele>
        <time>2019-11-24T11:09:26Z</time>
      </trkpt>
      <trkpt lat="48.55248" lon="1.95637">
        <ele>170</ele>
        <time>2019-11-24T11:09:28Z</time>
      </trkpt>
      <trkpt lat="48.55245" lon="1.95646">
        <ele>170</ele>
        <time>2019-11-24T11:09:30Z</time>
      </trkpt>
      <trkpt lat="48.55241" lon="1.95652">
        <ele>170</ele>
        <time>2019-11-24T11:09:32Z</time>
      </trkpt>
      <trkpt lat="48.55236" lon="1.95661">
        <ele>170</ele>
        <time>2019-11-24T11:09:34Z</time>
      </trkpt>
      <trkpt lat="48.55232" lon="1.95671">
        <ele>171</ele>
        <time>2019-11-24T11:09:36Z</time>
      </trkpt>
      <trkpt lat="48.55226" lon="1.95683">
        <ele>171</ele>
        <time>2019-11-24T11:09:38Z</time>
      </trkpt>
      <trkpt lat="48.55223" lon="1.95696">
        <ele>171</ele>
        <time>2019-11-24T11:09:40Z</time>
      </trkpt>
      <trkpt lat="48.55219" lon="1.95708">
        <ele>171</ele>
        <time>2019-11-24T11:09:42Z</time>
      </trkpt>
      <trkpt lat="48.55215" lon="1.95719">
        <ele>171</ele>
        <time>2019-11-24T11:09:44Z</time>
      </trkpt>
      <trkpt lat="48.55212" lon="1.95731">
        <ele>171</ele>
        <time>2019-11-24T11:09:46Z</time>
      </trkpt>
      <trkpt lat="48.55209" lon="1.95741">
        <ele>171</ele>
        <time>2019-11-24T11:09:48Z</time>
      </trkpt>
      <trkpt lat="48.55205" lon="1.9575">
        <ele>171</ele>
        <time>2019-11-24T11:09:50Z</time>
      </trkpt>
      <trkpt lat="48.55201" lon="1.95759">
        <ele>171</ele>
        <time>2019-11-24T11:09:52Z</time>
      </trkpt>
      <trkpt lat="48.55198" lon="1.9577">
        <ele>171</ele>
        <time>2019-11-24T11:09:54Z</time>
      </trkpt>
      <trkpt lat="48.55195" lon="1.95781">
        <ele>171</ele>
        <time>2019-11-24T11:09:56Z</time>
      </trkpt>
      <trkpt lat="48.55192" lon="1.95792">
        <ele>171</ele>
        <time>2019-11-24T11:09:58Z</time>
      </trkpt>
      <trkpt lat="48.55189" lon="1.95802">
        <ele>171</ele>
        <time>2019-11-24T11:10:00Z</time>
      </trkpt>
      <trkpt lat="48.55186" lon="1.95812">
        <ele>171</ele>
        <time>2019-11-24T11:10:02Z</time>
      </trkpt>
      <trkpt lat="48.55183" lon="1.95822">
        <ele>171</ele>
        <time>2019-11-24T11:10:04Z</time>
      </trkpt>
      <trkpt lat="48.55179" lon="1.95832">
        <ele>171</ele>
        <time>2019-11-24T11:10:06Z</time>
      </trkpt>
      <trkpt lat="48.55177" lon="1.95843">
        <ele>171</ele>
        <time>2019-11-24T11:10:08Z</time>
      </trkpt>
      <trkpt lat="48.55173" lon="1.95855">
        <ele>171</ele>
        <time>2019-11-24T11:10:10Z</time>
      </trkpt>
      <trkpt lat="48.55169" lon="1.95865">
        <ele>171</ele>
        <time>2019-11-24T11:10:12Z</time>
      </trkpt>
      <trkpt lat="48.55165" lon="1.95875">
        <ele>170</ele>
        <time>2019-11-24T11:10:14Z</time>
      </trkpt>
      <trkpt lat="48.55161" lon="1.95885">
        <ele>170</ele>
        <time>2019-11-24T11:10:16Z</time>
      </trkpt>
      <trkpt lat="48.55157" lon="1.95897">
        <ele>170</ele>
        <time>2019-11-24T11:10:18Z</time>
      </trkpt>
      <trkpt lat="48.55152" lon="1.95907">
        <ele>170</ele>
        <time>2019-11-24T11:10:20Z</time>
      </trkpt>
      <trkpt lat="48.55148" lon="1.95917">
        <ele>169</ele>
        <time>2019-11-24T11:10:22Z</time>
      </trkpt>
      <trkpt lat="48.55144" lon="1.95929">
        <ele>170</ele>
        <time>2019-11-24T11:10:24Z</time>
      </trkpt>
      <trkpt lat="48.5514" lon="1.95939">
        <ele>170</ele>
        <time>2019-11-24T11:10:26Z</time>
      </trkpt>
      <trkpt lat="48.55136" lon="1.9595">
        <ele>170</ele>
        <time>2019-11-24T11:10:28Z</time>
      </trkpt>
      <trkpt lat="48.55133" lon="1.95961">
        <ele>170</ele>
        <time>2019-11-24T11:10:30Z</time>
      </trkpt>
      <trkpt lat="48.55129" lon="1.95972">
        <ele>170</ele>
        <time>2019-11-24T11:10:32Z</time>
      </trkpt>
      <trkpt lat="48.55126" lon="1.95983">
        <ele>170</ele>
        <time>2019-11-24T11:10:34Z</time>
      </trkpt>
      <trkpt lat="48.55123" lon="1.95992">
        <ele>170</ele>
        <time>2019-11-24T11:10:36Z</time>
      </trkpt>
      <trkpt lat="48.55118" lon="1.96001">
        <ele>170</ele>
        <time>2019-11-24T11:10:38Z</time>
      </trkpt>
      <trkpt lat="48.55115" lon="1.96012">
        <ele>170</ele>
        <time>2019-11-24T11:10:40Z</time>
      </trkpt>
      <trkpt lat="48.55112" lon="1.96023">
        <ele>170</ele>
        <time>2019-11-24T11:10:42Z</time>
      </trkpt>
      <trkpt lat="48.55108" lon="1.96033">
        <ele>169</ele>
        <time>2019-11-24T11:10:44Z</time>
      </trkpt>
      <trkpt lat="48.55104" lon="1.96043">
        <ele>169</ele>
        <time>2019-11-24T11:10:46Z</time>
      </trkpt>
      <trkpt lat="48.551" lon="1.96053">
        <ele>169</ele>
        <time>2019-11-24T11:10:48Z</time>
      </trkpt>
      <trkpt lat="48.55097" lon="1.96064">
        <ele>169</ele>
        <time>2019-11-24T11:10:50Z</time>
      </trkpt>
      <trkpt lat="48.55093" lon="1.96075">
        <ele>169</ele>
        <time>2019-11-24T11:10:52Z</time>
      </trkpt>
      <trkpt lat="48.55088" lon="1.96086">
        <ele>169</ele>
        <time>2019-11-24T11:10:54Z</time>
      </trkpt>
      <trkpt lat="48.55084" lon="1.96096">
        <ele>169</ele>
        <time>2019-11-24T11:10:56Z</time>
      </trkpt>
      <trkpt lat="48.5508" lon="1.96105">
        <ele>170</ele>
        <time>2019-11-24T11:10:58Z</time>
      </trkpt>
      <trkpt lat="48.55077" lon="1.96114">
        <ele>170</ele>
        <time>2019-11-24T11:11:00Z</time>
      </trkpt>
      <trkpt lat="48.55075" lon="1.96121">
        <ele>170</ele>
        <time>2019-11-24T11:11:02Z</time>
      </trkpt>
      <trkpt lat="48.55072" lon="1.96129">
        <ele>171</ele>
        <time>2019-11-24T11:11:04Z</time>
      </trkpt>
      <trkpt lat="48.5507" lon="1.96138">
        <ele>170</ele>
        <time>2019-11-24T11:11:06Z</time>
      </trkpt>
      <trkpt lat="48.55068" lon="1.96146">
        <ele>170</ele>
        <time>2019-11-24T11:11:08Z</time>
      </trkpt>
      <trkpt lat="48.55065" lon="1.96153">
        <ele>170</ele>
        <time>2019-11-24T11:11:10Z</time>
      </trkpt>
      <trkpt lat="48.55062" lon="1.96161">
        <ele>170</ele>
        <time>2019-11-24T11:11:12Z</time>
      </trkpt>
      <trkpt lat="48.55059" lon="1.96169">
        <ele>170</ele>
        <time>2019-11-24T11:11:14Z</time>
      </trkpt>
      <trkpt lat="48.55056" lon="1.96178">
        <ele>171</ele>
        <time>2019-11-24T11:11:16Z</time>
      </trkpt>
      <trkpt lat="48.55052" lon="1.96189">
        <ele>171</ele>
        <time>2019-11-24T11:11:18Z</time>
      </trkpt>
      <trkpt lat="48.55049" lon="1.96199">
        <ele>171</ele>
        <time>2019-11-24T11:11:20Z</time>
      </trkpt>
      <trkpt lat="48.55045" lon="1.96211">
        <ele>171</ele>
        <time>2019-11-24T11:11:22Z</time>
      </trkpt>
      <trkpt lat="48.55041" lon="1.96221">
        <ele>171</ele>
        <time>2019-11-24T11:11:24Z</time>
      </trkpt>
      <trkpt lat="48.55038" lon="1.96232">
        <ele>171</ele>
        <time>2019-11-24T11:11:26Z</time>
      </trkpt>
      <trkpt lat="48.55035" lon="1.96243">
        <ele>172</ele>
        <time>2019-11-24T11:11:28Z</time>
      </trkpt>
      <trkpt lat="48.55032" lon="1.96252">
        <ele>171</ele>
        <time>2019-11-24T11:11:30Z</time>
      </trkpt>
      <trkpt lat="48.55029" lon="1.96263">
        <ele>171</ele>
        <time>2019-11-24T11:11:32Z</time>
      </trkpt>
      <trkpt lat="48.55026" lon="1.96273">
        <ele>171</ele>
        <time>2019-11-24T11:11:34Z</time>
      </trkpt>
      <trkpt lat="48.55023" lon="1.96284">
        <ele>171</ele>
        <time>2019-11-24T11:11:36Z</time>
      </trkpt>
      <trkpt lat="48.55018" lon="1.96296">
        <ele>171</ele>
        <time>2019-11-24T11:11:38Z</time>
      </trkpt>
      <trkpt lat="48.55014" lon="1.96306">
        <ele>171</ele>
        <time>2019-11-24T11:11:40Z</time>
      </trkpt>
      <trkpt lat="48.55009" lon="1.96318">
        <ele>171</ele>
        <time>2019-11-24T11:11:42Z</time>
      </trkpt>
      <trkpt lat="48.55004" lon="1.9633">
        <ele>171</ele>
        <time>2019-11-24T11:11:44Z</time>
      </trkpt>
      <trkpt lat="48.55001" lon="1.96343">
        <ele>170</ele>
        <time>2019-11-24T11:11:46Z</time>
      </trkpt>
      <trkpt lat="48.54997" lon="1.96356">
        <ele>170</ele>
        <time>2019-11-24T11:11:48Z</time>
      </trkpt>
      <trkpt lat="48.54994" lon="1.96368">
        <ele>170</ele>
        <time>2019-11-24T11:11:50Z</time>
      </trkpt>
      <trkpt lat="48.5499" lon="1.96378">
        <ele>170</ele>
        <time>2019-11-24T11:11:52Z</time>
      </trkpt>
      <trkpt lat="48.54987" lon="1.96389">
        <ele>170</ele>
        <time>2019-11-24T11:11:54Z</time>
      </trkpt>
      <trkpt lat="48.54985" lon="1.964">
        <ele>169</ele>
        <time>2019-11-24T11:11:56Z</time>
      </trkpt>
      <trkpt lat="48.54981" lon="1.9641">
        <ele>169</ele>
        <time>2019-11-24T11:11:58Z</time>
      </trkpt>
      <trkpt lat="48.54977" lon="1.9642">
        <ele>168</ele>
        <time>2019-11-24T11:12:00Z</time>
      </trkpt>
      <trkpt lat="48.54972" lon="1.96429">
        <ele>168</ele>
        <time>2019-11-24T11:12:02Z</time>
      </trkpt>
      <trkpt lat="48.54968" lon="1.9644">
        <ele>168</ele>
        <time>2019-11-24T11:12:04Z</time>
      </trkpt>
      <trkpt lat="48.54964" lon="1.96452">
        <ele>168</ele>
        <time>2019-11-24T11:12:06Z</time>
      </trkpt>
      <trkpt lat="48.54959" lon="1.96463">
        <ele>168</ele>
        <time>2019-11-24T11:12:08Z</time>
      </trkpt>
      <trkpt lat="48.54955" lon="1.96474">
        <ele>168</ele>
        <time>2019-11-24T11:12:10Z</time>
      </trkpt>
      <trkpt lat="48.54952" lon="1.96484">
        <ele>168</ele>
        <time>2019-11-24T11:12:12Z</time>
      </trkpt>
      <trkpt lat="48.54949" lon="1.96493">
        <ele>168</ele>
        <time>2019-11-24T11:12:14Z</time>
      </trkpt>
      <trkpt lat="48.54945" lon="1.96504">
        <ele>167</ele>
        <time>2019-11-24T11:12:16Z</time>
      </trkpt>
      <trkpt lat="48.54941" lon="1.96516">
        <ele>167</ele>
        <time>2019-11-24T11:12:18Z</time>
      </trkpt>
      <trkpt lat="48.54935" lon="1.96525">
        <ele>167</ele>
        <time>2019-11-24T11:12:20Z</time>
      </trkpt>
      <trkpt lat="48.54931" lon="1.96539">
        <ele>166</ele>
        <time>2019-11-24T11:12:22Z</time>
      </trkpt>
      <trkpt lat="48.54925" lon="1.96551">
        <ele>166</ele>
        <time>2019-11-24T11:12:24Z</time>
      </trkpt>
      <trkpt lat="48.5492" lon="1.96564">
        <ele>166</ele>
        <time>2019-11-24T11:12:26Z</time>
      </trkpt>
      <trkpt lat="48.54916" lon="1.96578">
        <ele>166</ele>
        <time>2019-11-24T11:12:28Z</time>
      </trkpt>
      <trkpt lat="48.54912" lon="1.9659">
        <ele>166</ele>
        <time>2019-11-24T11:12:30Z</time>
      </trkpt>
      <trkpt lat="48.54908" lon="1.96603">
        <ele>166</ele>
        <time>2019-11-24T11:12:32Z</time>
      </trkpt>
      <trkpt lat="48.54903" lon="1.96614">
        <ele>166</ele>
        <time>2019-11-24T11:12:34Z</time>
      </trkpt>
      <trkpt lat="48.54899" lon="1.96627">
        <ele>166</ele>
        <time>2019-11-24T11:12:36Z</time>
      </trkpt>
      <trkpt lat="48.54895" lon="1.9664">
        <ele>165</ele>
        <time>2019-11-24T11:12:38Z</time>
      </trkpt>
      <trkpt lat="48.54892" lon="1.96652">
        <ele>165</ele>
        <time>2019-11-24T11:12:40Z</time>
      </trkpt>
      <trkpt lat="48.54888" lon="1.96664">
        <ele>165</ele>
        <time>2019-11-24T11:12:42Z</time>
      </trkpt>
      <trkpt lat="48.54884" lon="1.96676">
        <ele>164</ele>
        <time>2019-11-24T11:12:44Z</time>
      </trkpt>
      <trkpt lat="48.54881" lon="1.96689">
        <ele>165</ele>
        <time>2019-11-24T11:12:46Z</time>
      </trkpt>
      <trkpt lat="48.54878" lon="1.967">
        <ele>165</ele>
        <time>2019-11-24T11:12:48Z</time>
      </trkpt>
      <trkpt lat="48.54873" lon="1.96713">
        <ele>165</ele>
        <time>2019-11-24T11:12:50Z</time>
      </trkpt>
      <trkpt lat="48.54869" lon="1.96726">
        <ele>165</ele>
        <time>2019-11-24T11:12:52Z</time>
      </trkpt>
      <trkpt lat="48.54865" lon="1.96737">
        <ele>165</ele>
        <time>2019-11-24T11:12:54Z</time>
      </trkpt>
      <trkpt lat="48.5486" lon="1.96747">
        <ele>165</ele>
        <time>2019-11-24T11:12:56Z</time>
      </trkpt>
      <trkpt lat="48.54856" lon="1.96759">
        <ele>164</ele>
        <time>2019-11-24T11:12:58Z</time>
      </trkpt>
      <trkpt lat="48.54852" lon="1.9677">
        <ele>164</ele>
        <time>2019-11-24T11:13:00Z</time>
      </trkpt>
      <trkpt lat="48.54846" lon="1.96784">
        <ele>164</ele>
        <time>2019-11-24T11:13:02Z</time>
      </trkpt>
      <trkpt lat="48.54842" lon="1.96794">
        <ele>164</ele>
        <time>2019-11-24T11:13:04Z</time>
      </trkpt>
      <trkpt lat="48.54839" lon="1.96805">
        <ele>164</ele>
        <time>2019-11-24T11:13:06Z</time>
      </trkpt>
      <trkpt lat="48.54836" lon="1.96817">
        <ele>164</ele>
        <time>2019-11-24T11:13:08Z</time>
      </trkpt>
      <trkpt lat="48.54833" lon="1.96829">
        <ele>164</ele>
        <time>2019-11-24T11:13:10Z</time>
      </trkpt>
      <trkpt lat="48.54828" lon="1.96841">
        <ele>164</ele>
        <time>2019-11-24T11:13:12Z</time>
      </trkpt>
      <trkpt lat="48.54825" lon="1.96853">
        <ele>164</ele>
        <time>2019-11-24T11:13:14Z</time>
      </trkpt>
      <trkpt lat="48.54821" lon="1.96866">
        <ele>164</ele>
        <time>2019-11-24T11:13:16Z</time>
      </trkpt>
      <trkpt lat="48.54817" lon="1.96878">
        <ele>164</ele>
        <time>2019-11-24T11:13:18Z</time>
      </trkpt>
      <trkpt lat="48.54812" lon="1.96891">
        <ele>164</ele>
        <time>2019-11-24T11:13:20Z</time>
      </trkpt>
      <trkpt lat="48.54808" lon="1.96904">
        <ele>164</ele>
        <time>2019-11-24T11:13:22Z</time>
      </trkpt>
      <trkpt lat="48.54804" lon="1.96917">
        <ele>164</ele>
        <time>2019-11-24T11:13:24Z</time>
      </trkpt>
      <trkpt lat="48.54797" lon="1.96931">
        <ele>165</ele>
        <time>2019-11-24T11:13:26Z</time>
      </trkpt>
      <trkpt lat="48.54791" lon="1.96942">
        <ele>165</ele>
        <time>2019-11-24T11:13:28Z</time>
      </trkpt>
      <trkpt lat="48.54787" lon="1.96954">
        <ele>165</ele>
        <time>2019-11-24T11:13:30Z</time>
      </trkpt>
      <trkpt lat="48.54784" lon="1.96966">
        <ele>165</ele>
        <time>2019-11-24T11:13:32Z</time>
      </trkpt>
      <trkpt lat="48.54778" lon="1.96978">
        <ele>165</ele>
        <time>2019-11-24T11:13:34Z</time>
      </trkpt>
      <trkpt lat="48.54774" lon="1.96989">
        <ele>165</ele>
        <time>2019-11-24T11:13:36Z</time>
      </trkpt>
      <trkpt lat="48.5477" lon="1.96999">
        <ele>165</ele>
        <time>2019-11-24T11:13:38Z</time>
      </trkpt>
      <trkpt lat="48.54767" lon="1.9701">
        <ele>166</ele>
        <time>2019-11-24T11:13:40Z</time>
      </trkpt>
      <trkpt lat="48.54764" lon="1.97022">
        <ele>166</ele>
        <time>2019-11-24T11:13:42Z</time>
      </trkpt>
      <trkpt lat="48.54761" lon="1.97033">
        <ele>166</ele>
        <time>2019-11-24T11:13:44Z</time>
      </trkpt>
      <trkpt lat="48.54759" lon="1.97043">
        <ele>166</ele>
        <time>2019-11-24T11:13:46Z</time>
      </trkpt>
      <trkpt lat="48.54755" lon="1.97053">
        <ele>166</ele>
        <time>2019-11-24T11:13:48Z</time>
      </trkpt>
      <trkpt lat="48.54751" lon="1.97062">
        <ele>166</ele>
        <time>2019-11-24T11:13:50Z</time>
      </trkpt>
      <trkpt lat="48.54746" lon="1.97074">
        <ele>166</ele>
        <time>2019-11-24T11:13:52Z</time>
      </trkpt>
      <trkpt lat="48.54741" lon="1.97084">
        <ele>166</ele>
        <time>2019-11-24T11:13:54Z</time>
      </trkpt>
      <trkpt lat="48.54739" lon="1.97093">
        <ele>166</ele>
        <time>2019-11-24T11:13:56Z</time>
      </trkpt>
      <trkpt lat="48.54736" lon="1.97104">
        <ele>166</ele>
        <time>2019-11-24T11:13:58Z</time>
      </trkpt>
      <trkpt lat="48.54733" lon="1.97113">
        <ele>166</ele>
        <time>2019-11-24T11:14:00Z</time>
      </trkpt>
      <trkpt lat="48.54729" lon="1.97125">
        <ele>166</ele>
        <time>2019-11-24T11:14:02Z</time>
      </trkpt>
      <trkpt lat="48.54727" lon="1.97133">
        <ele>166</ele>
        <time>2019-11-24T11:14:04Z</time>
      </trkpt>
      <trkpt lat="48.54725" lon="1.97141">
        <ele>166</ele>
        <time>2019-11-24T11:14:06Z</time>
      </trkpt>
      <trkpt lat="48.54721" lon="1.97151">
        <ele>166</ele>
        <time>2019-11-24T11:14:08Z</time>
      </trkpt>
      <trkpt lat="48.54717" lon="1.9716">
        <ele>166</ele>
        <time>2019-11-24T11:14:10Z</time>
      </trkpt>
      <trkpt lat="48.54714" lon="1.97167">
        <ele>166</ele>
        <time>2019-11-24T11:14:12Z</time>
      </trkpt>
      <trkpt lat="48.54709" lon="1.97174">
        <ele>166</ele>
        <time>2019-11-24T11:14:14Z</time>
      </trkpt>
      <trkpt lat="48.54705" lon="1.97182">
        <ele>166</ele>
        <time>2019-11-24T11:14:16Z</time>
      </trkpt>
      <trkpt lat="48.54702" lon="1.97192">
        <ele>166</ele>
        <time>2019-11-24T11:14:18Z</time>
      </trkpt>
      <trkpt lat="48.54699" lon="1.97203">
        <ele>167</ele>
        <time>2019-11-24T11:14:20Z</time>
      </trkpt>
      <trkpt lat="48.54698" lon="1.97214">
        <ele>167</ele>
        <time>2019-11-24T11:14:22Z</time>
      </trkpt>
      <trkpt lat="48.54693" lon="1.97225">
        <ele>167</ele>
        <time>2019-11-24T11:14:24Z</time>
      </trkpt>
      <trkpt lat="48.54689" lon="1.97236">
        <ele>167</ele>
        <time>2019-11-24T11:14:26Z</time>
      </trkpt>
      <trkpt lat="48.54686" lon="1.97248">
        <ele>167</ele>
        <time>2019-11-24T11:14:28Z</time>
      </trkpt>
      <trkpt lat="48.54681" lon="1.97254">
        <ele>168</ele>
        <time>2019-11-24T11:14:30Z</time>
      </trkpt>
      <trkpt lat="48.54679" lon="1.97261">
        <ele>168</ele>
        <time>2019-11-24T11:14:32Z</time>
      </trkpt>
      <trkpt lat="48.54675" lon="1.97269">
        <ele>168</ele>
        <time>2019-11-24T11:14:34Z</time>
      </trkpt>
      <trkpt lat="48.54674" lon="1.97279">
        <ele>168</ele>
        <time>2019-11-24T11:14:36Z</time>
      </trkpt>
      <trkpt lat="48.54672" lon="1.97289">
        <ele>168</ele>
        <time>2019-11-24T11:14:38Z</time>
      </trkpt>
      <trkpt lat="48.54669" lon="1.97298">
        <ele>168</ele>
        <time>2019-11-24T11:14:40Z</time>
      </trkpt>
      <trkpt lat="48.54665" lon="1.97307">
        <ele>169</ele>
        <time>2019-11-24T11:14:42Z</time>
      </trkpt>
      <trkpt lat="48.54661" lon="1.97318">
        <ele>169</ele>
        <time>2019-11-24T11:14:44Z</time>
      </trkpt>
      <trkpt lat="48.54658" lon="1.97327">
        <ele>169</ele>
        <time>2019-11-24T11:14:46Z</time>
      </trkpt>
      <trkpt lat="48.54655" lon="1.97335">
        <ele>169</ele>
        <time>2019-11-24T11:14:48Z</time>
      </trkpt>
      <trkpt lat="48.54652" lon="1.97345">
        <ele>170</ele>
        <time>2019-11-24T11:14:50Z</time>
      </trkpt>
      <trkpt lat="48.54651" lon="1.97355">
        <ele>170</ele>
        <time>2019-11-24T11:14:52Z</time>
      </trkpt>
      <trkpt lat="48.5465" lon="1.97363">
        <ele>170</ele>
        <time>2019-11-24T11:14:54Z</time>
      </trkpt>
      <trkpt lat="48.54648" lon="1.9737">
        <ele>170</ele>
        <time>2019-11-24T11:14:56Z</time>
      </trkpt>
      <trkpt lat="48.54644" lon="1.97379">
        <ele>170</ele>
        <time>2019-11-24T11:14:58Z</time>
      </trkpt>
      <trkpt lat="48.54641" lon="1.97389">
        <ele>170</ele>
        <time>2019-11-24T11:15:00Z</time>
      </trkpt>
      <trkpt lat="48.54639" lon="1.97398">
        <ele>170</ele>
        <time>2019-11-24T11:15:02Z</time>
      </trkpt>
      <trkpt lat="48.54635" lon="1.97405">
        <ele>170</ele>
        <time>2019-11-24T11:15:04Z</time>
      </trkpt>
      <trkpt lat="48.5463" lon="1.97414">
        <ele>170</ele>
        <time>2019-11-24T11:15:06Z</time>
      </trkpt>
      <trkpt lat="48.54628" lon="1.97422">
        <ele>170</ele>
        <time>2019-11-24T11:15:08Z</time>
      </trkpt>
      <trkpt lat="48.54625" lon="1.9743">
        <ele>170</ele>
        <time>2019-11-24T11:15:10Z</time>
      </trkpt>
      <trkpt lat="48.54622" lon="1.97439">
        <ele>170</ele>
        <time>2019-11-24T11:15:12Z</time>
      </trkpt>
      <trkpt lat="48.54618" lon="1.97452">
        <ele>170</ele>
        <time>2019-11-24T11:15:14Z</time>
      </trkpt>
      <trkpt lat="48.54614" lon="1.97463">
        <ele>170</ele>
        <time>2019-11-24T11:15:16Z</time>
      </trkpt>
      <trkpt lat="48.54611" lon="1.97473">
        <ele>170</ele>
        <time>2019-11-24T11:15:18Z</time>
      </trkpt>
      <trkpt lat="48.54606" lon="1.97485">
        <ele>171</ele>
        <time>2019-11-24T11:15:20Z</time>
      </trkpt>
      <trkpt lat="48.54601" lon="1.97498">
        <ele>171</ele>
        <time>2019-11-24T11:15:22Z</time>
      </trkpt>
      <trkpt lat="48.54598" lon="1.97511">
        <ele>170</ele>
        <time>2019-11-24T11:15:24Z</time>
      </trkpt>
      <trkpt lat="48.54593" lon="1.97526">
        <ele>170</ele>
        <time>2019-11-24T11:15:26Z</time>
      </trkpt>
      <trkpt lat="48.54591" lon="1.97539">
        <ele>170</ele>
        <time>2019-11-24T11:15:28Z</time>
      </trkpt>
      <trkpt lat="48.54585" lon="1.97551">
        <ele>170</ele>
        <time>2019-11-24T11:15:30Z</time>
      </trkpt>
      <trkpt lat="48.54581" lon="1.9756">
        <ele>170</ele>
        <time>2019-11-24T11:15:32Z</time>
      </trkpt>
      <trkpt lat="48.54577" lon="1.97572">
        <ele>170</ele>
        <time>2019-11-24T11:15:34Z</time>
      </trkpt>
      <trkpt lat="48.54571" lon="1.97585">
        <ele>169</ele>
        <time>2019-11-24T11:15:36Z</time>
      </trkpt>
      <trkpt lat="48.54564" lon="1.976">
        <ele>170</ele>
        <time>2019-11-24T11:15:38Z</time>
      </trkpt>
      <trkpt lat="48.54559" lon="1.97612">
        <ele>170</ele>
        <time>2019-11-24T11:15:40Z</time>
      </trkpt>
      <trkpt lat="48.54555" lon="1.97626">
        <ele>170</ele>
        <time>2019-11-24T11:15:42Z</time>
      </trkpt>
      <trkpt lat="48.54551" lon="1.97639">
        <ele>170</ele>
        <time>2019-11-24T11:15:44Z</time>
      </trkpt>
      <trkpt lat="48.54544" lon="1.97653">
        <ele>170</ele>
        <time>2019-11-24T11:15:46Z</time>
      </trkpt>
      <trkpt lat="48.54541" lon="1.97664">
        <ele>170</ele>
        <time>2019-11-24T11:15:48Z</time>
      </trkpt>
      <trkpt lat="48.54538" lon="1.97674">
        <ele>169</ele>
        <time>2019-11-24T11:15:50Z</time>
      </trkpt>
      <trkpt lat="48.54534" lon="1.97684">
        <ele>169</ele>
        <time>2019-11-24T11:15:52Z</time>
      </trkpt>
      <trkpt lat="48.5453" lon="1.97695">
        <ele>169</ele>
        <time>2019-11-24T11:15:54Z</time>
      </trkpt>
      <trkpt lat="48.54525" lon="1.97707">
        <ele>169</ele>
        <time>2019-11-24T11:15:56Z</time>
      </trkpt>
      <trkpt lat="48.54523" lon="1.97719">
        <ele>169</ele>
        <time>2019-11-24T11:15:58Z</time>
      </trkpt>
      <trkpt lat="48.5452" lon="1.9773">
        <ele>169</ele>
        <time>2019-11-24T11:16:00Z</time>
      </trkpt>
      <trkpt lat="48.54517" lon="1.97741">
        <ele>169</ele>
        <time>2019-11-24T11:16:02Z</time>
      </trkpt>
      <trkpt lat="48.54511" lon="1.97754">
        <ele>168</ele>
        <time>2019-11-24T11:16:04Z</time>
      </trkpt>
      <trkpt lat="48.54505" lon="1.97768">
        <ele>168</ele>
        <time>2019-11-24T11:16:06Z</time>
      </trkpt>
      <trkpt lat="48.54502" lon="1.97781">
        <ele>168</ele>
        <time>2019-11-24T11:16:08Z</time>
      </trkpt>
      <trkpt lat="48.54497" lon="1.97796">
        <ele>168</ele>
        <time>2019-11-24T11:16:10Z</time>
      </trkpt>
      <trkpt lat="48.54494" lon="1.97808">
        <ele>168</ele>
        <time>2019-11-24T11:16:12Z</time>
      </trkpt>
      <trkpt lat="48.54489" lon="1.9782">
        <ele>168</ele>
        <time>2019-11-24T11:16:14Z</time>
      </trkpt>
      <trkpt lat="48.54485" lon="1.97834">
        <ele>168</ele>
        <time>2019-11-24T11:16:16Z</time>
      </trkpt>
      <trkpt lat="48.54482" lon="1.97845">
        <ele>168</ele>
        <time>2019-11-24T11:16:18Z</time>
      </trkpt>
      <trkpt lat="48.5448" lon="1.97854">
        <ele>168</ele>
        <time>2019-11-24T11:16:20Z</time>
      </trkpt>
      <trkpt lat="48.54475" lon="1.97865">
        <ele>167</ele>
        <time>2019-11-24T11:16:22Z</time>
      </trkpt>
      <trkpt lat="48.54469" lon="1.97878">
        <ele>167</ele>
        <time>2019-11-24T11:16:24Z</time>
      </trkpt>
      <trkpt lat="48.54464" lon="1.97893">
        <ele>167</ele>
        <time>2019-11-24T11:16:26Z</time>
      </trkpt>
      <trkpt lat="48.5446" lon="1.97905">
        <ele>167</ele>
        <time>2019-11-24T11:16:28Z</time>
      </trkpt>
      <trkpt lat="48.54456" lon="1.97917">
        <ele>167</ele>
        <time>2019-11-24T11:16:30Z</time>
      </trkpt>
      <trkpt lat="48.54451" lon="1.97929">
        <ele>167</ele>
        <time>2019-11-24T11:16:32Z</time>
      </trkpt>
      <trkpt lat="48.54446" lon="1.9794">
        <ele>167</ele>
        <time>2019-11-24T11:16:34Z</time>
      </trkpt>
      <trkpt lat="48.54441" lon="1.97955">
        <ele>167</ele>
        <time>2019-11-24T11:16:36Z</time>
      </trkpt>
      <trkpt lat="48.54436" lon="1.97968">
        <ele>167</ele>
        <time>2019-11-24T11:16:38Z</time>
      </trkpt>
      <trkpt lat="48.54431" lon="1.97981">
        <ele>166</ele>
        <time>2019-11-24T11:16:40Z</time>
      </trkpt>
      <trkpt lat="48.54427" lon="1.97994">
        <ele>166</ele>
        <time>2019-11-24T11:16:42Z</time>
      </trkpt>
      <trkpt lat="48.54422" lon="1.98006">
        <ele>166</ele>
        <time>2019-11-24T11:16:44Z</time>
      </trkpt>
      <trkpt lat="48.54415" lon="1.98019">
        <ele>166</ele>
        <time>2019-11-24T11:16:46Z</time>
      </trkpt>
      <trkpt lat="48.54413" lon="1.98034">
        <ele>166</ele>
        <time>2019-11-24T11:16:48Z</time>
      </trkpt>
      <trkpt lat="48.54409" lon="1.9805">
        <ele>166</ele>
        <time>2019-11-24T11:16:50Z</time>
      </trkpt>
      <trkpt lat="48.54403" lon="1.98063">
        <ele>165</ele>
        <time>2019-11-24T11:16:52Z</time>
      </trkpt>
      <trkpt lat="48.54396" lon="1.98076">
        <ele>165</ele>
        <time>2019-11-24T11:16:54Z</time>
      </trkpt>
      <trkpt lat="48.5439" lon="1.98092">
        <ele>165</ele>
        <time>2019-11-24T11:16:56Z</time>
      </trkpt>
      <trkpt lat="48.54384" lon="1.98106">
        <ele>165</ele>
        <time>2019-11-24T11:16:58Z</time>
      </trkpt>
      <trkpt lat="48.54379" lon="1.9812">
        <ele>165</ele>
        <time>2019-11-24T11:17:00Z</time>
      </trkpt>
      <trkpt lat="48.54374" lon="1.98135">
        <ele>166</ele>
        <time>2019-11-24T11:17:02Z</time>
      </trkpt>
      <trkpt lat="48.54369" lon="1.98148">
        <ele>166</ele>
        <time>2019-11-24T11:17:04Z</time>
      </trkpt>
      <trkpt lat="48.54365" lon="1.98163">
        <ele>166</ele>
        <time>2019-11-24T11:17:06Z</time>
      </trkpt>
      <trkpt lat="48.5436" lon="1.98176">
        <ele>166</ele>
        <time>2019-11-24T11:17:08Z</time>
      </trkpt>
      <trkpt lat="48.54354" lon="1.98186">
        <ele>167</ele>
        <time>2019-11-24T11:17:10Z</time>
      </trkpt>
      <trkpt lat="48.5435" lon="1.98194">
        <ele>167</ele>
        <time>2019-11-24T11:17:12Z</time>
      </trkpt>
      <trkpt lat="48.54346" lon="1.98201">
        <ele>167</ele>
        <time>2019-11-24T11:17:14Z</time>
      </trkpt>
      <trkpt lat="48.54339" lon="1.98208">
        <ele>167</ele>
        <time>2019-11-24T11:17:16Z</time>
      </trkpt>
      <trkpt lat="48.54332" lon="1.98212">
        <ele>167</ele>
        <time>2019-11-24T11:17:18Z</time>
      </trkpt>
      <trkpt lat="48.54326" lon="1.98217">
        <ele>167</ele>
        <time>2019-11-24T11:17:20Z</time>
      </trkpt>
      <trkpt lat="48.54318" lon="1.98221">
        <ele>166</ele>
        <time>2019-11-24T11:17:22Z</time>
      </trkpt>
      <trkpt lat="48.54311" lon="1.98224">
        <ele>166</ele>
        <time>2019-11-24T11:17:24Z</time>
      </trkpt>
      <trkpt lat="48.54304" lon="1.98229">
        <ele>166</ele>
        <time>2019-11-24T11:17:26Z</time>
      </trkpt>
      <trkpt lat="48.54297" lon="1.98232">
        <ele>166</ele>
        <time>2019-11-24T11:17:28Z</time>
      </trkpt>
      <trkpt lat="48.54291" lon="1.98235">
        <ele>166</ele>
        <time>2019-11-24T11:17:30Z</time>
      </trkpt>
      <trkpt lat="48.54286" lon="1.9824">
        <ele>166</ele>
        <time>2019-11-24T11:17:32Z</time>
      </trkpt>
      <trkpt lat="48.54278" lon="1.98243">
        <ele>166</ele>
        <time>2019-11-24T11:17:34Z</time>
      </trkpt>
      <trkpt lat="48.5427" lon="1.98248">
        <ele>166</ele>
        <time>2019-11-24T11:17:36Z</time>
      </trkpt>
      <trkpt lat="48.54263" lon="1.98253">
        <ele>166</ele>
        <time>2019-11-24T11:17:38Z</time>
      </trkpt>
      <trkpt lat="48.54254" lon="1.98257">
        <ele>165</ele>
        <time>2019-11-24T11:17:40Z</time>
      </trkpt>
      <trkpt lat="48.54244" lon="1.98261">
        <ele>163</ele>
        <time>2019-11-24T11:17:42Z</time>
      </trkpt>
      <trkpt lat="48.54233" lon="1.98268">
        <ele>162</ele>
        <time>2019-11-24T11:17:44Z</time>
      </trkpt>
      <trkpt lat="48.54221" lon="1.98275">
        <ele>161</ele>
        <time>2019-11-24T11:17:46Z</time>
      </trkpt>
      <trkpt lat="48.54206" lon="1.98286">
        <ele>160</ele>
        <time>2019-11-24T11:17:48Z</time>
      </trkpt>
      <trkpt lat="48.54189" lon="1.98298">
        <ele>159</ele>
        <time>2019-11-24T11:17:50Z</time>
      </trkpt>
      <trkpt lat="48.54172" lon="1.98307">
        <ele>158</ele>
        <time>2019-11-24T11:17:52Z</time>
      </trkpt>
      <trkpt lat="48.54155" lon="1.98318">
        <ele>151</ele>
        <time>2019-11-24T11:17:54Z</time>
      </trkpt>
      <trkpt lat="48.5414" lon="1.98326">
        <ele>150</ele>
        <time>2019-11-24T11:17:56Z</time>
      </trkpt>
      <trkpt lat="48.54124" lon="1.98335">
        <ele>147</ele>
        <time>2019-11-24T11:17:58Z</time>
      </trkpt>
      <trkpt lat="48.54112" lon="1.98342">
        <ele>146</ele>
        <time>2019-11-24T11:18:00Z</time>
      </trkpt>
      <trkpt lat="48.54101" lon="1.98349">
        <ele>145</ele>
        <time>2019-11-24T11:18:02Z</time>
      </trkpt>
      <trkpt lat="48.54091" lon="1.98358">
        <ele>145</ele>
        <time>2019-11-24T11:18:04Z</time>
      </trkpt>
      <trkpt lat="48.54081" lon="1.98365">
        <ele>141</ele>
        <time>2019-11-24T11:18:06Z</time>
      </trkpt>
      <trkpt lat="48.54073" lon="1.98369">
        <ele>141</ele>
        <time>2019-11-24T11:18:08Z</time>
      </trkpt>
      <trkpt lat="48.54063" lon="1.98375">
        <ele>141</ele>
        <time>2019-11-24T11:18:10Z</time>
      </trkpt>
      <trkpt lat="48.54052" lon="1.98379">
        <ele>141</ele>
        <time>2019-11-24T11:18:12Z</time>
      </trkpt>
      <trkpt lat="48.54043" lon="1.98383">
        <ele>141</ele>
        <time>2019-11-24T11:18:14Z</time>
      </trkpt>
      <trkpt lat="48.54034" lon="1.98389">
        <ele>141</ele>
        <time>2019-11-24T11:18:16Z</time>
      </trkpt>
      <trkpt lat="48.54024" lon="1.98394">
        <ele>140</ele>
        <time>2019-11-24T11:18:18Z</time>
      </trkpt>
      <trkpt lat="48.54016" lon="1.984">
        <ele>140</ele>
        <time>2019-11-24T11:18:20Z</time>
      </trkpt>
      <trkpt lat="48.54006" lon="1.98403">
        <ele>140</ele>
        <time>2019-11-24T11:18:22Z</time>
      </trkpt>
      <trkpt lat="48.54001" lon="1.98407">
        <ele>140</ele>
        <time>2019-11-24T11:18:24Z</time>
      </trkpt>
      <trkpt lat="48.53993" lon="1.98411">
        <ele>140</ele>
        <time>2019-11-24T11:18:26Z</time>
      </trkpt>
      <trkpt lat="48.53988" lon="1.98416">
        <ele>140</ele>
        <time>2019-11-24T11:18:28Z</time>
      </trkpt>
      <trkpt lat="48.53982" lon="1.9842">
        <ele>138</ele>
        <time>2019-11-24T11:18:30Z</time>
      </trkpt>
      <trkpt lat="48.53975" lon="1.98425">
        <ele>138</ele>
        <time>2019-11-24T11:18:32Z</time>
      </trkpt>
      <trkpt lat="48.53968" lon="1.98431">
        <ele>138</ele>
        <time>2019-11-24T11:18:34Z</time>
      </trkpt>
      <trkpt lat="48.53961" lon="1.98436">
        <ele>138</ele>
        <time>2019-11-24T11:18:36Z</time>
      </trkpt>
      <trkpt lat="48.53952" lon="1.98442">
        <ele>137</ele>
        <time>2019-11-24T11:18:38Z</time>
      </trkpt>
      <trkpt lat="48.53944" lon="1.98446">
        <ele>137</ele>
        <time>2019-11-24T11:18:40Z</time>
      </trkpt>
      <trkpt lat="48.53935" lon="1.9845">
        <ele>137</ele>
        <time>2019-11-24T11:18:42Z</time>
      </trkpt>
      <trkpt lat="48.53927" lon="1.98459">
        <ele>137</ele>
        <time>2019-11-24T11:18:44Z</time>
      </trkpt>
      <trkpt lat="48.53928" lon="1.98472">
        <ele>136</ele>
        <time>2019-11-24T11:18:46Z</time>
      </trkpt>
      <trkpt lat="48.5393" lon="1.98481">
        <ele>135</ele>
        <time>2019-11-24T11:18:48Z</time>
      </trkpt>
      <trkpt lat="48.53939" lon="1.98492">
        <ele>135</ele>
        <time>2019-11-24T11:18:50Z</time>
      </trkpt>
      <trkpt lat="48.53947" lon="1.98506">
        <ele>132</ele>
        <time>2019-11-24T11:18:52Z</time>
      </trkpt>
      <trkpt lat="48.53953" lon="1.98517">
        <ele>132</ele>
        <time>2019-11-24T11:18:54Z</time>
      </trkpt>
      <trkpt lat="48.53962" lon="1.98529">
        <ele>132</ele>
        <time>2019-11-24T11:18:56Z</time>
      </trkpt>
      <trkpt lat="48.53971" lon="1.98543">
        <ele>132</ele>
        <time>2019-11-24T11:18:58Z</time>
      </trkpt>
      <trkpt lat="48.5398" lon="1.98554">
        <ele>132</ele>
        <time>2019-11-24T11:19:00Z</time>
      </trkpt>
      <trkpt lat="48.5399" lon="1.98566">
        <ele>132</ele>
        <time>2019-11-24T11:19:02Z</time>
      </trkpt>
      <trkpt lat="48.53999" lon="1.98577">
        <ele>132</ele>
        <time>2019-11-24T11:19:04Z</time>
      </trkpt>
      <trkpt lat="48.54008" lon="1.98588">
        <ele>132</ele>
        <time>2019-11-24T11:19:06Z</time>
      </trkpt>
      <trkpt lat="48.54016" lon="1.98599">
        <ele>132</ele>
        <time>2019-11-24T11:19:08Z</time>
      </trkpt>
      <trkpt lat="48.54023" lon="1.9861">
        <ele>132</ele>
        <time>2019-11-24T11:19:10Z</time>
      </trkpt>
      <trkpt lat="48.54032" lon="1.98624">
        <ele>132</ele>
        <time>2019-11-24T11:19:12Z</time>
      </trkpt>
      <trkpt lat="48.54043" lon="1.98638">
        <ele>132</ele>
        <time>2019-11-24T11:19:14Z</time>
      </trkpt>
      <trkpt lat="48.54055" lon="1.98652">
        <ele>132</ele>
        <time>2019-11-24T11:19:16Z</time>
      </trkpt>
      <trkpt lat="48.54067" lon="1.98668">
        <ele>131</ele>
        <time>2019-11-24T11:19:18Z</time>
      </trkpt>
      <trkpt lat="48.54079" lon="1.98683">
        <ele>132</ele>
        <time>2019-11-24T11:19:20Z</time>
      </trkpt>
      <trkpt lat="48.54089" lon="1.98693">
        <ele>137</ele>
        <time>2019-11-24T11:19:22Z</time>
      </trkpt>
      <trkpt lat="48.54095" lon="1.987">
        <ele>138</ele>
        <time>2019-11-24T11:19:24Z</time>
      </trkpt>
      <trkpt lat="48.54104" lon="1.98706">
        <ele>139</ele>
        <time>2019-11-24T11:19:28Z</time>
      </trkpt>
      <trkpt lat="48.54108" lon="1.98709">
        <ele>139</ele>
        <time>2019-11-24T11:19:32Z</time>
      </trkpt>
      <trkpt lat="48.54116" lon="1.98711">
        <ele>139</ele>
        <time>2019-11-24T11:19:36Z</time>
      </trkpt>
      <trkpt lat="48.54122" lon="1.98708">
        <ele>140</ele>
        <time>2019-11-24T11:19:42Z</time>
      </trkpt>
      <trkpt lat="48.54127" lon="1.98705">
        <ele>140</ele>
        <time>2019-11-24T11:19:46Z</time>
      </trkpt>
      <trkpt lat="48.54134" lon="1.98702">
        <ele>141</ele>
        <time>2019-11-24T11:19:50Z</time>
      </trkpt>
      <trkpt lat="48.54139" lon="1.987">
        <ele>141</ele>
        <time>2019-11-24T11:19:54Z</time>
      </trkpt>
      <trkpt lat="48.54146" lon="1.98698">
        <ele>142</ele>
        <time>2019-11-24T11:19:58Z</time>
      </trkpt>
      <trkpt lat="48.54151" lon="1.98696">
        <ele>142</ele>
        <time>2019-11-24T11:20:02Z</time>
      </trkpt>
      <trkpt lat="48.54156" lon="1.98693">
        <ele>143</ele>
        <time>2019-11-24T11:20:06Z</time>
      </trkpt>
      <trkpt lat="48.54163" lon="1.9869">
        <ele>143</ele>
        <time>2019-11-24T11:20:12Z</time>
      </trkpt>
      <trkpt lat="48.54168" lon="1.98688">
        <ele>151</ele>
        <time>2019-11-24T11:20:16Z</time>
      </trkpt>
      <trkpt lat="48.54172" lon="1.98684">
        <ele>150</ele>
        <time>2019-11-24T11:20:20Z</time>
      </trkpt>
      <trkpt lat="48.54177" lon="1.9868">
        <ele>150</ele>
        <time>2019-11-24T11:20:24Z</time>
      </trkpt>
      <trkpt lat="48.54183" lon="1.98676">
        <ele>151</ele>
        <time>2019-11-24T11:20:28Z</time>
      </trkpt>
      <trkpt lat="48.54188" lon="1.98671">
        <ele>151</ele>
        <time>2019-11-24T11:20:34Z</time>
      </trkpt>
      <trkpt lat="48.54193" lon="1.98668">
        <ele>152</ele>
        <time>2019-11-24T11:20:38Z</time>
      </trkpt>
      <trkpt lat="48.54198" lon="1.98664">
        <ele>153</ele>
        <time>2019-11-24T11:20:46Z</time>
      </trkpt>
      <trkpt lat="48.54202" lon="1.98664">
        <ele>154</ele>
        <time>2019-11-24T11:20:50Z</time>
      </trkpt>
      <trkpt lat="48.54209" lon="1.98666">
        <ele>155</ele>
        <time>2019-11-24T11:20:56Z</time>
      </trkpt>
      <trkpt lat="48.54216" lon="1.98669">
        <ele>155</ele>
        <time>2019-11-24T11:21:02Z</time>
      </trkpt>
      <trkpt lat="48.54222" lon="1.98671">
        <ele>155</ele>
        <time>2019-11-24T11:21:08Z</time>
      </trkpt>
      <trkpt lat="48.54227" lon="1.98674">
        <ele>156</ele>
        <time>2019-11-24T11:21:12Z</time>
      </trkpt>
      <trkpt lat="48.54232" lon="1.98679">
        <ele>156</ele>
        <time>2019-11-24T11:21:16Z</time>
      </trkpt>
      <trkpt lat="48.54239" lon="1.9868">
        <ele>157</ele>
        <time>2019-11-24T11:21:22Z</time>
      </trkpt>
      <trkpt lat="48.54244" lon="1.98683">
        <ele>157</ele>
        <time>2019-11-24T11:21:26Z</time>
      </trkpt>
      <trkpt lat="48.54249" lon="1.98686">
        <ele>157</ele>
        <time>2019-11-24T11:21:30Z</time>
      </trkpt>
      <trkpt lat="48.54254" lon="1.98689">
        <ele>162</ele>
        <time>2019-11-24T11:21:34Z</time>
      </trkpt>
      <trkpt lat="48.54259" lon="1.98691">
        <ele>162</ele>
        <time>2019-11-24T11:21:38Z</time>
      </trkpt>
      <trkpt lat="48.54263" lon="1.98695">
        <ele>162</ele>
        <time>2019-11-24T11:21:42Z</time>
      </trkpt>
      <trkpt lat="48.5427" lon="1.98699">
        <ele>163</ele>
        <time>2019-11-24T11:21:48Z</time>
      </trkpt>
      <trkpt lat="48.54274" lon="1.98703">
        <ele>163</ele>
        <time>2019-11-24T11:21:52Z</time>
      </trkpt>
      <trkpt lat="48.54279" lon="1.98707">
        <ele>163</ele>
        <time>2019-11-24T11:21:56Z</time>
      </trkpt>
      <trkpt lat="48.54284" lon="1.98711">
        <ele>163</ele>
        <time>2019-11-24T11:22:02Z</time>
      </trkpt>
      <trkpt lat="48.54288" lon="1.98717">
        <ele>163</ele>
        <time>2019-11-24T11:22:06Z</time>
      </trkpt>
      <trkpt lat="48.54291" lon="1.98723">
        <ele>164</ele>
        <time>2019-11-24T11:22:10Z</time>
      </trkpt>
      <trkpt lat="48.54295" lon="1.9873">
        <ele>164</ele>
        <time>2019-11-24T11:22:14Z</time>
      </trkpt>
      <trkpt lat="48.54299" lon="1.98738">
        <ele>164</ele>
        <time>2019-11-24T11:22:18Z</time>
      </trkpt>
      <trkpt lat="48.543" lon="1.98745">
        <ele>164</ele>
        <time>2019-11-24T11:22:22Z</time>
      </trkpt>
      <trkpt lat="48.54299" lon="1.98754">
        <ele>165</ele>
        <time>2019-11-24T11:22:26Z</time>
      </trkpt>
      <trkpt lat="48.54296" lon="1.98761">
        <ele>165</ele>
        <time>2019-11-24T11:22:30Z</time>
      </trkpt>
      <trkpt lat="48.54293" lon="1.98772">
        <ele>165</ele>
        <time>2019-11-24T11:22:34Z</time>
      </trkpt>
      <trkpt lat="48.54289" lon="1.9878">
        <ele>165</ele>
        <time>2019-11-24T11:22:38Z</time>
      </trkpt>
      <trkpt lat="48.54285" lon="1.98788">
        <ele>164</ele>
        <time>2019-11-24T11:22:42Z</time>
      </trkpt>
      <trkpt lat="48.54281" lon="1.98798">
        <ele>164</ele>
        <time>2019-11-24T11:22:46Z</time>
      </trkpt>
      <trkpt lat="48.54278" lon="1.98807">
        <ele>164</ele>
        <time>2019-11-24T11:22:48Z</time>
      </trkpt>
      <trkpt lat="48.54273" lon="1.98816">
        <ele>164</ele>
        <time>2019-11-24T11:22:50Z</time>
      </trkpt>
      <trkpt lat="48.54269" lon="1.98824">
        <ele>164</ele>
        <time>2019-11-24T11:22:52Z</time>
      </trkpt>
      <trkpt lat="48.54266" lon="1.9883">
        <ele>163</ele>
        <time>2019-11-24T11:22:54Z</time>
      </trkpt>
      <trkpt lat="48.54262" lon="1.98837">
        <ele>164</ele>
        <time>2019-11-24T11:22:56Z</time>
      </trkpt>
      <trkpt lat="48.54258" lon="1.98844">
        <ele>164</ele>
        <time>2019-11-24T11:22:58Z</time>
      </trkpt>
      <trkpt lat="48.54254" lon="1.9885">
        <ele>164</ele>
        <time>2019-11-24T11:23:02Z</time>
      </trkpt>
      <trkpt lat="48.54248" lon="1.98856">
        <ele>160</ele>
        <time>2019-11-24T11:23:06Z</time>
      </trkpt>
      <trkpt lat="48.54243" lon="1.98864">
        <ele>160</ele>
        <time>2019-11-24T11:23:10Z</time>
      </trkpt>
      <trkpt lat="48.54238" lon="1.9887">
        <ele>160</ele>
        <time>2019-11-24T11:23:12Z</time>
      </trkpt>
      <trkpt lat="48.54232" lon="1.9887">
        <ele>159</ele>
        <time>2019-11-24T11:23:14Z</time>
      </trkpt>
      <trkpt lat="48.54224" lon="1.98873">
        <ele>159</ele>
        <time>2019-11-24T11:23:16Z</time>
      </trkpt>
      <trkpt lat="48.54219" lon="1.98882">
        <ele>159</ele>
        <time>2019-11-24T11:23:20Z</time>
      </trkpt>
      <trkpt lat="48.54217" lon="1.9889">
        <ele>159</ele>
        <time>2019-11-24T11:23:22Z</time>
      </trkpt>
      <trkpt lat="48.54214" lon="1.989">
        <ele>159</ele>
        <time>2019-11-24T11:23:24Z</time>
      </trkpt>
      <trkpt lat="48.54205" lon="1.98914">
        <ele>158</ele>
        <time>2019-11-24T11:23:26Z</time>
      </trkpt>
      <trkpt lat="48.54197" lon="1.98923">
        <ele>160</ele>
        <time>2019-11-24T11:23:28Z</time>
      </trkpt>
      <trkpt lat="48.54187" lon="1.98928">
        <ele>159</ele>
        <time>2019-11-24T11:23:30Z</time>
      </trkpt>
      <trkpt lat="48.54181" lon="1.98928">
        <ele>158</ele>
        <time>2019-11-24T11:23:32Z</time>
      </trkpt>
      <trkpt lat="48.54172" lon="1.98929">
        <ele>157</ele>
        <time>2019-11-24T11:23:34Z</time>
      </trkpt>
      <trkpt lat="48.54163" lon="1.98928">
        <ele>153</ele>
        <time>2019-11-24T11:23:36Z</time>
      </trkpt>
      <trkpt lat="48.54154" lon="1.98929">
        <ele>152</ele>
        <time>2019-11-24T11:23:38Z</time>
      </trkpt>
      <trkpt lat="48.54145" lon="1.98928">
        <ele>152</ele>
        <time>2019-11-24T11:23:40Z</time>
      </trkpt>
      <trkpt lat="48.54135" lon="1.98926">
        <ele>151</ele>
        <time>2019-11-24T11:23:42Z</time>
      </trkpt>
      <trkpt lat="48.54125" lon="1.98925">
        <ele>151</ele>
        <time>2019-11-24T11:23:44Z</time>
      </trkpt>
      <trkpt lat="48.54116" lon="1.98933">
        <ele>150</ele>
        <time>2019-11-24T11:23:46Z</time>
      </trkpt>
      <trkpt lat="48.54108" lon="1.98937">
        <ele>149</ele>
        <time>2019-11-24T11:23:48Z</time>
      </trkpt>
      <trkpt lat="48.54101" lon="1.98937">
        <ele>149</ele>
        <time>2019-11-24T11:23:50Z</time>
      </trkpt>
      <trkpt lat="48.54092" lon="1.98936">
        <ele>148</ele>
        <time>2019-11-24T11:23:52Z</time>
      </trkpt>
      <trkpt lat="48.5408" lon="1.98942">
        <ele>143</ele>
        <time>2019-11-24T11:23:54Z</time>
      </trkpt>
      <trkpt lat="48.54073" lon="1.98956">
        <ele>142</ele>
        <time>2019-11-24T11:23:56Z</time>
      </trkpt>
      <trkpt lat="48.54069" lon="1.98971">
        <ele>143</ele>
        <time>2019-11-24T11:23:58Z</time>
      </trkpt>
      <trkpt lat="48.54068" lon="1.98983">
        <ele>143</ele>
        <time>2019-11-24T11:24:00Z</time>
      </trkpt>
      <trkpt lat="48.54066" lon="1.98993">
        <ele>144</ele>
        <time>2019-11-24T11:24:02Z</time>
      </trkpt>
      <trkpt lat="48.54064" lon="1.99003">
        <ele>145</ele>
        <time>2019-11-24T11:24:04Z</time>
      </trkpt>
      <trkpt lat="48.54054" lon="1.99015">
        <ele>143</ele>
        <time>2019-11-24T11:24:08Z</time>
      </trkpt>
      <trkpt lat="48.54048" lon="1.99017">
        <ele>143</ele>
        <time>2019-11-24T11:24:10Z</time>
      </trkpt>
      <trkpt lat="48.54045" lon="1.99007">
        <ele>143</ele>
        <time>2019-11-24T11:24:12Z</time>
      </trkpt>
      <trkpt lat="48.54038" lon="1.98998">
        <ele>141</ele>
        <time>2019-11-24T11:24:14Z</time>
      </trkpt>
      <trkpt lat="48.54029" lon="1.9899">
        <ele>140</ele>
        <time>2019-11-24T11:24:16Z</time>
      </trkpt>
      <trkpt lat="48.5402" lon="1.98981">
        <ele>139</ele>
        <time>2019-11-24T11:24:18Z</time>
      </trkpt>
      <trkpt lat="48.54008" lon="1.98972">
        <ele>139</ele>
        <time>2019-11-24T11:24:20Z</time>
      </trkpt>
      <trkpt lat="48.53996" lon="1.98955">
        <ele>133</ele>
        <time>2019-11-24T11:24:22Z</time>
      </trkpt>
      <trkpt lat="48.53986" lon="1.98939">
        <ele>132</ele>
        <time>2019-11-24T11:24:24Z</time>
      </trkpt>
      <trkpt lat="48.53982" lon="1.98933">
        <ele>132</ele>
        <time>2019-11-24T11:24:26Z</time>
      </trkpt>
      <trkpt lat="48.53977" lon="1.9893">
        <ele>132</ele>
        <time>2019-11-24T11:24:28Z</time>
      </trkpt>
      <trkpt lat="48.53968" lon="1.98931">
        <ele>132</ele>
        <time>2019-11-24T11:24:30Z</time>
      </trkpt>
      <trkpt lat="48.53958" lon="1.98936">
        <ele>131</ele>
        <time>2019-11-24T11:24:32Z</time>
      </trkpt>
      <trkpt lat="48.53946" lon="1.98942">
        <ele>131</ele>
        <time>2019-11-24T11:24:34Z</time>
      </trkpt>
      <trkpt lat="48.53934" lon="1.98947">
        <ele>131</ele>
        <time>2019-11-24T11:24:36Z</time>
      </trkpt>
      <trkpt lat="48.53921" lon="1.98948">
        <ele>130</ele>
        <time>2019-11-24T11:24:38Z</time>
      </trkpt>
      <trkpt lat="48.53908" lon="1.98953">
        <ele>127</ele>
        <time>2019-11-24T11:24:40Z</time>
      </trkpt>
      <trkpt lat="48.53895" lon="1.98955">
        <ele>127</ele>
        <time>2019-11-24T11:24:42Z</time>
      </trkpt>
      <trkpt lat="48.53882" lon="1.98959">
        <ele>127</ele>
        <time>2019-11-24T11:24:44Z</time>
      </trkpt>
      <trkpt lat="48.53868" lon="1.98957">
        <ele>127</ele>
        <time>2019-11-24T11:24:46Z</time>
      </trkpt>
      <trkpt lat="48.53855" lon="1.98951">
        <ele>126</ele>
        <time>2019-11-24T11:24:48Z</time>
      </trkpt>
      <trkpt lat="48.53845" lon="1.98951">
        <ele>125</ele>
        <time>2019-11-24T11:24:50Z</time>
      </trkpt>
      <trkpt lat="48.53834" lon="1.98949">
        <ele>125</ele>
        <time>2019-11-24T11:24:52Z</time>
      </trkpt>
      <trkpt lat="48.53824" lon="1.98952">
        <ele>122</ele>
        <time>2019-11-24T11:24:54Z</time>
      </trkpt>
      <trkpt lat="48.53813" lon="1.98954">
        <ele>121</ele>
        <time>2019-11-24T11:24:56Z</time>
      </trkpt>
      <trkpt lat="48.53802" lon="1.98953">
        <ele>121</ele>
        <time>2019-11-24T11:24:58Z</time>
      </trkpt>
      <trkpt lat="48.53787" lon="1.98956">
        <ele>120</ele>
        <time>2019-11-24T11:25:00Z</time>
      </trkpt>
      <trkpt lat="48.53771" lon="1.9896">
        <ele>120</ele>
        <time>2019-11-24T11:25:02Z</time>
      </trkpt>
      <trkpt lat="48.5376" lon="1.98964">
        <ele>120</ele>
        <time>2019-11-24T11:25:04Z</time>
      </trkpt>
      <trkpt lat="48.53752" lon="1.98967">
        <ele>120</ele>
        <time>2019-11-24T11:25:06Z</time>
      </trkpt>
      <trkpt lat="48.53743" lon="1.98972">
        <ele>117</ele>
        <time>2019-11-24T11:25:08Z</time>
      </trkpt>
      <trkpt lat="48.53736" lon="1.9898">
        <ele>118</ele>
        <time>2019-11-24T11:25:10Z</time>
      </trkpt>
      <trkpt lat="48.53732" lon="1.98983">
        <ele>118</ele>
        <time>2019-11-24T11:25:12Z</time>
      </trkpt>
      <trkpt lat="48.53729" lon="1.98989">
        <ele>118</ele>
        <time>2019-11-24T11:25:14Z</time>
      </trkpt>
      <trkpt lat="48.53725" lon="1.98993">
        <ele>118</ele>
        <time>2019-11-24T11:25:16Z</time>
      </trkpt>
      <trkpt lat="48.53721" lon="1.99001">
        <ele>121</ele>
        <time>2019-11-24T11:25:18Z</time>
      </trkpt>
      <trkpt lat="48.53721" lon="1.99014">
        <ele>122</ele>
        <time>2019-11-24T11:25:20Z</time>
      </trkpt>
      <trkpt lat="48.5372" lon="1.99023">
        <ele>122</ele>
        <time>2019-11-24T11:25:22Z</time>
      </trkpt>
      <trkpt lat="48.53715" lon="1.99028">
        <ele>122</ele>
        <time>2019-11-24T11:25:24Z</time>
      </trkpt>
      <trkpt lat="48.53708" lon="1.99038">
        <ele>122</ele>
        <time>2019-11-24T11:25:26Z</time>
      </trkpt>
      <trkpt lat="48.53703" lon="1.99041">
        <ele>122</ele>
        <time>2019-11-24T11:25:28Z</time>
      </trkpt>
      <trkpt lat="48.53699" lon="1.99036">
        <ele>122</ele>
        <time>2019-11-24T11:25:30Z</time>
      </trkpt>
      <trkpt lat="48.53694" lon="1.99027">
        <ele>121</ele>
        <time>2019-11-24T11:25:32Z</time>
      </trkpt>
      <trkpt lat="48.53688" lon="1.99016">
        <ele>120</ele>
        <time>2019-11-24T11:25:34Z</time>
      </trkpt>
      <trkpt lat="48.53679" lon="1.9901">
        <ele>119</ele>
        <time>2019-11-24T11:25:36Z</time>
      </trkpt>
      <trkpt lat="48.53668" lon="1.99006">
        <ele>117</ele>
        <time>2019-11-24T11:25:38Z</time>
      </trkpt>
      <trkpt lat="48.5366" lon="1.99002">
        <ele>117</ele>
        <time>2019-11-24T11:25:40Z</time>
      </trkpt>
      <trkpt lat="48.53655" lon="1.98997">
        <ele>116</ele>
        <time>2019-11-24T11:25:42Z</time>
      </trkpt>
      <trkpt lat="48.53651" lon="1.98992">
        <ele>116</ele>
        <time>2019-11-24T11:25:44Z</time>
      </trkpt>
      <trkpt lat="48.53646" lon="1.9899">
        <ele>116</ele>
        <time>2019-11-24T11:25:46Z</time>
      </trkpt>
      <trkpt lat="48.53637" lon="1.98993">
        <ele>116</ele>
        <time>2019-11-24T11:25:48Z</time>
      </trkpt>
      <trkpt lat="48.53628" lon="1.98991">
        <ele>116</ele>
        <time>2019-11-24T11:25:50Z</time>
      </trkpt>
      <trkpt lat="48.53618" lon="1.98991">
        <ele>115</ele>
        <time>2019-11-24T11:25:52Z</time>
      </trkpt>
      <trkpt lat="48.53608" lon="1.98992">
        <ele>115</ele>
        <time>2019-11-24T11:25:54Z</time>
      </trkpt>
      <trkpt lat="48.53599" lon="1.98993">
        <ele>115</ele>
        <time>2019-11-24T11:25:56Z</time>
      </trkpt>
      <trkpt lat="48.53588" lon="1.98997">
        <ele>115</ele>
        <time>2019-11-24T11:25:58Z</time>
      </trkpt>
      <trkpt lat="48.53579" lon="1.99001">
        <ele>115</ele>
        <time>2019-11-24T11:26:00Z</time>
      </trkpt>
      <trkpt lat="48.53572" lon="1.99007">
        <ele>115</ele>
        <time>2019-11-24T11:26:02Z</time>
      </trkpt>
      <trkpt lat="48.53565" lon="1.99014">
        <ele>115</ele>
        <time>2019-11-24T11:26:04Z</time>
      </trkpt>
      <trkpt lat="48.53557" lon="1.99019">
        <ele>115</ele>
        <time>2019-11-24T11:26:06Z</time>
      </trkpt>
      <trkpt lat="48.5355" lon="1.99024">
        <ele>115</ele>
        <time>2019-11-24T11:26:08Z</time>
      </trkpt>
      <trkpt lat="48.53544" lon="1.99029">
        <ele>115</ele>
        <time>2019-11-24T11:26:10Z</time>
      </trkpt>
      <trkpt lat="48.53537" lon="1.99037">
        <ele>115</ele>
        <time>2019-11-24T11:26:12Z</time>
      </trkpt>
      <trkpt lat="48.53529" lon="1.99043">
        <ele>115</ele>
        <time>2019-11-24T11:26:14Z</time>
      </trkpt>
      <trkpt lat="48.53521" lon="1.99047">
        <ele>115</ele>
        <time>2019-11-24T11:26:16Z</time>
      </trkpt>
      <trkpt lat="48.53514" lon="1.99041">
        <ele>115</ele>
        <time>2019-11-24T11:26:18Z</time>
      </trkpt>
      <trkpt lat="48.53509" lon="1.99031">
        <ele>115</ele>
        <time>2019-11-24T11:26:20Z</time>
      </trkpt>
      <trkpt lat="48.53505" lon="1.99022">
        <ele>114</ele>
        <time>2019-11-24T11:26:22Z</time>
      </trkpt>
      <trkpt lat="48.53502" lon="1.9901">
        <ele>114</ele>
        <time>2019-11-24T11:26:24Z</time>
      </trkpt>
      <trkpt lat="48.53499" lon="1.98996">
        <ele>113</ele>
        <time>2019-11-24T11:26:26Z</time>
      </trkpt>
      <trkpt lat="48.53497" lon="1.98984">
        <ele>112</ele>
        <time>2019-11-24T11:26:28Z</time>
      </trkpt>
      <trkpt lat="48.53493" lon="1.98971">
        <ele>112</ele>
        <time>2019-11-24T11:26:30Z</time>
      </trkpt>
      <trkpt lat="48.5349" lon="1.98959">
        <ele>112</ele>
        <time>2019-11-24T11:26:32Z</time>
      </trkpt>
      <trkpt lat="48.53486" lon="1.98947">
        <ele>112</ele>
        <time>2019-11-24T11:26:34Z</time>
      </trkpt>
      <trkpt lat="48.53484" lon="1.98936">
        <ele>112</ele>
        <time>2019-11-24T11:26:36Z</time>
      </trkpt>
      <trkpt lat="48.5348" lon="1.98923">
        <ele>113</ele>
        <time>2019-11-24T11:26:38Z</time>
      </trkpt>
      <trkpt lat="48.53476" lon="1.98915">
        <ele>114</ele>
        <time>2019-11-24T11:26:40Z</time>
      </trkpt>
      <trkpt lat="48.53469" lon="1.9891">
        <ele>114</ele>
        <time>2019-11-24T11:26:42Z</time>
      </trkpt>
      <trkpt lat="48.53462" lon="1.98902">
        <ele>113</ele>
        <time>2019-11-24T11:26:44Z</time>
      </trkpt>
      <trkpt lat="48.5346" lon="1.98889">
        <ele>114</ele>
        <time>2019-11-24T11:26:46Z</time>
      </trkpt>
      <trkpt lat="48.53455" lon="1.98878">
        <ele>114</ele>
        <time>2019-11-24T11:26:48Z</time>
      </trkpt>
      <trkpt lat="48.5345" lon="1.98866">
        <ele>114</ele>
        <time>2019-11-24T11:26:50Z</time>
      </trkpt>
      <trkpt lat="48.53444" lon="1.98857">
        <ele>114</ele>
        <time>2019-11-24T11:26:52Z</time>
      </trkpt>
      <trkpt lat="48.53439" lon="1.98849">
        <ele>114</ele>
        <time>2019-11-24T11:26:54Z</time>
      </trkpt>
      <trkpt lat="48.53434" lon="1.9884">
        <ele>113</ele>
        <time>2019-11-24T11:26:56Z</time>
      </trkpt>
      <trkpt lat="48.5343" lon="1.98832">
        <ele>115</ele>
        <time>2019-11-24T11:26:58Z</time>
      </trkpt>
      <trkpt lat="48.53426" lon="1.98823">
        <ele>115</ele>
        <time>2019-11-24T11:27:00Z</time>
      </trkpt>
      <trkpt lat="48.5342" lon="1.98813">
        <ele>116</ele>
        <time>2019-11-24T11:27:02Z</time>
      </trkpt>
      <trkpt lat="48.53415" lon="1.98802">
        <ele>113</ele>
        <time>2019-11-24T11:27:04Z</time>
      </trkpt>
      <trkpt lat="48.53412" lon="1.98792">
        <ele>114</ele>
        <time>2019-11-24T11:27:06Z</time>
      </trkpt>
      <trkpt lat="48.5341" lon="1.98781">
        <ele>114</ele>
        <time>2019-11-24T11:27:08Z</time>
      </trkpt>
      <trkpt lat="48.53408" lon="1.9877">
        <ele>115</ele>
        <time>2019-11-24T11:27:10Z</time>
      </trkpt>
      <trkpt lat="48.53407" lon="1.98758">
        <ele>116</ele>
        <time>2019-11-24T11:27:12Z</time>
      </trkpt>
      <trkpt lat="48.53407" lon="1.98746">
        <ele>117</ele>
        <time>2019-11-24T11:27:14Z</time>
      </trkpt>
      <trkpt lat="48.53407" lon="1.98736">
        <ele>117</ele>
        <time>2019-11-24T11:27:16Z</time>
      </trkpt>
      <trkpt lat="48.53407" lon="1.98723">
        <ele>116</ele>
        <time>2019-11-24T11:27:18Z</time>
      </trkpt>
      <trkpt lat="48.53406" lon="1.98712">
        <ele>116</ele>
        <time>2019-11-24T11:27:20Z</time>
      </trkpt>
      <trkpt lat="48.53404" lon="1.98702">
        <ele>117</ele>
        <time>2019-11-24T11:27:22Z</time>
      </trkpt>
      <trkpt lat="48.53403" lon="1.98692">
        <ele>117</ele>
        <time>2019-11-24T11:27:24Z</time>
      </trkpt>
      <trkpt lat="48.53401" lon="1.98682">
        <ele>117</ele>
        <time>2019-11-24T11:27:26Z</time>
      </trkpt>
      <trkpt lat="48.534" lon="1.98674">
        <ele>117</ele>
        <time>2019-11-24T11:27:28Z</time>
      </trkpt>
      <trkpt lat="48.53399" lon="1.98666">
        <ele>118</ele>
        <time>2019-11-24T11:27:30Z</time>
      </trkpt>
      <trkpt lat="48.53398" lon="1.98655">
        <ele>118</ele>
        <time>2019-11-24T11:27:32Z</time>
      </trkpt>
      <trkpt lat="48.53398" lon="1.98646">
        <ele>118</ele>
        <time>2019-11-24T11:27:34Z</time>
      </trkpt>
      <trkpt lat="48.53398" lon="1.98636">
        <ele>118</ele>
        <time>2019-11-24T11:27:36Z</time>
      </trkpt>
      <trkpt lat="48.53398" lon="1.98627">
        <ele>118</ele>
        <time>2019-11-24T11:27:38Z</time>
      </trkpt>
      <trkpt lat="48.53397" lon="1.98618">
        <ele>118</ele>
        <time>2019-11-24T11:27:40Z</time>
      </trkpt>
      <trkpt lat="48.53396" lon="1.98608">
        <ele>118</ele>
        <time>2019-11-24T11:27:42Z</time>
      </trkpt>
      <trkpt lat="48.53395" lon="1.986">
        <ele>118</ele>
        <time>2019-11-24T11:27:44Z</time>
      </trkpt>
      <trkpt lat="48.53394" lon="1.98591">
        <ele>118</ele>
        <time>2019-11-24T11:27:46Z</time>
      </trkpt>
      <trkpt lat="48.53392" lon="1.98581">
        <ele>120</ele>
        <time>2019-11-24T11:27:48Z</time>
      </trkpt>
      <trkpt lat="48.53391" lon="1.98573">
        <ele>120</ele>
        <time>2019-11-24T11:27:50Z</time>
      </trkpt>
      <trkpt lat="48.5339" lon="1.98564">
        <ele>120</ele>
        <time>2019-11-24T11:27:52Z</time>
      </trkpt>
      <trkpt lat="48.53389" lon="1.98556">
        <ele>120</ele>
        <time>2019-11-24T11:27:54Z</time>
      </trkpt>
      <trkpt lat="48.53388" lon="1.9855">
        <ele>120</ele>
        <time>2019-11-24T11:27:56Z</time>
      </trkpt>
      <trkpt lat="48.53387" lon="1.98541">
        <ele>120</ele>
        <time>2019-11-24T11:27:58Z</time>
      </trkpt>
      <trkpt lat="48.53386" lon="1.98531">
        <ele>120</ele>
        <time>2019-11-24T11:28:00Z</time>
      </trkpt>
      <trkpt lat="48.53384" lon="1.98523">
        <ele>120</ele>
        <time>2019-11-24T11:28:02Z</time>
      </trkpt>
      <trkpt lat="48.53384" lon="1.98516">
        <ele>120</ele>
        <time>2019-11-24T11:28:04Z</time>
      </trkpt>
      <trkpt lat="48.53382" lon="1.98508">
        <ele>120</ele>
        <time>2019-11-24T11:28:06Z</time>
      </trkpt>
      <trkpt lat="48.53381" lon="1.98497">
        <ele>122</ele>
        <time>2019-11-24T11:28:08Z</time>
      </trkpt>
      <trkpt lat="48.5338" lon="1.98489">
        <ele>122</ele>
        <time>2019-11-24T11:28:10Z</time>
      </trkpt>
      <trkpt lat="48.53379" lon="1.9848">
        <ele>122</ele>
        <time>2019-11-24T11:28:12Z</time>
      </trkpt>
      <trkpt lat="48.53379" lon="1.98473">
        <ele>122</ele>
        <time>2019-11-24T11:28:14Z</time>
      </trkpt>
      <trkpt lat="48.53377" lon="1.98466">
        <ele>122</ele>
        <time>2019-11-24T11:28:16Z</time>
      </trkpt>
      <trkpt lat="48.53377" lon="1.98458">
        <ele>122</ele>
        <time>2019-11-24T11:28:18Z</time>
      </trkpt>
      <trkpt lat="48.53375" lon="1.98451">
        <ele>122</ele>
        <time>2019-11-24T11:28:20Z</time>
      </trkpt>
      <trkpt lat="48.53372" lon="1.98437">
        <ele>122</ele>
        <time>2019-11-24T11:28:24Z</time>
      </trkpt>
      <trkpt lat="48.53371" lon="1.98429">
        <ele>123</ele>
        <time>2019-11-24T11:28:26Z</time>
      </trkpt>
      <trkpt lat="48.53371" lon="1.98419">
        <ele>123</ele>
        <time>2019-11-24T11:28:30Z</time>
      </trkpt>
      <trkpt lat="48.53375" lon="1.98407">
        <ele>124</ele>
        <time>2019-11-24T11:28:34Z</time>
      </trkpt>
      <trkpt lat="48.53381" lon="1.98397">
        <ele>124</ele>
        <time>2019-11-24T11:28:38Z</time>
      </trkpt>
      <trkpt lat="48.53387" lon="1.98389">
        <ele>124</ele>
        <time>2019-11-24T11:28:42Z</time>
      </trkpt>
      <trkpt lat="48.53393" lon="1.98384">
        <ele>124</ele>
        <time>2019-11-24T11:28:46Z</time>
      </trkpt>
      <trkpt lat="48.534" lon="1.98378">
        <ele>124</ele>
        <time>2019-11-24T11:28:50Z</time>
      </trkpt>
      <trkpt lat="48.53403" lon="1.98373">
        <ele>124</ele>
        <time>2019-11-24T11:28:52Z</time>
      </trkpt>
      <trkpt lat="48.53411" lon="1.98367">
        <ele>124</ele>
        <time>2019-11-24T11:28:56Z</time>
      </trkpt>
      <trkpt lat="48.53419" lon="1.9836">
        <ele>125</ele>
        <time>2019-11-24T11:29:00Z</time>
      </trkpt>
      <trkpt lat="48.53422" lon="1.98355">
        <ele>125</ele>
        <time>2019-11-24T11:29:02Z</time>
      </trkpt>
      <trkpt lat="48.53429" lon="1.9835">
        <ele>125</ele>
        <time>2019-11-24T11:29:06Z</time>
      </trkpt>
      <trkpt lat="48.53435" lon="1.98344">
        <ele>125</ele>
        <time>2019-11-24T11:29:10Z</time>
      </trkpt>
      <trkpt lat="48.53441" lon="1.98337">
        <ele>126</ele>
        <time>2019-11-24T11:29:14Z</time>
      </trkpt>
      <trkpt lat="48.53447" lon="1.98329">
        <ele>126</ele>
        <time>2019-11-24T11:29:18Z</time>
      </trkpt>
      <trkpt lat="48.53455" lon="1.98323">
        <ele>127</ele>
        <time>2019-11-24T11:29:22Z</time>
      </trkpt>
      <trkpt lat="48.53463" lon="1.98315">
        <ele>127</ele>
        <time>2019-11-24T11:29:26Z</time>
      </trkpt>
      <trkpt lat="48.53469" lon="1.98309">
        <ele>127</ele>
        <time>2019-11-24T11:29:30Z</time>
      </trkpt>
      <trkpt lat="48.53477" lon="1.98304">
        <ele>127</ele>
        <time>2019-11-24T11:29:34Z</time>
      </trkpt>
      <trkpt lat="48.53484" lon="1.98298">
        <ele>127</ele>
        <time>2019-11-24T11:29:38Z</time>
      </trkpt>
      <trkpt lat="48.53491" lon="1.9829">
        <ele>127</ele>
        <time>2019-11-24T11:29:42Z</time>
      </trkpt>
      <trkpt lat="48.535" lon="1.98284">
        <ele>128</ele>
        <time>2019-11-24T11:29:46Z</time>
      </trkpt>
      <trkpt lat="48.53503" lon="1.9828">
        <ele>130</ele>
        <time>2019-11-24T11:29:48Z</time>
      </trkpt>
      <trkpt lat="48.53511" lon="1.98271">
        <ele>130</ele>
        <time>2019-11-24T11:29:52Z</time>
      </trkpt>
      <trkpt lat="48.53515" lon="1.98267">
        <ele>130</ele>
        <time>2019-11-24T11:29:54Z</time>
      </trkpt>
      <trkpt lat="48.53519" lon="1.98263">
        <ele>130</ele>
        <time>2019-11-24T11:29:56Z</time>
      </trkpt>
      <trkpt lat="48.53524" lon="1.98259">
        <ele>130</ele>
        <time>2019-11-24T11:29:58Z</time>
      </trkpt>
      <trkpt lat="48.53528" lon="1.98255">
        <ele>130</ele>
        <time>2019-11-24T11:30:00Z</time>
      </trkpt>
      <trkpt lat="48.53532" lon="1.98251">
        <ele>130</ele>
        <time>2019-11-24T11:30:02Z</time>
      </trkpt>
      <trkpt lat="48.53537" lon="1.98247">
        <ele>131</ele>
        <time>2019-11-24T11:30:04Z</time>
      </trkpt>
      <trkpt lat="48.53543" lon="1.9824">
        <ele>131</ele>
        <time>2019-11-24T11:30:08Z</time>
      </trkpt>
      <trkpt lat="48.53551" lon="1.98234">
        <ele>131</ele>
        <time>2019-11-24T11:30:12Z</time>
      </trkpt>
      <trkpt lat="48.53557" lon="1.98226">
        <ele>131</ele>
        <time>2019-11-24T11:30:16Z</time>
      </trkpt>
      <trkpt lat="48.53563" lon="1.9822">
        <ele>131</ele>
        <time>2019-11-24T11:30:20Z</time>
      </trkpt>
      <trkpt lat="48.53568" lon="1.98217">
        <ele>131</ele>
        <time>2019-11-24T11:30:22Z</time>
      </trkpt>
      <trkpt lat="48.53576" lon="1.98209">
        <ele>132</ele>
        <time>2019-11-24T11:30:26Z</time>
      </trkpt>
      <trkpt lat="48.53583" lon="1.98201">
        <ele>132</ele>
        <time>2019-11-24T11:30:30Z</time>
      </trkpt>
      <trkpt lat="48.5359" lon="1.98195">
        <ele>135</ele>
        <time>2019-11-24T11:30:34Z</time>
      </trkpt>
      <trkpt lat="48.53595" lon="1.98191">
        <ele>135</ele>
        <time>2019-11-24T11:30:36Z</time>
      </trkpt>
      <trkpt lat="48.53602" lon="1.98183">
        <ele>135</ele>
        <time>2019-11-24T11:30:40Z</time>
      </trkpt>
      <trkpt lat="48.5361" lon="1.98175">
        <ele>135</ele>
        <time>2019-11-24T11:30:44Z</time>
      </trkpt>
      <trkpt lat="48.53615" lon="1.98172">
        <ele>136</ele>
        <time>2019-11-24T11:30:46Z</time>
      </trkpt>
      <trkpt lat="48.53623" lon="1.98167">
        <ele>136</ele>
        <time>2019-11-24T11:30:50Z</time>
      </trkpt>
      <trkpt lat="48.53631" lon="1.9816">
        <ele>137</ele>
        <time>2019-11-24T11:30:54Z</time>
      </trkpt>
      <trkpt lat="48.53637" lon="1.98157">
        <ele>138</ele>
        <time>2019-11-24T11:30:56Z</time>
      </trkpt>
      <trkpt lat="48.53643" lon="1.98149">
        <ele>138</ele>
        <time>2019-11-24T11:31:00Z</time>
      </trkpt>
      <trkpt lat="48.53648" lon="1.98144">
        <ele>138</ele>
        <time>2019-11-24T11:31:04Z</time>
      </trkpt>
      <trkpt lat="48.53653" lon="1.98137">
        <ele>138</ele>
        <time>2019-11-24T11:31:08Z</time>
      </trkpt>
      <trkpt lat="48.53658" lon="1.98133">
        <ele>138</ele>
        <time>2019-11-24T11:31:14Z</time>
      </trkpt>
      <trkpt lat="48.53664" lon="1.98129">
        <ele>138</ele>
        <time>2019-11-24T11:31:18Z</time>
      </trkpt>
      <trkpt lat="48.53669" lon="1.98125">
        <ele>143</ele>
        <time>2019-11-24T11:31:22Z</time>
      </trkpt>
      <trkpt lat="48.53673" lon="1.9812">
        <ele>143</ele>
        <time>2019-11-24T11:31:26Z</time>
      </trkpt>
      <trkpt lat="48.53679" lon="1.98114">
        <ele>143</ele>
        <time>2019-11-24T11:31:30Z</time>
      </trkpt>
      <trkpt lat="48.53684" lon="1.98109">
        <ele>143</ele>
        <time>2019-11-24T11:31:34Z</time>
      </trkpt>
      <trkpt lat="48.53689" lon="1.98104">
        <ele>143</ele>
        <time>2019-11-24T11:31:38Z</time>
      </trkpt>
      <trkpt lat="48.53697" lon="1.98098">
        <ele>144</ele>
        <time>2019-11-24T11:31:42Z</time>
      </trkpt>
      <trkpt lat="48.53702" lon="1.98095">
        <ele>144</ele>
        <time>2019-11-24T11:31:44Z</time>
      </trkpt>
      <trkpt lat="48.53706" lon="1.98092">
        <ele>144</ele>
        <time>2019-11-24T11:31:46Z</time>
      </trkpt>
      <trkpt lat="48.53712" lon="1.98086">
        <ele>145</ele>
        <time>2019-11-24T11:31:50Z</time>
      </trkpt>
      <trkpt lat="48.53718" lon="1.9808">
        <ele>145</ele>
        <time>2019-11-24T11:31:54Z</time>
      </trkpt>
      <trkpt lat="48.53725" lon="1.98075">
        <ele>145</ele>
        <time>2019-11-24T11:31:58Z</time>
      </trkpt>
      <trkpt lat="48.53732" lon="1.98067">
        <ele>145</ele>
        <time>2019-11-24T11:32:02Z</time>
      </trkpt>
      <trkpt lat="48.53737" lon="1.98061">
        <ele>145</ele>
        <time>2019-11-24T11:32:06Z</time>
      </trkpt>
      <trkpt lat="48.53742" lon="1.98052">
        <ele>145</ele>
        <time>2019-11-24T11:32:10Z</time>
      </trkpt>
      <trkpt lat="48.5374" lon="1.98042">
        <ele>145</ele>
        <time>2019-11-24T11:32:14Z</time>
      </trkpt>
      <trkpt lat="48.53739" lon="1.98035">
        <ele>145</ele>
        <time>2019-11-24T11:32:18Z</time>
      </trkpt>
      <trkpt lat="48.53739" lon="1.98023">
        <ele>144</ele>
        <time>2019-11-24T11:32:22Z</time>
      </trkpt>
      <trkpt lat="48.53739" lon="1.98013">
        <ele>144</ele>
        <time>2019-11-24T11:32:26Z</time>
      </trkpt>
      <trkpt lat="48.53735" lon="1.98004">
        <ele>144</ele>
        <time>2019-11-24T11:32:30Z</time>
      </trkpt>
      <trkpt lat="48.53731" lon="1.97998">
        <ele>143</ele>
        <time>2019-11-24T11:32:34Z</time>
      </trkpt>
      <trkpt lat="48.53725" lon="1.97997">
        <ele>142</ele>
        <time>2019-11-24T11:32:38Z</time>
      </trkpt>
      <trkpt lat="48.53717" lon="1.97997">
        <ele>142</ele>
        <time>2019-11-24T11:32:42Z</time>
      </trkpt>
      <trkpt lat="48.53711" lon="1.98">
        <ele>141</ele>
        <time>2019-11-24T11:32:46Z</time>
      </trkpt>
      <trkpt lat="48.53704" lon="1.98">
        <ele>141</ele>
        <time>2019-11-24T11:32:50Z</time>
      </trkpt>
      <trkpt lat="48.53697" lon="1.98002">
        <ele>143</ele>
        <time>2019-11-24T11:32:54Z</time>
      </trkpt>
      <trkpt lat="48.53689" lon="1.98004">
        <ele>143</ele>
        <time>2019-11-24T11:32:58Z</time>
      </trkpt>
      <trkpt lat="48.53683" lon="1.98006">
        <ele>143</ele>
        <time>2019-11-24T11:33:02Z</time>
      </trkpt>
      <trkpt lat="48.53675" lon="1.9801">
        <ele>143</ele>
        <time>2019-11-24T11:33:06Z</time>
      </trkpt>
      <trkpt lat="48.53666" lon="1.9801">
        <ele>141</ele>
        <time>2019-11-24T11:33:12Z</time>
      </trkpt>
      <trkpt lat="48.53659" lon="1.98001">
        <ele>141</ele>
        <time>2019-11-24T11:33:14Z</time>
      </trkpt>
      <trkpt lat="48.53651" lon="1.97994">
        <ele>138</ele>
        <time>2019-11-24T11:33:16Z</time>
      </trkpt>
      <trkpt lat="48.53642" lon="1.97986">
        <ele>136</ele>
        <time>2019-11-24T11:33:18Z</time>
      </trkpt>
      <trkpt lat="48.53637" lon="1.97981">
        <ele>136</ele>
        <time>2019-11-24T11:33:20Z</time>
      </trkpt>
      <trkpt lat="48.53632" lon="1.9797">
        <ele>135</ele>
        <time>2019-11-24T11:33:24Z</time>
      </trkpt>
      <trkpt lat="48.53633" lon="1.9796">
        <ele>134</ele>
        <time>2019-11-24T11:33:28Z</time>
      </trkpt>
      <trkpt lat="48.53635" lon="1.97954">
        <ele>134</ele>
        <time>2019-11-24T11:33:30Z</time>
      </trkpt>
      <trkpt lat="48.53638" lon="1.97948">
        <ele>134</ele>
        <time>2019-11-24T11:33:32Z</time>
      </trkpt>
      <trkpt lat="48.53641" lon="1.97942">
        <ele>134</ele>
        <time>2019-11-24T11:33:34Z</time>
      </trkpt>
      <trkpt lat="48.53643" lon="1.97936">
        <ele>133</ele>
        <time>2019-11-24T11:33:36Z</time>
      </trkpt>
      <trkpt lat="48.53646" lon="1.97928">
        <ele>133</ele>
        <time>2019-11-24T11:33:38Z</time>
      </trkpt>
      <trkpt lat="48.5365" lon="1.97919">
        <ele>133</ele>
        <time>2019-11-24T11:33:40Z</time>
      </trkpt>
      <trkpt lat="48.53654" lon="1.97907">
        <ele>129</ele>
        <time>2019-11-24T11:33:42Z</time>
      </trkpt>
      <trkpt lat="48.53657" lon="1.97891">
        <ele>127</ele>
        <time>2019-11-24T11:33:44Z</time>
      </trkpt>
      <trkpt lat="48.53656" lon="1.97875">
        <ele>126</ele>
        <time>2019-11-24T11:33:46Z</time>
      </trkpt>
      <trkpt lat="48.53654" lon="1.97866">
        <ele>126</ele>
        <time>2019-11-24T11:33:48Z</time>
      </trkpt>
      <trkpt lat="48.53648" lon="1.97852">
        <ele>125</ele>
        <time>2019-11-24T11:33:50Z</time>
      </trkpt>
      <trkpt lat="48.5364" lon="1.97836">
        <ele>124</ele>
        <time>2019-11-24T11:33:52Z</time>
      </trkpt>
      <trkpt lat="48.53626" lon="1.97824">
        <ele>121</ele>
        <time>2019-11-24T11:33:54Z</time>
      </trkpt>
      <trkpt lat="48.53613" lon="1.97819">
        <ele>121</ele>
        <time>2019-11-24T11:33:56Z</time>
      </trkpt>
      <trkpt lat="48.53599" lon="1.97813">
        <ele>120</ele>
        <time>2019-11-24T11:33:58Z</time>
      </trkpt>
      <trkpt lat="48.53586" lon="1.97813">
        <ele>119</ele>
        <time>2019-11-24T11:34:00Z</time>
      </trkpt>
      <trkpt lat="48.53574" lon="1.97817">
        <ele>117</ele>
        <time>2019-11-24T11:34:02Z</time>
      </trkpt>
      <trkpt lat="48.53562" lon="1.97824">
        <ele>117</ele>
        <time>2019-11-24T11:34:04Z</time>
      </trkpt>
      <trkpt lat="48.53552" lon="1.97837">
        <ele>119</ele>
        <time>2019-11-24T11:34:06Z</time>
      </trkpt>
      <trkpt lat="48.53542" lon="1.97846">
        <ele>119</ele>
        <time>2019-11-24T11:34:08Z</time>
      </trkpt>
      <trkpt lat="48.53531" lon="1.97858">
        <ele>119</ele>
        <time>2019-11-24T11:34:10Z</time>
      </trkpt>
      <trkpt lat="48.53522" lon="1.97867">
        <ele>119</ele>
        <time>2019-11-24T11:34:12Z</time>
      </trkpt>
      <trkpt lat="48.53512" lon="1.97871">
        <ele>119</ele>
        <time>2019-11-24T11:34:14Z</time>
      </trkpt>
      <trkpt lat="48.53503" lon="1.97878">
        <ele>119</ele>
        <time>2019-11-24T11:34:16Z</time>
      </trkpt>
      <trkpt lat="48.53492" lon="1.97883">
        <ele>116</ele>
        <time>2019-11-24T11:34:18Z</time>
      </trkpt>
      <trkpt lat="48.53481" lon="1.97889">
        <ele>116</ele>
        <time>2019-11-24T11:34:20Z</time>
      </trkpt>
      <trkpt lat="48.5347" lon="1.97898">
        <ele>116</ele>
        <time>2019-11-24T11:34:22Z</time>
      </trkpt>
      <trkpt lat="48.53458" lon="1.97905">
        <ele>116</ele>
        <time>2019-11-24T11:34:24Z</time>
      </trkpt>
      <trkpt lat="48.53446" lon="1.97916">
        <ele>115</ele>
        <time>2019-11-24T11:34:26Z</time>
      </trkpt>
      <trkpt lat="48.53434" lon="1.97925">
        <ele>118</ele>
        <time>2019-11-24T11:34:28Z</time>
      </trkpt>
      <trkpt lat="48.53424" lon="1.97932">
        <ele>118</ele>
        <time>2019-11-24T11:34:30Z</time>
      </trkpt>
      <trkpt lat="48.53413" lon="1.97941">
        <ele>116</ele>
        <time>2019-11-24T11:34:32Z</time>
      </trkpt>
      <trkpt lat="48.53404" lon="1.97954">
        <ele>117</ele>
        <time>2019-11-24T11:34:34Z</time>
      </trkpt>
      <trkpt lat="48.53394" lon="1.97965">
        <ele>118</ele>
        <time>2019-11-24T11:34:36Z</time>
      </trkpt>
      <trkpt lat="48.53386" lon="1.97973">
        <ele>118</ele>
        <time>2019-11-24T11:34:38Z</time>
      </trkpt>
      <trkpt lat="48.53377" lon="1.97985">
        <ele>118</ele>
        <time>2019-11-24T11:34:40Z</time>
      </trkpt>
      <trkpt lat="48.53371" lon="1.98">
        <ele>119</ele>
        <time>2019-11-24T11:34:42Z</time>
      </trkpt>
      <trkpt lat="48.53364" lon="1.98007">
        <ele>123</ele>
        <time>2019-11-24T11:34:44Z</time>
      </trkpt>
      <trkpt lat="48.5336" lon="1.98012">
        <ele>123</ele>
        <time>2019-11-24T11:34:46Z</time>
      </trkpt>
      <trkpt lat="48.53351" lon="1.98006">
        <ele>122</ele>
        <time>2019-11-24T11:34:50Z</time>
      </trkpt>
      <trkpt lat="48.5335" lon="1.97999">
        <ele>119</ele>
        <time>2019-11-24T11:34:52Z</time>
      </trkpt>
      <trkpt lat="48.53336" lon="1.97993">
        <ele>119</ele>
        <time>2019-11-24T11:34:56Z</time>
      </trkpt>
      <trkpt lat="48.53327" lon="1.9799">
        <ele>120</ele>
        <time>2019-11-24T11:34:58Z</time>
      </trkpt>
      <trkpt lat="48.5332" lon="1.97989">
        <ele>120</ele>
        <time>2019-11-24T11:35:00Z</time>
      </trkpt>
      <trkpt lat="48.53315" lon="1.97985">
        <ele>120</ele>
        <time>2019-11-24T11:35:02Z</time>
      </trkpt>
      <trkpt lat="48.53308" lon="1.97984">
        <ele>120</ele>
        <time>2019-11-24T11:35:04Z</time>
      </trkpt>
      <trkpt lat="48.533" lon="1.97979">
        <ele>120</ele>
        <time>2019-11-24T11:35:06Z</time>
      </trkpt>
      <trkpt lat="48.5329" lon="1.97973">
        <ele>120</ele>
        <time>2019-11-24T11:35:08Z</time>
      </trkpt>
      <trkpt lat="48.5328" lon="1.97966">
        <ele>120</ele>
        <time>2019-11-24T11:35:10Z</time>
      </trkpt>
      <trkpt lat="48.53269" lon="1.97959">
        <ele>120</ele>
        <time>2019-11-24T11:35:12Z</time>
      </trkpt>
      <trkpt lat="48.53259" lon="1.9795">
        <ele>120</ele>
        <time>2019-11-24T11:35:14Z</time>
      </trkpt>
      <trkpt lat="48.53249" lon="1.97943">
        <ele>122</ele>
        <time>2019-11-24T11:35:16Z</time>
      </trkpt>
      <trkpt lat="48.53241" lon="1.97931">
        <ele>121</ele>
        <time>2019-11-24T11:35:18Z</time>
      </trkpt>
      <trkpt lat="48.53229" lon="1.97924">
        <ele>121</ele>
        <time>2019-11-24T11:35:20Z</time>
      </trkpt>
      <trkpt lat="48.53216" lon="1.97912">
        <ele>118</ele>
        <time>2019-11-24T11:35:22Z</time>
      </trkpt>
      <trkpt lat="48.53203" lon="1.97906">
        <ele>119</ele>
        <time>2019-11-24T11:35:24Z</time>
      </trkpt>
      <trkpt lat="48.53195" lon="1.97903">
        <ele>119</ele>
        <time>2019-11-24T11:35:26Z</time>
      </trkpt>
      <trkpt lat="48.53189" lon="1.97899">
        <ele>119</ele>
        <time>2019-11-24T11:35:28Z</time>
      </trkpt>
      <trkpt lat="48.53183" lon="1.97894">
        <ele>119</ele>
        <time>2019-11-24T11:35:30Z</time>
      </trkpt>
      <trkpt lat="48.53174" lon="1.97888">
        <ele>119</ele>
        <time>2019-11-24T11:35:32Z</time>
      </trkpt>
      <trkpt lat="48.53165" lon="1.97882">
        <ele>120</ele>
        <time>2019-11-24T11:35:34Z</time>
      </trkpt>
      <trkpt lat="48.53154" lon="1.97873">
        <ele>119</ele>
        <time>2019-11-24T11:35:36Z</time>
      </trkpt>
      <trkpt lat="48.53141" lon="1.97863">
        <ele>119</ele>
        <time>2019-11-24T11:35:38Z</time>
      </trkpt>
      <trkpt lat="48.53128" lon="1.97856">
        <ele>119</ele>
        <time>2019-11-24T11:35:40Z</time>
      </trkpt>
      <trkpt lat="48.53117" lon="1.97852">
        <ele>118</ele>
        <time>2019-11-24T11:35:42Z</time>
      </trkpt>
      <trkpt lat="48.53107" lon="1.97846">
        <ele>118</ele>
        <time>2019-11-24T11:35:44Z</time>
      </trkpt>
      <trkpt lat="48.53099" lon="1.97845">
        <ele>118</ele>
        <time>2019-11-24T11:35:46Z</time>
      </trkpt>
      <trkpt lat="48.53091" lon="1.97845">
        <ele>118</ele>
        <time>2019-11-24T11:35:48Z</time>
      </trkpt>
      <trkpt lat="48.53086" lon="1.97845">
        <ele>118</ele>
        <time>2019-11-24T11:35:50Z</time>
      </trkpt>
      <trkpt lat="48.53079" lon="1.97845">
        <ele>117</ele>
        <time>2019-11-24T11:35:54Z</time>
      </trkpt>
      <trkpt lat="48.53073" lon="1.97846">
        <ele>116</ele>
        <time>2019-11-24T11:35:56Z</time>
      </trkpt>
      <trkpt lat="48.53068" lon="1.97847">
        <ele>116</ele>
        <time>2019-11-24T11:35:58Z</time>
      </trkpt>
      <trkpt lat="48.5306" lon="1.97847">
        <ele>116</ele>
        <time>2019-11-24T11:36:00Z</time>
      </trkpt>
      <trkpt lat="48.53051" lon="1.97849">
        <ele>116</ele>
        <time>2019-11-24T11:36:02Z</time>
      </trkpt>
      <trkpt lat="48.53042" lon="1.97855">
        <ele>115</ele>
        <time>2019-11-24T11:36:04Z</time>
      </trkpt>
      <trkpt lat="48.53035" lon="1.97865">
        <ele>115</ele>
        <time>2019-11-24T11:36:06Z</time>
      </trkpt>
      <trkpt lat="48.53032" lon="1.97871">
        <ele>115</ele>
        <time>2019-11-24T11:36:08Z</time>
      </trkpt>
      <trkpt lat="48.53029" lon="1.97877">
        <ele>115</ele>
        <time>2019-11-24T11:36:10Z</time>
      </trkpt>
      <trkpt lat="48.53027" lon="1.97885">
        <ele>115</ele>
        <time>2019-11-24T11:36:12Z</time>
      </trkpt>
      <trkpt lat="48.53026" lon="1.97895">
        <ele>115</ele>
        <time>2019-11-24T11:36:14Z</time>
      </trkpt>
      <trkpt lat="48.53027" lon="1.97903">
        <ele>115</ele>
        <time>2019-11-24T11:36:16Z</time>
      </trkpt>
      <trkpt lat="48.53028" lon="1.9791">
        <ele>115</ele>
        <time>2019-11-24T11:36:18Z</time>
      </trkpt>
      <trkpt lat="48.5303" lon="1.97918">
        <ele>116</ele>
        <time>2019-11-24T11:36:20Z</time>
      </trkpt>
      <trkpt lat="48.53033" lon="1.97924">
        <ele>116</ele>
        <time>2019-11-24T11:36:22Z</time>
      </trkpt>
      <trkpt lat="48.53035" lon="1.97934">
        <ele>116</ele>
        <time>2019-11-24T11:36:24Z</time>
      </trkpt>
      <trkpt lat="48.53036" lon="1.97946">
        <ele>116</ele>
        <time>2019-11-24T11:36:26Z</time>
      </trkpt>
      <trkpt lat="48.53036" lon="1.97961">
        <ele>116</ele>
        <time>2019-11-24T11:36:28Z</time>
      </trkpt>
      <trkpt lat="48.53041" lon="1.97972">
        <ele>117</ele>
        <time>2019-11-24T11:36:30Z</time>
      </trkpt>
      <trkpt lat="48.53045" lon="1.97983">
        <ele>117</ele>
        <time>2019-11-24T11:36:32Z</time>
      </trkpt>
      <trkpt lat="48.53043" lon="1.97995">
        <ele>117</ele>
        <time>2019-11-24T11:36:34Z</time>
      </trkpt>
      <trkpt lat="48.53035" lon="1.98004">
        <ele>115</ele>
        <time>2019-11-24T11:36:36Z</time>
      </trkpt>
      <trkpt lat="48.53025" lon="1.98011">
        <ele>114</ele>
        <time>2019-11-24T11:36:38Z</time>
      </trkpt>
      <trkpt lat="48.53019" lon="1.98008">
        <ele>114</ele>
        <time>2019-11-24T11:36:40Z</time>
      </trkpt>
      <trkpt lat="48.5301" lon="1.98003">
        <ele>113</ele>
        <time>2019-11-24T11:36:42Z</time>
      </trkpt>
      <trkpt lat="48.53004" lon="1.9801">
        <ele>112</ele>
        <time>2019-11-24T11:36:44Z</time>
      </trkpt>
      <trkpt lat="48.53001" lon="1.98031">
        <ele>113</ele>
        <time>2019-11-24T11:36:46Z</time>
      </trkpt>
      <trkpt lat="48.53" lon="1.98052">
        <ele>113</ele>
        <time>2019-11-24T11:36:48Z</time>
      </trkpt>
      <trkpt lat="48.52997" lon="1.9807">
        <ele>109</ele>
        <time>2019-11-24T11:36:50Z</time>
      </trkpt>
      <trkpt lat="48.52988" lon="1.98088">
        <ele>108</ele>
        <time>2019-11-24T11:36:52Z</time>
      </trkpt>
      <trkpt lat="48.52978" lon="1.98098">
        <ele>107</ele>
        <time>2019-11-24T11:36:54Z</time>
      </trkpt>
      <trkpt lat="48.52972" lon="1.98109">
        <ele>107</ele>
        <time>2019-11-24T11:36:56Z</time>
      </trkpt>
      <trkpt lat="48.52973" lon="1.98122">
        <ele>107</ele>
        <time>2019-11-24T11:36:58Z</time>
      </trkpt>
      <trkpt lat="48.52977" lon="1.98128">
        <ele>107</ele>
        <time>2019-11-24T11:37:00Z</time>
      </trkpt>
      <trkpt lat="48.52983" lon="1.98134">
        <ele>107</ele>
        <time>2019-11-24T11:37:04Z</time>
      </trkpt>
      <trkpt lat="48.52986" lon="1.98143">
        <ele>107</ele>
        <time>2019-11-24T11:37:08Z</time>
      </trkpt>
      <trkpt lat="48.5299" lon="1.98152">
        <ele>107</ele>
        <time>2019-11-24T11:37:12Z</time>
      </trkpt>
      <trkpt lat="48.52992" lon="1.98161">
        <ele>107</ele>
        <time>2019-11-24T11:37:16Z</time>
      </trkpt>
      <trkpt lat="48.52995" lon="1.98171">
        <ele>107</ele>
        <time>2019-11-24T11:37:26Z</time>
      </trkpt>
      <trkpt lat="48.52997" lon="1.98177">
        <ele>107</ele>
        <time>2019-11-24T11:37:28Z</time>
      </trkpt>
      <trkpt lat="48.53" lon="1.98184">
        <ele>107</ele>
        <time>2019-11-24T11:37:30Z</time>
      </trkpt>
      <trkpt lat="48.53002" lon="1.9819">
        <ele>110</ele>
        <time>2019-11-24T11:37:32Z</time>
      </trkpt>
      <trkpt lat="48.53006" lon="1.98202">
        <ele>110</ele>
        <time>2019-11-24T11:37:36Z</time>
      </trkpt>
      <trkpt lat="48.53008" lon="1.98208">
        <ele>110</ele>
        <time>2019-11-24T11:37:38Z</time>
      </trkpt>
      <trkpt lat="48.5301" lon="1.98215">
        <ele>110</ele>
        <time>2019-11-24T11:37:40Z</time>
      </trkpt>
      <trkpt lat="48.53011" lon="1.98222">
        <ele>110</ele>
        <time>2019-11-24T11:37:42Z</time>
      </trkpt>
      <trkpt lat="48.53015" lon="1.98232">
        <ele>110</ele>
        <time>2019-11-24T11:37:46Z</time>
      </trkpt>
      <trkpt lat="48.53017" lon="1.98243">
        <ele>109</ele>
        <time>2019-11-24T11:37:50Z</time>
      </trkpt>
      <trkpt lat="48.53019" lon="1.9825">
        <ele>109</ele>
        <time>2019-11-24T11:37:52Z</time>
      </trkpt>
      <trkpt lat="48.53023" lon="1.98262">
        <ele>109</ele>
        <time>2019-11-24T11:37:54Z</time>
      </trkpt>
      <trkpt lat="48.53025" lon="1.98273">
        <ele>109</ele>
        <time>2019-11-24T11:37:56Z</time>
      </trkpt>
      <trkpt lat="48.53029" lon="1.98285">
        <ele>109</ele>
        <time>2019-11-24T11:37:58Z</time>
      </trkpt>
      <trkpt lat="48.53032" lon="1.98299">
        <ele>109</ele>
        <time>2019-11-24T11:38:00Z</time>
      </trkpt>
      <trkpt lat="48.53035" lon="1.98314">
        <ele>109</ele>
        <time>2019-11-24T11:38:02Z</time>
      </trkpt>
      <trkpt lat="48.53041" lon="1.98328">
        <ele>109</ele>
        <time>2019-11-24T11:38:04Z</time>
      </trkpt>
      <trkpt lat="48.53046" lon="1.98342">
        <ele>109</ele>
        <time>2019-11-24T11:38:06Z</time>
      </trkpt>
      <trkpt lat="48.53051" lon="1.98357">
        <ele>109</ele>
        <time>2019-11-24T11:38:08Z</time>
      </trkpt>
      <trkpt lat="48.53055" lon="1.98374">
        <ele>109</ele>
        <time>2019-11-24T11:38:10Z</time>
      </trkpt>
      <trkpt lat="48.5306" lon="1.98389">
        <ele>109</ele>
        <time>2019-11-24T11:38:12Z</time>
      </trkpt>
      <trkpt lat="48.53064" lon="1.98404">
        <ele>109</ele>
        <time>2019-11-24T11:38:14Z</time>
      </trkpt>
      <trkpt lat="48.53067" lon="1.98417">
        <ele>108</ele>
        <time>2019-11-24T11:38:16Z</time>
      </trkpt>
      <trkpt lat="48.53071" lon="1.98429">
        <ele>108</ele>
        <time>2019-11-24T11:38:18Z</time>
      </trkpt>
      <trkpt lat="48.53074" lon="1.98444">
        <ele>108</ele>
        <time>2019-11-24T11:38:20Z</time>
      </trkpt>
      <trkpt lat="48.53075" lon="1.98458">
        <ele>107</ele>
        <time>2019-11-24T11:38:22Z</time>
      </trkpt>
      <trkpt lat="48.53078" lon="1.98472">
        <ele>107</ele>
        <time>2019-11-24T11:38:24Z</time>
      </trkpt>
      <trkpt lat="48.5308" lon="1.98487">
        <ele>107</ele>
        <time>2019-11-24T11:38:26Z</time>
      </trkpt>
      <trkpt lat="48.53083" lon="1.985">
        <ele>108</ele>
        <time>2019-11-24T11:38:28Z</time>
      </trkpt>
      <trkpt lat="48.53085" lon="1.98513">
        <ele>108</ele>
        <time>2019-11-24T11:38:30Z</time>
      </trkpt>
      <trkpt lat="48.53088" lon="1.98525">
        <ele>108</ele>
        <time>2019-11-24T11:38:32Z</time>
      </trkpt>
      <trkpt lat="48.5309" lon="1.98537">
        <ele>109</ele>
        <time>2019-11-24T11:38:34Z</time>
      </trkpt>
      <trkpt lat="48.53093" lon="1.98549">
        <ele>108</ele>
        <time>2019-11-24T11:38:36Z</time>
      </trkpt>
      <trkpt lat="48.53096" lon="1.98563">
        <ele>108</ele>
        <time>2019-11-24T11:38:38Z</time>
      </trkpt>
      <trkpt lat="48.53098" lon="1.98575">
        <ele>108</ele>
        <time>2019-11-24T11:38:40Z</time>
      </trkpt>
      <trkpt lat="48.531" lon="1.98587">
        <ele>107</ele>
        <time>2019-11-24T11:38:42Z</time>
      </trkpt>
      <trkpt lat="48.53103" lon="1.98597">
        <ele>107</ele>
        <time>2019-11-24T11:38:44Z</time>
      </trkpt>
      <trkpt lat="48.53105" lon="1.98608">
        <ele>107</ele>
        <time>2019-11-24T11:38:46Z</time>
      </trkpt>
      <trkpt lat="48.53109" lon="1.98618">
        <ele>107</ele>
        <time>2019-11-24T11:38:48Z</time>
      </trkpt>
      <trkpt lat="48.53111" lon="1.98628">
        <ele>107</ele>
        <time>2019-11-24T11:38:50Z</time>
      </trkpt>
      <trkpt lat="48.53114" lon="1.9864">
        <ele>107</ele>
        <time>2019-11-24T11:38:52Z</time>
      </trkpt>
      <trkpt lat="48.53117" lon="1.98652">
        <ele>107</ele>
        <time>2019-11-24T11:38:54Z</time>
      </trkpt>
      <trkpt lat="48.53118" lon="1.98663">
        <ele>107</ele>
        <time>2019-11-24T11:38:56Z</time>
      </trkpt>
      <trkpt lat="48.53119" lon="1.98672">
        <ele>107</ele>
        <time>2019-11-24T11:38:58Z</time>
      </trkpt>
      <trkpt lat="48.53126" lon="1.98669">
        <ele>107</ele>
        <time>2019-11-24T11:39:02Z</time>
      </trkpt>
      <trkpt lat="48.53131" lon="1.98667">
        <ele>107</ele>
        <time>2019-11-24T11:39:04Z</time>
      </trkpt>
      <trkpt lat="48.53137" lon="1.98665">
        <ele>107</ele>
        <time>2019-11-24T11:39:06Z</time>
      </trkpt>
      <trkpt lat="48.53143" lon="1.98661">
        <ele>107</ele>
        <time>2019-11-24T11:39:08Z</time>
      </trkpt>
      <trkpt lat="48.53147" lon="1.98653">
        <ele>107</ele>
        <time>2019-11-24T11:39:10Z</time>
      </trkpt>
      <trkpt lat="48.53151" lon="1.98647">
        <ele>108</ele>
        <time>2019-11-24T11:39:12Z</time>
      </trkpt>
      <trkpt lat="48.53155" lon="1.98641">
        <ele>108</ele>
        <time>2019-11-24T11:39:14Z</time>
      </trkpt>
      <trkpt lat="48.53162" lon="1.98637">
        <ele>108</ele>
        <time>2019-11-24T11:39:18Z</time>
      </trkpt>
      <trkpt lat="48.53169" lon="1.98633">
        <ele>109</ele>
        <time>2019-11-24T11:39:22Z</time>
      </trkpt>
      <trkpt lat="48.53176" lon="1.98632">
        <ele>109</ele>
        <time>2019-11-24T11:39:26Z</time>
      </trkpt>
      <trkpt lat="48.53181" lon="1.98628">
        <ele>109</ele>
        <time>2019-11-24T11:39:30Z</time>
      </trkpt>
      <trkpt lat="48.53189" lon="1.98625">
        <ele>109</ele>
        <time>2019-11-24T11:39:34Z</time>
      </trkpt>
      <trkpt lat="48.53193" lon="1.98623">
        <ele>109</ele>
        <time>2019-11-24T11:39:36Z</time>
      </trkpt>
      <trkpt lat="48.53202" lon="1.98623">
        <ele>109</ele>
        <time>2019-11-24T11:39:40Z</time>
      </trkpt>
      <trkpt lat="48.53209" lon="1.98626">
        <ele>109</ele>
        <time>2019-11-24T11:39:44Z</time>
      </trkpt>
      <trkpt lat="48.53217" lon="1.98627">
        <ele>110</ele>
        <time>2019-11-24T11:39:48Z</time>
      </trkpt>
      <trkpt lat="48.53223" lon="1.98628">
        <ele>110</ele>
        <time>2019-11-24T11:39:50Z</time>
      </trkpt>
      <trkpt lat="48.53232" lon="1.98628">
        <ele>110</ele>
        <time>2019-11-24T11:39:54Z</time>
      </trkpt>
      <trkpt lat="48.53237" lon="1.9863">
        <ele>110</ele>
        <time>2019-11-24T11:39:56Z</time>
      </trkpt>
      <trkpt lat="48.53244" lon="1.98635">
        <ele>110</ele>
        <time>2019-11-24T11:39:58Z</time>
      </trkpt>
      <trkpt lat="48.5325" lon="1.98642">
        <ele>111</ele>
        <time>2019-11-24T11:40:00Z</time>
      </trkpt>
      <trkpt lat="48.53256" lon="1.98649">
        <ele>110</ele>
        <time>2019-11-24T11:40:02Z</time>
      </trkpt>
      <trkpt lat="48.53263" lon="1.98656">
        <ele>110</ele>
        <time>2019-11-24T11:40:04Z</time>
      </trkpt>
      <trkpt lat="48.53271" lon="1.98661">
        <ele>111</ele>
        <time>2019-11-24T11:40:06Z</time>
      </trkpt>
      <trkpt lat="48.53276" lon="1.98666">
        <ele>111</ele>
        <time>2019-11-24T11:40:08Z</time>
      </trkpt>
      <trkpt lat="48.53283" lon="1.98675">
        <ele>110</ele>
        <time>2019-11-24T11:40:10Z</time>
      </trkpt>
      <trkpt lat="48.53289" lon="1.98682">
        <ele>110</ele>
        <time>2019-11-24T11:40:12Z</time>
      </trkpt>
      <trkpt lat="48.53294" lon="1.98688">
        <ele>110</ele>
        <time>2019-11-24T11:40:14Z</time>
      </trkpt>
      <trkpt lat="48.53299" lon="1.98696">
        <ele>110</ele>
        <time>2019-11-24T11:40:16Z</time>
      </trkpt>
      <trkpt lat="48.53305" lon="1.98704">
        <ele>110</ele>
        <time>2019-11-24T11:40:18Z</time>
      </trkpt>
      <trkpt lat="48.53312" lon="1.98712">
        <ele>110</ele>
        <time>2019-11-24T11:40:20Z</time>
      </trkpt>
      <trkpt lat="48.53316" lon="1.98722">
        <ele>110</ele>
        <time>2019-11-24T11:40:22Z</time>
      </trkpt>
      <trkpt lat="48.53322" lon="1.98732">
        <ele>110</ele>
        <time>2019-11-24T11:40:24Z</time>
      </trkpt>
      <trkpt lat="48.53327" lon="1.98742">
        <ele>111</ele>
        <time>2019-11-24T11:40:26Z</time>
      </trkpt>
      <trkpt lat="48.53332" lon="1.98753">
        <ele>111</ele>
        <time>2019-11-24T11:40:28Z</time>
      </trkpt>
      <trkpt lat="48.53337" lon="1.98762">
        <ele>112</ele>
        <time>2019-11-24T11:40:30Z</time>
      </trkpt>
      <trkpt lat="48.53341" lon="1.98771">
        <ele>112</ele>
        <time>2019-11-24T11:40:32Z</time>
      </trkpt>
      <trkpt lat="48.53346" lon="1.98779">
        <ele>112</ele>
        <time>2019-11-24T11:40:34Z</time>
      </trkpt>
      <trkpt lat="48.5335" lon="1.98786">
        <ele>112</ele>
        <time>2019-11-24T11:40:36Z</time>
      </trkpt>
      <trkpt lat="48.53357" lon="1.98795">
        <ele>112</ele>
        <time>2019-11-24T11:40:38Z</time>
      </trkpt>
      <trkpt lat="48.53362" lon="1.98804">
        <ele>112</ele>
        <time>2019-11-24T11:40:40Z</time>
      </trkpt>
      <trkpt lat="48.53368" lon="1.98813">
        <ele>112</ele>
        <time>2019-11-24T11:40:42Z</time>
      </trkpt>
      <trkpt lat="48.53372" lon="1.98824">
        <ele>112</ele>
        <time>2019-11-24T11:40:44Z</time>
      </trkpt>
      <trkpt lat="48.53379" lon="1.9883">
        <ele>112</ele>
        <time>2019-11-24T11:40:46Z</time>
      </trkpt>
      <trkpt lat="48.53385" lon="1.98839">
        <ele>110</ele>
        <time>2019-11-24T11:40:48Z</time>
      </trkpt>
      <trkpt lat="48.5339" lon="1.98846">
        <ele>110</ele>
        <time>2019-11-24T11:40:50Z</time>
      </trkpt>
      <trkpt lat="48.53394" lon="1.98854">
        <ele>110</ele>
        <time>2019-11-24T11:40:52Z</time>
      </trkpt>
      <trkpt lat="48.53398" lon="1.98862">
        <ele>110</ele>
        <time>2019-11-24T11:40:54Z</time>
      </trkpt>
      <trkpt lat="48.53403" lon="1.98871">
        <ele>109</ele>
        <time>2019-11-24T11:40:56Z</time>
      </trkpt>
      <trkpt lat="48.53408" lon="1.98878">
        <ele>109</ele>
        <time>2019-11-24T11:40:58Z</time>
      </trkpt>
      <trkpt lat="48.53412" lon="1.98887">
        <ele>109</ele>
        <time>2019-11-24T11:41:00Z</time>
      </trkpt>
      <trkpt lat="48.53417" lon="1.98894">
        <ele>109</ele>
        <time>2019-11-24T11:41:02Z</time>
      </trkpt>
      <trkpt lat="48.5342" lon="1.989">
        <ele>111</ele>
        <time>2019-11-24T11:41:04Z</time>
      </trkpt>
      <trkpt lat="48.53424" lon="1.98909">
        <ele>111</ele>
        <time>2019-11-24T11:41:06Z</time>
      </trkpt>
      <trkpt lat="48.53428" lon="1.98919">
        <ele>110</ele>
        <time>2019-11-24T11:41:08Z</time>
      </trkpt>
      <trkpt lat="48.53431" lon="1.98931">
        <ele>110</ele>
        <time>2019-11-24T11:41:10Z</time>
      </trkpt>
      <trkpt lat="48.53434" lon="1.98943">
        <ele>110</ele>
        <time>2019-11-24T11:41:12Z</time>
      </trkpt>
      <trkpt lat="48.53433" lon="1.98952">
        <ele>110</ele>
        <time>2019-11-24T11:41:14Z</time>
      </trkpt>
      <trkpt lat="48.53434" lon="1.98963">
        <ele>110</ele>
        <time>2019-11-24T11:41:16Z</time>
      </trkpt>
      <trkpt lat="48.53436" lon="1.98975">
        <ele>110</ele>
        <time>2019-11-24T11:41:18Z</time>
      </trkpt>
      <trkpt lat="48.53437" lon="1.98989">
        <ele>110</ele>
        <time>2019-11-24T11:41:20Z</time>
      </trkpt>
      <trkpt lat="48.53439" lon="1.99001">
        <ele>109</ele>
        <time>2019-11-24T11:41:22Z</time>
      </trkpt>
      <trkpt lat="48.53441" lon="1.99014">
        <ele>109</ele>
        <time>2019-11-24T11:41:24Z</time>
      </trkpt>
      <trkpt lat="48.53442" lon="1.99028">
        <ele>109</ele>
        <time>2019-11-24T11:41:26Z</time>
      </trkpt>
      <trkpt lat="48.53444" lon="1.9904">
        <ele>109</ele>
        <time>2019-11-24T11:41:28Z</time>
      </trkpt>
      <trkpt lat="48.53444" lon="1.99053">
        <ele>109</ele>
        <time>2019-11-24T11:41:30Z</time>
      </trkpt>
      <trkpt lat="48.53446" lon="1.99064">
        <ele>109</ele>
        <time>2019-11-24T11:41:32Z</time>
      </trkpt>
      <trkpt lat="48.53448" lon="1.99076">
        <ele>109</ele>
        <time>2019-11-24T11:41:34Z</time>
      </trkpt>
      <trkpt lat="48.53448" lon="1.99089">
        <ele>109</ele>
        <time>2019-11-24T11:41:36Z</time>
      </trkpt>
      <trkpt lat="48.53449" lon="1.99102">
        <ele>109</ele>
        <time>2019-11-24T11:41:38Z</time>
      </trkpt>
      <trkpt lat="48.5345" lon="1.99115">
        <ele>109</ele>
        <time>2019-11-24T11:41:40Z</time>
      </trkpt>
      <trkpt lat="48.53451" lon="1.99127">
        <ele>109</ele>
        <time>2019-11-24T11:41:42Z</time>
      </trkpt>
      <trkpt lat="48.53451" lon="1.99139">
        <ele>109</ele>
        <time>2019-11-24T11:41:44Z</time>
      </trkpt>
      <trkpt lat="48.53452" lon="1.99152">
        <ele>109</ele>
        <time>2019-11-24T11:41:46Z</time>
      </trkpt>
      <trkpt lat="48.53452" lon="1.99164">
        <ele>109</ele>
        <time>2019-11-24T11:41:48Z</time>
      </trkpt>
      <trkpt lat="48.53453" lon="1.99176">
        <ele>109</ele>
        <time>2019-11-24T11:41:50Z</time>
      </trkpt>
      <trkpt lat="48.53454" lon="1.99189">
        <ele>109</ele>
        <time>2019-11-24T11:41:52Z</time>
      </trkpt>
      <trkpt lat="48.53455" lon="1.992">
        <ele>109</ele>
        <time>2019-11-24T11:41:54Z</time>
      </trkpt>
      <trkpt lat="48.53455" lon="1.99212">
        <ele>109</ele>
        <time>2019-11-24T11:41:56Z</time>
      </trkpt>
      <trkpt lat="48.53455" lon="1.99223">
        <ele>109</ele>
        <time>2019-11-24T11:41:58Z</time>
      </trkpt>
      <trkpt lat="48.53455" lon="1.99234">
        <ele>109</ele>
        <time>2019-11-24T11:42:00Z</time>
      </trkpt>
      <trkpt lat="48.53455" lon="1.99245">
        <ele>109</ele>
        <time>2019-11-24T11:42:02Z</time>
      </trkpt>
      <trkpt lat="48.53456" lon="1.99256">
        <ele>110</ele>
        <time>2019-11-24T11:42:04Z</time>
      </trkpt>
      <trkpt lat="48.53457" lon="1.99266">
        <ele>110</ele>
        <time>2019-11-24T11:42:06Z</time>
      </trkpt>
      <trkpt lat="48.53458" lon="1.99277">
        <ele>110</ele>
        <time>2019-11-24T11:42:08Z</time>
      </trkpt>
      <trkpt lat="48.53458" lon="1.99287">
        <ele>110</ele>
        <time>2019-11-24T11:42:10Z</time>
      </trkpt>
      <trkpt lat="48.53459" lon="1.99297">
        <ele>111</ele>
        <time>2019-11-24T11:42:12Z</time>
      </trkpt>
      <trkpt lat="48.5346" lon="1.99307">
        <ele>111</ele>
        <time>2019-11-24T11:42:14Z</time>
      </trkpt>
      <trkpt lat="48.53462" lon="1.99318">
        <ele>111</ele>
        <time>2019-11-24T11:42:16Z</time>
      </trkpt>
      <trkpt lat="48.53462" lon="1.99328">
        <ele>111</ele>
        <time>2019-11-24T11:42:18Z</time>
      </trkpt>
      <trkpt lat="48.53463" lon="1.99339">
        <ele>112</ele>
        <time>2019-11-24T11:42:20Z</time>
      </trkpt>
      <trkpt lat="48.53464" lon="1.99351">
        <ele>112</ele>
        <time>2019-11-24T11:42:22Z</time>
      </trkpt>
      <trkpt lat="48.53465" lon="1.99362">
        <ele>112</ele>
        <time>2019-11-24T11:42:24Z</time>
      </trkpt>
      <trkpt lat="48.53465" lon="1.99373">
        <ele>112</ele>
        <time>2019-11-24T11:42:26Z</time>
      </trkpt>
      <trkpt lat="48.53466" lon="1.99383">
        <ele>112</ele>
        <time>2019-11-24T11:42:28Z</time>
      </trkpt>
      <trkpt lat="48.53468" lon="1.99394">
        <ele>112</ele>
        <time>2019-11-24T11:42:30Z</time>
      </trkpt>
      <trkpt lat="48.53469" lon="1.99406">
        <ele>112</ele>
        <time>2019-11-24T11:42:32Z</time>
      </trkpt>
      <trkpt lat="48.5347" lon="1.99416">
        <ele>112</ele>
        <time>2019-11-24T11:42:34Z</time>
      </trkpt>
      <trkpt lat="48.53469" lon="1.99427">
        <ele>112</ele>
        <time>2019-11-24T11:42:36Z</time>
      </trkpt>
      <trkpt lat="48.53467" lon="1.99433">
        <ele>112</ele>
        <time>2019-11-24T11:42:38Z</time>
      </trkpt>
      <trkpt lat="48.53462" lon="1.99436">
        <ele>111</ele>
        <time>2019-11-24T11:42:40Z</time>
      </trkpt>
      <trkpt lat="48.53457" lon="1.99437">
        <ele>111</ele>
        <time>2019-11-24T11:42:50Z</time>
      </trkpt>
      <trkpt lat="48.53451" lon="1.99436">
        <ele>111</ele>
        <time>2019-11-24T11:42:54Z</time>
      </trkpt>
      <trkpt lat="48.53447" lon="1.99436">
        <ele>111</ele>
        <time>2019-11-24T11:42:56Z</time>
      </trkpt>
      <trkpt lat="48.53438" lon="1.99435">
        <ele>111</ele>
        <time>2019-11-24T11:43:00Z</time>
      </trkpt>
      <trkpt lat="48.53432" lon="1.99433">
        <ele>111</ele>
        <time>2019-11-24T11:43:02Z</time>
      </trkpt>
      <trkpt lat="48.53427" lon="1.99432">
        <ele>111</ele>
        <time>2019-11-24T11:43:04Z</time>
      </trkpt>
      <trkpt lat="48.53422" lon="1.9943">
        <ele>111</ele>
        <time>2019-11-24T11:43:06Z</time>
      </trkpt>
      <trkpt lat="48.53418" lon="1.99428">
        <ele>110</ele>
        <time>2019-11-24T11:43:14Z</time>
      </trkpt>
    </trkseg>
  </trk>
</gpx>